<?xml version="1.0" encoding="UTF-8" standalone="no" ?>
<gpx xmlns="http://www.topografix.com/GPX/1/1" xmlns:xsi="http://www.w3.org/2001/XMLSchema-instance" xsi:schemaLocation="http://www.topografix.com/GPX/1/1 http://www.topografix.com/GPX/1/1/gpx.xsd" version="1.1" creator="VisuGPX - https://www.visugpx.com">
  <metadata>
    <name>Balade hivernale</name>
    <desc><![CDATA[Balade effectuée du 9 décembre 2022 au 7 janvier 2023.]]></desc>
  </metadata>
  <trk>
    <name><![CDATA[Rostrenen - Pontivy]]></name>
    <extensions>
      <line xmlns="http://www.topografix.com/GPX/gpx_style/0/2">
        <color>ff0000</color>
        <width>4</width>
      </line>
    </extensions>
    <trkseg>
      <trkpt lat="48.23285" lon="-3.3167">
        <ele>268.65934</ele>
        <time>2022-12-12T11:08:17.764Z</time>
      </trkpt>
      <trkpt lat="48.23295" lon="-3.31663">
        <ele>268.65934</ele>
        <time>2022-12-12T11:09:46.751Z</time>
      </trkpt>
      <trkpt lat="48.23305" lon="-3.31665">
        <ele>268.65934</ele>
        <time>2022-12-12T11:09:49.753Z</time>
      </trkpt>
      <trkpt lat="48.23316" lon="-3.31664">
        <ele>268.65934</ele>
        <time>2022-12-12T11:09:52.765Z</time>
      </trkpt>
      <trkpt lat="48.23328" lon="-3.31662">
        <ele>268.65934</ele>
        <time>2022-12-12T11:09:55.751Z</time>
      </trkpt>
      <trkpt lat="48.23339" lon="-3.31656">
        <ele>268.65934</ele>
        <time>2022-12-12T11:09:58.746Z</time>
      </trkpt>
      <trkpt lat="48.23348" lon="-3.31648">
        <ele>268.65934</ele>
        <time>2022-12-12T11:10:01.747Z</time>
      </trkpt>
      <trkpt lat="48.23358" lon="-3.31642">
        <ele>268.65934</ele>
        <time>2022-12-12T11:10:04.765Z</time>
      </trkpt>
      <trkpt lat="48.23367" lon="-3.31637">
        <ele>268.65934</ele>
        <time>2022-12-12T11:10:07.754Z</time>
      </trkpt>
      <trkpt lat="48.23379" lon="-3.31632">
        <ele>268.472169</ele>
        <time>2022-12-12T11:10:10.764Z</time>
      </trkpt>
      <trkpt lat="48.23388" lon="-3.31632">
        <ele>268.251227</ele>
        <time>2022-12-12T11:10:12.743Z</time>
      </trkpt>
      <trkpt lat="48.23398" lon="-3.31635">
        <ele>268.033245</ele>
        <time>2022-12-12T11:10:14.749Z</time>
      </trkpt>
      <trkpt lat="48.23408" lon="-3.31639">
        <ele>267.794122</ele>
        <time>2022-12-12T11:10:16.754Z</time>
      </trkpt>
      <trkpt lat="48.23419" lon="-3.31643">
        <ele>267.546573</ele>
        <time>2022-12-12T11:10:18.754Z</time>
      </trkpt>
      <trkpt lat="48.23428" lon="-3.31648">
        <ele>267.324946</ele>
        <time>2022-12-12T11:10:20.763Z</time>
      </trkpt>
      <trkpt lat="48.23437" lon="-3.31654">
        <ele>267.11228</ele>
        <time>2022-12-12T11:10:22.762Z</time>
      </trkpt>
      <trkpt lat="48.23446" lon="-3.31656">
        <ele>266.898726</ele>
        <time>2022-12-12T11:10:24.761Z</time>
      </trkpt>
      <trkpt lat="48.23455" lon="-3.31658">
        <ele>266.694574</ele>
        <time>2022-12-12T11:10:26.764Z</time>
      </trkpt>
      <trkpt lat="48.23468" lon="-3.31662">
        <ele>266.406739</ele>
        <time>2022-12-12T11:10:29.760Z</time>
      </trkpt>
      <trkpt lat="48.2348" lon="-3.31667">
        <ele>266.119449</ele>
        <time>2022-12-12T11:10:32.748Z</time>
      </trkpt>
      <trkpt lat="48.23491" lon="-3.31671">
        <ele>265.853649</ele>
        <time>2022-12-12T11:10:35.745Z</time>
      </trkpt>
      <trkpt lat="48.23501" lon="-3.31675">
        <ele>265.620007</ele>
        <time>2022-12-12T11:10:38.764Z</time>
      </trkpt>
      <trkpt lat="48.23511" lon="-3.31681">
        <ele>265.380416</ele>
        <time>2022-12-12T11:10:43.757Z</time>
      </trkpt>
      <trkpt lat="48.23521" lon="-3.31684">
        <ele>265.168166</ele>
        <time>2022-12-12T11:10:48.754Z</time>
      </trkpt>
      <trkpt lat="48.2353" lon="-3.31689">
        <ele>264.941208</ele>
        <time>2022-12-12T11:10:53.763Z</time>
      </trkpt>
      <trkpt lat="48.2354" lon="-3.31692">
        <ele>264.706281</ele>
        <time>2022-12-12T11:10:58.747Z</time>
      </trkpt>
      <trkpt lat="48.2355" lon="-3.31696">
        <ele>264.600138</ele>
        <time>2022-12-12T11:11:03.753Z</time>
      </trkpt>
      <trkpt lat="48.2356" lon="-3.31702">
        <ele>264.591868</ele>
        <time>2022-12-12T11:11:08.754Z</time>
      </trkpt>
      <trkpt lat="48.23569" lon="-3.31707">
        <ele>264.584748</ele>
        <time>2022-12-12T11:11:12.762Z</time>
      </trkpt>
      <trkpt lat="48.23576" lon="-3.31717">
        <ele>264.577894</ele>
        <time>2022-12-12T11:11:19.752Z</time>
      </trkpt>
      <trkpt lat="48.23582" lon="-3.31728">
        <ele>264.570831</ele>
        <time>2022-12-12T11:11:25.748Z</time>
      </trkpt>
      <trkpt lat="48.23589" lon="-3.31736">
        <ele>264.564078</ele>
        <time>2022-12-12T11:11:29.750Z</time>
      </trkpt>
      <trkpt lat="48.23598" lon="-3.31746">
        <ele>264.556019</ele>
        <time>2022-12-12T11:11:34.748Z</time>
      </trkpt>
      <trkpt lat="48.236" lon="-3.31761">
        <ele>264.548587</ele>
        <time>2022-12-12T11:11:41.746Z</time>
      </trkpt>
      <trkpt lat="48.23596" lon="-3.31773">
        <ele>264.54164</ele>
        <time>2022-12-12T11:11:45.745Z</time>
      </trkpt>
      <trkpt lat="48.23596" lon="-3.31788">
        <ele>264.534427</ele>
        <time>2022-12-12T11:11:49.753Z</time>
      </trkpt>
      <trkpt lat="48.23598" lon="-3.31803">
        <ele>264.526743</ele>
        <time>2022-12-12T11:11:52.763Z</time>
      </trkpt>
      <trkpt lat="48.236" lon="-3.31821">
        <ele>264.517806</ele>
        <time>2022-12-12T11:11:56.765Z</time>
      </trkpt>
      <trkpt lat="48.23597" lon="-3.31838">
        <ele>264.509101</ele>
        <time>2022-12-12T11:11:59.748Z</time>
      </trkpt>
      <trkpt lat="48.23594" lon="-3.31854">
        <ele>264.500782</ele>
        <time>2022-12-12T11:12:02.762Z</time>
      </trkpt>
      <trkpt lat="48.23592" lon="-3.31869">
        <ele>264.493476</ele>
        <time>2022-12-12T11:12:05.763Z</time>
      </trkpt>
      <trkpt lat="48.2359" lon="-3.31882">
        <ele>264.486496</ele>
        <time>2022-12-12T11:12:08.765Z</time>
      </trkpt>
      <trkpt lat="48.23589" lon="-3.31901">
        <ele>264.477239</ele>
        <time>2022-12-12T11:12:12.764Z</time>
      </trkpt>
      <trkpt lat="48.23587" lon="-3.3192">
        <ele>264.34346</ele>
        <time>2022-12-12T11:12:15.763Z</time>
      </trkpt>
      <trkpt lat="48.23583" lon="-3.31937">
        <ele>263.929798</ele>
        <time>2022-12-12T11:12:18.763Z</time>
      </trkpt>
      <trkpt lat="48.23578" lon="-3.31951">
        <ele>263.553257</ele>
        <time>2022-12-12T11:12:21.747Z</time>
      </trkpt>
      <trkpt lat="48.23572" lon="-3.31961">
        <ele>263.22415</ele>
        <time>2022-12-12T11:12:24.750Z</time>
      </trkpt>
      <trkpt lat="48.23564" lon="-3.31968">
        <ele>262.910277</ele>
        <time>2022-12-12T11:12:27.751Z</time>
      </trkpt>
      <trkpt lat="48.23554" lon="-3.31974">
        <ele>262.544073</ele>
        <time>2022-12-12T11:12:30.749Z</time>
      </trkpt>
      <trkpt lat="48.23544" lon="-3.31978">
        <ele>262.152379</ele>
        <time>2022-12-12T11:12:33.749Z</time>
      </trkpt>
      <trkpt lat="48.23533" lon="-3.31984">
        <ele>261.764641</ele>
        <time>2022-12-12T11:12:36.751Z</time>
      </trkpt>
      <trkpt lat="48.23522" lon="-3.31989">
        <ele>261.336691</ele>
        <time>2022-12-12T11:12:39.767Z</time>
      </trkpt>
      <trkpt lat="48.23509" lon="-3.31992">
        <ele>260.897065</ele>
        <time>2022-12-12T11:12:42.750Z</time>
      </trkpt>
      <trkpt lat="48.23497" lon="-3.31992">
        <ele>260.459439</ele>
        <time>2022-12-12T11:12:45.746Z</time>
      </trkpt>
      <trkpt lat="48.23485" lon="-3.31988">
        <ele>260.028674</ele>
        <time>2022-12-12T11:12:48.754Z</time>
      </trkpt>
      <trkpt lat="48.23473" lon="-3.31981">
        <ele>259.582841</ele>
        <time>2022-12-12T11:12:51.745Z</time>
      </trkpt>
      <trkpt lat="48.23461" lon="-3.31973">
        <ele>259.129655</ele>
        <time>2022-12-12T11:12:54.762Z</time>
      </trkpt>
      <trkpt lat="48.2345" lon="-3.31963">
        <ele>258.667953</ele>
        <time>2022-12-12T11:12:57.765Z</time>
      </trkpt>
      <trkpt lat="48.23439" lon="-3.31955">
        <ele>258.248268</ele>
        <time>2022-12-12T11:13:00.765Z</time>
      </trkpt>
      <trkpt lat="48.23427" lon="-3.31949">
        <ele>258.0541</ele>
        <time>2022-12-12T11:13:03.747Z</time>
      </trkpt>
      <trkpt lat="48.23415" lon="-3.31943">
        <ele>257.897959</ele>
        <time>2022-12-12T11:13:06.763Z</time>
      </trkpt>
      <trkpt lat="48.23403" lon="-3.31939">
        <ele>257.748749</ele>
        <time>2022-12-12T11:13:09.751Z</time>
      </trkpt>
      <trkpt lat="48.23391" lon="-3.31938">
        <ele>257.605627</ele>
        <time>2022-12-12T11:13:12.765Z</time>
      </trkpt>
      <trkpt lat="48.23379" lon="-3.31939">
        <ele>257.459194</ele>
        <time>2022-12-12T11:13:15.753Z</time>
      </trkpt>
      <trkpt lat="48.23366" lon="-3.31941">
        <ele>257.307072</ele>
        <time>2022-12-12T11:13:18.759Z</time>
      </trkpt>
      <trkpt lat="48.23354" lon="-3.31948">
        <ele>257.152506</ele>
        <time>2022-12-12T11:13:21.767Z</time>
      </trkpt>
      <trkpt lat="48.23342" lon="-3.31956">
        <ele>256.992398</ele>
        <time>2022-12-12T11:13:24.748Z</time>
      </trkpt>
      <trkpt lat="48.2333" lon="-3.31966">
        <ele>256.834158</ele>
        <time>2022-12-12T11:13:27.746Z</time>
      </trkpt>
      <trkpt lat="48.2332" lon="-3.31977">
        <ele>256.681756</ele>
        <time>2022-12-12T11:13:30.754Z</time>
      </trkpt>
      <trkpt lat="48.23312" lon="-3.31989">
        <ele>256.54711</ele>
        <time>2022-12-12T11:13:33.755Z</time>
      </trkpt>
      <trkpt lat="48.23305" lon="-3.31999">
        <ele>256.430691</ele>
        <time>2022-12-12T11:13:36.747Z</time>
      </trkpt>
      <trkpt lat="48.23299" lon="-3.32011">
        <ele>256.311313</ele>
        <time>2022-12-12T11:13:39.766Z</time>
      </trkpt>
      <trkpt lat="48.23292" lon="-3.32022">
        <ele>256.190733</ele>
        <time>2022-12-12T11:13:42.765Z</time>
      </trkpt>
      <trkpt lat="48.23285" lon="-3.32034">
        <ele>256.069108</ele>
        <time>2022-12-12T11:13:45.764Z</time>
      </trkpt>
      <trkpt lat="48.23279" lon="-3.32044">
        <ele>256.161832</ele>
        <time>2022-12-12T11:13:48.764Z</time>
      </trkpt>
      <trkpt lat="48.23272" lon="-3.32058">
        <ele>256.507093</ele>
        <time>2022-12-12T11:13:52.763Z</time>
      </trkpt>
      <trkpt lat="48.23265" lon="-3.32071">
        <ele>256.841538</ele>
        <time>2022-12-12T11:13:56.766Z</time>
      </trkpt>
      <trkpt lat="48.23257" lon="-3.32084">
        <ele>257.16044</ele>
        <time>2022-12-12T11:14:00.759Z</time>
      </trkpt>
      <trkpt lat="48.2325" lon="-3.32096">
        <ele>257.479525</ele>
        <time>2022-12-12T11:14:04.748Z</time>
      </trkpt>
      <trkpt lat="48.23242" lon="-3.32107">
        <ele>257.790458</ele>
        <time>2022-12-12T11:14:08.763Z</time>
      </trkpt>
      <trkpt lat="48.23234" lon="-3.32118">
        <ele>258.103867</ele>
        <time>2022-12-12T11:14:12.765Z</time>
      </trkpt>
      <trkpt lat="48.23225" lon="-3.32127">
        <ele>258.427386</ele>
        <time>2022-12-12T11:14:16.765Z</time>
      </trkpt>
      <trkpt lat="48.23216" lon="-3.32136">
        <ele>258.738317</ele>
        <time>2022-12-12T11:14:20.761Z</time>
      </trkpt>
      <trkpt lat="48.23206" lon="-3.32144">
        <ele>259.045696</ele>
        <time>2022-12-12T11:14:24.766Z</time>
      </trkpt>
      <trkpt lat="48.23196" lon="-3.32151">
        <ele>259.376659</ele>
        <time>2022-12-12T11:14:28.765Z</time>
      </trkpt>
      <trkpt lat="48.23187" lon="-3.32157">
        <ele>259.656539</ele>
        <time>2022-12-12T11:14:31.773Z</time>
      </trkpt>
      <trkpt lat="48.23178" lon="-3.32162">
        <ele>259.941078</ele>
        <time>2022-12-12T11:14:34.762Z</time>
      </trkpt>
      <trkpt lat="48.23166" lon="-3.32168">
        <ele>260.28782</ele>
        <time>2022-12-12T11:14:38.765Z</time>
      </trkpt>
      <trkpt lat="48.23157" lon="-3.32172">
        <ele>260.557263</ele>
        <time>2022-12-12T11:14:41.765Z</time>
      </trkpt>
      <trkpt lat="48.23148" lon="-3.32176">
        <ele>260.841577</ele>
        <time>2022-12-12T11:14:44.767Z</time>
      </trkpt>
      <trkpt lat="48.23138" lon="-3.3218">
        <ele>261.128748</ele>
        <time>2022-12-12T11:14:47.768Z</time>
      </trkpt>
      <trkpt lat="48.23127" lon="-3.32185">
        <ele>260.95645</ele>
        <time>2022-12-12T11:14:51.761Z</time>
      </trkpt>
      <trkpt lat="48.23118" lon="-3.32187">
        <ele>260.682848</ele>
        <time>2022-12-12T11:14:54.755Z</time>
      </trkpt>
      <trkpt lat="48.23108" lon="-3.32189">
        <ele>260.404106</ele>
        <time>2022-12-12T11:14:57.755Z</time>
      </trkpt>
      <trkpt lat="48.23099" lon="-3.32192">
        <ele>260.118733</ele>
        <time>2022-12-12T11:15:00.767Z</time>
      </trkpt>
      <trkpt lat="48.23089" lon="-3.32194">
        <ele>259.828763</ele>
        <time>2022-12-12T11:15:03.761Z</time>
      </trkpt>
      <trkpt lat="48.23079" lon="-3.32196">
        <ele>259.55317</ele>
        <time>2022-12-12T11:15:06.763Z</time>
      </trkpt>
      <trkpt lat="48.2307" lon="-3.32198">
        <ele>259.28177</ele>
        <time>2022-12-12T11:15:09.762Z</time>
      </trkpt>
      <trkpt lat="48.2306" lon="-3.32201">
        <ele>258.997001</ele>
        <time>2022-12-12T11:15:12.763Z</time>
      </trkpt>
      <trkpt lat="48.2305" lon="-3.32203">
        <ele>258.687765</ele>
        <time>2022-12-12T11:15:15.749Z</time>
      </trkpt>
      <trkpt lat="48.23038" lon="-3.32206">
        <ele>258.345398</ele>
        <time>2022-12-12T11:15:18.774Z</time>
      </trkpt>
      <trkpt lat="48.23027" lon="-3.32211">
        <ele>257.993818</ele>
        <time>2022-12-12T11:15:21.749Z</time>
      </trkpt>
      <trkpt lat="48.23015" lon="-3.32217">
        <ele>257.630165</ele>
        <time>2022-12-12T11:15:24.767Z</time>
      </trkpt>
      <trkpt lat="48.23003" lon="-3.32223">
        <ele>257.260495</ele>
        <time>2022-12-12T11:15:27.773Z</time>
      </trkpt>
      <trkpt lat="48.2299" lon="-3.3223">
        <ele>256.883396</ele>
        <time>2022-12-12T11:15:30.765Z</time>
      </trkpt>
      <trkpt lat="48.22982" lon="-3.32233">
        <ele>256.621431</ele>
        <time>2022-12-12T11:15:32.764Z</time>
      </trkpt>
      <trkpt lat="48.22973" lon="-3.32237">
        <ele>256.342852</ele>
        <time>2022-12-12T11:15:34.778Z</time>
      </trkpt>
      <trkpt lat="48.2296" lon="-3.32241">
        <ele>255.941086</ele>
        <time>2022-12-12T11:15:37.770Z</time>
      </trkpt>
      <trkpt lat="48.22946" lon="-3.32245">
        <ele>255.361195</ele>
        <time>2022-12-12T11:15:40.784Z</time>
      </trkpt>
      <trkpt lat="48.22937" lon="-3.32247">
        <ele>254.969458</ele>
        <time>2022-12-12T11:15:42.750Z</time>
      </trkpt>
      <trkpt lat="48.22924" lon="-3.32249">
        <ele>254.387215</ele>
        <time>2022-12-12T11:15:45.766Z</time>
      </trkpt>
      <trkpt lat="48.22914" lon="-3.32251">
        <ele>253.962484</ele>
        <time>2022-12-12T11:15:47.768Z</time>
      </trkpt>
      <trkpt lat="48.22905" lon="-3.32253">
        <ele>253.557914</ele>
        <time>2022-12-12T11:15:49.766Z</time>
      </trkpt>
      <trkpt lat="48.22896" lon="-3.32253">
        <ele>253.155832</ele>
        <time>2022-12-12T11:15:51.772Z</time>
      </trkpt>
      <trkpt lat="48.22886" lon="-3.32255">
        <ele>252.752571</ele>
        <time>2022-12-12T11:15:53.749Z</time>
      </trkpt>
      <trkpt lat="48.22877" lon="-3.32257">
        <ele>252.33516</ele>
        <time>2022-12-12T11:15:55.756Z</time>
      </trkpt>
      <trkpt lat="48.22867" lon="-3.32258">
        <ele>251.919535</ele>
        <time>2022-12-12T11:15:57.752Z</time>
      </trkpt>
      <trkpt lat="48.22857" lon="-3.32259">
        <ele>251.48731</ele>
        <time>2022-12-12T11:15:59.769Z</time>
      </trkpt>
      <trkpt lat="48.22846" lon="-3.3226">
        <ele>251.028206</ele>
        <time>2022-12-12T11:16:01.766Z</time>
      </trkpt>
      <trkpt lat="48.22836" lon="-3.32262">
        <ele>250.575457</ele>
        <time>2022-12-12T11:16:03.767Z</time>
      </trkpt>
      <trkpt lat="48.22826" lon="-3.32264">
        <ele>250.127361</ele>
        <time>2022-12-12T11:16:05.763Z</time>
      </trkpt>
      <trkpt lat="48.22815" lon="-3.32266">
        <ele>249.659405</ele>
        <time>2022-12-12T11:16:07.768Z</time>
      </trkpt>
      <trkpt lat="48.22804" lon="-3.32267">
        <ele>249.191175</ele>
        <time>2022-12-12T11:16:09.762Z</time>
      </trkpt>
      <trkpt lat="48.22793" lon="-3.32269">
        <ele>248.700587</ele>
        <time>2022-12-12T11:16:11.765Z</time>
      </trkpt>
      <trkpt lat="48.22782" lon="-3.32271">
        <ele>248.198201</ele>
        <time>2022-12-12T11:16:13.769Z</time>
      </trkpt>
      <trkpt lat="48.2277" lon="-3.32273">
        <ele>247.409054</ele>
        <time>2022-12-12T11:16:15.759Z</time>
      </trkpt>
      <trkpt lat="48.22759" lon="-3.32275">
        <ele>246.611822</ele>
        <time>2022-12-12T11:16:17.748Z</time>
      </trkpt>
      <trkpt lat="48.22748" lon="-3.32276">
        <ele>245.84322</ele>
        <time>2022-12-12T11:16:19.761Z</time>
      </trkpt>
      <trkpt lat="48.22737" lon="-3.32278">
        <ele>245.063655</ele>
        <time>2022-12-12T11:16:21.763Z</time>
      </trkpt>
      <trkpt lat="48.22727" lon="-3.32279">
        <ele>244.317669</ele>
        <time>2022-12-12T11:16:23.771Z</time>
      </trkpt>
      <trkpt lat="48.22717" lon="-3.32281">
        <ele>243.584716</ele>
        <time>2022-12-12T11:16:25.764Z</time>
      </trkpt>
      <trkpt lat="48.22707" lon="-3.32283">
        <ele>242.863339</ele>
        <time>2022-12-12T11:16:27.764Z</time>
      </trkpt>
      <trkpt lat="48.22696" lon="-3.32285">
        <ele>242.094737</ele>
        <time>2022-12-12T11:16:29.763Z</time>
      </trkpt>
      <trkpt lat="48.22685" lon="-3.32286">
        <ele>241.323587</ele>
        <time>2022-12-12T11:16:31.770Z</time>
      </trkpt>
      <trkpt lat="48.22674" lon="-3.32288">
        <ele>240.554985</ele>
        <time>2022-12-12T11:16:33.760Z</time>
      </trkpt>
      <trkpt lat="48.22663" lon="-3.32289">
        <ele>239.759757</ele>
        <time>2022-12-12T11:16:35.762Z</time>
      </trkpt>
      <trkpt lat="48.22652" lon="-3.32291">
        <ele>238.97061</ele>
        <time>2022-12-12T11:16:37.765Z</time>
      </trkpt>
      <trkpt lat="48.22641" lon="-3.32292">
        <ele>238.183643</ele>
        <time>2022-12-12T11:16:39.772Z</time>
      </trkpt>
      <trkpt lat="48.2263" lon="-3.32295">
        <ele>237.406264</ele>
        <time>2022-12-12T11:16:41.747Z</time>
      </trkpt>
      <trkpt lat="48.22619" lon="-3.32296">
        <ele>236.62596</ele>
        <time>2022-12-12T11:16:43.764Z</time>
      </trkpt>
      <trkpt lat="48.22607" lon="-3.32298">
        <ele>235.822756</ele>
        <time>2022-12-12T11:16:45.748Z</time>
      </trkpt>
      <trkpt lat="48.22597" lon="-3.32299">
        <ele>235.216469</ele>
        <time>2022-12-12T11:16:47.762Z</time>
      </trkpt>
      <trkpt lat="48.22585" lon="-3.32301">
        <ele>234.670664</ele>
        <time>2022-12-12T11:16:49.759Z</time>
      </trkpt>
      <trkpt lat="48.22573" lon="-3.32303">
        <ele>234.096695</ele>
        <time>2022-12-12T11:16:51.764Z</time>
      </trkpt>
      <trkpt lat="48.22562" lon="-3.32304">
        <ele>233.560681</ele>
        <time>2022-12-12T11:16:53.765Z</time>
      </trkpt>
      <trkpt lat="48.22551" lon="-3.32306">
        <ele>233.013852</ele>
        <time>2022-12-12T11:16:55.765Z</time>
      </trkpt>
      <trkpt lat="48.2254" lon="-3.32308">
        <ele>232.487619</ele>
        <time>2022-12-12T11:16:57.765Z</time>
      </trkpt>
      <trkpt lat="48.22529" lon="-3.32309">
        <ele>231.951605</ele>
        <time>2022-12-12T11:16:59.765Z</time>
      </trkpt>
      <trkpt lat="48.22518" lon="-3.32312">
        <ele>231.42057</ele>
        <time>2022-12-12T11:17:01.764Z</time>
      </trkpt>
      <trkpt lat="48.22507" lon="-3.32313">
        <ele>230.919673</ele>
        <time>2022-12-12T11:17:03.763Z</time>
      </trkpt>
      <trkpt lat="48.22496" lon="-3.32314">
        <ele>230.399394</ele>
        <time>2022-12-12T11:17:05.764Z</time>
      </trkpt>
      <trkpt lat="48.22485" lon="-3.32315">
        <ele>229.860269</ele>
        <time>2022-12-12T11:17:07.762Z</time>
      </trkpt>
      <trkpt lat="48.22472" lon="-3.32317">
        <ele>229.261356</ele>
        <time>2022-12-12T11:17:09.769Z</time>
      </trkpt>
      <trkpt lat="48.2246" lon="-3.32318">
        <ele>228.663917</ele>
        <time>2022-12-12T11:17:11.765Z</time>
      </trkpt>
      <trkpt lat="48.22448" lon="-3.32321">
        <ele>228.091437</ele>
        <time>2022-12-12T11:17:13.764Z</time>
      </trkpt>
      <trkpt lat="48.22435" lon="-3.32323">
        <ele>227.472138</ele>
        <time>2022-12-12T11:17:15.767Z</time>
      </trkpt>
      <trkpt lat="48.22422" lon="-3.32325">
        <ele>226.889053</ele>
        <time>2022-12-12T11:17:17.767Z</time>
      </trkpt>
      <trkpt lat="48.22409" lon="-3.32327">
        <ele>226.441554</ele>
        <time>2022-12-12T11:17:19.764Z</time>
      </trkpt>
      <trkpt lat="48.22396" lon="-3.32329">
        <ele>226.002092</ele>
        <time>2022-12-12T11:17:21.748Z</time>
      </trkpt>
      <trkpt lat="48.22384" lon="-3.32331">
        <ele>225.594755</ele>
        <time>2022-12-12T11:17:23.761Z</time>
      </trkpt>
      <trkpt lat="48.22372" lon="-3.32332">
        <ele>225.192322</ele>
        <time>2022-12-12T11:17:25.765Z</time>
      </trkpt>
      <trkpt lat="48.22359" lon="-3.32333">
        <ele>224.769001</ele>
        <time>2022-12-12T11:17:27.766Z</time>
      </trkpt>
      <trkpt lat="48.22347" lon="-3.32335">
        <ele>224.366247</ele>
        <time>2022-12-12T11:17:29.779Z</time>
      </trkpt>
      <trkpt lat="48.22335" lon="-3.32335">
        <ele>223.947919</ele>
        <time>2022-12-12T11:17:31.767Z</time>
      </trkpt>
      <trkpt lat="48.22322" lon="-3.32335">
        <ele>223.522952</ele>
        <time>2022-12-12T11:17:33.769Z</time>
      </trkpt>
      <trkpt lat="48.2231" lon="-3.32335">
        <ele>223.111346</ele>
        <time>2022-12-12T11:17:35.771Z</time>
      </trkpt>
      <trkpt lat="48.22297" lon="-3.32334">
        <ele>222.696268</ele>
        <time>2022-12-12T11:17:37.778Z</time>
      </trkpt>
      <trkpt lat="48.22285" lon="-3.32332">
        <ele>222.278708</ele>
        <time>2022-12-12T11:17:39.748Z</time>
      </trkpt>
      <trkpt lat="48.22272" lon="-3.3233">
        <ele>221.844517</ele>
        <time>2022-12-12T11:17:41.763Z</time>
      </trkpt>
      <trkpt lat="48.22261" lon="-3.32328">
        <ele>221.45738</ele>
        <time>2022-12-12T11:17:43.766Z</time>
      </trkpt>
      <trkpt lat="48.2225" lon="-3.32326">
        <ele>221.093937</ele>
        <time>2022-12-12T11:17:45.769Z</time>
      </trkpt>
      <trkpt lat="48.2224" lon="-3.32321">
        <ele>220.853884</ele>
        <time>2022-12-12T11:17:47.767Z</time>
      </trkpt>
      <trkpt lat="48.22229" lon="-3.32317">
        <ele>220.701144</ele>
        <time>2022-12-12T11:17:49.767Z</time>
      </trkpt>
      <trkpt lat="48.22218" lon="-3.32314">
        <ele>220.549382</ele>
        <time>2022-12-12T11:17:51.773Z</time>
      </trkpt>
      <trkpt lat="48.22206" lon="-3.32309">
        <ele>220.391499</ele>
        <time>2022-12-12T11:17:53.781Z</time>
      </trkpt>
      <trkpt lat="48.22195" lon="-3.32305">
        <ele>220.241145</ele>
        <time>2022-12-12T11:17:55.774Z</time>
      </trkpt>
      <trkpt lat="48.22184" lon="-3.32299">
        <ele>220.086704</ele>
        <time>2022-12-12T11:17:57.769Z</time>
      </trkpt>
      <trkpt lat="48.22174" lon="-3.32295">
        <ele>219.941757</ele>
        <time>2022-12-12T11:17:59.754Z</time>
      </trkpt>
      <trkpt lat="48.22163" lon="-3.3229">
        <ele>219.790497</ele>
        <time>2022-12-12T11:18:01.766Z</time>
      </trkpt>
      <trkpt lat="48.22154" lon="-3.32287">
        <ele>219.662834</ele>
        <time>2022-12-12T11:18:03.765Z</time>
      </trkpt>
      <trkpt lat="48.22145" lon="-3.32283">
        <ele>219.541263</ele>
        <time>2022-12-12T11:18:05.768Z</time>
      </trkpt>
      <trkpt lat="48.22134" lon="-3.32278">
        <ele>219.38876</ele>
        <time>2022-12-12T11:18:08.762Z</time>
      </trkpt>
      <trkpt lat="48.22123" lon="-3.32274">
        <ele>219.228203</ele>
        <time>2022-12-12T11:18:11.748Z</time>
      </trkpt>
      <trkpt lat="48.2211" lon="-3.32269">
        <ele>219.056635</ele>
        <time>2022-12-12T11:18:14.763Z</time>
      </trkpt>
      <trkpt lat="48.22097" lon="-3.32264">
        <ele>218.880528</ele>
        <time>2022-12-12T11:18:17.763Z</time>
      </trkpt>
      <trkpt lat="48.22084" lon="-3.3226">
        <ele>218.702602</ele>
        <time>2022-12-12T11:18:20.760Z</time>
      </trkpt>
      <trkpt lat="48.22071" lon="-3.32255">
        <ele>218.52374</ele>
        <time>2022-12-12T11:18:23.760Z</time>
      </trkpt>
      <trkpt lat="48.22058" lon="-3.32251">
        <ele>218.561556</ele>
        <time>2022-12-12T11:18:26.749Z</time>
      </trkpt>
      <trkpt lat="48.22045" lon="-3.32248">
        <ele>218.599121</ele>
        <time>2022-12-12T11:18:29.751Z</time>
      </trkpt>
      <trkpt lat="48.22032" lon="-3.32245">
        <ele>218.636214</ele>
        <time>2022-12-12T11:18:32.755Z</time>
      </trkpt>
      <trkpt lat="48.22019" lon="-3.32243">
        <ele>218.673588</ele>
        <time>2022-12-12T11:18:35.766Z</time>
      </trkpt>
      <trkpt lat="48.2201" lon="-3.32242">
        <ele>218.699448</ele>
        <time>2022-12-12T11:18:37.763Z</time>
      </trkpt>
      <trkpt lat="48.21997" lon="-3.32241">
        <ele>218.736423</ele>
        <time>2022-12-12T11:18:40.766Z</time>
      </trkpt>
      <trkpt lat="48.21984" lon="-3.3224">
        <ele>218.773077</ele>
        <time>2022-12-12T11:18:43.769Z</time>
      </trkpt>
      <trkpt lat="48.21971" lon="-3.3224">
        <ele>218.809675</ele>
        <time>2022-12-12T11:18:46.775Z</time>
      </trkpt>
      <trkpt lat="48.21958" lon="-3.32241">
        <ele>218.846887</ele>
        <time>2022-12-12T11:18:49.767Z</time>
      </trkpt>
      <trkpt lat="48.21945" lon="-3.32242">
        <ele>218.88389</ele>
        <time>2022-12-12T11:18:52.768Z</time>
      </trkpt>
      <trkpt lat="48.21936" lon="-3.32243">
        <ele>218.90975</ele>
        <time>2022-12-12T11:18:54.775Z</time>
      </trkpt>
      <trkpt lat="48.21923" lon="-3.32245">
        <ele>218.946753</ele>
        <time>2022-12-12T11:18:57.766Z</time>
      </trkpt>
      <trkpt lat="48.2191" lon="-3.32247">
        <ele>218.984654</ele>
        <time>2022-12-12T11:19:00.766Z</time>
      </trkpt>
      <trkpt lat="48.21901" lon="-3.32248">
        <ele>219.010539</ele>
        <time>2022-12-12T11:19:02.773Z</time>
      </trkpt>
      <trkpt lat="48.21888" lon="-3.32249">
        <ele>219.042944</ele>
        <time>2022-12-12T11:19:05.765Z</time>
      </trkpt>
      <trkpt lat="48.21876" lon="-3.3225">
        <ele>219.066853</ele>
        <time>2022-12-12T11:19:08.765Z</time>
      </trkpt>
      <trkpt lat="48.21864" lon="-3.32252">
        <ele>219.092201</ele>
        <time>2022-12-12T11:19:11.763Z</time>
      </trkpt>
      <trkpt lat="48.21851" lon="-3.32253">
        <ele>219.118377</ele>
        <time>2022-12-12T11:19:14.769Z</time>
      </trkpt>
      <trkpt lat="48.21839" lon="-3.32254">
        <ele>219.144949</ele>
        <time>2022-12-12T11:19:17.749Z</time>
      </trkpt>
      <trkpt lat="48.21825" lon="-3.32255">
        <ele>219.172145</ele>
        <time>2022-12-12T11:19:20.774Z</time>
      </trkpt>
      <trkpt lat="48.21812" lon="-3.32256">
        <ele>219.200178</ele>
        <time>2022-12-12T11:19:23.764Z</time>
      </trkpt>
      <trkpt lat="48.21803" lon="-3.32257">
        <ele>219.219174</ele>
        <time>2022-12-12T11:19:25.764Z</time>
      </trkpt>
      <trkpt lat="48.21793" lon="-3.32258">
        <ele>219.237896</ele>
        <time>2022-12-12T11:19:27.764Z</time>
      </trkpt>
      <trkpt lat="48.21784" lon="-3.32258">
        <ele>219.256656</ele>
        <time>2022-12-12T11:19:29.764Z</time>
      </trkpt>
      <trkpt lat="48.21775" lon="-3.3226">
        <ele>219.276256</ele>
        <time>2022-12-12T11:19:31.769Z</time>
      </trkpt>
      <trkpt lat="48.21762" lon="-3.32261">
        <ele>219.303683</ele>
        <time>2022-12-12T11:19:34.767Z</time>
      </trkpt>
      <trkpt lat="48.21749" lon="-3.32262">
        <ele>219.328803</ele>
        <time>2022-12-12T11:19:37.765Z</time>
      </trkpt>
      <trkpt lat="48.21737" lon="-3.32263">
        <ele>219.353513</ele>
        <time>2022-12-12T11:19:40.758Z</time>
      </trkpt>
      <trkpt lat="48.21725" lon="-3.32264">
        <ele>219.378526</ele>
        <time>2022-12-12T11:19:43.766Z</time>
      </trkpt>
      <trkpt lat="48.21713" lon="-3.32265">
        <ele>219.403667</ele>
        <time>2022-12-12T11:19:46.773Z</time>
      </trkpt>
      <trkpt lat="48.21701" lon="-3.32266">
        <ele>219.469007</ele>
        <time>2022-12-12T11:19:49.769Z</time>
      </trkpt>
      <trkpt lat="48.21689" lon="-3.32268">
        <ele>219.532542</ele>
        <time>2022-12-12T11:19:52.780Z</time>
      </trkpt>
      <trkpt lat="48.21677" lon="-3.32269">
        <ele>219.596981</ele>
        <time>2022-12-12T11:19:55.766Z</time>
      </trkpt>
      <trkpt lat="48.21664" lon="-3.3227">
        <ele>219.663228</ele>
        <time>2022-12-12T11:19:58.765Z</time>
      </trkpt>
      <trkpt lat="48.21652" lon="-3.32272">
        <ele>219.730073</ele>
        <time>2022-12-12T11:20:01.774Z</time>
      </trkpt>
      <trkpt lat="48.21639" lon="-3.32274">
        <ele>219.796883</ele>
        <time>2022-12-12T11:20:04.765Z</time>
      </trkpt>
      <trkpt lat="48.21628" lon="-3.32274">
        <ele>219.855949</ele>
        <time>2022-12-12T11:20:07.779Z</time>
      </trkpt>
      <trkpt lat="48.21617" lon="-3.32276">
        <ele>219.914096</ele>
        <time>2022-12-12T11:20:10.767Z</time>
      </trkpt>
      <trkpt lat="48.21606" lon="-3.32277">
        <ele>219.977102</ele>
        <time>2022-12-12T11:20:13.777Z</time>
      </trkpt>
      <trkpt lat="48.21593" lon="-3.32279">
        <ele>220.041727</ele>
        <time>2022-12-12T11:20:16.772Z</time>
      </trkpt>
      <trkpt lat="48.21581" lon="-3.3228">
        <ele>220.109903</ele>
        <time>2022-12-12T11:20:19.766Z</time>
      </trkpt>
      <trkpt lat="48.21569" lon="-3.3228">
        <ele>220.173795</ele>
        <time>2022-12-12T11:20:22.781Z</time>
      </trkpt>
      <trkpt lat="48.21558" lon="-3.32282">
        <ele>220.231999</ele>
        <time>2022-12-12T11:20:25.774Z</time>
      </trkpt>
      <trkpt lat="48.21546" lon="-3.32283">
        <ele>220.294418</ele>
        <time>2022-12-12T11:20:28.772Z</time>
      </trkpt>
      <trkpt lat="48.21534" lon="-3.32284">
        <ele>220.360528</ele>
        <time>2022-12-12T11:20:31.771Z</time>
      </trkpt>
      <trkpt lat="48.21521" lon="-3.32285">
        <ele>220.422261</ele>
        <time>2022-12-12T11:20:34.770Z</time>
      </trkpt>
      <trkpt lat="48.21508" lon="-3.32287">
        <ele>220.486487</ele>
        <time>2022-12-12T11:20:37.760Z</time>
      </trkpt>
      <trkpt lat="48.21495" lon="-3.32289">
        <ele>220.549803</ele>
        <time>2022-12-12T11:20:40.766Z</time>
      </trkpt>
      <trkpt lat="48.21483" lon="-3.3229">
        <ele>220.606638</ele>
        <time>2022-12-12T11:20:43.767Z</time>
      </trkpt>
      <trkpt lat="48.21472" lon="-3.32292">
        <ele>220.658412</ele>
        <time>2022-12-12T11:20:46.771Z</time>
      </trkpt>
      <trkpt lat="48.21461" lon="-3.32294">
        <ele>220.713076</ele>
        <time>2022-12-12T11:20:49.768Z</time>
      </trkpt>
      <trkpt lat="48.21449" lon="-3.32295">
        <ele>220.772047</ele>
        <time>2022-12-12T11:20:52.768Z</time>
      </trkpt>
      <trkpt lat="48.21437" lon="-3.32297">
        <ele>220.831896</ele>
        <time>2022-12-12T11:20:55.771Z</time>
      </trkpt>
      <trkpt lat="48.21424" lon="-3.32299">
        <ele>220.89431</ele>
        <time>2022-12-12T11:20:58.769Z</time>
      </trkpt>
      <trkpt lat="48.21411" lon="-3.323">
        <ele>220.956093</ele>
        <time>2022-12-12T11:21:01.766Z</time>
      </trkpt>
      <trkpt lat="48.214" lon="-3.32301">
        <ele>221.011942</ele>
        <time>2022-12-12T11:21:04.771Z</time>
      </trkpt>
      <trkpt lat="48.21389" lon="-3.32305">
        <ele>221.065807</ele>
        <time>2022-12-12T11:21:07.772Z</time>
      </trkpt>
      <trkpt lat="48.21378" lon="-3.32309">
        <ele>221.122661</ele>
        <time>2022-12-12T11:21:10.765Z</time>
      </trkpt>
      <trkpt lat="48.21366" lon="-3.32315">
        <ele>221.181468</ele>
        <time>2022-12-12T11:21:13.749Z</time>
      </trkpt>
      <trkpt lat="48.21355" lon="-3.32323">
        <ele>221.227056</ele>
        <time>2022-12-12T11:21:16.765Z</time>
      </trkpt>
      <trkpt lat="48.21345" lon="-3.32334">
        <ele>221.179996</ele>
        <time>2022-12-12T11:21:19.753Z</time>
      </trkpt>
      <trkpt lat="48.21335" lon="-3.32347">
        <ele>221.131883</ele>
        <time>2022-12-12T11:21:22.754Z</time>
      </trkpt>
      <trkpt lat="48.21328" lon="-3.32362">
        <ele>221.086002</ele>
        <time>2022-12-12T11:21:25.754Z</time>
      </trkpt>
      <trkpt lat="48.21322" lon="-3.32378">
        <ele>221.041161</ele>
        <time>2022-12-12T11:21:28.747Z</time>
      </trkpt>
      <trkpt lat="48.21318" lon="-3.32397">
        <ele>220.992278</ele>
        <time>2022-12-12T11:21:31.776Z</time>
      </trkpt>
      <trkpt lat="48.21315" lon="-3.3241">
        <ele>220.95784</ele>
        <time>2022-12-12T11:21:33.763Z</time>
      </trkpt>
      <trkpt lat="48.21313" lon="-3.32424">
        <ele>220.924049</ele>
        <time>2022-12-12T11:21:35.757Z</time>
      </trkpt>
      <trkpt lat="48.21312" lon="-3.32437">
        <ele>220.890305</ele>
        <time>2022-12-12T11:21:37.753Z</time>
      </trkpt>
      <trkpt lat="48.21313" lon="-3.32451">
        <ele>220.856231</ele>
        <time>2022-12-12T11:21:39.756Z</time>
      </trkpt>
      <trkpt lat="48.21312" lon="-3.32466">
        <ele>220.819189</ele>
        <time>2022-12-12T11:21:41.752Z</time>
      </trkpt>
      <trkpt lat="48.21312" lon="-3.32481">
        <ele>220.781411</ele>
        <time>2022-12-12T11:21:43.770Z</time>
      </trkpt>
      <trkpt lat="48.21312" lon="-3.32497">
        <ele>220.742641</ele>
        <time>2022-12-12T11:21:45.756Z</time>
      </trkpt>
      <trkpt lat="48.21312" lon="-3.32513">
        <ele>220.702389</ele>
        <time>2022-12-12T11:21:47.770Z</time>
      </trkpt>
      <trkpt lat="48.21312" lon="-3.3253">
        <ele>220.661157</ele>
        <time>2022-12-12T11:21:49.767Z</time>
      </trkpt>
      <trkpt lat="48.21312" lon="-3.32545">
        <ele>220.623381</ele>
        <time>2022-12-12T11:21:51.776Z</time>
      </trkpt>
      <trkpt lat="48.21312" lon="-3.3256">
        <ele>220.586317</ele>
        <time>2022-12-12T11:21:53.765Z</time>
      </trkpt>
      <trkpt lat="48.21313" lon="-3.32575">
        <ele>220.632709</ele>
        <time>2022-12-12T11:21:55.772Z</time>
      </trkpt>
      <trkpt lat="48.21313" lon="-3.3259">
        <ele>220.791409</ele>
        <time>2022-12-12T11:21:57.766Z</time>
      </trkpt>
      <trkpt lat="48.21314" lon="-3.32605">
        <ele>220.942115</ele>
        <time>2022-12-12T11:21:59.769Z</time>
      </trkpt>
      <trkpt lat="48.21314" lon="-3.32619">
        <ele>221.091357</ele>
        <time>2022-12-12T11:22:01.765Z</time>
      </trkpt>
      <trkpt lat="48.21313" lon="-3.32634">
        <ele>221.246976</ele>
        <time>2022-12-12T11:22:03.767Z</time>
      </trkpt>
      <trkpt lat="48.21313" lon="-3.32648">
        <ele>221.387951</ele>
        <time>2022-12-12T11:22:05.750Z</time>
      </trkpt>
      <trkpt lat="48.21313" lon="-3.32662">
        <ele>221.534108</ele>
        <time>2022-12-12T11:22:07.769Z</time>
      </trkpt>
      <trkpt lat="48.21313" lon="-3.32677">
        <ele>221.686373</ele>
        <time>2022-12-12T11:22:09.769Z</time>
      </trkpt>
      <trkpt lat="48.21313" lon="-3.32692">
        <ele>221.837609</ele>
        <time>2022-12-12T11:22:11.767Z</time>
      </trkpt>
      <trkpt lat="48.21312" lon="-3.32706">
        <ele>221.989474</ele>
        <time>2022-12-12T11:22:13.766Z</time>
      </trkpt>
      <trkpt lat="48.21312" lon="-3.3272">
        <ele>222.133501</ele>
        <time>2022-12-12T11:22:15.752Z</time>
      </trkpt>
      <trkpt lat="48.21313" lon="-3.32735">
        <ele>222.280106</ele>
        <time>2022-12-12T11:22:17.772Z</time>
      </trkpt>
      <trkpt lat="48.21313" lon="-3.32749">
        <ele>222.424166</ele>
        <time>2022-12-12T11:22:19.773Z</time>
      </trkpt>
      <trkpt lat="48.21313" lon="-3.32769">
        <ele>222.632068</ele>
        <time>2022-12-12T11:22:22.786Z</time>
      </trkpt>
      <trkpt lat="48.21313" lon="-3.32783">
        <ele>222.774246</ele>
        <time>2022-12-12T11:22:24.780Z</time>
      </trkpt>
      <trkpt lat="48.21314" lon="-3.32797">
        <ele>222.923449</ele>
        <time>2022-12-12T11:22:26.763Z</time>
      </trkpt>
      <trkpt lat="48.21314" lon="-3.32816">
        <ele>223.11701</ele>
        <time>2022-12-12T11:22:29.766Z</time>
      </trkpt>
      <trkpt lat="48.21314" lon="-3.32833">
        <ele>223.290933</ele>
        <time>2022-12-12T11:22:32.747Z</time>
      </trkpt>
      <trkpt lat="48.21315" lon="-3.3285">
        <ele>223.286996</ele>
        <time>2022-12-12T11:22:35.775Z</time>
      </trkpt>
      <trkpt lat="48.21314" lon="-3.32867">
        <ele>223.202764</ele>
        <time>2022-12-12T11:22:38.767Z</time>
      </trkpt>
      <trkpt lat="48.21314" lon="-3.32885">
        <ele>223.11561</ele>
        <time>2022-12-12T11:22:41.780Z</time>
      </trkpt>
      <trkpt lat="48.21314" lon="-3.32903">
        <ele>223.026023</ele>
        <time>2022-12-12T11:22:44.754Z</time>
      </trkpt>
      <trkpt lat="48.21315" lon="-3.3292">
        <ele>222.941537</ele>
        <time>2022-12-12T11:22:47.771Z</time>
      </trkpt>
      <trkpt lat="48.21316" lon="-3.32936">
        <ele>222.864677</ele>
        <time>2022-12-12T11:22:50.770Z</time>
      </trkpt>
      <trkpt lat="48.21318" lon="-3.32953">
        <ele>222.784177</ele>
        <time>2022-12-12T11:22:53.774Z</time>
      </trkpt>
      <trkpt lat="48.2132" lon="-3.3297">
        <ele>222.698906</ele>
        <time>2022-12-12T11:22:56.763Z</time>
      </trkpt>
      <trkpt lat="48.21323" lon="-3.32987">
        <ele>222.612813</ele>
        <time>2022-12-12T11:22:59.775Z</time>
      </trkpt>
      <trkpt lat="48.21328" lon="-3.33004">
        <ele>222.524551</ele>
        <time>2022-12-12T11:23:02.756Z</time>
      </trkpt>
      <trkpt lat="48.21333" lon="-3.33019">
        <ele>222.439075</ele>
        <time>2022-12-12T11:23:05.769Z</time>
      </trkpt>
      <trkpt lat="48.21338" lon="-3.33033">
        <ele>222.362036</ele>
        <time>2022-12-12T11:23:08.765Z</time>
      </trkpt>
      <trkpt lat="48.21345" lon="-3.33047">
        <ele>222.280177</ele>
        <time>2022-12-12T11:23:11.773Z</time>
      </trkpt>
      <trkpt lat="48.21352" lon="-3.33061">
        <ele>222.192339</ele>
        <time>2022-12-12T11:23:14.765Z</time>
      </trkpt>
      <trkpt lat="48.2136" lon="-3.33076">
        <ele>222.099177</ele>
        <time>2022-12-12T11:23:17.771Z</time>
      </trkpt>
      <trkpt lat="48.21366" lon="-3.33086">
        <ele>222.033828</ele>
        <time>2022-12-12T11:23:19.751Z</time>
      </trkpt>
      <trkpt lat="48.21372" lon="-3.33097">
        <ele>221.720479</ele>
        <time>2022-12-12T11:23:21.772Z</time>
      </trkpt>
      <trkpt lat="48.21377" lon="-3.33108">
        <ele>221.392893</ele>
        <time>2022-12-12T11:23:23.772Z</time>
      </trkpt>
      <trkpt lat="48.21383" lon="-3.33119">
        <ele>221.067189</ele>
        <time>2022-12-12T11:23:25.773Z</time>
      </trkpt>
      <trkpt lat="48.21388" lon="-3.33131">
        <ele>220.718503</ele>
        <time>2022-12-12T11:23:27.774Z</time>
      </trkpt>
      <trkpt lat="48.21394" lon="-3.33142">
        <ele>220.380899</ele>
        <time>2022-12-12T11:23:29.766Z</time>
      </trkpt>
      <trkpt lat="48.214" lon="-3.33153">
        <ele>220.054853</ele>
        <time>2022-12-12T11:23:31.776Z</time>
      </trkpt>
      <trkpt lat="48.21405" lon="-3.33164">
        <ele>219.714063</ele>
        <time>2022-12-12T11:23:33.771Z</time>
      </trkpt>
      <trkpt lat="48.21412" lon="-3.33176">
        <ele>219.363834</ele>
        <time>2022-12-12T11:23:35.761Z</time>
      </trkpt>
      <trkpt lat="48.21417" lon="-3.33188">
        <ele>219.009277</ele>
        <time>2022-12-12T11:23:37.779Z</time>
      </trkpt>
      <trkpt lat="48.21422" lon="-3.33202">
        <ele>218.636085</ele>
        <time>2022-12-12T11:23:39.769Z</time>
      </trkpt>
      <trkpt lat="48.21427" lon="-3.33216">
        <ele>218.24327</ele>
        <time>2022-12-12T11:23:41.755Z</time>
      </trkpt>
      <trkpt lat="48.21432" lon="-3.33232">
        <ele>217.840611</ele>
        <time>2022-12-12T11:23:43.771Z</time>
      </trkpt>
      <trkpt lat="48.21435" lon="-3.33248">
        <ele>217.448792</ele>
        <time>2022-12-12T11:23:45.745Z</time>
      </trkpt>
      <trkpt lat="48.21438" lon="-3.33264">
        <ele>217.046724</ele>
        <time>2022-12-12T11:23:47.763Z</time>
      </trkpt>
      <trkpt lat="48.2144" lon="-3.3328">
        <ele>216.650949</ele>
        <time>2022-12-12T11:23:49.766Z</time>
      </trkpt>
      <trkpt lat="48.21442" lon="-3.33296">
        <ele>216.264447</ele>
        <time>2022-12-12T11:23:51.773Z</time>
      </trkpt>
      <trkpt lat="48.21443" lon="-3.33312">
        <ele>215.884941</ele>
        <time>2022-12-12T11:23:53.749Z</time>
      </trkpt>
      <trkpt lat="48.21443" lon="-3.33327">
        <ele>215.539309</ele>
        <time>2022-12-12T11:23:55.767Z</time>
      </trkpt>
      <trkpt lat="48.21442" lon="-3.33341">
        <ele>215.260877</ele>
        <time>2022-12-12T11:23:57.774Z</time>
      </trkpt>
      <trkpt lat="48.2144" lon="-3.33357">
        <ele>214.943171</ele>
        <time>2022-12-12T11:24:00.752Z</time>
      </trkpt>
      <trkpt lat="48.2143" lon="-3.3336">
        <ele>214.658673</ele>
        <time>2022-12-12T11:24:06.756Z</time>
      </trkpt>
      <trkpt lat="48.21423" lon="-3.33351">
        <ele>214.377534</ele>
        <time>2022-12-12T11:24:09.761Z</time>
      </trkpt>
      <trkpt lat="48.21416" lon="-3.33342">
        <ele>214.10574</ele>
        <time>2022-12-12T11:24:12.774Z</time>
      </trkpt>
      <trkpt lat="48.21409" lon="-3.33333">
        <ele>213.825851</ele>
        <time>2022-12-12T11:24:25.767Z</time>
      </trkpt>
      <trkpt lat="48.21401" lon="-3.33322">
        <ele>213.516318</ele>
        <time>2022-12-12T11:24:32.755Z</time>
      </trkpt>
      <trkpt lat="48.21394" lon="-3.3331">
        <ele>213.192733</ele>
        <time>2022-12-12T11:24:36.753Z</time>
      </trkpt>
      <trkpt lat="48.21387" lon="-3.33301">
        <ele>212.919381</ele>
        <time>2022-12-12T11:24:39.779Z</time>
      </trkpt>
      <trkpt lat="48.2138" lon="-3.3329">
        <ele>212.629338</ele>
        <time>2022-12-12T11:24:42.796Z</time>
      </trkpt>
      <trkpt lat="48.21372" lon="-3.33279">
        <ele>212.317042</ele>
        <time>2022-12-12T11:24:45.762Z</time>
      </trkpt>
      <trkpt lat="48.21365" lon="-3.33268">
        <ele>212.009458</ele>
        <time>2022-12-12T11:24:48.773Z</time>
      </trkpt>
      <trkpt lat="48.21358" lon="-3.33258">
        <ele>211.723585</ele>
        <time>2022-12-12T11:24:51.770Z</time>
      </trkpt>
      <trkpt lat="48.21351" lon="-3.33249">
        <ele>211.439952</ele>
        <time>2022-12-12T11:24:54.769Z</time>
      </trkpt>
      <trkpt lat="48.21342" lon="-3.33238">
        <ele>211.124029</ele>
        <time>2022-12-12T11:24:57.767Z</time>
      </trkpt>
      <trkpt lat="48.21335" lon="-3.33226">
        <ele>210.794321</ele>
        <time>2022-12-12T11:25:00.764Z</time>
      </trkpt>
      <trkpt lat="48.21326" lon="-3.33215">
        <ele>210.452551</ele>
        <time>2022-12-12T11:25:03.780Z</time>
      </trkpt>
      <trkpt lat="48.21318" lon="-3.33204">
        <ele>210.306677</ele>
        <time>2022-12-12T11:25:07.750Z</time>
      </trkpt>
      <trkpt lat="48.21309" lon="-3.33192">
        <ele>210.328505</ele>
        <time>2022-12-12T11:25:11.759Z</time>
      </trkpt>
      <trkpt lat="48.21301" lon="-3.33181">
        <ele>210.3502</ele>
        <time>2022-12-12T11:25:15.761Z</time>
      </trkpt>
      <trkpt lat="48.21292" lon="-3.33168">
        <ele>210.371964</ele>
        <time>2022-12-12T11:25:18.775Z</time>
      </trkpt>
      <trkpt lat="48.21283" lon="-3.33157">
        <ele>210.394128</ele>
        <time>2022-12-12T11:25:21.755Z</time>
      </trkpt>
      <trkpt lat="48.21274" lon="-3.33144">
        <ele>210.417306</ele>
        <time>2022-12-12T11:25:24.770Z</time>
      </trkpt>
      <trkpt lat="48.21266" lon="-3.3313">
        <ele>210.440362</ele>
        <time>2022-12-12T11:25:27.772Z</time>
      </trkpt>
      <trkpt lat="48.21258" lon="-3.33119">
        <ele>210.460888</ele>
        <time>2022-12-12T11:25:30.769Z</time>
      </trkpt>
      <trkpt lat="48.21251" lon="-3.33107">
        <ele>210.480842</ele>
        <time>2022-12-12T11:25:33.771Z</time>
      </trkpt>
      <trkpt lat="48.21243" lon="-3.33097">
        <ele>210.500024</ele>
        <time>2022-12-12T11:25:36.763Z</time>
      </trkpt>
      <trkpt lat="48.21235" lon="-3.33087">
        <ele>210.519608</ele>
        <time>2022-12-12T11:25:39.765Z</time>
      </trkpt>
      <trkpt lat="48.21227" lon="-3.33075">
        <ele>210.541415</ele>
        <time>2022-12-12T11:25:43.781Z</time>
      </trkpt>
      <trkpt lat="48.2122" lon="-3.33064">
        <ele>210.559615</ele>
        <time>2022-12-12T11:25:46.772Z</time>
      </trkpt>
      <trkpt lat="48.21213" lon="-3.33052">
        <ele>210.57966</ele>
        <time>2022-12-12T11:25:49.762Z</time>
      </trkpt>
      <trkpt lat="48.21204" lon="-3.3304">
        <ele>210.602396</ele>
        <time>2022-12-12T11:25:52.751Z</time>
      </trkpt>
      <trkpt lat="48.21198" lon="-3.3303">
        <ele>210.619392</ele>
        <time>2022-12-12T11:25:54.772Z</time>
      </trkpt>
      <trkpt lat="48.21191" lon="-3.33021">
        <ele>210.582584</ele>
        <time>2022-12-12T11:25:56.764Z</time>
      </trkpt>
      <trkpt lat="48.21181" lon="-3.33008">
        <ele>210.298404</ele>
        <time>2022-12-12T11:25:59.776Z</time>
      </trkpt>
      <trkpt lat="48.21174" lon="-3.32997">
        <ele>210.062524</ele>
        <time>2022-12-12T11:26:02.771Z</time>
      </trkpt>
      <trkpt lat="48.21166" lon="-3.32987">
        <ele>209.829153</ele>
        <time>2022-12-12T11:26:05.773Z</time>
      </trkpt>
      <trkpt lat="48.21159" lon="-3.32977">
        <ele>209.616456</ele>
        <time>2022-12-12T11:26:08.780Z</time>
      </trkpt>
      <trkpt lat="48.21152" lon="-3.32968">
        <ele>209.408149</ele>
        <time>2022-12-12T11:26:11.771Z</time>
      </trkpt>
      <trkpt lat="48.21144" lon="-3.32958">
        <ele>209.171433</ele>
        <time>2022-12-12T11:26:14.763Z</time>
      </trkpt>
      <trkpt lat="48.21136" lon="-3.32948">
        <ele>208.946657</ele>
        <time>2022-12-12T11:26:17.774Z</time>
      </trkpt>
      <trkpt lat="48.21131" lon="-3.32937">
        <ele>208.73824</ele>
        <time>2022-12-12T11:26:20.769Z</time>
      </trkpt>
      <trkpt lat="48.21126" lon="-3.32922">
        <ele>208.497909</ele>
        <time>2022-12-12T11:26:23.754Z</time>
      </trkpt>
      <trkpt lat="48.21122" lon="-3.32907">
        <ele>208.246772</ele>
        <time>2022-12-12T11:26:26.751Z</time>
      </trkpt>
      <trkpt lat="48.21119" lon="-3.32891">
        <ele>207.998584</ele>
        <time>2022-12-12T11:26:30.781Z</time>
      </trkpt>
      <trkpt lat="48.21115" lon="-3.32877">
        <ele>207.773665</ele>
        <time>2022-12-12T11:26:33.777Z</time>
      </trkpt>
      <trkpt lat="48.21111" lon="-3.32858">
        <ele>207.482724</ele>
        <time>2022-12-12T11:26:37.769Z</time>
      </trkpt>
      <trkpt lat="48.21108" lon="-3.32843">
        <ele>207.240264</ele>
        <time>2022-12-12T11:26:40.759Z</time>
      </trkpt>
      <trkpt lat="48.21104" lon="-3.32826">
        <ele>206.965518</ele>
        <time>2022-12-12T11:26:43.769Z</time>
      </trkpt>
      <trkpt lat="48.21099" lon="-3.32808">
        <ele>206.68455</ele>
        <time>2022-12-12T11:26:46.769Z</time>
      </trkpt>
      <trkpt lat="48.21095" lon="-3.32792">
        <ele>206.681867</ele>
        <time>2022-12-12T11:26:49.782Z</time>
      </trkpt>
      <trkpt lat="48.21092" lon="-3.32778">
        <ele>206.817543</ele>
        <time>2022-12-12T11:26:52.777Z</time>
      </trkpt>
      <trkpt lat="48.21088" lon="-3.32763">
        <ele>206.96734</ele>
        <time>2022-12-12T11:26:55.781Z</time>
      </trkpt>
      <trkpt lat="48.21084" lon="-3.32747">
        <ele>207.121925</ele>
        <time>2022-12-12T11:26:58.781Z</time>
      </trkpt>
      <trkpt lat="48.21081" lon="-3.3273">
        <ele>207.278635</ele>
        <time>2022-12-12T11:27:02.769Z</time>
      </trkpt>
      <trkpt lat="48.21078" lon="-3.32716">
        <ele>207.41687</ele>
        <time>2022-12-12T11:27:05.772Z</time>
      </trkpt>
      <trkpt lat="48.21074" lon="-3.327">
        <ele>207.57363</ele>
        <time>2022-12-12T11:27:08.761Z</time>
      </trkpt>
      <trkpt lat="48.21071" lon="-3.32683">
        <ele>207.728156</ele>
        <time>2022-12-12T11:27:11.778Z</time>
      </trkpt>
      <trkpt lat="48.21066" lon="-3.32667">
        <ele>207.888068</ele>
        <time>2022-12-12T11:27:14.773Z</time>
      </trkpt>
      <trkpt lat="48.21063" lon="-3.32651">
        <ele>208.039581</ele>
        <time>2022-12-12T11:27:17.769Z</time>
      </trkpt>
      <trkpt lat="48.21059" lon="-3.32634">
        <ele>208.205797</ele>
        <time>2022-12-12T11:27:20.772Z</time>
      </trkpt>
      <trkpt lat="48.21054" lon="-3.32617">
        <ele>208.367284</ele>
        <time>2022-12-12T11:27:23.772Z</time>
      </trkpt>
      <trkpt lat="48.21052" lon="-3.32604">
        <ele>208.496916</ele>
        <time>2022-12-12T11:27:26.759Z</time>
      </trkpt>
      <trkpt lat="48.21048" lon="-3.32588">
        <ele>208.647158</ele>
        <time>2022-12-12T11:27:30.756Z</time>
      </trkpt>
      <trkpt lat="48.21046" lon="-3.32572">
        <ele>208.793017</ele>
        <time>2022-12-12T11:27:33.776Z</time>
      </trkpt>
      <trkpt lat="48.21045" lon="-3.32557">
        <ele>208.9292</ele>
        <time>2022-12-12T11:27:36.753Z</time>
      </trkpt>
      <trkpt lat="48.21048" lon="-3.3254">
        <ele>209.014007</ele>
        <time>2022-12-12T11:27:40.760Z</time>
      </trkpt>
      <trkpt lat="48.21049" lon="-3.32525">
        <ele>208.956544</ele>
        <time>2022-12-12T11:27:43.758Z</time>
      </trkpt>
      <trkpt lat="48.21049" lon="-3.32508">
        <ele>208.892047</ele>
        <time>2022-12-12T11:27:46.763Z</time>
      </trkpt>
      <trkpt lat="48.21049" lon="-3.32494">
        <ele>208.835979</ele>
        <time>2022-12-12T11:27:49.750Z</time>
      </trkpt>
      <trkpt lat="48.2105" lon="-3.32476">
        <ele>208.767687</ele>
        <time>2022-12-12T11:27:52.759Z</time>
      </trkpt>
      <trkpt lat="48.21052" lon="-3.32462">
        <ele>208.712093</ele>
        <time>2022-12-12T11:27:55.770Z</time>
      </trkpt>
      <trkpt lat="48.21054" lon="-3.32445">
        <ele>208.647157</ele>
        <time>2022-12-12T11:27:58.771Z</time>
      </trkpt>
      <trkpt lat="48.21056" lon="-3.32429">
        <ele>208.583358</ele>
        <time>2022-12-12T11:28:01.755Z</time>
      </trkpt>
      <trkpt lat="48.21057" lon="-3.3241">
        <ele>208.512828</ele>
        <time>2022-12-12T11:28:04.759Z</time>
      </trkpt>
      <trkpt lat="48.21058" lon="-3.32394">
        <ele>208.449177</ele>
        <time>2022-12-12T11:28:07.782Z</time>
      </trkpt>
      <trkpt lat="48.2106" lon="-3.32378">
        <ele>208.385936</ele>
        <time>2022-12-12T11:28:10.755Z</time>
      </trkpt>
      <trkpt lat="48.21062" lon="-3.32363">
        <ele>208.326726</ele>
        <time>2022-12-12T11:28:13.776Z</time>
      </trkpt>
      <trkpt lat="48.21065" lon="-3.32347">
        <ele>208.264033</ele>
        <time>2022-12-12T11:28:17.769Z</time>
      </trkpt>
      <trkpt lat="48.21067" lon="-3.32334">
        <ele>208.211941</ele>
        <time>2022-12-12T11:28:20.779Z</time>
      </trkpt>
      <trkpt lat="48.21068" lon="-3.32317">
        <ele>208.145759</ele>
        <time>2022-12-12T11:28:23.778Z</time>
      </trkpt>
      <trkpt lat="48.21069" lon="-3.323">
        <ele>208.080634</ele>
        <time>2022-12-12T11:28:26.780Z</time>
      </trkpt>
      <trkpt lat="48.21072" lon="-3.32284">
        <ele>208.019138</ele>
        <time>2022-12-12T11:28:30.767Z</time>
      </trkpt>
      <trkpt lat="48.21073" lon="-3.32268">
        <ele>208.142952</ele>
        <time>2022-12-12T11:28:34.758Z</time>
      </trkpt>
      <trkpt lat="48.21076" lon="-3.32251">
        <ele>208.376768</ele>
        <time>2022-12-12T11:28:38.761Z</time>
      </trkpt>
      <trkpt lat="48.21077" lon="-3.32235">
        <ele>208.582067</ele>
        <time>2022-12-12T11:28:41.752Z</time>
      </trkpt>
      <trkpt lat="48.21079" lon="-3.32217">
        <ele>208.812592</ele>
        <time>2022-12-12T11:28:45.771Z</time>
      </trkpt>
      <trkpt lat="48.2108" lon="-3.32203">
        <ele>208.996383</ele>
        <time>2022-12-12T11:28:48.773Z</time>
      </trkpt>
      <trkpt lat="48.21083" lon="-3.32187">
        <ele>209.21086</ele>
        <time>2022-12-12T11:28:52.773Z</time>
      </trkpt>
      <trkpt lat="48.21084" lon="-3.32174">
        <ele>209.386772</ele>
        <time>2022-12-12T11:28:55.771Z</time>
      </trkpt>
      <trkpt lat="48.21087" lon="-3.32158">
        <ele>209.594883</ele>
        <time>2022-12-12T11:28:59.771Z</time>
      </trkpt>
      <trkpt lat="48.21089" lon="-3.32141">
        <ele>209.821532</ele>
        <time>2022-12-12T11:29:03.777Z</time>
      </trkpt>
      <trkpt lat="48.21091" lon="-3.32126">
        <ele>210.025587</ele>
        <time>2022-12-12T11:29:06.772Z</time>
      </trkpt>
      <trkpt lat="48.21093" lon="-3.3211">
        <ele>210.233497</ele>
        <time>2022-12-12T11:29:09.775Z</time>
      </trkpt>
      <trkpt lat="48.21095" lon="-3.32093">
        <ele>210.46209</ele>
        <time>2022-12-12T11:29:12.779Z</time>
      </trkpt>
      <trkpt lat="48.21097" lon="-3.32076">
        <ele>210.683661</ele>
        <time>2022-12-12T11:29:15.775Z</time>
      </trkpt>
      <trkpt lat="48.21099" lon="-3.32059">
        <ele>210.905231</ele>
        <time>2022-12-12T11:29:18.782Z</time>
      </trkpt>
      <trkpt lat="48.21101" lon="-3.32041">
        <ele>211.13654</ele>
        <time>2022-12-12T11:29:21.777Z</time>
      </trkpt>
      <trkpt lat="48.21103" lon="-3.32024">
        <ele>211.365133</ele>
        <time>2022-12-12T11:29:24.781Z</time>
      </trkpt>
      <trkpt lat="48.21105" lon="-3.32007">
        <ele>211.377268</ele>
        <time>2022-12-12T11:29:27.777Z</time>
      </trkpt>
      <trkpt lat="48.21106" lon="-3.31993">
        <ele>211.121111</ele>
        <time>2022-12-12T11:29:30.749Z</time>
      </trkpt>
      <trkpt lat="48.21111" lon="-3.31978">
        <ele>210.841341</ele>
        <time>2022-12-12T11:29:34.756Z</time>
      </trkpt>
      <trkpt lat="48.2112" lon="-3.31973">
        <ele>210.592722</ele>
        <time>2022-12-12T11:29:38.769Z</time>
      </trkpt>
      <trkpt lat="48.21121" lon="-3.31958">
        <ele>210.343769</ele>
        <time>2022-12-12T11:29:44.753Z</time>
      </trkpt>
      <trkpt lat="48.21114" lon="-3.31949">
        <ele>210.103662</ele>
        <time>2022-12-12T11:29:47.758Z</time>
      </trkpt>
      <trkpt lat="48.21113" lon="-3.31932">
        <ele>209.802678</ele>
        <time>2022-12-12T11:29:51.748Z</time>
      </trkpt>
      <trkpt lat="48.21113" lon="-3.31915">
        <ele>209.51126</ele>
        <time>2022-12-12T11:29:55.770Z</time>
      </trkpt>
      <trkpt lat="48.21114" lon="-3.31901">
        <ele>209.276793</ele>
        <time>2022-12-12T11:29:59.773Z</time>
      </trkpt>
      <trkpt lat="48.21113" lon="-3.31888">
        <ele>209.04494</ele>
        <time>2022-12-12T11:30:02.761Z</time>
      </trkpt>
      <trkpt lat="48.21113" lon="-3.31873">
        <ele>208.80265</ele>
        <time>2022-12-12T11:30:05.770Z</time>
      </trkpt>
      <trkpt lat="48.21109" lon="-3.31857">
        <ele>208.505947</ele>
        <time>2022-12-12T11:30:09.776Z</time>
      </trkpt>
      <trkpt lat="48.21106" lon="-3.31841">
        <ele>208.215745</ele>
        <time>2022-12-12T11:30:12.780Z</time>
      </trkpt>
      <trkpt lat="48.211" lon="-3.31826">
        <ele>207.922605</ele>
        <time>2022-12-12T11:30:15.776Z</time>
      </trkpt>
      <trkpt lat="48.21094" lon="-3.31813">
        <ele>207.647355</ele>
        <time>2022-12-12T11:30:18.778Z</time>
      </trkpt>
      <trkpt lat="48.21088" lon="-3.318">
        <ele>207.383543</ele>
        <time>2022-12-12T11:30:21.760Z</time>
      </trkpt>
      <trkpt lat="48.21083" lon="-3.31787">
        <ele>207.111174</ele>
        <time>2022-12-12T11:30:24.778Z</time>
      </trkpt>
      <trkpt lat="48.21076" lon="-3.31773">
        <ele>206.865956</ele>
        <time>2022-12-12T11:30:27.771Z</time>
      </trkpt>
      <trkpt lat="48.21068" lon="-3.31759">
        <ele>206.844488</ele>
        <time>2022-12-12T11:30:31.769Z</time>
      </trkpt>
      <trkpt lat="48.21062" lon="-3.31745">
        <ele>206.822902</ele>
        <time>2022-12-12T11:30:35.751Z</time>
      </trkpt>
      <trkpt lat="48.21056" lon="-3.31733">
        <ele>206.803942</ele>
        <time>2022-12-12T11:30:38.758Z</time>
      </trkpt>
      <trkpt lat="48.21048" lon="-3.3172">
        <ele>206.783601</ele>
        <time>2022-12-12T11:30:41.773Z</time>
      </trkpt>
      <trkpt lat="48.21041" lon="-3.31707">
        <ele>206.762982</ele>
        <time>2022-12-12T11:30:44.764Z</time>
      </trkpt>
      <trkpt lat="48.21035" lon="-3.31694">
        <ele>206.743542</ele>
        <time>2022-12-12T11:30:47.752Z</time>
      </trkpt>
      <trkpt lat="48.21028" lon="-3.3168">
        <ele>206.721718</ele>
        <time>2022-12-12T11:30:50.788Z</time>
      </trkpt>
      <trkpt lat="48.2102" lon="-3.31664">
        <ele>206.696917</ele>
        <time>2022-12-12T11:30:53.768Z</time>
      </trkpt>
      <trkpt lat="48.21014" lon="-3.31652">
        <ele>206.678277</ele>
        <time>2022-12-12T11:30:55.784Z</time>
      </trkpt>
      <trkpt lat="48.21008" lon="-3.31639">
        <ele>206.659745</ele>
        <time>2022-12-12T11:30:57.771Z</time>
      </trkpt>
      <trkpt lat="48.21002" lon="-3.31628">
        <ele>206.641903</ele>
        <time>2022-12-12T11:30:59.769Z</time>
      </trkpt>
      <trkpt lat="48.20997" lon="-3.31617">
        <ele>206.624577</ele>
        <time>2022-12-12T11:31:01.770Z</time>
      </trkpt>
      <trkpt lat="48.2099" lon="-3.31603">
        <ele>206.603279</ele>
        <time>2022-12-12T11:31:04.772Z</time>
      </trkpt>
      <trkpt lat="48.20984" lon="-3.31591">
        <ele>206.585143</ele>
        <time>2022-12-12T11:31:07.772Z</time>
      </trkpt>
      <trkpt lat="48.20977" lon="-3.31577">
        <ele>206.563597</ele>
        <time>2022-12-12T11:31:10.761Z</time>
      </trkpt>
      <trkpt lat="48.2097" lon="-3.31564">
        <ele>206.542792</ele>
        <time>2022-12-12T11:31:13.762Z</time>
      </trkpt>
      <trkpt lat="48.20964" lon="-3.31553">
        <ele>206.448756</ele>
        <time>2022-12-12T11:31:16.775Z</time>
      </trkpt>
      <trkpt lat="48.20957" lon="-3.3154">
        <ele>206.307318</ele>
        <time>2022-12-12T11:31:19.778Z</time>
      </trkpt>
      <trkpt lat="48.2095" lon="-3.31525">
        <ele>206.145859</ele>
        <time>2022-12-12T11:31:22.763Z</time>
      </trkpt>
      <trkpt lat="48.20944" lon="-3.31512">
        <ele>206.003472</ele>
        <time>2022-12-12T11:31:25.776Z</time>
      </trkpt>
      <trkpt lat="48.20937" lon="-3.31498">
        <ele>205.845919</ele>
        <time>2022-12-12T11:31:28.778Z</time>
      </trkpt>
      <trkpt lat="48.20931" lon="-3.31485">
        <ele>205.703579</ele>
        <time>2022-12-12T11:31:31.753Z</time>
      </trkpt>
      <trkpt lat="48.20924" lon="-3.31471">
        <ele>205.556784</ele>
        <time>2022-12-12T11:31:34.773Z</time>
      </trkpt>
      <trkpt lat="48.20916" lon="-3.31456">
        <ele>205.391106</ele>
        <time>2022-12-12T11:31:37.780Z</time>
      </trkpt>
      <trkpt lat="48.20909" lon="-3.31442">
        <ele>205.229269</ele>
        <time>2022-12-12T11:31:40.769Z</time>
      </trkpt>
      <trkpt lat="48.20902" lon="-3.31428">
        <ele>205.075551</ele>
        <time>2022-12-12T11:31:43.749Z</time>
      </trkpt>
      <trkpt lat="48.20895" lon="-3.31416">
        <ele>204.935136</ele>
        <time>2022-12-12T11:31:46.778Z</time>
      </trkpt>
      <trkpt lat="48.20889" lon="-3.31404">
        <ele>204.803195</ele>
        <time>2022-12-12T11:31:49.775Z</time>
      </trkpt>
      <trkpt lat="48.20883" lon="-3.31393">
        <ele>204.676735</ele>
        <time>2022-12-12T11:31:52.776Z</time>
      </trkpt>
      <trkpt lat="48.20876" lon="-3.31379">
        <ele>204.523365</ele>
        <time>2022-12-12T11:31:56.767Z</time>
      </trkpt>
      <trkpt lat="48.20869" lon="-3.31364">
        <ele>204.360829</ele>
        <time>2022-12-12T11:32:00.780Z</time>
      </trkpt>
      <trkpt lat="48.20862" lon="-3.31351">
        <ele>204.218828</ele>
        <time>2022-12-12T11:32:03.778Z</time>
      </trkpt>
      <trkpt lat="48.20855" lon="-3.31338">
        <ele>204.115974</ele>
        <time>2022-12-12T11:32:06.772Z</time>
      </trkpt>
      <trkpt lat="48.20849" lon="-3.31326">
        <ele>204.052792</ele>
        <time>2022-12-12T11:32:09.775Z</time>
      </trkpt>
      <trkpt lat="48.20841" lon="-3.31311">
        <ele>203.973054</ele>
        <time>2022-12-12T11:32:12.773Z</time>
      </trkpt>
      <trkpt lat="48.20835" lon="-3.31298">
        <ele>203.904355</ele>
        <time>2022-12-12T11:32:15.781Z</time>
      </trkpt>
      <trkpt lat="48.20828" lon="-3.31285">
        <ele>203.832037</ele>
        <time>2022-12-12T11:32:18.776Z</time>
      </trkpt>
      <trkpt lat="48.2082" lon="-3.31269">
        <ele>203.74898</ele>
        <time>2022-12-12T11:32:21.777Z</time>
      </trkpt>
      <trkpt lat="48.20813" lon="-3.31253">
        <ele>203.669386</ele>
        <time>2022-12-12T11:32:24.773Z</time>
      </trkpt>
      <trkpt lat="48.20805" lon="-3.3124">
        <ele>203.59668</ele>
        <time>2022-12-12T11:32:27.776Z</time>
      </trkpt>
      <trkpt lat="48.20798" lon="-3.31227">
        <ele>203.526269</ele>
        <time>2022-12-12T11:32:30.782Z</time>
      </trkpt>
      <trkpt lat="48.20791" lon="-3.31215">
        <ele>203.459567</ele>
        <time>2022-12-12T11:32:33.779Z</time>
      </trkpt>
      <trkpt lat="48.20786" lon="-3.31203">
        <ele>203.396863</ele>
        <time>2022-12-12T11:32:36.782Z</time>
      </trkpt>
      <trkpt lat="48.20781" lon="-3.3119">
        <ele>203.335181</ele>
        <time>2022-12-12T11:32:39.776Z</time>
      </trkpt>
      <trkpt lat="48.20773" lon="-3.31176">
        <ele>203.260309</ele>
        <time>2022-12-12T11:32:42.776Z</time>
      </trkpt>
      <trkpt lat="48.20767" lon="-3.31163">
        <ele>203.189132</ele>
        <time>2022-12-12T11:32:45.770Z</time>
      </trkpt>
      <trkpt lat="48.2076" lon="-3.31149">
        <ele>203.119065</ele>
        <time>2022-12-12T11:32:48.780Z</time>
      </trkpt>
      <trkpt lat="48.20753" lon="-3.31139">
        <ele>203.057153</ele>
        <time>2022-12-12T11:32:51.774Z</time>
      </trkpt>
      <trkpt lat="48.20748" lon="-3.31127">
        <ele>203.02568</ele>
        <time>2022-12-12T11:32:54.756Z</time>
      </trkpt>
      <trkpt lat="48.20742" lon="-3.31115">
        <ele>203.033527</ele>
        <time>2022-12-12T11:32:57.762Z</time>
      </trkpt>
      <trkpt lat="48.20736" lon="-3.311">
        <ele>203.043064</ele>
        <time>2022-12-12T11:33:00.778Z</time>
      </trkpt>
      <trkpt lat="48.20727" lon="-3.31087">
        <ele>203.053271</ele>
        <time>2022-12-12T11:33:03.756Z</time>
      </trkpt>
      <trkpt lat="48.2072" lon="-3.31072">
        <ele>203.06318</ele>
        <time>2022-12-12T11:33:06.780Z</time>
      </trkpt>
      <trkpt lat="48.20714" lon="-3.3106">
        <ele>203.071779</ele>
        <time>2022-12-12T11:33:09.771Z</time>
      </trkpt>
      <trkpt lat="48.20706" lon="-3.31045">
        <ele>203.081713</ele>
        <time>2022-12-12T11:33:12.780Z</time>
      </trkpt>
      <trkpt lat="48.207" lon="-3.31033">
        <ele>203.09056</ele>
        <time>2022-12-12T11:33:15.782Z</time>
      </trkpt>
      <trkpt lat="48.20693" lon="-3.31019">
        <ele>203.099823</ele>
        <time>2022-12-12T11:33:18.772Z</time>
      </trkpt>
      <trkpt lat="48.20687" lon="-3.31006">
        <ele>203.108499</ele>
        <time>2022-12-12T11:33:21.778Z</time>
      </trkpt>
      <trkpt lat="48.20681" lon="-3.30993">
        <ele>203.117304</ele>
        <time>2022-12-12T11:33:24.756Z</time>
      </trkpt>
      <trkpt lat="48.20673" lon="-3.30978">
        <ele>203.127787</ele>
        <time>2022-12-12T11:33:27.779Z</time>
      </trkpt>
      <trkpt lat="48.20665" lon="-3.30963">
        <ele>203.138038</ele>
        <time>2022-12-12T11:33:30.783Z</time>
      </trkpt>
      <trkpt lat="48.20659" lon="-3.3095">
        <ele>203.147169</ele>
        <time>2022-12-12T11:33:33.779Z</time>
      </trkpt>
      <trkpt lat="48.20653" lon="-3.30937">
        <ele>203.155682</ele>
        <time>2022-12-12T11:33:36.771Z</time>
      </trkpt>
      <trkpt lat="48.20647" lon="-3.30923">
        <ele>203.165086</ele>
        <time>2022-12-12T11:33:39.773Z</time>
      </trkpt>
      <trkpt lat="48.20639" lon="-3.3091">
        <ele>203.124827</ele>
        <time>2022-12-12T11:33:42.760Z</time>
      </trkpt>
      <trkpt lat="48.20631" lon="-3.30895">
        <ele>203.019194</ele>
        <time>2022-12-12T11:33:45.768Z</time>
      </trkpt>
      <trkpt lat="48.20623" lon="-3.30882">
        <ele>202.923936</ele>
        <time>2022-12-12T11:33:48.781Z</time>
      </trkpt>
      <trkpt lat="48.20617" lon="-3.3087">
        <ele>202.839068</ele>
        <time>2022-12-12T11:33:51.765Z</time>
      </trkpt>
      <trkpt lat="48.2061" lon="-3.30856">
        <ele>202.740939</ele>
        <time>2022-12-12T11:33:54.780Z</time>
      </trkpt>
      <trkpt lat="48.20603" lon="-3.30843">
        <ele>202.650901</ele>
        <time>2022-12-12T11:33:57.780Z</time>
      </trkpt>
      <trkpt lat="48.20596" lon="-3.3083">
        <ele>202.56285</ele>
        <time>2022-12-12T11:34:00.755Z</time>
      </trkpt>
      <trkpt lat="48.2059" lon="-3.30817">
        <ele>202.475173</ele>
        <time>2022-12-12T11:34:03.752Z</time>
      </trkpt>
      <trkpt lat="48.20583" lon="-3.30805">
        <ele>202.381688</ele>
        <time>2022-12-12T11:34:06.763Z</time>
      </trkpt>
      <trkpt lat="48.20577" lon="-3.30792">
        <ele>202.299058</ele>
        <time>2022-12-12T11:34:09.778Z</time>
      </trkpt>
      <trkpt lat="48.20571" lon="-3.3078">
        <ele>202.215372</ele>
        <time>2022-12-12T11:34:12.767Z</time>
      </trkpt>
      <trkpt lat="48.20564" lon="-3.30767">
        <ele>202.124651</ele>
        <time>2022-12-12T11:34:15.783Z</time>
      </trkpt>
      <trkpt lat="48.20557" lon="-3.30751">
        <ele>202.016239</ele>
        <time>2022-12-12T11:34:18.780Z</time>
      </trkpt>
      <trkpt lat="48.20552" lon="-3.3074">
        <ele>201.939584</ele>
        <time>2022-12-12T11:34:20.780Z</time>
      </trkpt>
      <trkpt lat="48.20544" lon="-3.30724">
        <ele>201.829347</ele>
        <time>2022-12-12T11:34:23.781Z</time>
      </trkpt>
      <trkpt lat="48.20536" lon="-3.3071">
        <ele>201.730494</ele>
        <time>2022-12-12T11:34:26.773Z</time>
      </trkpt>
      <trkpt lat="48.20529" lon="-3.30696">
        <ele>201.823038</ele>
        <time>2022-12-12T11:34:29.773Z</time>
      </trkpt>
      <trkpt lat="48.20524" lon="-3.30682">
        <ele>202.107786</ele>
        <time>2022-12-12T11:34:32.769Z</time>
      </trkpt>
      <trkpt lat="48.2052" lon="-3.30667">
        <ele>202.404962</ele>
        <time>2022-12-12T11:34:35.757Z</time>
      </trkpt>
      <trkpt lat="48.20515" lon="-3.30651">
        <ele>202.705813</ele>
        <time>2022-12-12T11:34:38.765Z</time>
      </trkpt>
      <trkpt lat="48.20513" lon="-3.30635">
        <ele>202.994112</ele>
        <time>2022-12-12T11:34:41.756Z</time>
      </trkpt>
      <trkpt lat="48.20513" lon="-3.3062">
        <ele>203.254658</ele>
        <time>2022-12-12T11:34:44.756Z</time>
      </trkpt>
      <trkpt lat="48.20513" lon="-3.30603">
        <ele>203.549065</ele>
        <time>2022-12-12T11:34:47.775Z</time>
      </trkpt>
      <trkpt lat="48.20513" lon="-3.30587">
        <ele>203.839524</ele>
        <time>2022-12-12T11:34:50.774Z</time>
      </trkpt>
      <trkpt lat="48.20513" lon="-3.3057">
        <ele>204.132328</ele>
        <time>2022-12-12T11:34:53.754Z</time>
      </trkpt>
      <trkpt lat="48.20513" lon="-3.30553">
        <ele>204.435398</ele>
        <time>2022-12-12T11:34:56.754Z</time>
      </trkpt>
      <trkpt lat="48.20513" lon="-3.30537">
        <ele>204.724688</ele>
        <time>2022-12-12T11:34:59.783Z</time>
      </trkpt>
      <trkpt lat="48.20514" lon="-3.30521">
        <ele>205.009915</ele>
        <time>2022-12-12T11:35:02.780Z</time>
      </trkpt>
      <trkpt lat="48.20514" lon="-3.30507">
        <ele>205.25638</ele>
        <time>2022-12-12T11:35:05.766Z</time>
      </trkpt>
      <trkpt lat="48.20513" lon="-3.30492">
        <ele>205.517127</ele>
        <time>2022-12-12T11:35:09.771Z</time>
      </trkpt>
      <trkpt lat="48.20514" lon="-3.30475">
        <ele>205.814815</ele>
        <time>2022-12-12T11:35:14.754Z</time>
      </trkpt>
      <trkpt lat="48.20513" lon="-3.30461">
        <ele>206.059861</ele>
        <time>2022-12-12T11:35:17.758Z</time>
      </trkpt>
      <trkpt lat="48.20512" lon="-3.30446">
        <ele>206.318227</ele>
        <time>2022-12-12T11:35:20.760Z</time>
      </trkpt>
      <trkpt lat="48.20511" lon="-3.30432">
        <ele>206.355111</ele>
        <time>2022-12-12T11:35:22.771Z</time>
      </trkpt>
      <trkpt lat="48.20512" lon="-3.30414">
        <ele>206.185628</ele>
        <time>2022-12-12T11:35:25.772Z</time>
      </trkpt>
      <trkpt lat="48.20513" lon="-3.30396">
        <ele>206.011244</ele>
        <time>2022-12-12T11:35:28.769Z</time>
      </trkpt>
      <trkpt lat="48.20512" lon="-3.3038">
        <ele>205.859671</ele>
        <time>2022-12-12T11:35:31.754Z</time>
      </trkpt>
      <trkpt lat="48.20512" lon="-3.30364">
        <ele>205.704002</ele>
        <time>2022-12-12T11:35:34.781Z</time>
      </trkpt>
      <trkpt lat="48.20511" lon="-3.30347">
        <ele>205.545031</ele>
        <time>2022-12-12T11:35:37.777Z</time>
      </trkpt>
      <trkpt lat="48.20512" lon="-3.30329">
        <ele>205.373689</ele>
        <time>2022-12-12T11:35:40.761Z</time>
      </trkpt>
      <trkpt lat="48.20511" lon="-3.30311">
        <ele>205.200444</ele>
        <time>2022-12-12T11:35:43.776Z</time>
      </trkpt>
      <trkpt lat="48.20511" lon="-3.30296">
        <ele>205.06142</ele>
        <time>2022-12-12T11:35:46.779Z</time>
      </trkpt>
      <trkpt lat="48.2051" lon="-3.3028">
        <ele>204.903853</ele>
        <time>2022-12-12T11:35:49.771Z</time>
      </trkpt>
      <trkpt lat="48.2051" lon="-3.30265">
        <ele>204.76186</ele>
        <time>2022-12-12T11:35:52.779Z</time>
      </trkpt>
      <trkpt lat="48.20509" lon="-3.30251">
        <ele>204.631398</ele>
        <time>2022-12-12T11:35:55.772Z</time>
      </trkpt>
      <trkpt lat="48.20509" lon="-3.30237">
        <ele>204.500054</ele>
        <time>2022-12-12T11:35:58.774Z</time>
      </trkpt>
      <trkpt lat="48.20507" lon="-3.3022">
        <ele>204.334297</ele>
        <time>2022-12-12T11:36:01.756Z</time>
      </trkpt>
      <trkpt lat="48.20505" lon="-3.30204">
        <ele>204.181302</ele>
        <time>2022-12-12T11:36:04.780Z</time>
      </trkpt>
      <trkpt lat="48.20503" lon="-3.30186">
        <ele>204.00865</ele>
        <time>2022-12-12T11:36:07.781Z</time>
      </trkpt>
      <trkpt lat="48.20503" lon="-3.30169">
        <ele>203.879403</ele>
        <time>2022-12-12T11:36:10.766Z</time>
      </trkpt>
      <trkpt lat="48.20502" lon="-3.30151">
        <ele>203.986395</ele>
        <time>2022-12-12T11:36:13.779Z</time>
      </trkpt>
      <trkpt lat="48.205" lon="-3.30136">
        <ele>204.079955</ele>
        <time>2022-12-12T11:36:16.778Z</time>
      </trkpt>
      <trkpt lat="48.205" lon="-3.3012">
        <ele>204.174738</ele>
        <time>2022-12-12T11:36:19.779Z</time>
      </trkpt>
      <trkpt lat="48.20499" lon="-3.30105">
        <ele>204.265861</ele>
        <time>2022-12-12T11:36:22.778Z</time>
      </trkpt>
      <trkpt lat="48.20498" lon="-3.3009">
        <ele>204.354322</ele>
        <time>2022-12-12T11:36:25.777Z</time>
      </trkpt>
      <trkpt lat="48.20497" lon="-3.30075">
        <ele>204.445181</ele>
        <time>2022-12-12T11:36:28.776Z</time>
      </trkpt>
      <trkpt lat="48.20496" lon="-3.3006">
        <ele>204.53867</ele>
        <time>2022-12-12T11:36:31.776Z</time>
      </trkpt>
      <trkpt lat="48.20494" lon="-3.30044">
        <ele>204.635115</ele>
        <time>2022-12-12T11:36:34.774Z</time>
      </trkpt>
      <trkpt lat="48.20494" lon="-3.30026">
        <ele>204.741333</ele>
        <time>2022-12-12T11:36:37.751Z</time>
      </trkpt>
      <trkpt lat="48.20494" lon="-3.3001">
        <ele>204.841991</ele>
        <time>2022-12-12T11:36:40.757Z</time>
      </trkpt>
      <trkpt lat="48.20494" lon="-3.29995">
        <ele>204.93244</ele>
        <time>2022-12-12T11:36:43.776Z</time>
      </trkpt>
      <trkpt lat="48.20493" lon="-3.29981">
        <ele>205.017544</ele>
        <time>2022-12-12T11:36:46.778Z</time>
      </trkpt>
      <trkpt lat="48.20493" lon="-3.29964">
        <ele>205.11462</ele>
        <time>2022-12-12T11:36:49.760Z</time>
      </trkpt>
      <trkpt lat="48.20491" lon="-3.29945">
        <ele>205.231135</ele>
        <time>2022-12-12T11:36:52.761Z</time>
      </trkpt>
      <trkpt lat="48.2049" lon="-3.2993">
        <ele>205.32649</ele>
        <time>2022-12-12T11:36:55.759Z</time>
      </trkpt>
      <trkpt lat="48.20488" lon="-3.29913">
        <ele>205.426073</ele>
        <time>2022-12-12T11:36:58.778Z</time>
      </trkpt>
      <trkpt lat="48.20487" lon="-3.29897">
        <ele>205.46815</ele>
        <time>2022-12-12T11:37:01.776Z</time>
      </trkpt>
      <trkpt lat="48.20485" lon="-3.29881">
        <ele>205.407292</ele>
        <time>2022-12-12T11:37:04.758Z</time>
      </trkpt>
      <trkpt lat="48.20484" lon="-3.29863">
        <ele>205.339618</ele>
        <time>2022-12-12T11:37:07.761Z</time>
      </trkpt>
      <trkpt lat="48.20482" lon="-3.29844">
        <ele>205.265091</ele>
        <time>2022-12-12T11:37:10.780Z</time>
      </trkpt>
      <trkpt lat="48.2048" lon="-3.29826">
        <ele>205.197256</ele>
        <time>2022-12-12T11:37:13.780Z</time>
      </trkpt>
      <trkpt lat="48.20479" lon="-3.29808">
        <ele>205.129177</ele>
        <time>2022-12-12T11:37:16.755Z</time>
      </trkpt>
      <trkpt lat="48.20478" lon="-3.29791">
        <ele>205.062865</ele>
        <time>2022-12-12T11:37:19.783Z</time>
      </trkpt>
      <trkpt lat="48.20477" lon="-3.29774">
        <ele>204.997261</ele>
        <time>2022-12-12T11:37:22.779Z</time>
      </trkpt>
      <trkpt lat="48.20475" lon="-3.29756">
        <ele>204.930467</ele>
        <time>2022-12-12T11:37:25.763Z</time>
      </trkpt>
      <trkpt lat="48.20476" lon="-3.29741">
        <ele>204.870436</ele>
        <time>2022-12-12T11:37:28.774Z</time>
      </trkpt>
      <trkpt lat="48.20475" lon="-3.29726">
        <ele>204.815736</ele>
        <time>2022-12-12T11:37:31.777Z</time>
      </trkpt>
      <trkpt lat="48.20474" lon="-3.29712">
        <ele>204.76094</ele>
        <time>2022-12-12T11:37:34.781Z</time>
      </trkpt>
      <trkpt lat="48.20473" lon="-3.29698">
        <ele>204.708101</ele>
        <time>2022-12-12T11:37:37.780Z</time>
      </trkpt>
      <trkpt lat="48.20472" lon="-3.29685">
        <ele>204.65669</ele>
        <time>2022-12-12T11:37:40.778Z</time>
      </trkpt>
      <trkpt lat="48.20471" lon="-3.29669">
        <ele>204.595798</ele>
        <time>2022-12-12T11:37:43.773Z</time>
      </trkpt>
      <trkpt lat="48.20471" lon="-3.29654">
        <ele>204.540354</ele>
        <time>2022-12-12T11:37:46.751Z</time>
      </trkpt>
      <trkpt lat="48.20468" lon="-3.29637">
        <ele>204.471784</ele>
        <time>2022-12-12T11:37:49.758Z</time>
      </trkpt>
      <trkpt lat="48.20469" lon="-3.29622">
        <ele>204.481432</ele>
        <time>2022-12-12T11:37:52.762Z</time>
      </trkpt>
      <trkpt lat="48.20467" lon="-3.29605">
        <ele>204.500727</ele>
        <time>2022-12-12T11:37:55.754Z</time>
      </trkpt>
      <trkpt lat="48.20465" lon="-3.2959">
        <ele>204.518885</ele>
        <time>2022-12-12T11:37:58.770Z</time>
      </trkpt>
      <trkpt lat="48.20461" lon="-3.29576">
        <ele>204.53713</ele>
        <time>2022-12-12T11:38:01.750Z</time>
      </trkpt>
      <trkpt lat="48.20458" lon="-3.29559">
        <ele>204.557293</ele>
        <time>2022-12-12T11:38:04.767Z</time>
      </trkpt>
      <trkpt lat="48.20455" lon="-3.29546">
        <ele>204.573262</ele>
        <time>2022-12-12T11:38:07.780Z</time>
      </trkpt>
      <trkpt lat="48.2045" lon="-3.2953">
        <ele>204.594411</ele>
        <time>2022-12-12T11:38:11.773Z</time>
      </trkpt>
      <trkpt lat="48.20445" lon="-3.29517">
        <ele>204.611806</ele>
        <time>2022-12-12T11:38:14.760Z</time>
      </trkpt>
      <trkpt lat="48.20439" lon="-3.29503">
        <ele>204.63188</ele>
        <time>2022-12-12T11:38:17.771Z</time>
      </trkpt>
      <trkpt lat="48.20431" lon="-3.29489">
        <ele>204.65288</ele>
        <time>2022-12-12T11:38:20.781Z</time>
      </trkpt>
      <trkpt lat="48.20424" lon="-3.29474">
        <ele>204.674622</ele>
        <time>2022-12-12T11:38:23.775Z</time>
      </trkpt>
      <trkpt lat="48.20417" lon="-3.29459">
        <ele>204.696598</ele>
        <time>2022-12-12T11:38:26.771Z</time>
      </trkpt>
      <trkpt lat="48.20408" lon="-3.29445">
        <ele>204.718637</ele>
        <time>2022-12-12T11:38:29.778Z</time>
      </trkpt>
      <trkpt lat="48.20401" lon="-3.29434">
        <ele>204.737354</ele>
        <time>2022-12-12T11:38:32.778Z</time>
      </trkpt>
      <trkpt lat="48.20394" lon="-3.29422">
        <ele>204.756316</ele>
        <time>2022-12-12T11:38:35.769Z</time>
      </trkpt>
      <trkpt lat="48.20385" lon="-3.2941">
        <ele>204.777283</ele>
        <time>2022-12-12T11:38:38.774Z</time>
      </trkpt>
      <trkpt lat="48.20379" lon="-3.29399">
        <ele>204.862717</ele>
        <time>2022-12-12T11:38:41.771Z</time>
      </trkpt>
      <trkpt lat="48.20371" lon="-3.29387">
        <ele>204.998239</ele>
        <time>2022-12-12T11:38:45.775Z</time>
      </trkpt>
      <trkpt lat="48.20365" lon="-3.29375">
        <ele>205.122724</ele>
        <time>2022-12-12T11:38:48.761Z</time>
      </trkpt>
      <trkpt lat="48.20357" lon="-3.29362">
        <ele>205.274202</ele>
        <time>2022-12-12T11:38:51.758Z</time>
      </trkpt>
      <trkpt lat="48.20349" lon="-3.2935">
        <ele>205.416786</ele>
        <time>2022-12-12T11:38:54.783Z</time>
      </trkpt>
      <trkpt lat="48.20341" lon="-3.29337">
        <ele>205.557252</ele>
        <time>2022-12-12T11:38:57.781Z</time>
      </trkpt>
      <trkpt lat="48.20334" lon="-3.29323">
        <ele>205.700576</ele>
        <time>2022-12-12T11:39:00.780Z</time>
      </trkpt>
      <trkpt lat="48.20326" lon="-3.2931">
        <ele>205.852546</ele>
        <time>2022-12-12T11:39:03.778Z</time>
      </trkpt>
      <trkpt lat="48.20319" lon="-3.29297">
        <ele>205.995372</ele>
        <time>2022-12-12T11:39:06.775Z</time>
      </trkpt>
      <trkpt lat="48.20312" lon="-3.29285">
        <ele>206.126362</ele>
        <time>2022-12-12T11:39:09.775Z</time>
      </trkpt>
      <trkpt lat="48.20305" lon="-3.29275">
        <ele>206.244161</ele>
        <time>2022-12-12T11:39:12.780Z</time>
      </trkpt>
      <trkpt lat="48.20299" lon="-3.29265">
        <ele>206.359113</ele>
        <time>2022-12-12T11:39:15.783Z</time>
      </trkpt>
      <trkpt lat="48.20292" lon="-3.29253">
        <ele>206.487386</ele>
        <time>2022-12-12T11:39:18.768Z</time>
      </trkpt>
      <trkpt lat="48.20286" lon="-3.29242">
        <ele>206.607102</ele>
        <time>2022-12-12T11:39:21.771Z</time>
      </trkpt>
      <trkpt lat="48.20278" lon="-3.29231">
        <ele>206.74963</ele>
        <time>2022-12-12T11:39:25.757Z</time>
      </trkpt>
      <trkpt lat="48.20271" lon="-3.29219">
        <ele>206.876021</ele>
        <time>2022-12-12T11:39:28.756Z</time>
      </trkpt>
      <trkpt lat="48.20263" lon="-3.29207">
        <ele>207.020676</ele>
        <time>2022-12-12T11:39:31.783Z</time>
      </trkpt>
      <trkpt lat="48.20255" lon="-3.29194">
        <ele>206.727581</ele>
        <time>2022-12-12T11:39:34.773Z</time>
      </trkpt>
      <trkpt lat="48.20249" lon="-3.29181">
        <ele>206.431874</ele>
        <time>2022-12-12T11:39:37.780Z</time>
      </trkpt>
      <trkpt lat="48.20242" lon="-3.29168">
        <ele>206.11323</ele>
        <time>2022-12-12T11:39:40.773Z</time>
      </trkpt>
      <trkpt lat="48.20234" lon="-3.29153">
        <ele>205.744183</ele>
        <time>2022-12-12T11:39:43.750Z</time>
      </trkpt>
      <trkpt lat="48.20224" lon="-3.29137">
        <ele>205.348322</ele>
        <time>2022-12-12T11:39:46.780Z</time>
      </trkpt>
      <trkpt lat="48.20217" lon="-3.29126">
        <ele>205.049744</ele>
        <time>2022-12-12T11:39:48.779Z</time>
      </trkpt>
      <trkpt lat="48.2021" lon="-3.29115">
        <ele>204.768256</ele>
        <time>2022-12-12T11:39:50.780Z</time>
      </trkpt>
      <trkpt lat="48.20204" lon="-3.29105">
        <ele>204.505002</ele>
        <time>2022-12-12T11:39:52.778Z</time>
      </trkpt>
      <trkpt lat="48.20196" lon="-3.29092">
        <ele>204.164675</ele>
        <time>2022-12-12T11:39:55.780Z</time>
      </trkpt>
      <trkpt lat="48.20188" lon="-3.2908">
        <ele>203.836697</ele>
        <time>2022-12-12T11:39:58.779Z</time>
      </trkpt>
      <trkpt lat="48.20181" lon="-3.29067">
        <ele>203.533004</ele>
        <time>2022-12-12T11:40:01.779Z</time>
      </trkpt>
      <trkpt lat="48.20174" lon="-3.29054">
        <ele>203.209636</ele>
        <time>2022-12-12T11:40:04.775Z</time>
      </trkpt>
      <trkpt lat="48.20165" lon="-3.2904">
        <ele>202.853291</ele>
        <time>2022-12-12T11:40:07.780Z</time>
      </trkpt>
      <trkpt lat="48.20157" lon="-3.29025">
        <ele>202.4832</ele>
        <time>2022-12-12T11:40:10.780Z</time>
      </trkpt>
      <trkpt lat="48.20152" lon="-3.29014">
        <ele>202.226798</ele>
        <time>2022-12-12T11:40:12.751Z</time>
      </trkpt>
      <trkpt lat="48.20145" lon="-3.28996">
        <ele>201.964534</ele>
        <time>2022-12-12T11:40:15.762Z</time>
      </trkpt>
      <trkpt lat="48.2014" lon="-3.28985">
        <ele>202.06464</ele>
        <time>2022-12-12T11:40:17.756Z</time>
      </trkpt>
      <trkpt lat="48.20134" lon="-3.28968">
        <ele>202.210771</ele>
        <time>2022-12-12T11:40:20.760Z</time>
      </trkpt>
      <trkpt lat="48.2013" lon="-3.28952">
        <ele>202.335055</ele>
        <time>2022-12-12T11:40:23.776Z</time>
      </trkpt>
      <trkpt lat="48.20129" lon="-3.28937">
        <ele>202.446101</ele>
        <time>2022-12-12T11:40:26.759Z</time>
      </trkpt>
      <trkpt lat="48.20127" lon="-3.2892">
        <ele>202.569324</ele>
        <time>2022-12-12T11:40:29.775Z</time>
      </trkpt>
      <trkpt lat="48.20127" lon="-3.28902">
        <ele>202.703269</ele>
        <time>2022-12-12T11:40:32.776Z</time>
      </trkpt>
      <trkpt lat="48.20125" lon="-3.28884">
        <ele>202.834458</ele>
        <time>2022-12-12T11:40:35.774Z</time>
      </trkpt>
      <trkpt lat="48.20125" lon="-3.28866">
        <ele>202.96746</ele>
        <time>2022-12-12T11:40:38.766Z</time>
      </trkpt>
      <trkpt lat="48.20124" lon="-3.28849">
        <ele>203.098251</ele>
        <time>2022-12-12T11:40:41.759Z</time>
      </trkpt>
      <trkpt lat="48.20124" lon="-3.28831">
        <ele>203.229653</ele>
        <time>2022-12-12T11:40:44.769Z</time>
      </trkpt>
      <trkpt lat="48.20124" lon="-3.28812">
        <ele>203.366197</ele>
        <time>2022-12-12T11:40:47.778Z</time>
      </trkpt>
      <trkpt lat="48.20125" lon="-3.28795">
        <ele>203.492354</ele>
        <time>2022-12-12T11:40:51.760Z</time>
      </trkpt>
      <trkpt lat="48.20126" lon="-3.2878">
        <ele>203.609981</ele>
        <time>2022-12-12T11:40:54.776Z</time>
      </trkpt>
      <trkpt lat="48.20126" lon="-3.28761">
        <ele>203.749463</ele>
        <time>2022-12-12T11:40:57.755Z</time>
      </trkpt>
      <trkpt lat="48.20126" lon="-3.28741">
        <ele>203.895788</ele>
        <time>2022-12-12T11:41:00.773Z</time>
      </trkpt>
      <trkpt lat="48.20126" lon="-3.28722">
        <ele>204.034668</ele>
        <time>2022-12-12T11:41:03.774Z</time>
      </trkpt>
      <trkpt lat="48.20128" lon="-3.28705">
        <ele>204.170726</ele>
        <time>2022-12-12T11:41:06.775Z</time>
      </trkpt>
      <trkpt lat="48.20132" lon="-3.28685">
        <ele>204.325563</ele>
        <time>2022-12-12T11:41:09.780Z</time>
      </trkpt>
      <trkpt lat="48.20137" lon="-3.28667">
        <ele>204.469873</ele>
        <time>2022-12-12T11:41:12.758Z</time>
      </trkpt>
      <trkpt lat="48.20142" lon="-3.28653">
        <ele>204.591588</ele>
        <time>2022-12-12T11:41:15.753Z</time>
      </trkpt>
      <trkpt lat="48.20149" lon="-3.2864">
        <ele>204.720445</ele>
        <time>2022-12-12T11:41:18.762Z</time>
      </trkpt>
      <trkpt lat="48.20159" lon="-3.2863">
        <ele>204.85619</ele>
        <time>2022-12-12T11:41:21.767Z</time>
      </trkpt>
      <trkpt lat="48.2017" lon="-3.28622">
        <ele>204.990391</ele>
        <time>2022-12-12T11:41:24.755Z</time>
      </trkpt>
      <trkpt lat="48.20181" lon="-3.28615">
        <ele>205.131309</ele>
        <time>2022-12-12T11:41:27.755Z</time>
      </trkpt>
      <trkpt lat="48.20194" lon="-3.28609">
        <ele>205.282108</ele>
        <time>2022-12-12T11:41:30.775Z</time>
      </trkpt>
      <trkpt lat="48.20206" lon="-3.28603">
        <ele>205.427688</ele>
        <time>2022-12-12T11:41:33.777Z</time>
      </trkpt>
      <trkpt lat="48.20219" lon="-3.28597">
        <ele>205.574186</ele>
        <time>2022-12-12T11:41:36.782Z</time>
      </trkpt>
      <trkpt lat="48.2023" lon="-3.28592">
        <ele>205.705032</ele>
        <time>2022-12-12T11:41:39.759Z</time>
      </trkpt>
      <trkpt lat="48.20241" lon="-3.28587">
        <ele>205.84002</ele>
        <time>2022-12-12T11:41:42.778Z</time>
      </trkpt>
      <trkpt lat="48.20252" lon="-3.28582">
        <ele>205.955918</ele>
        <time>2022-12-12T11:41:45.778Z</time>
      </trkpt>
      <trkpt lat="48.20263" lon="-3.28576">
        <ele>205.935337</ele>
        <time>2022-12-12T11:41:48.776Z</time>
      </trkpt>
      <trkpt lat="48.20272" lon="-3.28572">
        <ele>205.919109</ele>
        <time>2022-12-12T11:41:50.777Z</time>
      </trkpt>
      <trkpt lat="48.20284" lon="-3.28565">
        <ele>205.896237</ele>
        <time>2022-12-12T11:41:53.778Z</time>
      </trkpt>
      <trkpt lat="48.20296" lon="-3.2856">
        <ele>205.874052</ele>
        <time>2022-12-12T11:41:56.777Z</time>
      </trkpt>
      <trkpt lat="48.20305" lon="-3.28556">
        <ele>205.858095</ele>
        <time>2022-12-12T11:41:58.779Z</time>
      </trkpt>
      <trkpt lat="48.20317" lon="-3.28549">
        <ele>205.835799</ele>
        <time>2022-12-12T11:42:01.780Z</time>
      </trkpt>
      <trkpt lat="48.20328" lon="-3.28544">
        <ele>205.815589</ele>
        <time>2022-12-12T11:42:04.774Z</time>
      </trkpt>
      <trkpt lat="48.20339" lon="-3.28539">
        <ele>205.794818</ele>
        <time>2022-12-12T11:42:07.772Z</time>
      </trkpt>
      <trkpt lat="48.20351" lon="-3.28533">
        <ele>205.773737</ele>
        <time>2022-12-12T11:42:10.776Z</time>
      </trkpt>
      <trkpt lat="48.20362" lon="-3.28527">
        <ele>205.753157</ele>
        <time>2022-12-12T11:42:13.778Z</time>
      </trkpt>
      <trkpt lat="48.20373" lon="-3.28522">
        <ele>205.731706</ele>
        <time>2022-12-12T11:42:16.759Z</time>
      </trkpt>
      <trkpt lat="48.20385" lon="-3.28516">
        <ele>205.710194</ele>
        <time>2022-12-12T11:42:19.757Z</time>
      </trkpt>
      <trkpt lat="48.20397" lon="-3.2851">
        <ele>205.687557</ele>
        <time>2022-12-12T11:42:22.780Z</time>
      </trkpt>
      <trkpt lat="48.20409" lon="-3.28504">
        <ele>205.665341</ele>
        <time>2022-12-12T11:42:25.780Z</time>
      </trkpt>
      <trkpt lat="48.20421" lon="-3.28497">
        <ele>205.643703</ele>
        <time>2022-12-12T11:42:28.775Z</time>
      </trkpt>
      <trkpt lat="48.20432" lon="-3.28491">
        <ele>205.472178</ele>
        <time>2022-12-12T11:42:31.778Z</time>
      </trkpt>
      <trkpt lat="48.20443" lon="-3.28484">
        <ele>205.27694</ele>
        <time>2022-12-12T11:42:34.766Z</time>
      </trkpt>
      <trkpt lat="48.20454" lon="-3.28479">
        <ele>205.091222</ele>
        <time>2022-12-12T11:42:37.782Z</time>
      </trkpt>
      <trkpt lat="48.20466" lon="-3.28473">
        <ele>204.888085</ele>
        <time>2022-12-12T11:42:40.764Z</time>
      </trkpt>
      <trkpt lat="48.20478" lon="-3.28467">
        <ele>204.694649</ele>
        <time>2022-12-12T11:42:43.776Z</time>
      </trkpt>
      <trkpt lat="48.20488" lon="-3.28461">
        <ele>204.514658</ele>
        <time>2022-12-12T11:42:46.769Z</time>
      </trkpt>
      <trkpt lat="48.20498" lon="-3.28453">
        <ele>204.342212</ele>
        <time>2022-12-12T11:42:49.764Z</time>
      </trkpt>
      <trkpt lat="48.20507" lon="-3.28444">
        <ele>204.161418</ele>
        <time>2022-12-12T11:42:52.774Z</time>
      </trkpt>
      <trkpt lat="48.20517" lon="-3.28433">
        <ele>203.97905</ele>
        <time>2022-12-12T11:42:55.760Z</time>
      </trkpt>
      <trkpt lat="48.20525" lon="-3.28422">
        <ele>203.80028</ele>
        <time>2022-12-12T11:42:58.776Z</time>
      </trkpt>
      <trkpt lat="48.20532" lon="-3.28408">
        <ele>203.61941</ele>
        <time>2022-12-12T11:43:01.775Z</time>
      </trkpt>
      <trkpt lat="48.20538" lon="-3.28394">
        <ele>203.438693</ele>
        <time>2022-12-12T11:43:04.759Z</time>
      </trkpt>
      <trkpt lat="48.20542" lon="-3.28378">
        <ele>203.25516</ele>
        <time>2022-12-12T11:43:07.762Z</time>
      </trkpt>
      <trkpt lat="48.20546" lon="-3.28361">
        <ele>203.0643</ele>
        <time>2022-12-12T11:43:10.765Z</time>
      </trkpt>
      <trkpt lat="48.20549" lon="-3.28343">
        <ele>202.87201</ele>
        <time>2022-12-12T11:43:13.756Z</time>
      </trkpt>
      <trkpt lat="48.20551" lon="-3.28324">
        <ele>202.723963</ele>
        <time>2022-12-12T11:43:16.760Z</time>
      </trkpt>
      <trkpt lat="48.20553" lon="-3.28306">
        <ele>202.614737</ele>
        <time>2022-12-12T11:43:19.782Z</time>
      </trkpt>
      <trkpt lat="48.20554" lon="-3.2829">
        <ele>202.51801</ele>
        <time>2022-12-12T11:43:22.772Z</time>
      </trkpt>
      <trkpt lat="48.20555" lon="-3.2827">
        <ele>202.405896</ele>
        <time>2022-12-12T11:43:25.782Z</time>
      </trkpt>
      <trkpt lat="48.20556" lon="-3.28252">
        <ele>202.300815</ele>
        <time>2022-12-12T11:43:28.775Z</time>
      </trkpt>
      <trkpt lat="48.20557" lon="-3.28234">
        <ele>202.191978</ele>
        <time>2022-12-12T11:43:31.781Z</time>
      </trkpt>
      <trkpt lat="48.20559" lon="-3.28215">
        <ele>202.081631</ele>
        <time>2022-12-12T11:43:34.770Z</time>
      </trkpt>
      <trkpt lat="48.2056" lon="-3.28196">
        <ele>201.968</ele>
        <time>2022-12-12T11:43:37.777Z</time>
      </trkpt>
      <trkpt lat="48.20562" lon="-3.28176">
        <ele>201.854948</ele>
        <time>2022-12-12T11:43:40.769Z</time>
      </trkpt>
      <trkpt lat="48.20563" lon="-3.2816">
        <ele>201.757508</ele>
        <time>2022-12-12T11:43:43.783Z</time>
      </trkpt>
      <trkpt lat="48.20565" lon="-3.28145">
        <ele>201.669831</ele>
        <time>2022-12-12T11:43:46.777Z</time>
      </trkpt>
      <trkpt lat="48.20567" lon="-3.28128">
        <ele>201.567341</ele>
        <time>2022-12-12T11:43:49.784Z</time>
      </trkpt>
      <trkpt lat="48.20567" lon="-3.28109">
        <ele>201.461184</ele>
        <time>2022-12-12T11:43:52.770Z</time>
      </trkpt>
      <trkpt lat="48.20568" lon="-3.28091">
        <ele>201.353918</ele>
        <time>2022-12-12T11:43:55.765Z</time>
      </trkpt>
      <trkpt lat="48.20567" lon="-3.28074">
        <ele>201.256451</ele>
        <time>2022-12-12T11:43:58.777Z</time>
      </trkpt>
      <trkpt lat="48.20565" lon="-3.28058">
        <ele>201.244611</ele>
        <time>2022-12-12T11:44:01.774Z</time>
      </trkpt>
      <trkpt lat="48.20562" lon="-3.28042">
        <ele>201.307709</ele>
        <time>2022-12-12T11:44:04.775Z</time>
      </trkpt>
      <trkpt lat="48.20558" lon="-3.28026">
        <ele>201.370526</ele>
        <time>2022-12-12T11:44:07.782Z</time>
      </trkpt>
      <trkpt lat="48.20553" lon="-3.28011">
        <ele>201.433169</ele>
        <time>2022-12-12T11:44:10.757Z</time>
      </trkpt>
      <trkpt lat="48.20547" lon="-3.27999">
        <ele>201.493591</ele>
        <time>2022-12-12T11:44:14.761Z</time>
      </trkpt>
      <trkpt lat="48.20539" lon="-3.27987">
        <ele>201.554131</ele>
        <time>2022-12-12T11:44:18.776Z</time>
      </trkpt>
      <trkpt lat="48.20531" lon="-3.27976">
        <ele>201.618145</ele>
        <time>2022-12-12T11:44:22.788Z</time>
      </trkpt>
      <trkpt lat="48.20523" lon="-3.27967">
        <ele>201.673359</ele>
        <time>2022-12-12T11:44:25.758Z</time>
      </trkpt>
      <trkpt lat="48.20514" lon="-3.2796">
        <ele>201.731211</ele>
        <time>2022-12-12T11:44:28.774Z</time>
      </trkpt>
      <trkpt lat="48.20505" lon="-3.27954">
        <ele>201.790434</ele>
        <time>2022-12-12T11:44:31.780Z</time>
      </trkpt>
      <trkpt lat="48.20495" lon="-3.27948">
        <ele>201.850455</ele>
        <time>2022-12-12T11:44:34.775Z</time>
      </trkpt>
      <trkpt lat="48.20485" lon="-3.27944">
        <ele>201.907909</ele>
        <time>2022-12-12T11:44:37.758Z</time>
      </trkpt>
      <trkpt lat="48.20475" lon="-3.27939">
        <ele>201.966654</ele>
        <time>2022-12-12T11:44:40.775Z</time>
      </trkpt>
      <trkpt lat="48.20465" lon="-3.27936">
        <ele>202.025469</ele>
        <time>2022-12-12T11:44:43.779Z</time>
      </trkpt>
      <trkpt lat="48.20454" lon="-3.27932">
        <ele>202.086081</ele>
        <time>2022-12-12T11:44:46.777Z</time>
      </trkpt>
      <trkpt lat="48.20444" lon="-3.27929">
        <ele>202.145359</ele>
        <time>2022-12-12T11:44:49.781Z</time>
      </trkpt>
      <trkpt lat="48.20433" lon="-3.27925">
        <ele>202.210077</ele>
        <time>2022-12-12T11:44:52.780Z</time>
      </trkpt>
      <trkpt lat="48.20423" lon="-3.27923">
        <ele>202.181982</ele>
        <time>2022-12-12T11:44:55.780Z</time>
      </trkpt>
      <trkpt lat="48.20412" lon="-3.27919">
        <ele>202.096103</ele>
        <time>2022-12-12T11:44:59.783Z</time>
      </trkpt>
      <trkpt lat="48.20403" lon="-3.27916">
        <ele>202.026435</ele>
        <time>2022-12-12T11:45:03.784Z</time>
      </trkpt>
      <trkpt lat="48.20404" lon="-3.27915">
        <ele>202.016697</ele>
        <time>2022-12-12T11:45:30.035Z</time>
      </trkpt>
      <trkpt lat="48.20391" lon="-3.2791">
        <ele>201.915855</ele>
        <time>2022-12-12T11:56:23.770Z</time>
      </trkpt>
      <trkpt lat="48.20382" lon="-3.27906">
        <ele>201.845804</ele>
        <time>2022-12-12T11:56:26.774Z</time>
      </trkpt>
      <trkpt lat="48.20372" lon="-3.27902">
        <ele>201.769771</ele>
        <time>2022-12-12T11:56:29.781Z</time>
      </trkpt>
      <trkpt lat="48.20361" lon="-3.27898">
        <ele>201.687227</ele>
        <time>2022-12-12T11:56:32.782Z</time>
      </trkpt>
      <trkpt lat="48.20352" lon="-3.27893">
        <ele>201.610463</ele>
        <time>2022-12-12T11:56:35.788Z</time>
      </trkpt>
      <trkpt lat="48.20342" lon="-3.27888">
        <ele>201.535168</ele>
        <time>2022-12-12T11:56:38.771Z</time>
      </trkpt>
      <trkpt lat="48.20333" lon="-3.27883">
        <ele>201.466253</ele>
        <time>2022-12-12T11:56:41.776Z</time>
      </trkpt>
      <trkpt lat="48.20324" lon="-3.27879">
        <ele>201.397338</ele>
        <time>2022-12-12T11:56:44.788Z</time>
      </trkpt>
      <trkpt lat="48.20315" lon="-3.27875">
        <ele>201.328134</ele>
        <time>2022-12-12T11:56:47.783Z</time>
      </trkpt>
      <trkpt lat="48.20305" lon="-3.27871">
        <ele>201.245033</ele>
        <time>2022-12-12T11:56:50.791Z</time>
      </trkpt>
      <trkpt lat="48.20294" lon="-3.27867">
        <ele>201.166593</ele>
        <time>2022-12-12T11:56:53.782Z</time>
      </trkpt>
      <trkpt lat="48.20283" lon="-3.27862">
        <ele>201.080858</ele>
        <time>2022-12-12T11:56:56.781Z</time>
      </trkpt>
      <trkpt lat="48.20271" lon="-3.27858">
        <ele>200.990567</ele>
        <time>2022-12-12T11:56:59.786Z</time>
      </trkpt>
      <trkpt lat="48.2026" lon="-3.27853">
        <ele>200.90476</ele>
        <time>2022-12-12T11:57:02.781Z</time>
      </trkpt>
      <trkpt lat="48.20251" lon="-3.27849">
        <ele>200.847653</ele>
        <time>2022-12-12T11:57:05.778Z</time>
      </trkpt>
      <trkpt lat="48.20241" lon="-3.27842">
        <ele>200.78144</ele>
        <time>2022-12-12T11:57:09.770Z</time>
      </trkpt>
      <trkpt lat="48.2023" lon="-3.27832">
        <ele>200.708211</ele>
        <time>2022-12-12T11:57:13.765Z</time>
      </trkpt>
      <trkpt lat="48.20224" lon="-3.27823">
        <ele>200.652871</ele>
        <time>2022-12-12T11:57:16.779Z</time>
      </trkpt>
      <trkpt lat="48.20218" lon="-3.27811">
        <ele>200.593857</ele>
        <time>2022-12-12T11:57:20.768Z</time>
      </trkpt>
      <trkpt lat="48.20211" lon="-3.27796">
        <ele>200.526144</ele>
        <time>2022-12-12T11:57:25.774Z</time>
      </trkpt>
      <trkpt lat="48.20208" lon="-3.27783">
        <ele>200.469078</ele>
        <time>2022-12-12T11:57:29.759Z</time>
      </trkpt>
      <trkpt lat="48.20206" lon="-3.27766">
        <ele>200.403197</ele>
        <time>2022-12-12T11:57:33.781Z</time>
      </trkpt>
      <trkpt lat="48.20204" lon="-3.27752">
        <ele>200.345421</ele>
        <time>2022-12-12T11:57:36.780Z</time>
      </trkpt>
      <trkpt lat="48.20203" lon="-3.27734">
        <ele>200.276656</ele>
        <time>2022-12-12T11:57:40.767Z</time>
      </trkpt>
      <trkpt lat="48.202" lon="-3.2772">
        <ele>200.217852</ele>
        <time>2022-12-12T11:57:43.781Z</time>
      </trkpt>
      <trkpt lat="48.20198" lon="-3.27706">
        <ele>200.161314</ele>
        <time>2022-12-12T11:57:46.770Z</time>
      </trkpt>
      <trkpt lat="48.20196" lon="-3.27691">
        <ele>200.102774</ele>
        <time>2022-12-12T11:57:49.783Z</time>
      </trkpt>
      <trkpt lat="48.20194" lon="-3.27674">
        <ele>200.03331</ele>
        <time>2022-12-12T11:57:52.773Z</time>
      </trkpt>
      <trkpt lat="48.20192" lon="-3.27657">
        <ele>199.965449</ele>
        <time>2022-12-12T11:57:55.765Z</time>
      </trkpt>
      <trkpt lat="48.20191" lon="-3.2764">
        <ele>199.897333</ele>
        <time>2022-12-12T11:57:58.778Z</time>
      </trkpt>
      <trkpt lat="48.20188" lon="-3.27622">
        <ele>199.777994</ele>
        <time>2022-12-12T11:58:01.774Z</time>
      </trkpt>
      <trkpt lat="48.20186" lon="-3.27607">
        <ele>199.401652</ele>
        <time>2022-12-12T11:58:04.776Z</time>
      </trkpt>
      <trkpt lat="48.20186" lon="-3.27593">
        <ele>199.061633</ele>
        <time>2022-12-12T11:58:08.769Z</time>
      </trkpt>
      <trkpt lat="48.20185" lon="-3.27575">
        <ele>198.648966</ele>
        <time>2022-12-12T11:58:12.787Z</time>
      </trkpt>
      <trkpt lat="48.20183" lon="-3.27558">
        <ele>198.226822</ele>
        <time>2022-12-12T11:58:16.767Z</time>
      </trkpt>
      <trkpt lat="48.20182" lon="-3.27543">
        <ele>197.869309</ele>
        <time>2022-12-12T11:58:19.768Z</time>
      </trkpt>
      <trkpt lat="48.20181" lon="-3.27529">
        <ele>197.510771</ele>
        <time>2022-12-12T11:58:22.780Z</time>
      </trkpt>
      <trkpt lat="48.20179" lon="-3.27511">
        <ele>197.06818</ele>
        <time>2022-12-12T11:58:26.771Z</time>
      </trkpt>
      <trkpt lat="48.20178" lon="-3.27494">
        <ele>196.671469</ele>
        <time>2022-12-12T11:58:29.780Z</time>
      </trkpt>
      <trkpt lat="48.20176" lon="-3.27477">
        <ele>196.246372</ele>
        <time>2022-12-12T11:58:32.782Z</time>
      </trkpt>
      <trkpt lat="48.20174" lon="-3.27461">
        <ele>195.849156</ele>
        <time>2022-12-12T11:58:35.782Z</time>
      </trkpt>
      <trkpt lat="48.20172" lon="-3.27447">
        <ele>195.5016</ele>
        <time>2022-12-12T11:58:38.786Z</time>
      </trkpt>
      <trkpt lat="48.20172" lon="-3.27429">
        <ele>195.086918</ele>
        <time>2022-12-12T11:58:42.781Z</time>
      </trkpt>
      <trkpt lat="48.2017" lon="-3.27415">
        <ele>194.740839</ele>
        <time>2022-12-12T11:58:45.782Z</time>
      </trkpt>
      <trkpt lat="48.20168" lon="-3.27401">
        <ele>194.393283</ele>
        <time>2022-12-12T11:58:48.778Z</time>
      </trkpt>
      <trkpt lat="48.20167" lon="-3.27384">
        <ele>193.976335</ele>
        <time>2022-12-12T11:58:52.762Z</time>
      </trkpt>
      <trkpt lat="48.20165" lon="-3.2737">
        <ele>193.622238</ele>
        <time>2022-12-12T11:58:55.763Z</time>
      </trkpt>
      <trkpt lat="48.20161" lon="-3.27355">
        <ele>193.364354</ele>
        <time>2022-12-12T11:58:58.763Z</time>
      </trkpt>
      <trkpt lat="48.20158" lon="-3.2734">
        <ele>193.532927</ele>
        <time>2022-12-12T11:59:02.777Z</time>
      </trkpt>
      <trkpt lat="48.20153" lon="-3.27326">
        <ele>193.696078</ele>
        <time>2022-12-12T11:59:05.762Z</time>
      </trkpt>
      <trkpt lat="48.20149" lon="-3.27313">
        <ele>193.848186</ele>
        <time>2022-12-12T11:59:08.782Z</time>
      </trkpt>
      <trkpt lat="48.20144" lon="-3.27299">
        <ele>194.01583</ele>
        <time>2022-12-12T11:59:11.786Z</time>
      </trkpt>
      <trkpt lat="48.20139" lon="-3.27285">
        <ele>194.189132</ele>
        <time>2022-12-12T11:59:14.784Z</time>
      </trkpt>
      <trkpt lat="48.20134" lon="-3.27271">
        <ele>194.354902</ele>
        <time>2022-12-12T11:59:17.785Z</time>
      </trkpt>
      <trkpt lat="48.20129" lon="-3.27255">
        <ele>194.535819</ele>
        <time>2022-12-12T11:59:20.782Z</time>
      </trkpt>
      <trkpt lat="48.20124" lon="-3.27241">
        <ele>194.70852</ele>
        <time>2022-12-12T11:59:23.781Z</time>
      </trkpt>
      <trkpt lat="48.20119" lon="-3.27226">
        <ele>194.891327</ele>
        <time>2022-12-12T11:59:26.784Z</time>
      </trkpt>
      <trkpt lat="48.20114" lon="-3.27211">
        <ele>195.063467</ele>
        <time>2022-12-12T11:59:29.765Z</time>
      </trkpt>
      <trkpt lat="48.20109" lon="-3.27197">
        <ele>195.239163</ele>
        <time>2022-12-12T11:59:32.779Z</time>
      </trkpt>
      <trkpt lat="48.20104" lon="-3.27183">
        <ele>195.399188</ele>
        <time>2022-12-12T11:59:35.780Z</time>
      </trkpt>
      <trkpt lat="48.201" lon="-3.2717">
        <ele>195.554207</ele>
        <time>2022-12-12T11:59:38.787Z</time>
      </trkpt>
      <trkpt lat="48.20095" lon="-3.27157">
        <ele>195.715172</ele>
        <time>2022-12-12T11:59:41.785Z</time>
      </trkpt>
      <trkpt lat="48.2009" lon="-3.27143">
        <ele>195.885868</ele>
        <time>2022-12-12T11:59:44.773Z</time>
      </trkpt>
      <trkpt lat="48.20085" lon="-3.27128">
        <ele>196.060906</ele>
        <time>2022-12-12T11:59:47.780Z</time>
      </trkpt>
      <trkpt lat="48.20078" lon="-3.27116">
        <ele>196.23033</ele>
        <time>2022-12-12T11:59:50.782Z</time>
      </trkpt>
      <trkpt lat="48.20072" lon="-3.27106">
        <ele>196.402975</ele>
        <time>2022-12-12T11:59:53.778Z</time>
      </trkpt>
      <trkpt lat="48.20064" lon="-3.27096">
        <ele>196.577197</ele>
        <time>2022-12-12T11:59:56.781Z</time>
      </trkpt>
      <trkpt lat="48.20054" lon="-3.27085">
        <ele>196.806528</ele>
        <time>2022-12-12T12:00:00.770Z</time>
      </trkpt>
      <trkpt lat="48.20046" lon="-3.27076">
        <ele>196.996984</ele>
        <time>2022-12-12T12:00:03.773Z</time>
      </trkpt>
      <trkpt lat="48.20036" lon="-3.27068">
        <ele>197.192092</ele>
        <time>2022-12-12T12:00:06.777Z</time>
      </trkpt>
      <trkpt lat="48.20027" lon="-3.27061">
        <ele>197.386778</ele>
        <time>2022-12-12T12:00:09.779Z</time>
      </trkpt>
      <trkpt lat="48.20017" lon="-3.27057">
        <ele>197.568414</ele>
        <time>2022-12-12T12:00:12.768Z</time>
      </trkpt>
      <trkpt lat="48.20006" lon="-3.27049">
        <ele>197.780389</ele>
        <time>2022-12-12T12:00:15.781Z</time>
      </trkpt>
      <trkpt lat="48.19995" lon="-3.27044">
        <ele>197.986198</ele>
        <time>2022-12-12T12:00:18.765Z</time>
      </trkpt>
      <trkpt lat="48.19985" lon="-3.27041">
        <ele>198.187322</ele>
        <time>2022-12-12T12:00:21.782Z</time>
      </trkpt>
      <trkpt lat="48.19974" lon="-3.27038">
        <ele>198.381995</ele>
        <time>2022-12-12T12:00:24.782Z</time>
      </trkpt>
      <trkpt lat="48.19963" lon="-3.27036">
        <ele>198.588417</ele>
        <time>2022-12-12T12:00:27.781Z</time>
      </trkpt>
      <trkpt lat="48.19953" lon="-3.27033">
        <ele>198.773109</ele>
        <time>2022-12-12T12:00:30.778Z</time>
      </trkpt>
      <trkpt lat="48.19943" lon="-3.27031">
        <ele>198.956935</ele>
        <time>2022-12-12T12:00:33.761Z</time>
      </trkpt>
      <trkpt lat="48.19933" lon="-3.27027">
        <ele>199.143818</ele>
        <time>2022-12-12T12:00:36.763Z</time>
      </trkpt>
      <trkpt lat="48.19924" lon="-3.27025">
        <ele>199.308206</ele>
        <time>2022-12-12T12:00:39.782Z</time>
      </trkpt>
      <trkpt lat="48.19913" lon="-3.27024">
        <ele>199.447725</ele>
        <time>2022-12-12T12:00:42.786Z</time>
      </trkpt>
      <trkpt lat="48.19902" lon="-3.27025">
        <ele>199.469964</ele>
        <time>2022-12-12T12:00:45.780Z</time>
      </trkpt>
      <trkpt lat="48.19892" lon="-3.27026">
        <ele>199.490133</ele>
        <time>2022-12-12T12:00:48.778Z</time>
      </trkpt>
      <trkpt lat="48.19881" lon="-3.27031">
        <ele>199.512282</ele>
        <time>2022-12-12T12:00:51.781Z</time>
      </trkpt>
      <trkpt lat="48.1987" lon="-3.27035">
        <ele>199.534121</ele>
        <time>2022-12-12T12:00:54.782Z</time>
      </trkpt>
      <trkpt lat="48.19861" lon="-3.27042">
        <ele>199.554407</ele>
        <time>2022-12-12T12:00:57.764Z</time>
      </trkpt>
      <trkpt lat="48.19852" lon="-3.27047">
        <ele>199.572705</ele>
        <time>2022-12-12T12:01:00.779Z</time>
      </trkpt>
      <trkpt lat="48.19844" lon="-3.27055">
        <ele>199.592188</ele>
        <time>2022-12-12T12:01:03.765Z</time>
      </trkpt>
      <trkpt lat="48.19836" lon="-3.27065">
        <ele>199.612403</ele>
        <time>2022-12-12T12:01:06.786Z</time>
      </trkpt>
      <trkpt lat="48.19829" lon="-3.27074">
        <ele>199.630267</ele>
        <time>2022-12-12T12:01:09.782Z</time>
      </trkpt>
      <trkpt lat="48.19822" lon="-3.27084">
        <ele>199.649496</ele>
        <time>2022-12-12T12:01:12.791Z</time>
      </trkpt>
      <trkpt lat="48.19815" lon="-3.27096">
        <ele>199.669929</ele>
        <time>2022-12-12T12:01:15.761Z</time>
      </trkpt>
      <trkpt lat="48.1981" lon="-3.27107">
        <ele>199.689011</ele>
        <time>2022-12-12T12:01:18.774Z</time>
      </trkpt>
      <trkpt lat="48.19803" lon="-3.27122">
        <ele>199.711577</ele>
        <time>2022-12-12T12:01:21.787Z</time>
      </trkpt>
      <trkpt lat="48.19798" lon="-3.27135">
        <ele>199.731483</ele>
        <time>2022-12-12T12:01:24.788Z</time>
      </trkpt>
      <trkpt lat="48.19793" lon="-3.27148">
        <ele>199.75187</ele>
        <time>2022-12-12T12:01:27.781Z</time>
      </trkpt>
      <trkpt lat="48.19787" lon="-3.27163">
        <ele>199.774134</ele>
        <time>2022-12-12T12:01:30.779Z</time>
      </trkpt>
      <trkpt lat="48.19782" lon="-3.27178">
        <ele>199.793225</ele>
        <time>2022-12-12T12:01:33.785Z</time>
      </trkpt>
      <trkpt lat="48.19776" lon="-3.27192">
        <ele>199.65225</ele>
        <time>2022-12-12T12:01:36.787Z</time>
      </trkpt>
      <trkpt lat="48.19771" lon="-3.27205">
        <ele>199.520142</ele>
        <time>2022-12-12T12:01:39.786Z</time>
      </trkpt>
      <trkpt lat="48.19765" lon="-3.27218">
        <ele>199.385228</ele>
        <time>2022-12-12T12:01:43.780Z</time>
      </trkpt>
      <trkpt lat="48.1976" lon="-3.27233">
        <ele>199.236392</ele>
        <time>2022-12-12T12:01:47.782Z</time>
      </trkpt>
      <trkpt lat="48.19754" lon="-3.27244">
        <ele>199.111374</ele>
        <time>2022-12-12T12:01:50.786Z</time>
      </trkpt>
      <trkpt lat="48.19744" lon="-3.27255">
        <ele>198.957368</ele>
        <time>2022-12-12T12:01:54.773Z</time>
      </trkpt>
      <trkpt lat="48.19734" lon="-3.2726">
        <ele>198.818544</ele>
        <time>2022-12-12T12:01:58.771Z</time>
      </trkpt>
      <trkpt lat="48.19725" lon="-3.27264">
        <ele>198.687936</ele>
        <time>2022-12-12T12:02:01.773Z</time>
      </trkpt>
      <trkpt lat="48.19714" lon="-3.27266">
        <ele>198.555753</ele>
        <time>2022-12-12T12:02:04.761Z</time>
      </trkpt>
      <trkpt lat="48.19703" lon="-3.27266">
        <ele>198.408764</ele>
        <time>2022-12-12T12:02:07.782Z</time>
      </trkpt>
      <trkpt lat="48.19693" lon="-3.27263">
        <ele>198.277575</ele>
        <time>2022-12-12T12:02:10.768Z</time>
      </trkpt>
      <trkpt lat="48.19684" lon="-3.27259">
        <ele>198.154</ele>
        <time>2022-12-12T12:02:13.782Z</time>
      </trkpt>
      <trkpt lat="48.19676" lon="-3.27252">
        <ele>198.029028</ele>
        <time>2022-12-12T12:02:16.764Z</time>
      </trkpt>
      <trkpt lat="48.19668" lon="-3.27241">
        <ele>197.889251</ele>
        <time>2022-12-12T12:02:20.761Z</time>
      </trkpt>
      <trkpt lat="48.19663" lon="-3.27226">
        <ele>197.742653</ele>
        <time>2022-12-12T12:02:24.764Z</time>
      </trkpt>
      <trkpt lat="48.19661" lon="-3.27211">
        <ele>197.61281</ele>
        <time>2022-12-12T12:02:27.774Z</time>
      </trkpt>
      <trkpt lat="48.1966" lon="-3.27195">
        <ele>197.472364</ele>
        <time>2022-12-12T12:02:30.763Z</time>
      </trkpt>
      <trkpt lat="48.1966" lon="-3.27179">
        <ele>197.167487</ele>
        <time>2022-12-12T12:02:33.786Z</time>
      </trkpt>
      <trkpt lat="48.19664" lon="-3.27167">
        <ele>196.88659</ele>
        <time>2022-12-12T12:02:36.763Z</time>
      </trkpt>
      <trkpt lat="48.19667" lon="-3.27152">
        <ele>196.57052</ele>
        <time>2022-12-12T12:02:39.786Z</time>
      </trkpt>
      <trkpt lat="48.1967" lon="-3.27136">
        <ele>196.231848</ele>
        <time>2022-12-12T12:02:42.780Z</time>
      </trkpt>
      <trkpt lat="48.19674" lon="-3.27121">
        <ele>195.886386</ele>
        <time>2022-12-12T12:02:45.767Z</time>
      </trkpt>
      <trkpt lat="48.19678" lon="-3.27102">
        <ele>195.486846</ele>
        <time>2022-12-12T12:02:48.785Z</time>
      </trkpt>
      <trkpt lat="48.19681" lon="-3.27083">
        <ele>195.093491</ele>
        <time>2022-12-12T12:02:51.785Z</time>
      </trkpt>
      <trkpt lat="48.19684" lon="-3.2707">
        <ele>194.795039</ele>
        <time>2022-12-12T12:02:54.778Z</time>
      </trkpt>
      <trkpt lat="48.19687" lon="-3.27056">
        <ele>194.486768</ele>
        <time>2022-12-12T12:02:57.772Z</time>
      </trkpt>
      <trkpt lat="48.1969" lon="-3.27041">
        <ele>194.179481</ele>
        <time>2022-12-12T12:03:00.788Z</time>
      </trkpt>
      <trkpt lat="48.19693" lon="-3.27027">
        <ele>193.874871</ele>
        <time>2022-12-12T12:03:03.783Z</time>
      </trkpt>
      <trkpt lat="48.19695" lon="-3.27012">
        <ele>193.546386</ele>
        <time>2022-12-12T12:03:06.764Z</time>
      </trkpt>
      <trkpt lat="48.197" lon="-3.26998">
        <ele>193.218368</ele>
        <time>2022-12-12T12:03:10.781Z</time>
      </trkpt>
      <trkpt lat="48.19704" lon="-3.26982">
        <ele>192.877685</ele>
        <time>2022-12-12T12:03:14.777Z</time>
      </trkpt>
      <trkpt lat="48.19706" lon="-3.26964">
        <ele>192.501637</ele>
        <time>2022-12-12T12:03:19.785Z</time>
      </trkpt>
      <trkpt lat="48.19705" lon="-3.26948">
        <ele>192.162844</ele>
        <time>2022-12-12T12:03:22.776Z</time>
      </trkpt>
      <trkpt lat="48.19702" lon="-3.26933">
        <ele>191.938315</ele>
        <time>2022-12-12T12:03:25.782Z</time>
      </trkpt>
      <trkpt lat="48.19698" lon="-3.26916">
        <ele>192.289323</ele>
        <time>2022-12-12T12:03:28.784Z</time>
      </trkpt>
      <trkpt lat="48.19693" lon="-3.26898">
        <ele>192.667318</ele>
        <time>2022-12-12T12:03:31.760Z</time>
      </trkpt>
      <trkpt lat="48.19688" lon="-3.26881">
        <ele>193.048773</ele>
        <time>2022-12-12T12:03:34.783Z</time>
      </trkpt>
      <trkpt lat="48.19683" lon="-3.26863">
        <ele>193.409618</ele>
        <time>2022-12-12T12:03:37.778Z</time>
      </trkpt>
      <trkpt lat="48.19679" lon="-3.26849">
        <ele>193.711777</ele>
        <time>2022-12-12T12:03:40.774Z</time>
      </trkpt>
      <trkpt lat="48.19677" lon="-3.26836">
        <ele>193.989284</ele>
        <time>2022-12-12T12:03:43.765Z</time>
      </trkpt>
      <trkpt lat="48.19674" lon="-3.26822">
        <ele>194.258976</ele>
        <time>2022-12-12T12:03:46.774Z</time>
      </trkpt>
      <trkpt lat="48.1967" lon="-3.26807">
        <ele>194.576827</ele>
        <time>2022-12-12T12:03:50.772Z</time>
      </trkpt>
      <trkpt lat="48.19666" lon="-3.2679">
        <ele>194.936366</ele>
        <time>2022-12-12T12:03:54.771Z</time>
      </trkpt>
      <trkpt lat="48.19661" lon="-3.26772">
        <ele>195.317994</ele>
        <time>2022-12-12T12:03:57.784Z</time>
      </trkpt>
      <trkpt lat="48.19657" lon="-3.26758">
        <ele>195.621734</ele>
        <time>2022-12-12T12:03:59.782Z</time>
      </trkpt>
      <trkpt lat="48.19654" lon="-3.26745">
        <ele>195.895581</ele>
        <time>2022-12-12T12:04:01.763Z</time>
      </trkpt>
      <trkpt lat="48.19649" lon="-3.26727">
        <ele>196.268467</ele>
        <time>2022-12-12T12:04:04.781Z</time>
      </trkpt>
      <trkpt lat="48.19645" lon="-3.2671">
        <ele>196.618028</ele>
        <time>2022-12-12T12:04:07.773Z</time>
      </trkpt>
      <trkpt lat="48.19641" lon="-3.26695">
        <ele>196.949566</ele>
        <time>2022-12-12T12:04:10.768Z</time>
      </trkpt>
      <trkpt lat="48.19637" lon="-3.26677">
        <ele>197.148209</ele>
        <time>2022-12-12T12:04:13.765Z</time>
      </trkpt>
      <trkpt lat="48.19633" lon="-3.26659">
        <ele>197.028748</ele>
        <time>2022-12-12T12:04:16.772Z</time>
      </trkpt>
      <trkpt lat="48.19629" lon="-3.2664">
        <ele>196.908042</ele>
        <time>2022-12-12T12:04:19.766Z</time>
      </trkpt>
      <trkpt lat="48.19624" lon="-3.26622">
        <ele>196.786562</ele>
        <time>2022-12-12T12:04:22.781Z</time>
      </trkpt>
      <trkpt lat="48.1962" lon="-3.2661">
        <ele>196.701992</ele>
        <time>2022-12-12T12:04:24.778Z</time>
      </trkpt>
      <trkpt lat="48.19615" lon="-3.26591">
        <ele>196.578086</ele>
        <time>2022-12-12T12:04:27.780Z</time>
      </trkpt>
      <trkpt lat="48.19611" lon="-3.26572">
        <ele>196.457682</ele>
        <time>2022-12-12T12:04:30.763Z</time>
      </trkpt>
      <trkpt lat="48.19608" lon="-3.26558">
        <ele>196.366185</ele>
        <time>2022-12-12T12:04:33.780Z</time>
      </trkpt>
      <trkpt lat="48.19606" lon="-3.26543">
        <ele>196.274037</ele>
        <time>2022-12-12T12:04:36.786Z</time>
      </trkpt>
      <trkpt lat="48.19604" lon="-3.26529">
        <ele>196.187837</ele>
        <time>2022-12-12T12:04:39.778Z</time>
      </trkpt>
      <trkpt lat="48.19604" lon="-3.26514">
        <ele>196.095087</ele>
        <time>2022-12-12T12:04:42.774Z</time>
      </trkpt>
      <trkpt lat="48.19603" lon="-3.26497">
        <ele>195.987199</ele>
        <time>2022-12-12T12:04:45.779Z</time>
      </trkpt>
      <trkpt lat="48.19601" lon="-3.26477">
        <ele>195.86693</ele>
        <time>2022-12-12T12:04:48.778Z</time>
      </trkpt>
      <trkpt lat="48.19598" lon="-3.26458">
        <ele>195.747545</ele>
        <time>2022-12-12T12:04:51.787Z</time>
      </trkpt>
      <trkpt lat="48.19596" lon="-3.2644">
        <ele>195.633785</ele>
        <time>2022-12-12T12:04:54.781Z</time>
      </trkpt>
      <trkpt lat="48.19595" lon="-3.26423">
        <ele>195.530183</ele>
        <time>2022-12-12T12:04:58.773Z</time>
      </trkpt>
      <trkpt lat="48.19595" lon="-3.2641">
        <ele>195.833203</ele>
        <time>2022-12-12T12:05:01.764Z</time>
      </trkpt>
      <trkpt lat="48.19594" lon="-3.26395">
        <ele>196.159957</ele>
        <time>2022-12-12T12:05:04.777Z</time>
      </trkpt>
      <trkpt lat="48.19594" lon="-3.2638">
        <ele>196.501844</ele>
        <time>2022-12-12T12:05:07.780Z</time>
      </trkpt>
      <trkpt lat="48.1959" lon="-3.26362">
        <ele>196.93898</ele>
        <time>2022-12-12T12:05:10.767Z</time>
      </trkpt>
      <trkpt lat="48.19587" lon="-3.26347">
        <ele>197.277653</ele>
        <time>2022-12-12T12:05:13.785Z</time>
      </trkpt>
      <trkpt lat="48.19586" lon="-3.26328">
        <ele>197.712144</ele>
        <time>2022-12-12T12:05:17.780Z</time>
      </trkpt>
      <trkpt lat="48.19581" lon="-3.26312">
        <ele>198.130761</ele>
        <time>2022-12-12T12:05:20.761Z</time>
      </trkpt>
      <trkpt lat="48.19577" lon="-3.26299">
        <ele>198.443233</ele>
        <time>2022-12-12T12:05:23.772Z</time>
      </trkpt>
      <trkpt lat="48.19569" lon="-3.26284">
        <ele>198.865549</ele>
        <time>2022-12-12T12:05:26.761Z</time>
      </trkpt>
      <trkpt lat="48.19563" lon="-3.26272">
        <ele>199.202178</ele>
        <time>2022-12-12T12:05:28.780Z</time>
      </trkpt>
      <trkpt lat="48.19557" lon="-3.26261">
        <ele>199.532529</ele>
        <time>2022-12-12T12:05:30.784Z</time>
      </trkpt>
      <trkpt lat="48.19552" lon="-3.2625">
        <ele>199.846187</ele>
        <time>2022-12-12T12:05:32.779Z</time>
      </trkpt>
      <trkpt lat="48.19543" lon="-3.26237">
        <ele>200.275274</ele>
        <time>2022-12-12T12:05:35.764Z</time>
      </trkpt>
      <trkpt lat="48.19534" lon="-3.26225">
        <ele>200.664039</ele>
        <time>2022-12-12T12:05:38.784Z</time>
      </trkpt>
      <trkpt lat="48.19526" lon="-3.26216">
        <ele>201.021335</ele>
        <time>2022-12-12T12:05:41.774Z</time>
      </trkpt>
      <trkpt lat="48.19517" lon="-3.26207">
        <ele>201.369321</ele>
        <time>2022-12-12T12:05:44.787Z</time>
      </trkpt>
      <trkpt lat="48.19509" lon="-3.26198">
        <ele>201.592157</ele>
        <time>2022-12-12T12:05:47.784Z</time>
      </trkpt>
      <trkpt lat="48.195" lon="-3.26189">
        <ele>201.385826</ele>
        <time>2022-12-12T12:05:50.794Z</time>
      </trkpt>
      <trkpt lat="48.1949" lon="-3.26177">
        <ele>201.15286</ele>
        <time>2022-12-12T12:05:53.781Z</time>
      </trkpt>
      <trkpt lat="48.19479" lon="-3.26167">
        <ele>200.908599</ele>
        <time>2022-12-12T12:05:56.764Z</time>
      </trkpt>
      <trkpt lat="48.19469" lon="-3.26155">
        <ele>200.666562</ele>
        <time>2022-12-12T12:05:59.784Z</time>
      </trkpt>
      <trkpt lat="48.19458" lon="-3.26142">
        <ele>200.417544</ele>
        <time>2022-12-12T12:06:02.785Z</time>
      </trkpt>
      <trkpt lat="48.19452" lon="-3.26133">
        <ele>200.246595</ele>
        <time>2022-12-12T12:06:04.787Z</time>
      </trkpt>
      <trkpt lat="48.19443" lon="-3.2612">
        <ele>200.011847</ele>
        <time>2022-12-12T12:06:07.781Z</time>
      </trkpt>
      <trkpt lat="48.19439" lon="-3.26102">
        <ele>199.772456</ele>
        <time>2022-12-12T12:06:10.766Z</time>
      </trkpt>
      <trkpt lat="48.1944" lon="-3.26082">
        <ele>199.524157</ele>
        <time>2022-12-12T12:06:13.775Z</time>
      </trkpt>
      <trkpt lat="48.19443" lon="-3.26063">
        <ele>199.279641</ele>
        <time>2022-12-12T12:06:16.787Z</time>
      </trkpt>
      <trkpt lat="48.19447" lon="-3.26046">
        <ele>199.049883</ele>
        <time>2022-12-12T12:06:19.761Z</time>
      </trkpt>
      <trkpt lat="48.19454" lon="-3.26035">
        <ele>198.867863</ele>
        <time>2022-12-12T12:06:22.774Z</time>
      </trkpt>
      <trkpt lat="48.19462" lon="-3.26026">
        <ele>198.664979</ele>
        <time>2022-12-12T12:06:25.785Z</time>
      </trkpt>
      <trkpt lat="48.19472" lon="-3.26016">
        <ele>198.441465</ele>
        <time>2022-12-12T12:06:28.780Z</time>
      </trkpt>
      <trkpt lat="48.19481" lon="-3.26006">
        <ele>198.221922</ele>
        <time>2022-12-12T12:06:31.764Z</time>
      </trkpt>
      <trkpt lat="48.19491" lon="-3.25997">
        <ele>197.878543</ele>
        <time>2022-12-12T12:06:34.764Z</time>
      </trkpt>
      <trkpt lat="48.19501" lon="-3.25987">
        <ele>197.525892</ele>
        <time>2022-12-12T12:06:37.784Z</time>
      </trkpt>
      <trkpt lat="48.1951" lon="-3.25977">
        <ele>197.20641</ele>
        <time>2022-12-12T12:06:40.780Z</time>
      </trkpt>
      <trkpt lat="48.1952" lon="-3.2597">
        <ele>196.879728</ele>
        <time>2022-12-12T12:06:43.761Z</time>
      </trkpt>
      <trkpt lat="48.19528" lon="-3.25962">
        <ele>196.577085</ele>
        <time>2022-12-12T12:06:46.788Z</time>
      </trkpt>
      <trkpt lat="48.19538" lon="-3.25951">
        <ele>196.229512</ele>
        <time>2022-12-12T12:06:49.780Z</time>
      </trkpt>
      <trkpt lat="48.19547" lon="-3.25941">
        <ele>195.907867</ele>
        <time>2022-12-12T12:06:52.781Z</time>
      </trkpt>
      <trkpt lat="48.19555" lon="-3.25933">
        <ele>195.608314</ele>
        <time>2022-12-12T12:06:55.769Z</time>
      </trkpt>
      <trkpt lat="48.19564" lon="-3.25923">
        <ele>195.277206</ele>
        <time>2022-12-12T12:06:58.780Z</time>
      </trkpt>
      <trkpt lat="48.19575" lon="-3.25912">
        <ele>194.884269</ele>
        <time>2022-12-12T12:07:01.782Z</time>
      </trkpt>
      <trkpt lat="48.19583" lon="-3.25905">
        <ele>194.614013</ele>
        <time>2022-12-12T12:07:03.774Z</time>
      </trkpt>
      <trkpt lat="48.19592" lon="-3.25897">
        <ele>194.321987</ele>
        <time>2022-12-12T12:07:05.772Z</time>
      </trkpt>
      <trkpt lat="48.196" lon="-3.25888">
        <ele>194.015806</ele>
        <time>2022-12-12T12:07:07.783Z</time>
      </trkpt>
      <trkpt lat="48.1961" lon="-3.25878">
        <ele>193.669128</ele>
        <time>2022-12-12T12:07:09.783Z</time>
      </trkpt>
      <trkpt lat="48.19618" lon="-3.25869">
        <ele>193.36278</ele>
        <time>2022-12-12T12:07:11.780Z</time>
      </trkpt>
      <trkpt lat="48.19625" lon="-3.2586">
        <ele>193.088242</ele>
        <time>2022-12-12T12:07:13.764Z</time>
      </trkpt>
      <trkpt lat="48.19632" lon="-3.25845">
        <ele>192.836871</ele>
        <time>2022-12-12T12:07:16.766Z</time>
      </trkpt>
      <trkpt lat="48.19635" lon="-3.25832">
        <ele>192.677978</ele>
        <time>2022-12-12T12:07:19.766Z</time>
      </trkpt>
      <trkpt lat="48.19636" lon="-3.25817">
        <ele>192.510389</ele>
        <time>2022-12-12T12:07:22.771Z</time>
      </trkpt>
      <trkpt lat="48.19634" lon="-3.25799">
        <ele>192.303288</ele>
        <time>2022-12-12T12:07:25.773Z</time>
      </trkpt>
      <trkpt lat="48.19631" lon="-3.25781">
        <ele>192.091829</ele>
        <time>2022-12-12T12:07:28.786Z</time>
      </trkpt>
      <trkpt lat="48.19626" lon="-3.25763">
        <ele>191.87576</ele>
        <time>2022-12-12T12:07:31.778Z</time>
      </trkpt>
      <trkpt lat="48.19623" lon="-3.25745">
        <ele>191.666724</ele>
        <time>2022-12-12T12:07:34.786Z</time>
      </trkpt>
      <trkpt lat="48.1962" lon="-3.25732">
        <ele>191.51285</ele>
        <time>2022-12-12T12:07:36.790Z</time>
      </trkpt>
      <trkpt lat="48.19617" lon="-3.25713">
        <ele>191.290678</ele>
        <time>2022-12-12T12:07:39.782Z</time>
      </trkpt>
      <trkpt lat="48.19614" lon="-3.25696">
        <ele>191.08929</ele>
        <time>2022-12-12T12:07:42.767Z</time>
      </trkpt>
      <trkpt lat="48.19611" lon="-3.25678">
        <ele>190.87697</ele>
        <time>2022-12-12T12:07:45.777Z</time>
      </trkpt>
      <trkpt lat="48.19607" lon="-3.25664">
        <ele>190.703591</ele>
        <time>2022-12-12T12:07:47.780Z</time>
      </trkpt>
      <trkpt lat="48.19604" lon="-3.25647">
        <ele>190.510917</ele>
        <time>2022-12-12T12:07:49.770Z</time>
      </trkpt>
      <trkpt lat="48.196" lon="-3.25631">
        <ele>190.313553</ele>
        <time>2022-12-12T12:07:51.782Z</time>
      </trkpt>
      <trkpt lat="48.19597" lon="-3.25614">
        <ele>190.116066</ele>
        <time>2022-12-12T12:07:53.781Z</time>
      </trkpt>
      <trkpt lat="48.19595" lon="-3.25599">
        <ele>189.945004</ele>
        <time>2022-12-12T12:07:55.781Z</time>
      </trkpt>
      <trkpt lat="48.19592" lon="-3.25586">
        <ele>189.885543</ele>
        <time>2022-12-12T12:07:57.792Z</time>
      </trkpt>
      <trkpt lat="48.1959" lon="-3.25571">
        <ele>189.848588</ele>
        <time>2022-12-12T12:08:00.764Z</time>
      </trkpt>
      <trkpt lat="48.19587" lon="-3.25556">
        <ele>189.807456</ele>
        <time>2022-12-12T12:08:03.785Z</time>
      </trkpt>
      <trkpt lat="48.19585" lon="-3.25542">
        <ele>189.772685</ele>
        <time>2022-12-12T12:08:06.787Z</time>
      </trkpt>
      <trkpt lat="48.19582" lon="-3.25525">
        <ele>189.730385</ele>
        <time>2022-12-12T12:08:09.784Z</time>
      </trkpt>
      <trkpt lat="48.19579" lon="-3.25508">
        <ele>189.687457</ele>
        <time>2022-12-12T12:08:12.786Z</time>
      </trkpt>
      <trkpt lat="48.19577" lon="-3.25494">
        <ele>189.650995</ele>
        <time>2022-12-12T12:08:15.764Z</time>
      </trkpt>
      <trkpt lat="48.19575" lon="-3.25479">
        <ele>189.614621</ele>
        <time>2022-12-12T12:08:17.787Z</time>
      </trkpt>
      <trkpt lat="48.19571" lon="-3.25464">
        <ele>189.575465</ele>
        <time>2022-12-12T12:08:19.776Z</time>
      </trkpt>
      <trkpt lat="48.19569" lon="-3.25445">
        <ele>189.527744</ele>
        <time>2022-12-12T12:08:22.766Z</time>
      </trkpt>
      <trkpt lat="48.19564" lon="-3.25427">
        <ele>189.479616</ele>
        <time>2022-12-12T12:08:25.761Z</time>
      </trkpt>
      <trkpt lat="48.19561" lon="-3.25409">
        <ele>189.432996</ele>
        <time>2022-12-12T12:08:28.771Z</time>
      </trkpt>
      <trkpt lat="48.19557" lon="-3.25389">
        <ele>189.383326</ele>
        <time>2022-12-12T12:08:31.785Z</time>
      </trkpt>
      <trkpt lat="48.19554" lon="-3.25371">
        <ele>189.336958</ele>
        <time>2022-12-12T12:08:34.794Z</time>
      </trkpt>
      <trkpt lat="48.1955" lon="-3.25352">
        <ele>189.28823</ele>
        <time>2022-12-12T12:08:37.785Z</time>
      </trkpt>
      <trkpt lat="48.19547" lon="-3.25332">
        <ele>189.240662</ele>
        <time>2022-12-12T12:08:40.796Z</time>
      </trkpt>
      <trkpt lat="48.19544" lon="-3.25313">
        <ele>189.203008</ele>
        <time>2022-12-12T12:08:43.786Z</time>
      </trkpt>
      <trkpt lat="48.19541" lon="-3.25299">
        <ele>189.175337</ele>
        <time>2022-12-12T12:08:45.784Z</time>
      </trkpt>
      <trkpt lat="48.19538" lon="-3.2528">
        <ele>189.13829</ele>
        <time>2022-12-12T12:08:48.783Z</time>
      </trkpt>
      <trkpt lat="48.19535" lon="-3.25261">
        <ele>189.10253</ele>
        <time>2022-12-12T12:08:51.789Z</time>
      </trkpt>
      <trkpt lat="48.19532" lon="-3.25244">
        <ele>189.067941</ele>
        <time>2022-12-12T12:08:54.795Z</time>
      </trkpt>
      <trkpt lat="48.19528" lon="-3.25225">
        <ele>189.031459</ele>
        <time>2022-12-12T12:08:57.776Z</time>
      </trkpt>
      <trkpt lat="48.19524" lon="-3.25207">
        <ele>188.995432</ele>
        <time>2022-12-12T12:09:00.789Z</time>
      </trkpt>
      <trkpt lat="48.1952" lon="-3.25189">
        <ele>188.959296</ele>
        <time>2022-12-12T12:09:03.783Z</time>
      </trkpt>
      <trkpt lat="48.19517" lon="-3.2517">
        <ele>188.922316</ele>
        <time>2022-12-12T12:09:06.789Z</time>
      </trkpt>
      <trkpt lat="48.19515" lon="-3.25156">
        <ele>188.896124</ele>
        <time>2022-12-12T12:09:08.764Z</time>
      </trkpt>
      <trkpt lat="48.19513" lon="-3.25137">
        <ele>188.858329</ele>
        <time>2022-12-12T12:09:11.786Z</time>
      </trkpt>
      <trkpt lat="48.1951" lon="-3.25123">
        <ele>188.831019</ele>
        <time>2022-12-12T12:09:13.777Z</time>
      </trkpt>
      <trkpt lat="48.19505" lon="-3.25106">
        <ele>188.7962</ele>
        <time>2022-12-12T12:09:16.785Z</time>
      </trkpt>
      <trkpt lat="48.19502" lon="-3.25089">
        <ele>188.763226</ele>
        <time>2022-12-12T12:09:19.789Z</time>
      </trkpt>
      <trkpt lat="48.19499" lon="-3.25073">
        <ele>188.746766</ele>
        <time>2022-12-12T12:09:22.789Z</time>
      </trkpt>
      <trkpt lat="48.19496" lon="-3.25056">
        <ele>188.800726</ele>
        <time>2022-12-12T12:09:25.788Z</time>
      </trkpt>
      <trkpt lat="48.19493" lon="-3.25037">
        <ele>188.855918</ele>
        <time>2022-12-12T12:09:28.785Z</time>
      </trkpt>
      <trkpt lat="48.1949" lon="-3.25019">
        <ele>188.910538</ele>
        <time>2022-12-12T12:09:31.788Z</time>
      </trkpt>
      <trkpt lat="48.19487" lon="-3.25001">
        <ele>188.964501</ele>
        <time>2022-12-12T12:09:34.764Z</time>
      </trkpt>
      <trkpt lat="48.19486" lon="-3.24984">
        <ele>189.016425</ele>
        <time>2022-12-12T12:09:37.787Z</time>
      </trkpt>
      <trkpt lat="48.19485" lon="-3.24966">
        <ele>189.066843</ele>
        <time>2022-12-12T12:09:40.781Z</time>
      </trkpt>
      <trkpt lat="48.19483" lon="-3.24949">
        <ele>189.11994</ele>
        <time>2022-12-12T12:09:43.785Z</time>
      </trkpt>
      <trkpt lat="48.19481" lon="-3.2493">
        <ele>189.174129</ele>
        <time>2022-12-12T12:09:46.785Z</time>
      </trkpt>
      <trkpt lat="48.19479" lon="-3.24911">
        <ele>189.230522</ele>
        <time>2022-12-12T12:09:49.786Z</time>
      </trkpt>
      <trkpt lat="48.19478" lon="-3.24892">
        <ele>189.287013</ele>
        <time>2022-12-12T12:09:52.786Z</time>
      </trkpt>
      <trkpt lat="48.19476" lon="-3.24872">
        <ele>189.345391</ele>
        <time>2022-12-12T12:09:55.765Z</time>
      </trkpt>
      <trkpt lat="48.19474" lon="-3.24853">
        <ele>189.402897</ele>
        <time>2022-12-12T12:09:58.762Z</time>
      </trkpt>
      <trkpt lat="48.19472" lon="-3.24834">
        <ele>189.458765</ele>
        <time>2022-12-12T12:10:01.767Z</time>
      </trkpt>
      <trkpt lat="48.1947" lon="-3.24816">
        <ele>189.513473</ele>
        <time>2022-12-12T12:10:04.799Z</time>
      </trkpt>
      <trkpt lat="48.19468" lon="-3.24796">
        <ele>189.455996</ele>
        <time>2022-12-12T12:10:07.767Z</time>
      </trkpt>
      <trkpt lat="48.19466" lon="-3.24778">
        <ele>189.363597</ele>
        <time>2022-12-12T12:10:10.783Z</time>
      </trkpt>
      <trkpt lat="48.19464" lon="-3.24759">
        <ele>189.270947</ele>
        <time>2022-12-12T12:10:13.780Z</time>
      </trkpt>
      <trkpt lat="48.19462" lon="-3.24741">
        <ele>189.176938</ele>
        <time>2022-12-12T12:10:16.775Z</time>
      </trkpt>
      <trkpt lat="48.1946" lon="-3.24722">
        <ele>189.083789</ele>
        <time>2022-12-12T12:10:19.789Z</time>
      </trkpt>
      <trkpt lat="48.19457" lon="-3.24705">
        <ele>188.996654</ele>
        <time>2022-12-12T12:10:22.787Z</time>
      </trkpt>
      <trkpt lat="48.19455" lon="-3.24686">
        <ele>188.902532</ele>
        <time>2022-12-12T12:10:25.785Z</time>
      </trkpt>
      <trkpt lat="48.19453" lon="-3.24667">
        <ele>188.807567</ele>
        <time>2022-12-12T12:10:28.786Z</time>
      </trkpt>
      <trkpt lat="48.19452" lon="-3.24651">
        <ele>188.72746</ele>
        <time>2022-12-12T12:10:31.783Z</time>
      </trkpt>
      <trkpt lat="48.1945" lon="-3.24634">
        <ele>188.642581</ele>
        <time>2022-12-12T12:10:35.771Z</time>
      </trkpt>
      <trkpt lat="48.19449" lon="-3.24617">
        <ele>188.556813</ele>
        <time>2022-12-12T12:10:38.778Z</time>
      </trkpt>
      <trkpt lat="48.19448" lon="-3.246">
        <ele>188.470555</ele>
        <time>2022-12-12T12:10:41.782Z</time>
      </trkpt>
      <trkpt lat="48.19447" lon="-3.24583">
        <ele>188.387811</ele>
        <time>2022-12-12T12:10:44.786Z</time>
      </trkpt>
      <trkpt lat="48.19445" lon="-3.24566">
        <ele>188.303812</ele>
        <time>2022-12-12T12:10:47.785Z</time>
      </trkpt>
      <trkpt lat="48.19444" lon="-3.24549">
        <ele>188.215988</ele>
        <time>2022-12-12T12:10:50.787Z</time>
      </trkpt>
      <trkpt lat="48.19443" lon="-3.24532">
        <ele>187.906646</ele>
        <time>2022-12-12T12:10:53.790Z</time>
      </trkpt>
      <trkpt lat="48.19441" lon="-3.24516">
        <ele>187.522944</ele>
        <time>2022-12-12T12:10:56.784Z</time>
      </trkpt>
      <trkpt lat="48.1944" lon="-3.245">
        <ele>187.139659</ele>
        <time>2022-12-12T12:10:59.788Z</time>
      </trkpt>
      <trkpt lat="48.19438" lon="-3.24483">
        <ele>186.745746</ele>
        <time>2022-12-12T12:11:02.785Z</time>
      </trkpt>
      <trkpt lat="48.19437" lon="-3.24468">
        <ele>186.371952</ele>
        <time>2022-12-12T12:11:05.783Z</time>
      </trkpt>
      <trkpt lat="48.19438" lon="-3.2445">
        <ele>185.95259</ele>
        <time>2022-12-12T12:11:09.770Z</time>
      </trkpt>
      <trkpt lat="48.1944" lon="-3.24435">
        <ele>185.597281</ele>
        <time>2022-12-12T12:11:12.782Z</time>
      </trkpt>
      <trkpt lat="48.19442" lon="-3.24421">
        <ele>185.246601</ele>
        <time>2022-12-12T12:11:15.795Z</time>
      </trkpt>
      <trkpt lat="48.19447" lon="-3.24407">
        <ele>184.870758</ele>
        <time>2022-12-12T12:11:18.784Z</time>
      </trkpt>
      <trkpt lat="48.19451" lon="-3.24393">
        <ele>184.530245</ele>
        <time>2022-12-12T12:11:21.765Z</time>
      </trkpt>
      <trkpt lat="48.19456" lon="-3.24379">
        <ele>184.133978</ele>
        <time>2022-12-12T12:11:24.765Z</time>
      </trkpt>
      <trkpt lat="48.19463" lon="-3.24366">
        <ele>183.734517</ele>
        <time>2022-12-12T12:11:27.781Z</time>
      </trkpt>
      <trkpt lat="48.1947" lon="-3.24353">
        <ele>183.337258</ele>
        <time>2022-12-12T12:11:30.786Z</time>
      </trkpt>
      <trkpt lat="48.19476" lon="-3.2434">
        <ele>182.974613</ele>
        <time>2022-12-12T12:11:33.770Z</time>
      </trkpt>
      <trkpt lat="48.19481" lon="-3.24327">
        <ele>182.625308</ele>
        <time>2022-12-12T12:11:37.776Z</time>
      </trkpt>
      <trkpt lat="48.19487" lon="-3.24316">
        <ele>182.27911</ele>
        <time>2022-12-12T12:11:40.775Z</time>
      </trkpt>
      <trkpt lat="48.19495" lon="-3.24304">
        <ele>181.892228</ele>
        <time>2022-12-12T12:11:43.764Z</time>
      </trkpt>
      <trkpt lat="48.19501" lon="-3.24294">
        <ele>181.937359</ele>
        <time>2022-12-12T12:11:46.772Z</time>
      </trkpt>
      <trkpt lat="48.1951" lon="-3.24284">
        <ele>182.152013</ele>
        <time>2022-12-12T12:11:49.766Z</time>
      </trkpt>
      <trkpt lat="48.1952" lon="-3.24275">
        <ele>182.367402</ele>
        <time>2022-12-12T12:11:52.772Z</time>
      </trkpt>
      <trkpt lat="48.19529" lon="-3.2427">
        <ele>182.565334</ele>
        <time>2022-12-12T12:11:55.785Z</time>
      </trkpt>
      <trkpt lat="48.19539" lon="-3.24264">
        <ele>182.760991</ele>
        <time>2022-12-12T12:11:58.774Z</time>
      </trkpt>
      <trkpt lat="48.19549" lon="-3.24259">
        <ele>182.964102</ele>
        <time>2022-12-12T12:12:01.794Z</time>
      </trkpt>
      <trkpt lat="48.19558" lon="-3.24255">
        <ele>183.164979</ele>
        <time>2022-12-12T12:12:04.787Z</time>
      </trkpt>
      <trkpt lat="48.19568" lon="-3.24251">
        <ele>183.360161</ele>
        <time>2022-12-12T12:12:07.771Z</time>
      </trkpt>
      <trkpt lat="48.19578" lon="-3.24246">
        <ele>183.551838</ele>
        <time>2022-12-12T12:12:10.785Z</time>
      </trkpt>
      <trkpt lat="48.19588" lon="-3.24242">
        <ele>183.75233</ele>
        <time>2022-12-12T12:12:13.774Z</time>
      </trkpt>
      <trkpt lat="48.19598" lon="-3.24238">
        <ele>183.967529</ele>
        <time>2022-12-12T12:12:16.766Z</time>
      </trkpt>
      <trkpt lat="48.1961" lon="-3.24233">
        <ele>184.191175</ele>
        <time>2022-12-12T12:12:19.772Z</time>
      </trkpt>
      <trkpt lat="48.1962" lon="-3.24231">
        <ele>184.390907</ele>
        <time>2022-12-12T12:12:22.776Z</time>
      </trkpt>
      <trkpt lat="48.19629" lon="-3.24229">
        <ele>184.568643</ele>
        <time>2022-12-12T12:12:25.767Z</time>
      </trkpt>
      <trkpt lat="48.19639" lon="-3.24224">
        <ele>184.772966</ele>
        <time>2022-12-12T12:12:29.768Z</time>
      </trkpt>
      <trkpt lat="48.19648" lon="-3.24218">
        <ele>184.96017</ele>
        <time>2022-12-12T12:12:33.779Z</time>
      </trkpt>
      <trkpt lat="48.19657" lon="-3.24216">
        <ele>185.144627</ele>
        <time>2022-12-12T12:12:37.785Z</time>
      </trkpt>
      <trkpt lat="48.19667" lon="-3.24212">
        <ele>185.25821</ele>
        <time>2022-12-12T12:12:43.765Z</time>
      </trkpt>
      <trkpt lat="48.19677" lon="-3.24207">
        <ele>185.180742</ele>
        <time>2022-12-12T12:12:47.771Z</time>
      </trkpt>
      <trkpt lat="48.19687" lon="-3.24204">
        <ele>185.112091</ele>
        <time>2022-12-12T12:12:49.771Z</time>
      </trkpt>
      <trkpt lat="48.19696" lon="-3.242">
        <ele>185.039335</ele>
        <time>2022-12-12T12:12:51.762Z</time>
      </trkpt>
      <trkpt lat="48.19708" lon="-3.24197">
        <ele>184.952609</ele>
        <time>2022-12-12T12:12:53.763Z</time>
      </trkpt>
      <trkpt lat="48.1972" lon="-3.24193">
        <ele>184.863631</ele>
        <time>2022-12-12T12:12:55.781Z</time>
      </trkpt>
      <trkpt lat="48.19731" lon="-3.24189">
        <ele>184.777108</ele>
        <time>2022-12-12T12:12:57.784Z</time>
      </trkpt>
      <trkpt lat="48.19743" lon="-3.24184">
        <ele>184.69013</ele>
        <time>2022-12-12T12:12:59.784Z</time>
      </trkpt>
      <trkpt lat="48.19754" lon="-3.2418">
        <ele>184.609916</ele>
        <time>2022-12-12T12:13:01.791Z</time>
      </trkpt>
      <trkpt lat="48.19763" lon="-3.24175">
        <ele>184.535817</ele>
        <time>2022-12-12T12:13:03.791Z</time>
      </trkpt>
      <trkpt lat="48.19776" lon="-3.24168">
        <ele>184.440493</ele>
        <time>2022-12-12T12:13:06.785Z</time>
      </trkpt>
      <trkpt lat="48.19788" lon="-3.24162">
        <ele>184.347913</ele>
        <time>2022-12-12T12:13:09.774Z</time>
      </trkpt>
      <trkpt lat="48.19798" lon="-3.24157">
        <ele>184.269601</ele>
        <time>2022-12-12T12:13:12.779Z</time>
      </trkpt>
      <trkpt lat="48.19806" lon="-3.2415">
        <ele>184.202184</ele>
        <time>2022-12-12T12:13:15.767Z</time>
      </trkpt>
      <trkpt lat="48.19814" lon="-3.24142">
        <ele>184.130547</ele>
        <time>2022-12-12T12:13:18.766Z</time>
      </trkpt>
      <trkpt lat="48.19824" lon="-3.24133">
        <ele>184.048695</ele>
        <time>2022-12-12T12:13:21.787Z</time>
      </trkpt>
      <trkpt lat="48.19834" lon="-3.24123">
        <ele>183.948241</ele>
        <time>2022-12-12T12:13:24.776Z</time>
      </trkpt>
      <trkpt lat="48.19842" lon="-3.24116">
        <ele>183.827505</ele>
        <time>2022-12-12T12:13:26.786Z</time>
      </trkpt>
      <trkpt lat="48.19852" lon="-3.24105">
        <ele>183.667962</ele>
        <time>2022-12-12T12:13:29.785Z</time>
      </trkpt>
      <trkpt lat="48.19861" lon="-3.24095">
        <ele>183.510528</ele>
        <time>2022-12-12T12:13:32.794Z</time>
      </trkpt>
      <trkpt lat="48.1987" lon="-3.24085">
        <ele>183.3651</ele>
        <time>2022-12-12T12:13:35.782Z</time>
      </trkpt>
      <trkpt lat="48.19879" lon="-3.24077">
        <ele>183.223691</ele>
        <time>2022-12-12T12:13:38.778Z</time>
      </trkpt>
      <trkpt lat="48.19889" lon="-3.24067">
        <ele>183.07409</ele>
        <time>2022-12-12T12:13:41.782Z</time>
      </trkpt>
      <trkpt lat="48.19897" lon="-3.24058">
        <ele>182.937266</ele>
        <time>2022-12-12T12:13:44.783Z</time>
      </trkpt>
      <trkpt lat="48.19906" lon="-3.24049">
        <ele>182.793206</ele>
        <time>2022-12-12T12:13:47.786Z</time>
      </trkpt>
      <trkpt lat="48.19914" lon="-3.24041">
        <ele>182.66589</ele>
        <time>2022-12-12T12:13:50.788Z</time>
      </trkpt>
      <trkpt lat="48.19922" lon="-3.24031">
        <ele>182.527423</ele>
        <time>2022-12-12T12:13:53.780Z</time>
      </trkpt>
      <trkpt lat="48.19932" lon="-3.2402">
        <ele>182.36354</ele>
        <time>2022-12-12T12:13:56.791Z</time>
      </trkpt>
      <trkpt lat="48.19943" lon="-3.2401">
        <ele>182.193865</ele>
        <time>2022-12-12T12:13:59.793Z</time>
      </trkpt>
      <trkpt lat="48.19953" lon="-3.24">
        <ele>182.043296</ele>
        <time>2022-12-12T12:14:02.783Z</time>
      </trkpt>
      <trkpt lat="48.19962" lon="-3.23989">
        <ele>181.885867</ele>
        <time>2022-12-12T12:14:05.786Z</time>
      </trkpt>
      <trkpt lat="48.19972" lon="-3.23979">
        <ele>181.720398</ele>
        <time>2022-12-12T12:14:08.788Z</time>
      </trkpt>
      <trkpt lat="48.19982" lon="-3.2397">
        <ele>181.561517</ele>
        <time>2022-12-12T12:14:11.780Z</time>
      </trkpt>
      <trkpt lat="48.19991" lon="-3.2396">
        <ele>181.342552</ele>
        <time>2022-12-12T12:14:14.783Z</time>
      </trkpt>
      <trkpt lat="48.20001" lon="-3.2395">
        <ele>181.11243</ele>
        <time>2022-12-12T12:14:17.794Z</time>
      </trkpt>
      <trkpt lat="48.20011" lon="-3.23941">
        <ele>180.884687</ele>
        <time>2022-12-12T12:14:20.776Z</time>
      </trkpt>
      <trkpt lat="48.20021" lon="-3.23931">
        <ele>180.656712</ele>
        <time>2022-12-12T12:14:23.786Z</time>
      </trkpt>
      <trkpt lat="48.20031" lon="-3.23921">
        <ele>180.438103</ele>
        <time>2022-12-12T12:14:26.785Z</time>
      </trkpt>
      <trkpt lat="48.20041" lon="-3.23912">
        <ele>180.206428</ele>
        <time>2022-12-12T12:14:29.787Z</time>
      </trkpt>
      <trkpt lat="48.2005" lon="-3.23901">
        <ele>179.986471</ele>
        <time>2022-12-12T12:14:32.792Z</time>
      </trkpt>
      <trkpt lat="48.2006" lon="-3.23891">
        <ele>179.748717</ele>
        <time>2022-12-12T12:14:35.779Z</time>
      </trkpt>
      <trkpt lat="48.20071" lon="-3.2388">
        <ele>179.508661</ele>
        <time>2022-12-12T12:14:38.757Z</time>
      </trkpt>
      <trkpt lat="48.2008" lon="-3.23869">
        <ele>179.275664</ele>
        <time>2022-12-12T12:14:41.784Z</time>
      </trkpt>
      <trkpt lat="48.20091" lon="-3.23859">
        <ele>179.036116</ele>
        <time>2022-12-12T12:14:44.789Z</time>
      </trkpt>
      <trkpt lat="48.20101" lon="-3.23849">
        <ele>178.815314</ele>
        <time>2022-12-12T12:14:47.787Z</time>
      </trkpt>
      <trkpt lat="48.20108" lon="-3.23841">
        <ele>178.630612</ele>
        <time>2022-12-12T12:14:50.788Z</time>
      </trkpt>
      <trkpt lat="48.20116" lon="-3.23832">
        <ele>178.445877</ele>
        <time>2022-12-12T12:14:53.788Z</time>
      </trkpt>
      <trkpt lat="48.20125" lon="-3.23822">
        <ele>178.23354</ele>
        <time>2022-12-12T12:14:56.790Z</time>
      </trkpt>
      <trkpt lat="48.20134" lon="-3.23811">
        <ele>178.295888</ele>
        <time>2022-12-12T12:14:59.767Z</time>
      </trkpt>
      <trkpt lat="48.20144" lon="-3.238">
        <ele>178.546462</ele>
        <time>2022-12-12T12:15:02.768Z</time>
      </trkpt>
      <trkpt lat="48.20155" lon="-3.23789">
        <ele>178.803669</ele>
        <time>2022-12-12T12:15:05.784Z</time>
      </trkpt>
      <trkpt lat="48.20167" lon="-3.23778">
        <ele>179.063454</ele>
        <time>2022-12-12T12:15:08.778Z</time>
      </trkpt>
      <trkpt lat="48.20178" lon="-3.23769">
        <ele>179.314026</ele>
        <time>2022-12-12T12:15:11.776Z</time>
      </trkpt>
      <trkpt lat="48.20189" lon="-3.23759">
        <ele>179.558427</ele>
        <time>2022-12-12T12:15:14.787Z</time>
      </trkpt>
      <trkpt lat="48.20198" lon="-3.23748">
        <ele>179.797378</ele>
        <time>2022-12-12T12:15:17.780Z</time>
      </trkpt>
      <trkpt lat="48.20208" lon="-3.23737">
        <ele>180.026926</ele>
        <time>2022-12-12T12:15:20.770Z</time>
      </trkpt>
      <trkpt lat="48.20218" lon="-3.23727">
        <ele>180.269638</ele>
        <time>2022-12-12T12:15:23.785Z</time>
      </trkpt>
      <trkpt lat="48.20226" lon="-3.2372">
        <ele>180.447009</ele>
        <time>2022-12-12T12:15:25.764Z</time>
      </trkpt>
      <trkpt lat="48.20235" lon="-3.23711">
        <ele>180.648851</ele>
        <time>2022-12-12T12:15:27.784Z</time>
      </trkpt>
      <trkpt lat="48.20243" lon="-3.23702">
        <ele>180.852617</ele>
        <time>2022-12-12T12:15:29.776Z</time>
      </trkpt>
      <trkpt lat="48.20253" lon="-3.23693">
        <ele>181.071666</ele>
        <time>2022-12-12T12:15:31.784Z</time>
      </trkpt>
      <trkpt lat="48.20263" lon="-3.23686">
        <ele>181.293656</ele>
        <time>2022-12-12T12:15:33.787Z</time>
      </trkpt>
      <trkpt lat="48.20274" lon="-3.2368">
        <ele>181.509452</ele>
        <time>2022-12-12T12:15:35.770Z</time>
      </trkpt>
      <trkpt lat="48.20284" lon="-3.23676">
        <ele>181.644311</ele>
        <time>2022-12-12T12:15:37.780Z</time>
      </trkpt>
      <trkpt lat="48.20296" lon="-3.23673">
        <ele>181.626826</ele>
        <time>2022-12-12T12:15:40.771Z</time>
      </trkpt>
      <trkpt lat="48.20308" lon="-3.23674">
        <ele>181.608894</ele>
        <time>2022-12-12T12:15:43.788Z</time>
      </trkpt>
      <trkpt lat="48.2032" lon="-3.23676">
        <ele>181.592746</ele>
        <time>2022-12-12T12:15:46.766Z</time>
      </trkpt>
      <trkpt lat="48.2033" lon="-3.23679">
        <ele>181.576892</ele>
        <time>2022-12-12T12:15:49.774Z</time>
      </trkpt>
      <trkpt lat="48.20341" lon="-3.23682">
        <ele>181.561868</ele>
        <time>2022-12-12T12:15:52.786Z</time>
      </trkpt>
      <trkpt lat="48.20351" lon="-3.23685">
        <ele>181.54707</ele>
        <time>2022-12-12T12:15:55.787Z</time>
      </trkpt>
      <trkpt lat="48.20361" lon="-3.23688">
        <ele>181.53201</ele>
        <time>2022-12-12T12:15:58.783Z</time>
      </trkpt>
      <trkpt lat="48.2037" lon="-3.2369">
        <ele>181.519152</ele>
        <time>2022-12-12T12:16:01.769Z</time>
      </trkpt>
      <trkpt lat="48.20379" lon="-3.23693">
        <ele>181.505816</ele>
        <time>2022-12-12T12:16:04.788Z</time>
      </trkpt>
      <trkpt lat="48.20388" lon="-3.23697">
        <ele>181.492093</ele>
        <time>2022-12-12T12:16:07.783Z</time>
      </trkpt>
      <trkpt lat="48.204" lon="-3.237">
        <ele>181.475766</ele>
        <time>2022-12-12T12:16:10.792Z</time>
      </trkpt>
      <trkpt lat="48.20413" lon="-3.23706">
        <ele>181.455773</ele>
        <time>2022-12-12T12:16:13.780Z</time>
      </trkpt>
      <trkpt lat="48.20425" lon="-3.23708">
        <ele>181.438157</ele>
        <time>2022-12-12T12:16:16.778Z</time>
      </trkpt>
      <trkpt lat="48.20437" lon="-3.23711">
        <ele>181.42095</ele>
        <time>2022-12-12T12:16:19.784Z</time>
      </trkpt>
      <trkpt lat="48.20449" lon="-3.23713">
        <ele>181.40318</ele>
        <time>2022-12-12T12:16:22.791Z</time>
      </trkpt>
      <trkpt lat="48.20461" lon="-3.23717">
        <ele>181.333015</ele>
        <time>2022-12-12T12:16:25.775Z</time>
      </trkpt>
      <trkpt lat="48.20473" lon="-3.2372">
        <ele>181.17158</ele>
        <time>2022-12-12T12:16:28.776Z</time>
      </trkpt>
      <trkpt lat="48.20485" lon="-3.23723">
        <ele>181.002132</ele>
        <time>2022-12-12T12:16:31.786Z</time>
      </trkpt>
      <trkpt lat="48.20496" lon="-3.23726">
        <ele>180.8463</ele>
        <time>2022-12-12T12:16:34.775Z</time>
      </trkpt>
      <trkpt lat="48.20508" lon="-3.23731">
        <ele>180.678305</ele>
        <time>2022-12-12T12:16:37.788Z</time>
      </trkpt>
      <trkpt lat="48.20519" lon="-3.23732">
        <ele>180.530181</ele>
        <time>2022-12-12T12:16:40.779Z</time>
      </trkpt>
      <trkpt lat="48.20528" lon="-3.23731">
        <ele>180.404113</ele>
        <time>2022-12-12T12:16:43.775Z</time>
      </trkpt>
      <trkpt lat="48.20538" lon="-3.23729">
        <ele>180.261219</ele>
        <time>2022-12-12T12:16:46.784Z</time>
      </trkpt>
      <trkpt lat="48.2055" lon="-3.23726">
        <ele>180.095028</ele>
        <time>2022-12-12T12:16:49.777Z</time>
      </trkpt>
      <trkpt lat="48.2056" lon="-3.23721">
        <ele>179.946282</ele>
        <time>2022-12-12T12:16:52.775Z</time>
      </trkpt>
      <trkpt lat="48.20572" lon="-3.23715">
        <ele>179.770627</ele>
        <time>2022-12-12T12:16:55.779Z</time>
      </trkpt>
      <trkpt lat="48.20583" lon="-3.23705">
        <ele>179.593148</ele>
        <time>2022-12-12T12:16:58.775Z</time>
      </trkpt>
      <trkpt lat="48.20592" lon="-3.23696">
        <ele>179.44496</ele>
        <time>2022-12-12T12:17:01.788Z</time>
      </trkpt>
      <trkpt lat="48.20601" lon="-3.23685">
        <ele>179.290189</ele>
        <time>2022-12-12T12:17:04.766Z</time>
      </trkpt>
      <trkpt lat="48.20611" lon="-3.23676">
        <ele>179.122192</ele>
        <time>2022-12-12T12:17:07.782Z</time>
      </trkpt>
      <trkpt lat="48.20621" lon="-3.23667">
        <ele>178.966277</ele>
        <time>2022-12-12T12:17:10.783Z</time>
      </trkpt>
      <trkpt lat="48.20631" lon="-3.23658">
        <ele>179.059354</ele>
        <time>2022-12-12T12:17:13.774Z</time>
      </trkpt>
      <trkpt lat="48.2064" lon="-3.23649">
        <ele>179.28013</ele>
        <time>2022-12-12T12:17:16.788Z</time>
      </trkpt>
      <trkpt lat="48.20649" lon="-3.2364">
        <ele>179.510369</ele>
        <time>2022-12-12T12:17:19.786Z</time>
      </trkpt>
      <trkpt lat="48.20659" lon="-3.23632">
        <ele>179.731466</ele>
        <time>2022-12-12T12:17:22.790Z</time>
      </trkpt>
      <trkpt lat="48.20668" lon="-3.23623">
        <ele>179.951344</ele>
        <time>2022-12-12T12:17:25.763Z</time>
      </trkpt>
      <trkpt lat="48.20676" lon="-3.23613">
        <ele>180.164593</ele>
        <time>2022-12-12T12:17:28.777Z</time>
      </trkpt>
      <trkpt lat="48.20686" lon="-3.23606">
        <ele>180.393603</ele>
        <time>2022-12-12T12:17:31.779Z</time>
      </trkpt>
      <trkpt lat="48.20695" lon="-3.23597">
        <ele>180.611335</ele>
        <time>2022-12-12T12:17:34.786Z</time>
      </trkpt>
      <trkpt lat="48.20704" lon="-3.23589">
        <ele>180.833481</ele>
        <time>2022-12-12T12:17:37.786Z</time>
      </trkpt>
      <trkpt lat="48.20712" lon="-3.23579">
        <ele>181.044336</ele>
        <time>2022-12-12T12:17:40.775Z</time>
      </trkpt>
      <trkpt lat="48.20722" lon="-3.2357">
        <ele>181.279789</ele>
        <time>2022-12-12T12:17:43.788Z</time>
      </trkpt>
      <trkpt lat="48.20732" lon="-3.23561">
        <ele>181.523035</ele>
        <time>2022-12-12T12:17:46.782Z</time>
      </trkpt>
      <trkpt lat="48.20741" lon="-3.23551">
        <ele>181.750165</ele>
        <time>2022-12-12T12:17:49.774Z</time>
      </trkpt>
      <trkpt lat="48.20749" lon="-3.23541">
        <ele>181.956895</ele>
        <time>2022-12-12T12:17:52.787Z</time>
      </trkpt>
      <trkpt lat="48.20758" lon="-3.23532">
        <ele>182.174317</ele>
        <time>2022-12-12T12:17:55.784Z</time>
      </trkpt>
      <trkpt lat="48.20766" lon="-3.23523">
        <ele>182.379537</ele>
        <time>2022-12-12T12:17:58.787Z</time>
      </trkpt>
      <trkpt lat="48.20774" lon="-3.23509">
        <ele>182.559526</ele>
        <time>2022-12-12T12:18:01.787Z</time>
      </trkpt>
      <trkpt lat="48.2078" lon="-3.23495">
        <ele>182.461889</ele>
        <time>2022-12-12T12:18:04.788Z</time>
      </trkpt>
      <trkpt lat="48.20785" lon="-3.23483">
        <ele>182.381769</ele>
        <time>2022-12-12T12:18:07.784Z</time>
      </trkpt>
      <trkpt lat="48.2079" lon="-3.23471">
        <ele>182.301025</ele>
        <time>2022-12-12T12:18:10.784Z</time>
      </trkpt>
      <trkpt lat="48.20795" lon="-3.23459">
        <ele>182.215464</ele>
        <time>2022-12-12T12:18:13.777Z</time>
      </trkpt>
      <trkpt lat="48.20801" lon="-3.23443">
        <ele>182.110355</ele>
        <time>2022-12-12T12:18:17.772Z</time>
      </trkpt>
      <trkpt lat="48.20804" lon="-3.23429">
        <ele>182.026304</ele>
        <time>2022-12-12T12:18:20.774Z</time>
      </trkpt>
      <trkpt lat="48.20803" lon="-3.2341">
        <ele>181.914779</ele>
        <time>2022-12-12T12:18:24.774Z</time>
      </trkpt>
      <trkpt lat="48.20802" lon="-3.23391">
        <ele>181.808221</ele>
        <time>2022-12-12T12:18:27.787Z</time>
      </trkpt>
      <trkpt lat="48.20802" lon="-3.23374">
        <ele>181.707054</ele>
        <time>2022-12-12T12:18:30.778Z</time>
      </trkpt>
      <trkpt lat="48.20802" lon="-3.23359">
        <ele>181.620957</ele>
        <time>2022-12-12T12:18:33.768Z</time>
      </trkpt>
      <trkpt lat="48.20801" lon="-3.23344">
        <ele>181.537911</ele>
        <time>2022-12-12T12:18:36.765Z</time>
      </trkpt>
      <trkpt lat="48.20799" lon="-3.23327">
        <ele>181.436916</ele>
        <time>2022-12-12T12:18:39.781Z</time>
      </trkpt>
      <trkpt lat="48.20798" lon="-3.23312">
        <ele>181.348853</ele>
        <time>2022-12-12T12:18:42.786Z</time>
      </trkpt>
      <trkpt lat="48.20799" lon="-3.23296">
        <ele>181.255461</ele>
        <time>2022-12-12T12:18:45.771Z</time>
      </trkpt>
      <trkpt lat="48.20799" lon="-3.23278">
        <ele>181.153794</ele>
        <time>2022-12-12T12:18:49.783Z</time>
      </trkpt>
      <trkpt lat="48.20798" lon="-3.2326">
        <ele>181.049396</ele>
        <time>2022-12-12T12:18:52.770Z</time>
      </trkpt>
      <trkpt lat="48.20797" lon="-3.23242">
        <ele>180.892048</ele>
        <time>2022-12-12T12:18:55.786Z</time>
      </trkpt>
      <trkpt lat="48.20797" lon="-3.23226">
        <ele>180.738061</ele>
        <time>2022-12-12T12:18:58.779Z</time>
      </trkpt>
      <trkpt lat="48.20796" lon="-3.2321">
        <ele>180.585494</ele>
        <time>2022-12-12T12:19:01.779Z</time>
      </trkpt>
      <trkpt lat="48.20794" lon="-3.23191">
        <ele>180.407066</ele>
        <time>2022-12-12T12:19:04.767Z</time>
      </trkpt>
      <trkpt lat="48.20792" lon="-3.23173">
        <ele>180.234121</ele>
        <time>2022-12-12T12:19:07.778Z</time>
      </trkpt>
      <trkpt lat="48.20791" lon="-3.23157">
        <ele>180.078715</ele>
        <time>2022-12-12T12:19:10.785Z</time>
      </trkpt>
      <trkpt lat="48.2079" lon="-3.2314">
        <ele>179.918572</ele>
        <time>2022-12-12T12:19:13.789Z</time>
      </trkpt>
      <trkpt lat="48.20788" lon="-3.23122">
        <ele>179.739245</ele>
        <time>2022-12-12T12:19:16.788Z</time>
      </trkpt>
      <trkpt lat="48.20788" lon="-3.23106">
        <ele>179.594756</ele>
        <time>2022-12-12T12:19:19.771Z</time>
      </trkpt>
      <trkpt lat="48.20787" lon="-3.23092">
        <ele>179.460026</ele>
        <time>2022-12-12T12:19:22.786Z</time>
      </trkpt>
      <trkpt lat="48.20785" lon="-3.23076">
        <ele>179.302324</ele>
        <time>2022-12-12T12:19:25.787Z</time>
      </trkpt>
      <trkpt lat="48.20784" lon="-3.23062">
        <ele>179.168077</ele>
        <time>2022-12-12T12:19:28.778Z</time>
      </trkpt>
      <trkpt lat="48.20784" lon="-3.23046">
        <ele>179.020773</ele>
        <time>2022-12-12T12:19:32.776Z</time>
      </trkpt>
      <trkpt lat="48.20782" lon="-3.23028">
        <ele>178.83988</ele>
        <time>2022-12-12T12:19:36.775Z</time>
      </trkpt>
      <trkpt lat="48.20779" lon="-3.23015">
        <ele>178.709835</ele>
        <time>2022-12-12T12:19:38.767Z</time>
      </trkpt>
      <trkpt lat="48.20776" lon="-3.23">
        <ele>178.557468</ele>
        <time>2022-12-12T12:19:41.784Z</time>
      </trkpt>
      <trkpt lat="48.20773" lon="-3.22984">
        <ele>178.494827</ele>
        <time>2022-12-12T12:19:44.786Z</time>
      </trkpt>
      <trkpt lat="48.20769" lon="-3.22966">
        <ele>178.632572</ele>
        <time>2022-12-12T12:19:48.772Z</time>
      </trkpt>
      <trkpt lat="48.20764" lon="-3.2295">
        <ele>178.763754</ele>
        <time>2022-12-12T12:19:51.775Z</time>
      </trkpt>
      <trkpt lat="48.2076" lon="-3.22935">
        <ele>178.881451</ele>
        <time>2022-12-12T12:19:54.783Z</time>
      </trkpt>
      <trkpt lat="48.20757" lon="-3.2292">
        <ele>178.997512</ele>
        <time>2022-12-12T12:19:57.776Z</time>
      </trkpt>
      <trkpt lat="48.20753" lon="-3.22906">
        <ele>179.107925</ele>
        <time>2022-12-12T12:20:00.786Z</time>
      </trkpt>
      <trkpt lat="48.20747" lon="-3.22891">
        <ele>179.227983</ele>
        <time>2022-12-12T12:20:03.786Z</time>
      </trkpt>
      <trkpt lat="48.20742" lon="-3.22873">
        <ele>179.370223</ele>
        <time>2022-12-12T12:20:06.788Z</time>
      </trkpt>
      <trkpt lat="48.20737" lon="-3.22856">
        <ele>179.507782</ele>
        <time>2022-12-12T12:20:09.785Z</time>
      </trkpt>
      <trkpt lat="48.20732" lon="-3.22839">
        <ele>179.642016</ele>
        <time>2022-12-12T12:20:12.773Z</time>
      </trkpt>
      <trkpt lat="48.20728" lon="-3.22823">
        <ele>179.764571</ele>
        <time>2022-12-12T12:20:15.776Z</time>
      </trkpt>
      <trkpt lat="48.20723" lon="-3.22806">
        <ele>179.900799</ele>
        <time>2022-12-12T12:20:18.774Z</time>
      </trkpt>
      <trkpt lat="48.20719" lon="-3.22792">
        <ele>180.010955</ele>
        <time>2022-12-12T12:20:21.776Z</time>
      </trkpt>
      <trkpt lat="48.20715" lon="-3.22777">
        <ele>180.130269</ele>
        <time>2022-12-12T12:20:24.787Z</time>
      </trkpt>
      <trkpt lat="48.2071" lon="-3.2276">
        <ele>180.266636</ele>
        <time>2022-12-12T12:20:27.787Z</time>
      </trkpt>
      <trkpt lat="48.20705" lon="-3.22745">
        <ele>180.387827</ele>
        <time>2022-12-12T12:20:30.787Z</time>
      </trkpt>
      <trkpt lat="48.20701" lon="-3.2273">
        <ele>180.344075</ele>
        <time>2022-12-12T12:20:33.785Z</time>
      </trkpt>
      <trkpt lat="48.20697" lon="-3.22715">
        <ele>180.24477</ele>
        <time>2022-12-12T12:20:36.785Z</time>
      </trkpt>
      <trkpt lat="48.20693" lon="-3.227">
        <ele>180.145257</ele>
        <time>2022-12-12T12:20:39.780Z</time>
      </trkpt>
      <trkpt lat="48.20688" lon="-3.22684">
        <ele>180.039098</ele>
        <time>2022-12-12T12:20:42.777Z</time>
      </trkpt>
      <trkpt lat="48.20683" lon="-3.22669">
        <ele>179.938371</ele>
        <time>2022-12-12T12:20:45.785Z</time>
      </trkpt>
      <trkpt lat="48.20678" lon="-3.22652">
        <ele>179.824207</ele>
        <time>2022-12-12T12:20:48.787Z</time>
      </trkpt>
      <trkpt lat="48.20674" lon="-3.22637">
        <ele>179.726592</ele>
        <time>2022-12-12T12:20:51.787Z</time>
      </trkpt>
      <trkpt lat="48.20671" lon="-3.22623">
        <ele>179.634761</ele>
        <time>2022-12-12T12:20:54.787Z</time>
      </trkpt>
      <trkpt lat="48.20667" lon="-3.2261">
        <ele>179.547488</ele>
        <time>2022-12-12T12:20:57.776Z</time>
      </trkpt>
      <trkpt lat="48.20663" lon="-3.22595">
        <ele>179.452836</ele>
        <time>2022-12-12T12:21:00.770Z</time>
      </trkpt>
      <trkpt lat="48.2066" lon="-3.22581">
        <ele>179.36035</ele>
        <time>2022-12-12T12:21:03.791Z</time>
      </trkpt>
      <trkpt lat="48.20656" lon="-3.22566">
        <ele>179.258089</ele>
        <time>2022-12-12T12:21:06.788Z</time>
      </trkpt>
      <trkpt lat="48.20652" lon="-3.22552">
        <ele>179.170248</ele>
        <time>2022-12-12T12:21:09.786Z</time>
      </trkpt>
      <trkpt lat="48.20648" lon="-3.22538">
        <ele>179.079117</ele>
        <time>2022-12-12T12:21:12.786Z</time>
      </trkpt>
      <trkpt lat="48.20644" lon="-3.22522">
        <ele>178.971082</ele>
        <time>2022-12-12T12:21:15.766Z</time>
      </trkpt>
      <trkpt lat="48.20639" lon="-3.22506">
        <ele>178.861732</ele>
        <time>2022-12-12T12:21:18.760Z</time>
      </trkpt>
      <trkpt lat="48.20635" lon="-3.22491">
        <ele>178.766523</ele>
        <time>2022-12-12T12:21:21.776Z</time>
      </trkpt>
      <trkpt lat="48.2063" lon="-3.22477">
        <ele>178.725286</ele>
        <time>2022-12-12T12:21:24.782Z</time>
      </trkpt>
      <trkpt lat="48.20626" lon="-3.22461">
        <ele>178.67961</ele>
        <time>2022-12-12T12:21:27.774Z</time>
      </trkpt>
      <trkpt lat="48.20622" lon="-3.22447">
        <ele>178.63618</ele>
        <time>2022-12-12T12:21:30.785Z</time>
      </trkpt>
      <trkpt lat="48.20618" lon="-3.2243">
        <ele>178.588776</ele>
        <time>2022-12-12T12:21:33.786Z</time>
      </trkpt>
      <trkpt lat="48.20613" lon="-3.22413">
        <ele>178.539016</ele>
        <time>2022-12-12T12:21:36.789Z</time>
      </trkpt>
      <trkpt lat="48.20609" lon="-3.224">
        <ele>178.498961</ele>
        <time>2022-12-12T12:21:39.787Z</time>
      </trkpt>
      <trkpt lat="48.20604" lon="-3.22385">
        <ele>178.454302</ele>
        <time>2022-12-12T12:21:42.785Z</time>
      </trkpt>
      <trkpt lat="48.206" lon="-3.2237">
        <ele>178.410381</ele>
        <time>2022-12-12T12:21:45.785Z</time>
      </trkpt>
      <trkpt lat="48.20595" lon="-3.22355">
        <ele>178.364858</ele>
        <time>2022-12-12T12:21:48.774Z</time>
      </trkpt>
      <trkpt lat="48.2059" lon="-3.22338">
        <ele>178.314603</ele>
        <time>2022-12-12T12:21:52.788Z</time>
      </trkpt>
      <trkpt lat="48.20587" lon="-3.22323">
        <ele>178.274</ele>
        <time>2022-12-12T12:21:56.769Z</time>
      </trkpt>
      <trkpt lat="48.20583" lon="-3.22308">
        <ele>178.229943</ele>
        <time>2022-12-12T12:22:00.777Z</time>
      </trkpt>
      <trkpt lat="48.20578" lon="-3.22292">
        <ele>178.182646</ele>
        <time>2022-12-12T12:22:03.783Z</time>
      </trkpt>
      <trkpt lat="48.20574" lon="-3.22278">
        <ele>178.141931</ele>
        <time>2022-12-12T12:22:06.785Z</time>
      </trkpt>
      <trkpt lat="48.20571" lon="-3.22264">
        <ele>178.100051</ele>
        <time>2022-12-12T12:22:09.786Z</time>
      </trkpt>
      <trkpt lat="48.20567" lon="-3.22246">
        <ele>178.051253</ele>
        <time>2022-12-12T12:22:12.785Z</time>
      </trkpt>
      <trkpt lat="48.20565" lon="-3.22229">
        <ele>178.329272</ele>
        <time>2022-12-12T12:22:15.786Z</time>
      </trkpt>
      <trkpt lat="48.20563" lon="-3.22215">
        <ele>178.630005</ele>
        <time>2022-12-12T12:22:18.786Z</time>
      </trkpt>
      <trkpt lat="48.20562" lon="-3.22201">
        <ele>178.944984</ele>
        <time>2022-12-12T12:22:21.786Z</time>
      </trkpt>
      <trkpt lat="48.20563" lon="-3.22183">
        <ele>179.317245</ele>
        <time>2022-12-12T12:22:24.776Z</time>
      </trkpt>
      <trkpt lat="48.20563" lon="-3.22165">
        <ele>179.703309</ele>
        <time>2022-12-12T12:22:27.767Z</time>
      </trkpt>
      <trkpt lat="48.20566" lon="-3.22145">
        <ele>180.13137</ele>
        <time>2022-12-12T12:22:30.770Z</time>
      </trkpt>
      <trkpt lat="48.20569" lon="-3.22127">
        <ele>180.527511</ele>
        <time>2022-12-12T12:22:33.768Z</time>
      </trkpt>
      <trkpt lat="48.20572" lon="-3.22112">
        <ele>180.855796</ele>
        <time>2022-12-12T12:22:36.789Z</time>
      </trkpt>
      <trkpt lat="48.20576" lon="-3.22095">
        <ele>181.236395</ele>
        <time>2022-12-12T12:22:39.786Z</time>
      </trkpt>
      <trkpt lat="48.20581" lon="-3.2208">
        <ele>181.60276</ele>
        <time>2022-12-12T12:22:42.785Z</time>
      </trkpt>
      <trkpt lat="48.20584" lon="-3.22063">
        <ele>181.971043</ele>
        <time>2022-12-12T12:22:45.780Z</time>
      </trkpt>
      <trkpt lat="48.20589" lon="-3.22048">
        <ele>182.31197</ele>
        <time>2022-12-12T12:22:48.785Z</time>
      </trkpt>
      <trkpt lat="48.20594" lon="-3.22033">
        <ele>182.668863</ele>
        <time>2022-12-12T12:22:51.786Z</time>
      </trkpt>
      <trkpt lat="48.20597" lon="-3.22016">
        <ele>183.060164</ele>
        <time>2022-12-12T12:22:54.797Z</time>
      </trkpt>
      <trkpt lat="48.20601" lon="-3.22001">
        <ele>183.39195</ele>
        <time>2022-12-12T12:22:57.783Z</time>
      </trkpt>
      <trkpt lat="48.20604" lon="-3.21985">
        <ele>183.748948</ele>
        <time>2022-12-12T12:23:00.788Z</time>
      </trkpt>
      <trkpt lat="48.20607" lon="-3.2197">
        <ele>183.681906</ele>
        <time>2022-12-12T12:23:03.787Z</time>
      </trkpt>
      <trkpt lat="48.2061" lon="-3.21956">
        <ele>183.612338</ele>
        <time>2022-12-12T12:23:06.775Z</time>
      </trkpt>
      <trkpt lat="48.20613" lon="-3.21939">
        <ele>183.522236</ele>
        <time>2022-12-12T12:23:09.767Z</time>
      </trkpt>
      <trkpt lat="48.2062" lon="-3.21923">
        <ele>183.428261</ele>
        <time>2022-12-12T12:23:12.775Z</time>
      </trkpt>
      <trkpt lat="48.20625" lon="-3.21908">
        <ele>183.338213</ele>
        <time>2022-12-12T12:23:15.787Z</time>
      </trkpt>
      <trkpt lat="48.2063" lon="-3.21892">
        <ele>183.248651</ele>
        <time>2022-12-12T12:23:18.798Z</time>
      </trkpt>
      <trkpt lat="48.20637" lon="-3.21879">
        <ele>183.165212</ele>
        <time>2022-12-12T12:23:21.788Z</time>
      </trkpt>
      <trkpt lat="48.20647" lon="-3.21867">
        <ele>183.070082</ele>
        <time>2022-12-12T12:23:24.788Z</time>
      </trkpt>
      <trkpt lat="48.20657" lon="-3.21855">
        <ele>182.97624</ele>
        <time>2022-12-12T12:23:27.787Z</time>
      </trkpt>
      <trkpt lat="48.20666" lon="-3.21843">
        <ele>182.88234</ele>
        <time>2022-12-12T12:23:30.784Z</time>
      </trkpt>
      <trkpt lat="48.20675" lon="-3.21834">
        <ele>182.799172</ele>
        <time>2022-12-12T12:23:33.782Z</time>
      </trkpt>
      <trkpt lat="48.20684" lon="-3.21825">
        <ele>182.719762</ele>
        <time>2022-12-12T12:23:36.791Z</time>
      </trkpt>
      <trkpt lat="48.20691" lon="-3.21816">
        <ele>182.647522</ele>
        <time>2022-12-12T12:23:39.784Z</time>
      </trkpt>
      <trkpt lat="48.20699" lon="-3.21807">
        <ele>182.569747</ele>
        <time>2022-12-12T12:23:42.779Z</time>
      </trkpt>
      <trkpt lat="48.20708" lon="-3.21797">
        <ele>182.490838</ele>
        <time>2022-12-12T12:23:45.786Z</time>
      </trkpt>
      <trkpt lat="48.20716" lon="-3.21789">
        <ele>182.414016</ele>
        <time>2022-12-12T12:23:48.794Z</time>
      </trkpt>
      <trkpt lat="48.20724" lon="-3.2178">
        <ele>182.367034</ele>
        <time>2022-12-12T12:23:51.796Z</time>
      </trkpt>
      <trkpt lat="48.20732" lon="-3.21771">
        <ele>182.325963</ele>
        <time>2022-12-12T12:23:54.792Z</time>
      </trkpt>
      <trkpt lat="48.20741" lon="-3.21761">
        <ele>182.282846</ele>
        <time>2022-12-12T12:23:57.785Z</time>
      </trkpt>
      <trkpt lat="48.20749" lon="-3.21752">
        <ele>182.243973</ele>
        <time>2022-12-12T12:24:00.790Z</time>
      </trkpt>
      <trkpt lat="48.20757" lon="-3.21742">
        <ele>182.202111</ele>
        <time>2022-12-12T12:24:04.785Z</time>
      </trkpt>
      <trkpt lat="48.20765" lon="-3.21733">
        <ele>182.162605</ele>
        <time>2022-12-12T12:24:08.780Z</time>
      </trkpt>
      <trkpt lat="48.20773" lon="-3.21724">
        <ele>182.123551</ele>
        <time>2022-12-12T12:24:11.771Z</time>
      </trkpt>
      <trkpt lat="48.20781" lon="-3.21715">
        <ele>182.085622</ele>
        <time>2022-12-12T12:24:14.789Z</time>
      </trkpt>
      <trkpt lat="48.20788" lon="-3.21705">
        <ele>182.044915</ele>
        <time>2022-12-12T12:24:17.798Z</time>
      </trkpt>
      <trkpt lat="48.20797" lon="-3.21696">
        <ele>182.003986</ele>
        <time>2022-12-12T12:24:20.789Z</time>
      </trkpt>
      <trkpt lat="48.20804" lon="-3.21687">
        <ele>181.966056</ele>
        <time>2022-12-12T12:24:23.786Z</time>
      </trkpt>
      <trkpt lat="48.20814" lon="-3.21677">
        <ele>181.919455</ele>
        <time>2022-12-12T12:24:27.769Z</time>
      </trkpt>
      <trkpt lat="48.20822" lon="-3.21668">
        <ele>181.882</ele>
        <time>2022-12-12T12:24:30.785Z</time>
      </trkpt>
      <trkpt lat="48.2083" lon="-3.2166">
        <ele>181.841812</ele>
        <time>2022-12-12T12:24:33.793Z</time>
      </trkpt>
      <trkpt lat="48.20839" lon="-3.2165">
        <ele>181.799292</ele>
        <time>2022-12-12T12:24:36.792Z</time>
      </trkpt>
      <trkpt lat="48.20848" lon="-3.21639">
        <ele>181.75423</ele>
        <time>2022-12-12T12:24:39.786Z</time>
      </trkpt>
      <trkpt lat="48.20857" lon="-3.21631">
        <ele>181.713475</ele>
        <time>2022-12-12T12:24:42.785Z</time>
      </trkpt>
      <trkpt lat="48.20864" lon="-3.21623">
        <ele>181.730925</ele>
        <time>2022-12-12T12:24:45.788Z</time>
      </trkpt>
      <trkpt lat="48.20872" lon="-3.21613">
        <ele>181.867681</ele>
        <time>2022-12-12T12:24:48.793Z</time>
      </trkpt>
      <trkpt lat="48.2088" lon="-3.21604">
        <ele>182.018333</ele>
        <time>2022-12-12T12:24:51.791Z</time>
      </trkpt>
      <trkpt lat="48.20889" lon="-3.21595">
        <ele>182.174678</ele>
        <time>2022-12-12T12:24:54.776Z</time>
      </trkpt>
      <trkpt lat="48.20897" lon="-3.21585">
        <ele>182.319787</ele>
        <time>2022-12-12T12:24:57.769Z</time>
      </trkpt>
      <trkpt lat="48.20906" lon="-3.21575">
        <ele>182.47382</ele>
        <time>2022-12-12T12:25:00.784Z</time>
      </trkpt>
      <trkpt lat="48.20913" lon="-3.21566">
        <ele>182.609621</ele>
        <time>2022-12-12T12:25:03.770Z</time>
      </trkpt>
      <trkpt lat="48.20921" lon="-3.21557">
        <ele>182.754623</ele>
        <time>2022-12-12T12:25:06.784Z</time>
      </trkpt>
      <trkpt lat="48.20931" lon="-3.21545">
        <ele>182.935468</ele>
        <time>2022-12-12T12:25:10.787Z</time>
      </trkpt>
      <trkpt lat="48.2094" lon="-3.21535">
        <ele>183.091211</ele>
        <time>2022-12-12T12:25:13.784Z</time>
      </trkpt>
      <trkpt lat="48.20949" lon="-3.21526">
        <ele>183.247081</ele>
        <time>2022-12-12T12:25:16.780Z</time>
      </trkpt>
      <trkpt lat="48.20957" lon="-3.21516">
        <ele>183.401682</ele>
        <time>2022-12-12T12:25:19.786Z</time>
      </trkpt>
      <trkpt lat="48.20965" lon="-3.21507">
        <ele>183.543786</ele>
        <time>2022-12-12T12:25:22.783Z</time>
      </trkpt>
      <trkpt lat="48.20975" lon="-3.21498">
        <ele>183.708893</ele>
        <time>2022-12-12T12:25:26.787Z</time>
      </trkpt>
      <trkpt lat="48.20983" lon="-3.2149">
        <ele>183.843123</ele>
        <time>2022-12-12T12:25:29.775Z</time>
      </trkpt>
      <trkpt lat="48.20992" lon="-3.21481">
        <ele>184.000078</ele>
        <time>2022-12-12T12:25:32.787Z</time>
      </trkpt>
      <trkpt lat="48.21" lon="-3.21471">
        <ele>184.143482</ele>
        <time>2022-12-12T12:25:35.782Z</time>
      </trkpt>
      <trkpt lat="48.21008" lon="-3.21461">
        <ele>184.182547</ele>
        <time>2022-12-12T12:25:39.786Z</time>
      </trkpt>
      <trkpt lat="48.21015" lon="-3.21451">
        <ele>183.960829</ele>
        <time>2022-12-12T12:25:43.785Z</time>
      </trkpt>
      <trkpt lat="48.21014" lon="-3.21437">
        <ele>183.743521</ele>
        <time>2022-12-12T12:25:47.786Z</time>
      </trkpt>
      <trkpt lat="48.21007" lon="-3.21424">
        <ele>183.487861</ele>
        <time>2022-12-12T12:25:51.778Z</time>
      </trkpt>
      <trkpt lat="48.21011" lon="-3.21411">
        <ele>183.266592</ele>
        <time>2022-12-12T12:25:57.775Z</time>
      </trkpt>
      <trkpt lat="48.21027" lon="-3.21396">
        <ele>182.829133</ele>
        <time>2022-12-12T12:28:51.776Z</time>
      </trkpt>
      <trkpt lat="48.21037" lon="-3.21384">
        <ele>182.532627</ele>
        <time>2022-12-12T12:28:54.796Z</time>
      </trkpt>
      <trkpt lat="48.21045" lon="-3.21376">
        <ele>182.31795</ele>
        <time>2022-12-12T12:28:56.793Z</time>
      </trkpt>
      <trkpt lat="48.21053" lon="-3.21367">
        <ele>182.089324</ele>
        <time>2022-12-12T12:28:58.786Z</time>
      </trkpt>
      <trkpt lat="48.21062" lon="-3.21355">
        <ele>181.795468</ele>
        <time>2022-12-12T12:29:01.777Z</time>
      </trkpt>
      <trkpt lat="48.21072" lon="-3.21344">
        <ele>181.509122</ele>
        <time>2022-12-12T12:29:04.789Z</time>
      </trkpt>
      <trkpt lat="48.21081" lon="-3.21333">
        <ele>181.237741</ele>
        <time>2022-12-12T12:29:07.784Z</time>
      </trkpt>
      <trkpt lat="48.2109" lon="-3.21325">
        <ele>181.001023</ele>
        <time>2022-12-12T12:29:10.791Z</time>
      </trkpt>
      <trkpt lat="48.21098" lon="-3.21317">
        <ele>180.776158</ele>
        <time>2022-12-12T12:29:13.773Z</time>
      </trkpt>
      <trkpt lat="48.21106" lon="-3.21309">
        <ele>180.551865</ele>
        <time>2022-12-12T12:29:16.787Z</time>
      </trkpt>
      <trkpt lat="48.21116" lon="-3.21301">
        <ele>180.28797</ele>
        <time>2022-12-12T12:29:19.791Z</time>
      </trkpt>
      <trkpt lat="48.21127" lon="-3.21293">
        <ele>180.136012</ele>
        <time>2022-12-12T12:29:22.794Z</time>
      </trkpt>
      <trkpt lat="48.21138" lon="-3.21285">
        <ele>180.378315</ele>
        <time>2022-12-12T12:29:25.784Z</time>
      </trkpt>
      <trkpt lat="48.21149" lon="-3.21277">
        <ele>180.624867</ele>
        <time>2022-12-12T12:29:28.791Z</time>
      </trkpt>
      <trkpt lat="48.21161" lon="-3.21269">
        <ele>180.880834</ele>
        <time>2022-12-12T12:29:31.785Z</time>
      </trkpt>
      <trkpt lat="48.21172" lon="-3.21261">
        <ele>181.125497</ele>
        <time>2022-12-12T12:29:34.799Z</time>
      </trkpt>
      <trkpt lat="48.21184" lon="-3.21252">
        <ele>181.377242</ele>
        <time>2022-12-12T12:29:37.793Z</time>
      </trkpt>
      <trkpt lat="48.21195" lon="-3.21244">
        <ele>181.625473</ele>
        <time>2022-12-12T12:29:40.787Z</time>
      </trkpt>
      <trkpt lat="48.21205" lon="-3.21235">
        <ele>181.860852</ele>
        <time>2022-12-12T12:29:43.791Z</time>
      </trkpt>
      <trkpt lat="48.21216" lon="-3.21226">
        <ele>182.105575</ele>
        <time>2022-12-12T12:29:46.787Z</time>
      </trkpt>
      <trkpt lat="48.21227" lon="-3.21217">
        <ele>182.35741</ele>
        <time>2022-12-12T12:29:49.800Z</time>
      </trkpt>
      <trkpt lat="48.21238" lon="-3.21208">
        <ele>182.610706</ele>
        <time>2022-12-12T12:29:52.801Z</time>
      </trkpt>
      <trkpt lat="48.2125" lon="-3.21199">
        <ele>182.864823</ele>
        <time>2022-12-12T12:29:55.788Z</time>
      </trkpt>
      <trkpt lat="48.21261" lon="-3.2119">
        <ele>183.125432</ele>
        <time>2022-12-12T12:29:58.800Z</time>
      </trkpt>
      <trkpt lat="48.2127" lon="-3.21184">
        <ele>183.309274</ele>
        <time>2022-12-12T12:30:00.787Z</time>
      </trkpt>
      <trkpt lat="48.21281" lon="-3.21177">
        <ele>183.559646</ele>
        <time>2022-12-12T12:30:03.800Z</time>
      </trkpt>
      <trkpt lat="48.21291" lon="-3.21169">
        <ele>183.671876</ele>
        <time>2022-12-12T12:30:06.788Z</time>
      </trkpt>
      <trkpt lat="48.21301" lon="-3.21161">
        <ele>183.723667</ele>
        <time>2022-12-12T12:30:09.789Z</time>
      </trkpt>
      <trkpt lat="48.21312" lon="-3.21153">
        <ele>183.778483</ele>
        <time>2022-12-12T12:30:12.788Z</time>
      </trkpt>
      <trkpt lat="48.21323" lon="-3.21143">
        <ele>183.835238</ele>
        <time>2022-12-12T12:30:15.784Z</time>
      </trkpt>
      <trkpt lat="48.21334" lon="-3.21134">
        <ele>183.892636</ele>
        <time>2022-12-12T12:30:18.789Z</time>
      </trkpt>
      <trkpt lat="48.21345" lon="-3.21125">
        <ele>183.952968</ele>
        <time>2022-12-12T12:30:21.788Z</time>
      </trkpt>
      <trkpt lat="48.21353" lon="-3.21119">
        <ele>183.99429</ele>
        <time>2022-12-12T12:30:23.797Z</time>
      </trkpt>
      <trkpt lat="48.21365" lon="-3.21109">
        <ele>184.053432</ele>
        <time>2022-12-12T12:30:26.784Z</time>
      </trkpt>
      <trkpt lat="48.21376" lon="-3.21101">
        <ele>184.109143</ele>
        <time>2022-12-12T12:30:29.793Z</time>
      </trkpt>
      <trkpt lat="48.21386" lon="-3.21094">
        <ele>184.159025</ele>
        <time>2022-12-12T12:30:32.792Z</time>
      </trkpt>
      <trkpt lat="48.21396" lon="-3.21086">
        <ele>184.215014</ele>
        <time>2022-12-12T12:30:35.803Z</time>
      </trkpt>
      <trkpt lat="48.21407" lon="-3.21077">
        <ele>184.267944</ele>
        <time>2022-12-12T12:30:38.800Z</time>
      </trkpt>
      <trkpt lat="48.21417" lon="-3.21068">
        <ele>184.323059</ele>
        <time>2022-12-12T12:30:41.789Z</time>
      </trkpt>
      <trkpt lat="48.21428" lon="-3.21058">
        <ele>184.379905</ele>
        <time>2022-12-12T12:30:44.793Z</time>
      </trkpt>
      <trkpt lat="48.21438" lon="-3.21047">
        <ele>184.436238</ele>
        <time>2022-12-12T12:30:47.797Z</time>
      </trkpt>
      <trkpt lat="48.21446" lon="-3.21036">
        <ele>184.368287</ele>
        <time>2022-12-12T12:30:50.785Z</time>
      </trkpt>
      <trkpt lat="48.21456" lon="-3.21025">
        <ele>184.183782</ele>
        <time>2022-12-12T12:30:53.788Z</time>
      </trkpt>
      <trkpt lat="48.21466" lon="-3.21014">
        <ele>183.981835</ele>
        <time>2022-12-12T12:30:56.794Z</time>
      </trkpt>
      <trkpt lat="48.21476" lon="-3.21001">
        <ele>183.775441</ele>
        <time>2022-12-12T12:30:59.787Z</time>
      </trkpt>
      <trkpt lat="48.21487" lon="-3.2099">
        <ele>183.572288</ele>
        <time>2022-12-12T12:31:02.791Z</time>
      </trkpt>
      <trkpt lat="48.21498" lon="-3.20978">
        <ele>183.369779</ele>
        <time>2022-12-12T12:31:05.792Z</time>
      </trkpt>
      <trkpt lat="48.21507" lon="-3.20968">
        <ele>183.181546</ele>
        <time>2022-12-12T12:31:08.786Z</time>
      </trkpt>
      <trkpt lat="48.21515" lon="-3.2096">
        <ele>183.041151</ele>
        <time>2022-12-12T12:31:10.789Z</time>
      </trkpt>
      <trkpt lat="48.21525" lon="-3.20948">
        <ele>182.836162</ele>
        <time>2022-12-12T12:31:13.786Z</time>
      </trkpt>
      <trkpt lat="48.21534" lon="-3.20937">
        <ele>182.656642</ele>
        <time>2022-12-12T12:31:16.786Z</time>
      </trkpt>
      <trkpt lat="48.21543" lon="-3.20928">
        <ele>182.49576</ele>
        <time>2022-12-12T12:31:19.795Z</time>
      </trkpt>
      <trkpt lat="48.2155" lon="-3.2092">
        <ele>182.349114</ele>
        <time>2022-12-12T12:31:22.788Z</time>
      </trkpt>
      <trkpt lat="48.21558" lon="-3.2091">
        <ele>182.194825</ele>
        <time>2022-12-12T12:31:25.784Z</time>
      </trkpt>
      <trkpt lat="48.21565" lon="-3.209">
        <ele>182.037776</ele>
        <time>2022-12-12T12:31:28.787Z</time>
      </trkpt>
      <trkpt lat="48.21574" lon="-3.20889">
        <ele>181.864374</ele>
        <time>2022-12-12T12:31:31.786Z</time>
      </trkpt>
      <trkpt lat="48.21583" lon="-3.20877">
        <ele>181.675754</ele>
        <time>2022-12-12T12:31:34.794Z</time>
      </trkpt>
      <trkpt lat="48.21591" lon="-3.20863">
        <ele>181.772096</ele>
        <time>2022-12-12T12:31:37.781Z</time>
      </trkpt>
      <trkpt lat="48.21599" lon="-3.2085">
        <ele>181.877642</ele>
        <time>2022-12-12T12:31:40.787Z</time>
      </trkpt>
      <trkpt lat="48.21606" lon="-3.20836">
        <ele>181.982947</ele>
        <time>2022-12-12T12:31:43.779Z</time>
      </trkpt>
      <trkpt lat="48.21614" lon="-3.20822">
        <ele>182.086292</ele>
        <time>2022-12-12T12:31:46.773Z</time>
      </trkpt>
      <trkpt lat="48.21622" lon="-3.20811">
        <ele>182.189496</ele>
        <time>2022-12-12T12:31:49.790Z</time>
      </trkpt>
      <trkpt lat="48.21631" lon="-3.20801">
        <ele>182.289733</ele>
        <time>2022-12-12T12:31:52.785Z</time>
      </trkpt>
      <trkpt lat="48.2164" lon="-3.20792">
        <ele>182.388895</ele>
        <time>2022-12-12T12:31:55.788Z</time>
      </trkpt>
      <trkpt lat="48.21649" lon="-3.20782">
        <ele>182.484553</ele>
        <time>2022-12-12T12:31:58.786Z</time>
      </trkpt>
      <trkpt lat="48.21658" lon="-3.20773">
        <ele>182.58086</ele>
        <time>2022-12-12T12:32:01.791Z</time>
      </trkpt>
      <trkpt lat="48.21666" lon="-3.20763">
        <ele>182.676097</ele>
        <time>2022-12-12T12:32:04.795Z</time>
      </trkpt>
      <trkpt lat="48.21676" lon="-3.20753">
        <ele>182.783249</ele>
        <time>2022-12-12T12:32:07.781Z</time>
      </trkpt>
      <trkpt lat="48.21685" lon="-3.20743">
        <ele>182.88493</ele>
        <time>2022-12-12T12:32:10.776Z</time>
      </trkpt>
      <trkpt lat="48.21693" lon="-3.20735">
        <ele>182.970755</ele>
        <time>2022-12-12T12:32:13.793Z</time>
      </trkpt>
      <trkpt lat="48.21701" lon="-3.20728">
        <ele>183.052835</ele>
        <time>2022-12-12T12:32:16.769Z</time>
      </trkpt>
      <trkpt lat="48.2171" lon="-3.20719">
        <ele>183.145869</ele>
        <time>2022-12-12T12:32:19.782Z</time>
      </trkpt>
      <trkpt lat="48.21718" lon="-3.20708">
        <ele>183.243556</ele>
        <time>2022-12-12T12:32:22.775Z</time>
      </trkpt>
      <trkpt lat="48.21725" lon="-3.20694">
        <ele>183.268102</ele>
        <time>2022-12-12T12:32:25.787Z</time>
      </trkpt>
      <trkpt lat="48.21732" lon="-3.20678">
        <ele>183.254891</ele>
        <time>2022-12-12T12:32:28.789Z</time>
      </trkpt>
      <trkpt lat="48.21737" lon="-3.20661">
        <ele>183.241861</ele>
        <time>2022-12-12T12:32:31.778Z</time>
      </trkpt>
      <trkpt lat="48.21743" lon="-3.20645">
        <ele>183.229346</ele>
        <time>2022-12-12T12:32:34.789Z</time>
      </trkpt>
      <trkpt lat="48.21746" lon="-3.20632">
        <ele>183.219365</ele>
        <time>2022-12-12T12:32:37.800Z</time>
      </trkpt>
      <trkpt lat="48.21751" lon="-3.20617">
        <ele>183.207723</ele>
        <time>2022-12-12T12:32:40.800Z</time>
      </trkpt>
      <trkpt lat="48.21756" lon="-3.206">
        <ele>183.194719</ele>
        <time>2022-12-12T12:32:43.785Z</time>
      </trkpt>
      <trkpt lat="48.21761" lon="-3.20584">
        <ele>183.182643</ele>
        <time>2022-12-12T12:32:46.795Z</time>
      </trkpt>
      <trkpt lat="48.21768" lon="-3.20569">
        <ele>183.169672</ele>
        <time>2022-12-12T12:32:49.776Z</time>
      </trkpt>
      <trkpt lat="48.21775" lon="-3.20554">
        <ele>183.157166</ele>
        <time>2022-12-12T12:32:52.789Z</time>
      </trkpt>
      <trkpt lat="48.2178" lon="-3.20538">
        <ele>183.14443</ele>
        <time>2022-12-12T12:32:55.786Z</time>
      </trkpt>
      <trkpt lat="48.21785" lon="-3.20523">
        <ele>183.133215</ele>
        <time>2022-12-12T12:32:58.776Z</time>
      </trkpt>
      <trkpt lat="48.21788" lon="-3.2051">
        <ele>183.12329</ele>
        <time>2022-12-12T12:33:01.801Z</time>
      </trkpt>
      <trkpt lat="48.21791" lon="-3.20497">
        <ele>183.113581</ele>
        <time>2022-12-12T12:33:04.790Z</time>
      </trkpt>
      <trkpt lat="48.21795" lon="-3.20483">
        <ele>183.102957</ele>
        <time>2022-12-12T12:33:07.789Z</time>
      </trkpt>
      <trkpt lat="48.21801" lon="-3.20469">
        <ele>183.091829</ele>
        <time>2022-12-12T12:33:10.802Z</time>
      </trkpt>
      <trkpt lat="48.21805" lon="-3.20455">
        <ele>182.998686</ele>
        <time>2022-12-12T12:33:13.788Z</time>
      </trkpt>
      <trkpt lat="48.21809" lon="-3.2044">
        <ele>182.865203</ele>
        <time>2022-12-12T12:33:16.801Z</time>
      </trkpt>
      <trkpt lat="48.21815" lon="-3.20426">
        <ele>182.724744</ele>
        <time>2022-12-12T12:33:19.783Z</time>
      </trkpt>
      <trkpt lat="48.2182" lon="-3.20409">
        <ele>182.566658</ele>
        <time>2022-12-12T12:33:22.801Z</time>
      </trkpt>
      <trkpt lat="48.21825" lon="-3.20396">
        <ele>182.441197</ele>
        <time>2022-12-12T12:33:24.783Z</time>
      </trkpt>
      <trkpt lat="48.21831" lon="-3.20383">
        <ele>182.307329</ele>
        <time>2022-12-12T12:33:26.771Z</time>
      </trkpt>
      <trkpt lat="48.21837" lon="-3.20369">
        <ele>182.164428</ele>
        <time>2022-12-12T12:33:28.799Z</time>
      </trkpt>
      <trkpt lat="48.21843" lon="-3.20355">
        <ele>182.027855</ele>
        <time>2022-12-12T12:33:30.800Z</time>
      </trkpt>
      <trkpt lat="48.21849" lon="-3.20343">
        <ele>181.898377</ele>
        <time>2022-12-12T12:33:32.788Z</time>
      </trkpt>
      <trkpt lat="48.21854" lon="-3.20331">
        <ele>181.779416</ele>
        <time>2022-12-12T12:33:34.790Z</time>
      </trkpt>
      <trkpt lat="48.21859" lon="-3.2032">
        <ele>181.664717</ele>
        <time>2022-12-12T12:33:36.791Z</time>
      </trkpt>
      <trkpt lat="48.21867" lon="-3.20305">
        <ele>181.506607</ele>
        <time>2022-12-12T12:33:39.796Z</time>
      </trkpt>
      <trkpt lat="48.21874" lon="-3.2029">
        <ele>181.347048</ele>
        <time>2022-12-12T12:33:42.785Z</time>
      </trkpt>
      <trkpt lat="48.21882" lon="-3.20275">
        <ele>181.189353</ele>
        <time>2022-12-12T12:33:45.794Z</time>
      </trkpt>
      <trkpt lat="48.21889" lon="-3.20259">
        <ele>181.024628</ele>
        <time>2022-12-12T12:33:48.794Z</time>
      </trkpt>
      <trkpt lat="48.21895" lon="-3.20248">
        <ele>180.909688</ele>
        <time>2022-12-12T12:33:50.780Z</time>
      </trkpt>
      <trkpt lat="48.21901" lon="-3.20238">
        <ele>180.8147</ele>
        <time>2022-12-12T12:33:52.793Z</time>
      </trkpt>
      <trkpt lat="48.21906" lon="-3.20227">
        <ele>180.886646</ele>
        <time>2022-12-12T12:33:54.805Z</time>
      </trkpt>
      <trkpt lat="48.21911" lon="-3.20215">
        <ele>180.961737</ele>
        <time>2022-12-12T12:33:56.779Z</time>
      </trkpt>
      <trkpt lat="48.21916" lon="-3.20203">
        <ele>181.033681</ele>
        <time>2022-12-12T12:33:58.790Z</time>
      </trkpt>
      <trkpt lat="48.21922" lon="-3.20193">
        <ele>181.106999</ele>
        <time>2022-12-12T12:34:00.775Z</time>
      </trkpt>
      <trkpt lat="48.21927" lon="-3.20181">
        <ele>181.180269</ele>
        <time>2022-12-12T12:34:02.793Z</time>
      </trkpt>
      <trkpt lat="48.21934" lon="-3.20164">
        <ele>181.286101</ele>
        <time>2022-12-12T12:34:05.778Z</time>
      </trkpt>
      <trkpt lat="48.21942" lon="-3.20147">
        <ele>181.390999</ele>
        <time>2022-12-12T12:34:08.789Z</time>
      </trkpt>
      <trkpt lat="48.2195" lon="-3.20131">
        <ele>181.496869</ele>
        <time>2022-12-12T12:34:11.791Z</time>
      </trkpt>
      <trkpt lat="48.21955" lon="-3.20121">
        <ele>181.568046</ele>
        <time>2022-12-12T12:34:13.796Z</time>
      </trkpt>
      <trkpt lat="48.21963" lon="-3.20104">
        <ele>181.676869</ele>
        <time>2022-12-12T12:34:16.786Z</time>
      </trkpt>
      <trkpt lat="48.21971" lon="-3.20087">
        <ele>181.782655</ele>
        <time>2022-12-12T12:34:19.785Z</time>
      </trkpt>
      <trkpt lat="48.21976" lon="-3.20076">
        <ele>181.85473</ele>
        <time>2022-12-12T12:34:21.791Z</time>
      </trkpt>
      <trkpt lat="48.21984" lon="-3.2006">
        <ele>181.959149</ele>
        <time>2022-12-12T12:34:24.805Z</time>
      </trkpt>
      <trkpt lat="48.21991" lon="-3.20044">
        <ele>182.062336</ele>
        <time>2022-12-12T12:34:27.794Z</time>
      </trkpt>
      <trkpt lat="48.21997" lon="-3.20033">
        <ele>182.135638</ele>
        <time>2022-12-12T12:34:29.799Z</time>
      </trkpt>
      <trkpt lat="48.22002" lon="-3.20022">
        <ele>182.2089</ele>
        <time>2022-12-12T12:34:31.789Z</time>
      </trkpt>
      <trkpt lat="48.22007" lon="-3.2001">
        <ele>182.183592</ele>
        <time>2022-12-12T12:34:33.796Z</time>
      </trkpt>
      <trkpt lat="48.22012" lon="-3.19999">
        <ele>182.120244</ele>
        <time>2022-12-12T12:34:35.784Z</time>
      </trkpt>
      <trkpt lat="48.22019" lon="-3.19981">
        <ele>182.029932</ele>
        <time>2022-12-12T12:34:38.788Z</time>
      </trkpt>
      <trkpt lat="48.22026" lon="-3.19965">
        <ele>181.939438</ele>
        <time>2022-12-12T12:34:41.793Z</time>
      </trkpt>
      <trkpt lat="48.22031" lon="-3.19953">
        <ele>181.878358</ele>
        <time>2022-12-12T12:34:43.792Z</time>
      </trkpt>
      <trkpt lat="48.22036" lon="-3.19941">
        <ele>181.815369</ele>
        <time>2022-12-12T12:34:45.780Z</time>
      </trkpt>
      <trkpt lat="48.22043" lon="-3.19926">
        <ele>181.730914</ele>
        <time>2022-12-12T12:34:48.789Z</time>
      </trkpt>
      <trkpt lat="48.2205" lon="-3.19911">
        <ele>181.646459</ele>
        <time>2022-12-12T12:34:51.801Z</time>
      </trkpt>
      <trkpt lat="48.22057" lon="-3.19894">
        <ele>181.558235</ele>
        <time>2022-12-12T12:34:54.790Z</time>
      </trkpt>
      <trkpt lat="48.22064" lon="-3.19878">
        <ele>181.470366</ele>
        <time>2022-12-12T12:34:57.791Z</time>
      </trkpt>
      <trkpt lat="48.22073" lon="-3.19864">
        <ele>181.382511</ele>
        <time>2022-12-12T12:35:00.799Z</time>
      </trkpt>
      <trkpt lat="48.22082" lon="-3.19852">
        <ele>181.297273</ele>
        <time>2022-12-12T12:35:03.771Z</time>
      </trkpt>
      <trkpt lat="48.22092" lon="-3.19839">
        <ele>181.210262</ele>
        <time>2022-12-12T12:35:06.785Z</time>
      </trkpt>
      <trkpt lat="48.22101" lon="-3.19827">
        <ele>181.125836</ele>
        <time>2022-12-12T12:35:09.801Z</time>
      </trkpt>
      <trkpt lat="48.22111" lon="-3.19815">
        <ele>181.040076</ele>
        <time>2022-12-12T12:35:12.788Z</time>
      </trkpt>
      <trkpt lat="48.22121" lon="-3.19803">
        <ele>180.970514</ele>
        <time>2022-12-12T12:35:15.771Z</time>
      </trkpt>
      <trkpt lat="48.22131" lon="-3.1979">
        <ele>180.91247</ele>
        <time>2022-12-12T12:35:18.783Z</time>
      </trkpt>
      <trkpt lat="48.22141" lon="-3.19777">
        <ele>180.853514</ele>
        <time>2022-12-12T12:35:21.786Z</time>
      </trkpt>
      <trkpt lat="48.22149" lon="-3.19768">
        <ele>180.811328</ele>
        <time>2022-12-12T12:35:23.784Z</time>
      </trkpt>
      <trkpt lat="48.22156" lon="-3.1976">
        <ele>180.770255</ele>
        <time>2022-12-12T12:35:25.794Z</time>
      </trkpt>
      <trkpt lat="48.22163" lon="-3.19751">
        <ele>180.729896</ele>
        <time>2022-12-12T12:35:27.796Z</time>
      </trkpt>
      <trkpt lat="48.22172" lon="-3.1974">
        <ele>180.677768</ele>
        <time>2022-12-12T12:35:30.799Z</time>
      </trkpt>
      <trkpt lat="48.22182" lon="-3.19728">
        <ele>180.623363</ele>
        <time>2022-12-12T12:35:33.778Z</time>
      </trkpt>
      <trkpt lat="48.22191" lon="-3.19716">
        <ele>180.566761</ele>
        <time>2022-12-12T12:35:36.797Z</time>
      </trkpt>
      <trkpt lat="48.22201" lon="-3.19704">
        <ele>180.510119</ele>
        <time>2022-12-12T12:35:39.782Z</time>
      </trkpt>
      <trkpt lat="48.22209" lon="-3.19689">
        <ele>180.454074</ele>
        <time>2022-12-12T12:35:42.789Z</time>
      </trkpt>
      <trkpt lat="48.22216" lon="-3.19674">
        <ele>180.397866</ele>
        <time>2022-12-12T12:35:45.779Z</time>
      </trkpt>
      <trkpt lat="48.22222" lon="-3.19657">
        <ele>180.342352</ele>
        <time>2022-12-12T12:35:48.788Z</time>
      </trkpt>
      <trkpt lat="48.22226" lon="-3.19639">
        <ele>180.286144</ele>
        <time>2022-12-12T12:35:51.772Z</time>
      </trkpt>
      <trkpt lat="48.22231" lon="-3.19622">
        <ele>180.23163</ele>
        <time>2022-12-12T12:35:54.775Z</time>
      </trkpt>
      <trkpt lat="48.22236" lon="-3.19608">
        <ele>180.209835</ele>
        <time>2022-12-12T12:35:57.777Z</time>
      </trkpt>
      <trkpt lat="48.22243" lon="-3.19596">
        <ele>180.217801</ele>
        <time>2022-12-12T12:36:00.790Z</time>
      </trkpt>
      <trkpt lat="48.2225" lon="-3.19584">
        <ele>180.226085</ele>
        <time>2022-12-12T12:36:03.793Z</time>
      </trkpt>
      <trkpt lat="48.22257" lon="-3.19572">
        <ele>180.234781</ele>
        <time>2022-12-12T12:36:06.784Z</time>
      </trkpt>
      <trkpt lat="48.22264" lon="-3.19557">
        <ele>180.243673</ele>
        <time>2022-12-12T12:36:09.794Z</time>
      </trkpt>
      <trkpt lat="48.2227" lon="-3.19542">
        <ele>180.252828</ele>
        <time>2022-12-12T12:36:12.775Z</time>
      </trkpt>
      <trkpt lat="48.22275" lon="-3.19526">
        <ele>180.262029</ele>
        <time>2022-12-12T12:36:15.787Z</time>
      </trkpt>
      <trkpt lat="48.2228" lon="-3.1951">
        <ele>180.271118</ele>
        <time>2022-12-12T12:36:18.788Z</time>
      </trkpt>
      <trkpt lat="48.22284" lon="-3.19495">
        <ele>180.279691</ele>
        <time>2022-12-12T12:36:21.791Z</time>
      </trkpt>
      <trkpt lat="48.22287" lon="-3.19482">
        <ele>180.286844</ele>
        <time>2022-12-12T12:36:24.784Z</time>
      </trkpt>
      <trkpt lat="48.2229" lon="-3.19469">
        <ele>180.2941</ele>
        <time>2022-12-12T12:36:27.798Z</time>
      </trkpt>
      <trkpt lat="48.22294" lon="-3.19455">
        <ele>180.301712</ele>
        <time>2022-12-12T12:36:30.789Z</time>
      </trkpt>
      <trkpt lat="48.22298" lon="-3.19441">
        <ele>180.309735</ele>
        <time>2022-12-12T12:36:33.789Z</time>
      </trkpt>
      <trkpt lat="48.22302" lon="-3.19426">
        <ele>180.317865</ele>
        <time>2022-12-12T12:36:36.792Z</time>
      </trkpt>
      <trkpt lat="48.22308" lon="-3.19413">
        <ele>180.326155</ele>
        <time>2022-12-12T12:36:39.789Z</time>
      </trkpt>
      <trkpt lat="48.22316" lon="-3.194">
        <ele>180.334761</ele>
        <time>2022-12-12T12:36:42.790Z</time>
      </trkpt>
      <trkpt lat="48.22324" lon="-3.19388">
        <ele>180.343597</ele>
        <time>2022-12-12T12:36:45.792Z</time>
      </trkpt>
      <trkpt lat="48.22332" lon="-3.19376">
        <ele>180.267119</ele>
        <time>2022-12-12T12:36:48.783Z</time>
      </trkpt>
      <trkpt lat="48.22341" lon="-3.19364">
        <ele>180.171082</ele>
        <time>2022-12-12T12:36:51.804Z</time>
      </trkpt>
      <trkpt lat="48.22349" lon="-3.19351">
        <ele>180.074692</ele>
        <time>2022-12-12T12:36:54.792Z</time>
      </trkpt>
      <trkpt lat="48.22358" lon="-3.19339">
        <ele>179.97811</ele>
        <time>2022-12-12T12:36:57.771Z</time>
      </trkpt>
      <trkpt lat="48.22367" lon="-3.19325">
        <ele>179.876174</ele>
        <time>2022-12-12T12:37:00.790Z</time>
      </trkpt>
      <trkpt lat="48.22376" lon="-3.19312">
        <ele>179.773653</ele>
        <time>2022-12-12T12:37:03.802Z</time>
      </trkpt>
      <trkpt lat="48.22385" lon="-3.19299">
        <ele>179.671546</ele>
        <time>2022-12-12T12:37:06.785Z</time>
      </trkpt>
      <trkpt lat="48.22395" lon="-3.19286">
        <ele>179.569535</ele>
        <time>2022-12-12T12:37:09.793Z</time>
      </trkpt>
      <trkpt lat="48.22403" lon="-3.19273">
        <ele>179.46876</ele>
        <time>2022-12-12T12:37:12.783Z</time>
      </trkpt>
      <trkpt lat="48.22412" lon="-3.1926">
        <ele>179.367032</ele>
        <time>2022-12-12T12:37:15.796Z</time>
      </trkpt>
      <trkpt lat="48.22422" lon="-3.19246">
        <ele>179.261638</ele>
        <time>2022-12-12T12:37:18.774Z</time>
      </trkpt>
      <trkpt lat="48.22431" lon="-3.19232">
        <ele>179.150768</ele>
        <time>2022-12-12T12:37:21.795Z</time>
      </trkpt>
      <trkpt lat="48.2244" lon="-3.19219">
        <ele>179.050902</ele>
        <time>2022-12-12T12:37:24.795Z</time>
      </trkpt>
      <trkpt lat="48.22448" lon="-3.19206">
        <ele>178.958262</ele>
        <time>2022-12-12T12:37:27.794Z</time>
      </trkpt>
      <trkpt lat="48.22455" lon="-3.19193">
        <ele>178.881735</ele>
        <time>2022-12-12T12:37:30.788Z</time>
      </trkpt>
      <trkpt lat="48.22463" lon="-3.19178">
        <ele>178.845566</ele>
        <time>2022-12-12T12:37:33.798Z</time>
      </trkpt>
      <trkpt lat="48.22469" lon="-3.19162">
        <ele>178.808927</ele>
        <time>2022-12-12T12:37:36.790Z</time>
      </trkpt>
      <trkpt lat="48.22476" lon="-3.19146">
        <ele>178.771228</ele>
        <time>2022-12-12T12:37:39.793Z</time>
      </trkpt>
      <trkpt lat="48.22483" lon="-3.19128">
        <ele>178.731883</ele>
        <time>2022-12-12T12:37:42.801Z</time>
      </trkpt>
      <trkpt lat="48.22488" lon="-3.19117">
        <ele>178.705078</ele>
        <time>2022-12-12T12:37:44.797Z</time>
      </trkpt>
      <trkpt lat="48.22494" lon="-3.19102">
        <ele>178.670619</ele>
        <time>2022-12-12T12:37:47.791Z</time>
      </trkpt>
      <trkpt lat="48.225" lon="-3.19088">
        <ele>178.638556</ele>
        <time>2022-12-12T12:37:50.793Z</time>
      </trkpt>
      <trkpt lat="48.22504" lon="-3.19071">
        <ele>178.603933</ele>
        <time>2022-12-12T12:37:53.785Z</time>
      </trkpt>
      <trkpt lat="48.22507" lon="-3.19053">
        <ele>178.56783</ele>
        <time>2022-12-12T12:37:56.772Z</time>
      </trkpt>
      <trkpt lat="48.2251" lon="-3.19034">
        <ele>178.529833</ele>
        <time>2022-12-12T12:37:59.773Z</time>
      </trkpt>
      <trkpt lat="48.22512" lon="-3.19016">
        <ele>178.492862</ele>
        <time>2022-12-12T12:38:02.793Z</time>
      </trkpt>
      <trkpt lat="48.22513" lon="-3.19">
        <ele>178.461432</ele>
        <time>2022-12-12T12:38:05.794Z</time>
      </trkpt>
      <trkpt lat="48.22516" lon="-3.18982">
        <ele>178.427003</ele>
        <time>2022-12-12T12:38:09.798Z</time>
      </trkpt>
      <trkpt lat="48.22521" lon="-3.18967">
        <ele>178.394262</ele>
        <time>2022-12-12T12:38:13.777Z</time>
      </trkpt>
      <trkpt lat="48.22526" lon="-3.18954">
        <ele>178.364906</ele>
        <time>2022-12-12T12:38:16.808Z</time>
      </trkpt>
      <trkpt lat="48.22531" lon="-3.18943">
        <ele>178.31356</ele>
        <time>2022-12-12T12:38:19.776Z</time>
      </trkpt>
      <trkpt lat="48.22536" lon="-3.1893">
        <ele>178.258719</ele>
        <time>2022-12-12T12:38:22.791Z</time>
      </trkpt>
      <trkpt lat="48.22543" lon="-3.1892">
        <ele>178.204164</ele>
        <time>2022-12-12T12:38:25.776Z</time>
      </trkpt>
      <trkpt lat="48.22551" lon="-3.1891">
        <ele>178.144317</ele>
        <time>2022-12-12T12:38:28.773Z</time>
      </trkpt>
      <trkpt lat="48.22559" lon="-3.18898">
        <ele>178.082212</ele>
        <time>2022-12-12T12:38:31.783Z</time>
      </trkpt>
      <trkpt lat="48.22569" lon="-3.18885">
        <ele>178.008171</ele>
        <time>2022-12-12T12:38:34.801Z</time>
      </trkpt>
      <trkpt lat="48.22579" lon="-3.18873">
        <ele>177.935838</ele>
        <time>2022-12-12T12:38:37.803Z</time>
      </trkpt>
      <trkpt lat="48.22588" lon="-3.18861">
        <ele>177.86819</ele>
        <time>2022-12-12T12:38:40.802Z</time>
      </trkpt>
      <trkpt lat="48.22596" lon="-3.18851">
        <ele>177.807036</ele>
        <time>2022-12-12T12:38:43.791Z</time>
      </trkpt>
      <trkpt lat="48.22605" lon="-3.18838">
        <ele>177.736382</ele>
        <time>2022-12-12T12:38:46.799Z</time>
      </trkpt>
      <trkpt lat="48.22614" lon="-3.18825">
        <ele>177.666334</ele>
        <time>2022-12-12T12:38:49.803Z</time>
      </trkpt>
      <trkpt lat="48.22621" lon="-3.1881">
        <ele>177.599598</ele>
        <time>2022-12-12T12:38:52.793Z</time>
      </trkpt>
      <trkpt lat="48.22626" lon="-3.18796">
        <ele>177.541307</ele>
        <time>2022-12-12T12:38:55.777Z</time>
      </trkpt>
      <trkpt lat="48.22629" lon="-3.18781">
        <ele>177.481544</ele>
        <time>2022-12-12T12:38:58.772Z</time>
      </trkpt>
      <trkpt lat="48.22631" lon="-3.18765">
        <ele>177.422334</ele>
        <time>2022-12-12T12:39:01.788Z</time>
      </trkpt>
      <trkpt lat="48.22632" lon="-3.1875">
        <ele>177.3628</ele>
        <time>2022-12-12T12:39:04.773Z</time>
      </trkpt>
      <trkpt lat="48.22632" lon="-3.18733">
        <ele>177.243071</ele>
        <time>2022-12-12T12:39:07.790Z</time>
      </trkpt>
      <trkpt lat="48.22631" lon="-3.18716">
        <ele>177.112358</ele>
        <time>2022-12-12T12:39:10.775Z</time>
      </trkpt>
      <trkpt lat="48.22629" lon="-3.18701">
        <ele>176.984986</ele>
        <time>2022-12-12T12:39:13.794Z</time>
      </trkpt>
      <trkpt lat="48.22625" lon="-3.18686">
        <ele>176.860088</ele>
        <time>2022-12-12T12:39:16.793Z</time>
      </trkpt>
      <trkpt lat="48.22621" lon="-3.18671">
        <ele>176.735333</ele>
        <time>2022-12-12T12:39:19.792Z</time>
      </trkpt>
      <trkpt lat="48.22616" lon="-3.18656">
        <ele>176.604028</ele>
        <time>2022-12-12T12:39:22.803Z</time>
      </trkpt>
      <trkpt lat="48.22612" lon="-3.18641">
        <ele>176.475054</ele>
        <time>2022-12-12T12:39:25.805Z</time>
      </trkpt>
      <trkpt lat="48.22608" lon="-3.18625">
        <ele>176.340427</ele>
        <time>2022-12-12T12:39:28.794Z</time>
      </trkpt>
      <trkpt lat="48.22604" lon="-3.18611">
        <ele>176.221655</ele>
        <time>2022-12-12T12:39:31.789Z</time>
      </trkpt>
      <trkpt lat="48.22599" lon="-3.18596">
        <ele>176.097634</ele>
        <time>2022-12-12T12:39:34.792Z</time>
      </trkpt>
      <trkpt lat="48.22596" lon="-3.18583">
        <ele>175.987574</ele>
        <time>2022-12-12T12:39:37.796Z</time>
      </trkpt>
      <trkpt lat="48.22593" lon="-3.1857">
        <ele>175.880611</ele>
        <time>2022-12-12T12:39:40.782Z</time>
      </trkpt>
      <trkpt lat="48.2259" lon="-3.18557">
        <ele>175.769911</ele>
        <time>2022-12-12T12:39:43.801Z</time>
      </trkpt>
      <trkpt lat="48.22586" lon="-3.18541">
        <ele>175.633095</ele>
        <time>2022-12-12T12:39:47.789Z</time>
      </trkpt>
      <trkpt lat="48.22582" lon="-3.18527">
        <ele>175.519337</ele>
        <time>2022-12-12T12:39:50.793Z</time>
      </trkpt>
      <trkpt lat="48.22578" lon="-3.18513">
        <ele>175.398813</ele>
        <time>2022-12-12T12:39:53.800Z</time>
      </trkpt>
      <trkpt lat="48.22574" lon="-3.18499">
        <ele>175.281916</ele>
        <time>2022-12-12T12:39:56.802Z</time>
      </trkpt>
      <trkpt lat="48.2257" lon="-3.18487">
        <ele>175.257159</ele>
        <time>2022-12-12T12:39:59.774Z</time>
      </trkpt>
      <trkpt lat="48.22565" lon="-3.18472">
        <ele>175.287031</ele>
        <time>2022-12-12T12:40:02.789Z</time>
      </trkpt>
      <trkpt lat="48.22561" lon="-3.18457">
        <ele>175.317959</ele>
        <time>2022-12-12T12:40:05.795Z</time>
      </trkpt>
      <trkpt lat="48.22558" lon="-3.18443">
        <ele>175.347504</ele>
        <time>2022-12-12T12:40:08.792Z</time>
      </trkpt>
      <trkpt lat="48.22554" lon="-3.18428">
        <ele>175.378276</ele>
        <time>2022-12-12T12:40:11.798Z</time>
      </trkpt>
      <trkpt lat="48.2255" lon="-3.18413">
        <ele>175.409028</ele>
        <time>2022-12-12T12:40:14.771Z</time>
      </trkpt>
      <trkpt lat="48.22546" lon="-3.18397">
        <ele>175.441124</ele>
        <time>2022-12-12T12:40:17.775Z</time>
      </trkpt>
      <trkpt lat="48.22542" lon="-3.18382">
        <ele>175.471</ele>
        <time>2022-12-12T12:40:20.806Z</time>
      </trkpt>
      <trkpt lat="48.22538" lon="-3.18369">
        <ele>175.498388</ele>
        <time>2022-12-12T12:40:23.766Z</time>
      </trkpt>
      <trkpt lat="48.22534" lon="-3.18355">
        <ele>175.527511</ele>
        <time>2022-12-12T12:40:26.801Z</time>
      </trkpt>
      <trkpt lat="48.2253" lon="-3.1834">
        <ele>175.558104</ele>
        <time>2022-12-12T12:40:29.797Z</time>
      </trkpt>
      <trkpt lat="48.22527" lon="-3.18325">
        <ele>175.588795</ele>
        <time>2022-12-12T12:40:32.798Z</time>
      </trkpt>
      <trkpt lat="48.22523" lon="-3.18309">
        <ele>175.620937</ele>
        <time>2022-12-12T12:40:35.790Z</time>
      </trkpt>
      <trkpt lat="48.22519" lon="-3.18293">
        <ele>175.654631</ele>
        <time>2022-12-12T12:40:38.776Z</time>
      </trkpt>
      <trkpt lat="48.22514" lon="-3.18276">
        <ele>175.69049</ele>
        <time>2022-12-12T12:40:41.774Z</time>
      </trkpt>
      <trkpt lat="48.22509" lon="-3.18258">
        <ele>175.725562</ele>
        <time>2022-12-12T12:40:44.794Z</time>
      </trkpt>
      <trkpt lat="48.22506" lon="-3.18243">
        <ele>175.754327</ele>
        <time>2022-12-12T12:40:47.802Z</time>
      </trkpt>
      <trkpt lat="48.22502" lon="-3.18229">
        <ele>175.746763</ele>
        <time>2022-12-12T12:40:50.796Z</time>
      </trkpt>
      <trkpt lat="48.22498" lon="-3.18215">
        <ele>175.738862</ele>
        <time>2022-12-12T12:40:53.795Z</time>
      </trkpt>
      <trkpt lat="48.22494" lon="-3.18199">
        <ele>175.730446</ele>
        <time>2022-12-12T12:40:56.804Z</time>
      </trkpt>
      <trkpt lat="48.2249" lon="-3.18183">
        <ele>175.721601</ele>
        <time>2022-12-12T12:40:59.794Z</time>
      </trkpt>
      <trkpt lat="48.22485" lon="-3.18166">
        <ele>175.712628</ele>
        <time>2022-12-12T12:41:02.804Z</time>
      </trkpt>
      <trkpt lat="48.2248" lon="-3.1815">
        <ele>175.703763</ele>
        <time>2022-12-12T12:41:05.787Z</time>
      </trkpt>
      <trkpt lat="48.22476" lon="-3.18135">
        <ele>175.695664</ele>
        <time>2022-12-12T12:41:08.793Z</time>
      </trkpt>
      <trkpt lat="48.22472" lon="-3.18118">
        <ele>175.686587</ele>
        <time>2022-12-12T12:41:12.800Z</time>
      </trkpt>
      <trkpt lat="48.22469" lon="-3.18104">
        <ele>175.679249</ele>
        <time>2022-12-12T12:41:15.794Z</time>
      </trkpt>
      <trkpt lat="48.22466" lon="-3.18089">
        <ele>175.671026</ele>
        <time>2022-12-12T12:41:18.802Z</time>
      </trkpt>
      <trkpt lat="48.22463" lon="-3.18073">
        <ele>175.662755</ele>
        <time>2022-12-12T12:41:21.807Z</time>
      </trkpt>
      <trkpt lat="48.2246" lon="-3.18056">
        <ele>175.654172</ele>
        <time>2022-12-12T12:41:24.794Z</time>
      </trkpt>
      <trkpt lat="48.22457" lon="-3.1804">
        <ele>175.645687</ele>
        <time>2022-12-12T12:41:27.774Z</time>
      </trkpt>
      <trkpt lat="48.22454" lon="-3.18025">
        <ele>175.637754</ele>
        <time>2022-12-12T12:41:30.798Z</time>
      </trkpt>
      <trkpt lat="48.22451" lon="-3.1801">
        <ele>175.629676</ele>
        <time>2022-12-12T12:41:33.793Z</time>
      </trkpt>
      <trkpt lat="48.22448" lon="-3.17996">
        <ele>175.622241</ele>
        <time>2022-12-12T12:41:36.800Z</time>
      </trkpt>
      <trkpt lat="48.22447" lon="-3.1798">
        <ele>175.694944</ele>
        <time>2022-12-12T12:41:39.797Z</time>
      </trkpt>
      <trkpt lat="48.22445" lon="-3.17964">
        <ele>175.826876</ele>
        <time>2022-12-12T12:41:42.786Z</time>
      </trkpt>
      <trkpt lat="48.22444" lon="-3.17948">
        <ele>175.960571</ele>
        <time>2022-12-12T12:41:45.803Z</time>
      </trkpt>
      <trkpt lat="48.22443" lon="-3.17933">
        <ele>176.08726</ele>
        <time>2022-12-12T12:41:48.801Z</time>
      </trkpt>
      <trkpt lat="48.22443" lon="-3.17919">
        <ele>176.20753</ele>
        <time>2022-12-12T12:41:51.794Z</time>
      </trkpt>
      <trkpt lat="48.22444" lon="-3.17902">
        <ele>176.345072</ele>
        <time>2022-12-12T12:41:55.789Z</time>
      </trkpt>
      <trkpt lat="48.22444" lon="-3.17888">
        <ele>176.462853</ele>
        <time>2022-12-12T12:41:59.780Z</time>
      </trkpt>
      <trkpt lat="48.22444" lon="-3.17871">
        <ele>176.60554</ele>
        <time>2022-12-12T12:42:03.773Z</time>
      </trkpt>
      <trkpt lat="48.22444" lon="-3.17854">
        <ele>176.740003</ele>
        <time>2022-12-12T12:42:07.786Z</time>
      </trkpt>
      <trkpt lat="48.22443" lon="-3.1784">
        <ele>176.862919</ele>
        <time>2022-12-12T12:42:12.773Z</time>
      </trkpt>
      <trkpt lat="48.22443" lon="-3.17824">
        <ele>176.994024</ele>
        <time>2022-12-12T12:42:19.782Z</time>
      </trkpt>
      <trkpt lat="48.22443" lon="-3.17809">
        <ele>177.120936</ele>
        <time>2022-12-12T12:42:23.779Z</time>
      </trkpt>
      <trkpt lat="48.22444" lon="-3.17795">
        <ele>177.232939</ele>
        <time>2022-12-12T12:42:26.794Z</time>
      </trkpt>
      <trkpt lat="48.22444" lon="-3.1778">
        <ele>177.359997</ele>
        <time>2022-12-12T12:42:29.794Z</time>
      </trkpt>
      <trkpt lat="48.22445" lon="-3.17765">
        <ele>177.486171</ele>
        <time>2022-12-12T12:42:32.791Z</time>
      </trkpt>
      <trkpt lat="48.22445" lon="-3.17751">
        <ele>177.599914</ele>
        <time>2022-12-12T12:42:35.802Z</time>
      </trkpt>
      <trkpt lat="48.22446" lon="-3.17735">
        <ele>177.728695</ele>
        <time>2022-12-12T12:42:39.783Z</time>
      </trkpt>
      <trkpt lat="48.22446" lon="-3.1772">
        <ele>177.855268</ele>
        <time>2022-12-12T12:42:43.803Z</time>
      </trkpt>
      <trkpt lat="48.22448" lon="-3.17706">
        <ele>177.821533</ele>
        <time>2022-12-12T12:42:46.802Z</time>
      </trkpt>
      <trkpt lat="48.2245" lon="-3.1769">
        <ele>177.778809</ele>
        <time>2022-12-12T12:42:49.778Z</time>
      </trkpt>
      <trkpt lat="48.22453" lon="-3.17672">
        <ele>177.730659</ele>
        <time>2022-12-12T12:42:52.799Z</time>
      </trkpt>
      <trkpt lat="48.22458" lon="-3.17654">
        <ele>177.679495</ele>
        <time>2022-12-12T12:42:55.796Z</time>
      </trkpt>
      <trkpt lat="48.22462" lon="-3.17637">
        <ele>177.633459</ele>
        <time>2022-12-12T12:42:58.791Z</time>
      </trkpt>
      <trkpt lat="48.22466" lon="-3.17622">
        <ele>177.590773</ele>
        <time>2022-12-12T12:43:01.794Z</time>
      </trkpt>
      <trkpt lat="48.22471" lon="-3.17606">
        <ele>177.544912</ele>
        <time>2022-12-12T12:43:04.773Z</time>
      </trkpt>
      <trkpt lat="48.22476" lon="-3.17589">
        <ele>177.49535</ele>
        <time>2022-12-12T12:43:07.787Z</time>
      </trkpt>
      <trkpt lat="48.22478" lon="-3.1757">
        <ele>177.44588</ele>
        <time>2022-12-12T12:43:10.772Z</time>
      </trkpt>
      <trkpt lat="48.22478" lon="-3.1755">
        <ele>177.394987</ele>
        <time>2022-12-12T12:43:13.791Z</time>
      </trkpt>
      <trkpt lat="48.22478" lon="-3.17531">
        <ele>177.344899</ele>
        <time>2022-12-12T12:43:16.791Z</time>
      </trkpt>
      <trkpt lat="48.22479" lon="-3.17513">
        <ele>177.298227</ele>
        <time>2022-12-12T12:43:19.796Z</time>
      </trkpt>
      <trkpt lat="48.2248" lon="-3.17494">
        <ele>177.248043</ele>
        <time>2022-12-12T12:43:22.793Z</time>
      </trkpt>
      <trkpt lat="48.22482" lon="-3.17477">
        <ele>177.202367</ele>
        <time>2022-12-12T12:43:25.784Z</time>
      </trkpt>
      <trkpt lat="48.22483" lon="-3.17459">
        <ele>177.154737</ele>
        <time>2022-12-12T12:43:28.794Z</time>
      </trkpt>
      <trkpt lat="48.22486" lon="-3.1744">
        <ele>177.177541</ele>
        <time>2022-12-12T12:43:31.776Z</time>
      </trkpt>
      <trkpt lat="48.22489" lon="-3.17421">
        <ele>177.202111</ele>
        <time>2022-12-12T12:43:34.793Z</time>
      </trkpt>
      <trkpt lat="48.22493" lon="-3.17402">
        <ele>177.227806</ele>
        <time>2022-12-12T12:43:37.804Z</time>
      </trkpt>
      <trkpt lat="48.22493" lon="-3.17383">
        <ele>177.2518</ele>
        <time>2022-12-12T12:43:40.786Z</time>
      </trkpt>
      <trkpt lat="48.22494" lon="-3.17364">
        <ele>177.275103</ele>
        <time>2022-12-12T12:43:43.774Z</time>
      </trkpt>
      <trkpt lat="48.22492" lon="-3.17348">
        <ele>177.296181</ele>
        <time>2022-12-12T12:43:46.784Z</time>
      </trkpt>
      <trkpt lat="48.22489" lon="-3.17334">
        <ele>177.315056</ele>
        <time>2022-12-12T12:43:49.791Z</time>
      </trkpt>
      <trkpt lat="48.22486" lon="-3.17319">
        <ele>177.334505</ele>
        <time>2022-12-12T12:43:52.790Z</time>
      </trkpt>
      <trkpt lat="48.22479" lon="-3.17306">
        <ele>177.355066</ele>
        <time>2022-12-12T12:43:55.781Z</time>
      </trkpt>
      <trkpt lat="48.22471" lon="-3.17295">
        <ele>177.376171</ele>
        <time>2022-12-12T12:43:58.774Z</time>
      </trkpt>
      <trkpt lat="48.22464" lon="-3.17287">
        <ele>177.393514</ele>
        <time>2022-12-12T12:44:00.789Z</time>
      </trkpt>
      <trkpt lat="48.22456" lon="-3.17275">
        <ele>177.414295</ele>
        <time>2022-12-12T12:44:02.794Z</time>
      </trkpt>
      <trkpt lat="48.22446" lon="-3.17265">
        <ele>177.437119</ele>
        <time>2022-12-12T12:44:05.792Z</time>
      </trkpt>
      <trkpt lat="48.22439" lon="-3.17256">
        <ele>177.455064</ele>
        <time>2022-12-12T12:44:09.794Z</time>
      </trkpt>
      <trkpt lat="48.22432" lon="-3.17246">
        <ele>177.472957</ele>
        <time>2022-12-12T12:44:13.800Z</time>
      </trkpt>
      <trkpt lat="48.22425" lon="-3.17237">
        <ele>177.491276</ele>
        <time>2022-12-12T12:44:16.806Z</time>
      </trkpt>
      <trkpt lat="48.22416" lon="-3.17228">
        <ele>177.762073</ele>
        <time>2022-12-12T12:44:19.790Z</time>
      </trkpt>
      <trkpt lat="48.22408" lon="-3.17217">
        <ele>178.099951</ele>
        <time>2022-12-12T12:44:22.806Z</time>
      </trkpt>
      <trkpt lat="48.22398" lon="-3.17208">
        <ele>178.461393</ele>
        <time>2022-12-12T12:44:25.780Z</time>
      </trkpt>
      <trkpt lat="48.22387" lon="-3.17199">
        <ele>178.860694</ele>
        <time>2022-12-12T12:44:28.778Z</time>
      </trkpt>
      <trkpt lat="48.22375" lon="-3.17193">
        <ele>179.263223</ele>
        <time>2022-12-12T12:44:31.778Z</time>
      </trkpt>
      <trkpt lat="48.22362" lon="-3.17188">
        <ele>179.681176</ele>
        <time>2022-12-12T12:44:34.795Z</time>
      </trkpt>
      <trkpt lat="48.2235" lon="-3.17185">
        <ele>180.080296</ele>
        <time>2022-12-12T12:44:37.802Z</time>
      </trkpt>
      <trkpt lat="48.22337" lon="-3.17181">
        <ele>180.481446</ele>
        <time>2022-12-12T12:44:40.799Z</time>
      </trkpt>
      <trkpt lat="48.22325" lon="-3.17176">
        <ele>180.877724</ele>
        <time>2022-12-12T12:44:43.795Z</time>
      </trkpt>
      <trkpt lat="48.22313" lon="-3.17172">
        <ele>181.267875</ele>
        <time>2022-12-12T12:44:46.795Z</time>
      </trkpt>
      <trkpt lat="48.223" lon="-3.17168">
        <ele>181.684533</ele>
        <time>2022-12-12T12:44:49.804Z</time>
      </trkpt>
      <trkpt lat="48.22289" lon="-3.17166">
        <ele>182.060302</ele>
        <time>2022-12-12T12:44:52.799Z</time>
      </trkpt>
      <trkpt lat="48.22275" lon="-3.17165">
        <ele>182.481849</ele>
        <time>2022-12-12T12:44:55.799Z</time>
      </trkpt>
      <trkpt lat="48.22262" lon="-3.17164">
        <ele>182.903861</ele>
        <time>2022-12-12T12:44:58.801Z</time>
      </trkpt>
      <trkpt lat="48.22251" lon="-3.17164">
        <ele>183.089114</ele>
        <time>2022-12-12T12:45:01.794Z</time>
      </trkpt>
      <trkpt lat="48.22241" lon="-3.17162">
        <ele>182.677967</ele>
        <time>2022-12-12T12:45:04.802Z</time>
      </trkpt>
      <trkpt lat="48.22229" lon="-3.17161">
        <ele>182.188175</ele>
        <time>2022-12-12T12:45:07.801Z</time>
      </trkpt>
      <trkpt lat="48.22217" lon="-3.1716">
        <ele>181.693583</ele>
        <time>2022-12-12T12:45:10.800Z</time>
      </trkpt>
      <trkpt lat="48.22205" lon="-3.17158">
        <ele>181.170452</ele>
        <time>2022-12-12T12:45:13.788Z</time>
      </trkpt>
      <trkpt lat="48.22196" lon="-3.17157">
        <ele>180.796406</ele>
        <time>2022-12-12T12:45:15.796Z</time>
      </trkpt>
      <trkpt lat="48.22183" lon="-3.17155">
        <ele>180.256022</ele>
        <time>2022-12-12T12:45:18.787Z</time>
      </trkpt>
      <trkpt lat="48.22171" lon="-3.17155">
        <ele>179.746419</ele>
        <time>2022-12-12T12:45:21.798Z</time>
      </trkpt>
      <trkpt lat="48.22158" lon="-3.17155">
        <ele>179.215937</ele>
        <time>2022-12-12T12:45:24.793Z</time>
      </trkpt>
      <trkpt lat="48.22145" lon="-3.17155">
        <ele>178.656277</ele>
        <time>2022-12-12T12:45:27.791Z</time>
      </trkpt>
      <trkpt lat="48.22131" lon="-3.17156">
        <ele>178.10069</ele>
        <time>2022-12-12T12:45:30.795Z</time>
      </trkpt>
      <trkpt lat="48.22118" lon="-3.17155">
        <ele>177.55339</ele>
        <time>2022-12-12T12:45:33.820Z</time>
      </trkpt>
      <trkpt lat="48.22106" lon="-3.17152">
        <ele>177.045304</ele>
        <time>2022-12-12T12:45:36.793Z</time>
      </trkpt>
      <trkpt lat="48.22096" lon="-3.17149">
        <ele>176.625213</ele>
        <time>2022-12-12T12:45:40.781Z</time>
      </trkpt>
      <trkpt lat="48.22087" lon="-3.17142">
        <ele>176.191788</ele>
        <time>2022-12-12T12:45:44.783Z</time>
      </trkpt>
      <trkpt lat="48.22078" lon="-3.17135">
        <ele>175.764129</ele>
        <time>2022-12-12T12:45:47.781Z</time>
      </trkpt>
      <trkpt lat="48.22068" lon="-3.17129">
        <ele>175.545159</ele>
        <time>2022-12-12T12:45:50.791Z</time>
      </trkpt>
      <trkpt lat="48.22059" lon="-3.17122">
        <ele>175.395592</ele>
        <time>2022-12-12T12:45:53.803Z</time>
      </trkpt>
      <trkpt lat="48.2205" lon="-3.17115">
        <ele>175.233774</ele>
        <time>2022-12-12T12:45:56.796Z</time>
      </trkpt>
      <trkpt lat="48.22041" lon="-3.17108">
        <ele>175.081036</ele>
        <time>2022-12-12T12:45:59.803Z</time>
      </trkpt>
      <trkpt lat="48.22031" lon="-3.17103">
        <ele>174.925113</ele>
        <time>2022-12-12T12:46:02.789Z</time>
      </trkpt>
      <trkpt lat="48.2202" lon="-3.17096">
        <ele>174.747396</ele>
        <time>2022-12-12T12:46:05.799Z</time>
      </trkpt>
      <trkpt lat="48.2201" lon="-3.17089">
        <ele>174.576859</ele>
        <time>2022-12-12T12:46:08.784Z</time>
      </trkpt>
      <trkpt lat="48.22001" lon="-3.17082">
        <ele>174.427424</ele>
        <time>2022-12-12T12:46:11.798Z</time>
      </trkpt>
      <trkpt lat="48.21993" lon="-3.17073">
        <ele>174.272747</ele>
        <time>2022-12-12T12:46:14.782Z</time>
      </trkpt>
      <trkpt lat="48.21984" lon="-3.17064">
        <ele>174.107145</ele>
        <time>2022-12-12T12:46:17.802Z</time>
      </trkpt>
      <trkpt lat="48.21975" lon="-3.17055">
        <ele>173.948143</ele>
        <time>2022-12-12T12:46:20.776Z</time>
      </trkpt>
      <trkpt lat="48.21968" lon="-3.17047">
        <ele>173.805053</ele>
        <time>2022-12-12T12:46:23.801Z</time>
      </trkpt>
      <trkpt lat="48.21959" lon="-3.17037">
        <ele>173.648059</ele>
        <time>2022-12-12T12:46:26.791Z</time>
      </trkpt>
      <trkpt lat="48.21952" lon="-3.17029">
        <ele>173.501972</ele>
        <time>2022-12-12T12:46:29.796Z</time>
      </trkpt>
      <trkpt lat="48.21943" lon="-3.1702">
        <ele>173.344318</ele>
        <time>2022-12-12T12:46:32.781Z</time>
      </trkpt>
      <trkpt lat="48.21935" lon="-3.17012">
        <ele>173.193543</ele>
        <time>2022-12-12T12:46:35.776Z</time>
      </trkpt>
      <trkpt lat="48.21926" lon="-3.17002">
        <ele>173.031487</ele>
        <time>2022-12-12T12:46:38.780Z</time>
      </trkpt>
      <trkpt lat="48.21919" lon="-3.16992">
        <ele>173.052633</ele>
        <time>2022-12-12T12:46:41.796Z</time>
      </trkpt>
      <trkpt lat="48.21912" lon="-3.1698">
        <ele>173.280105</ele>
        <time>2022-12-12T12:46:44.802Z</time>
      </trkpt>
      <trkpt lat="48.21905" lon="-3.16965">
        <ele>173.537181</ele>
        <time>2022-12-12T12:46:48.803Z</time>
      </trkpt>
      <trkpt lat="48.219" lon="-3.16952">
        <ele>173.748482</ele>
        <time>2022-12-12T12:46:51.777Z</time>
      </trkpt>
      <trkpt lat="48.21896" lon="-3.16938">
        <ele>173.966705</ele>
        <time>2022-12-12T12:46:54.794Z</time>
      </trkpt>
      <trkpt lat="48.21893" lon="-3.16922">
        <ele>174.204964</ele>
        <time>2022-12-12T12:46:57.780Z</time>
      </trkpt>
      <trkpt lat="48.2189" lon="-3.16905">
        <ele>174.44865</ele>
        <time>2022-12-12T12:47:00.800Z</time>
      </trkpt>
      <trkpt lat="48.21888" lon="-3.16887">
        <ele>174.711645</ele>
        <time>2022-12-12T12:47:03.775Z</time>
      </trkpt>
      <trkpt lat="48.21886" lon="-3.1687">
        <ele>174.950945</ele>
        <time>2022-12-12T12:47:06.805Z</time>
      </trkpt>
      <trkpt lat="48.21884" lon="-3.16851">
        <ele>175.219867</ele>
        <time>2022-12-12T12:47:09.804Z</time>
      </trkpt>
      <trkpt lat="48.21883" lon="-3.16837">
        <ele>175.411126</ele>
        <time>2022-12-12T12:47:11.795Z</time>
      </trkpt>
      <trkpt lat="48.21883" lon="-3.16821">
        <ele>175.642417</ele>
        <time>2022-12-12T12:47:14.794Z</time>
      </trkpt>
      <trkpt lat="48.21882" lon="-3.16803">
        <ele>175.89631</ele>
        <time>2022-12-12T12:47:17.800Z</time>
      </trkpt>
      <trkpt lat="48.21882" lon="-3.16786">
        <ele>176.136032</ele>
        <time>2022-12-12T12:47:20.796Z</time>
      </trkpt>
      <trkpt lat="48.21882" lon="-3.16769">
        <ele>176.380012</ele>
        <time>2022-12-12T12:47:23.802Z</time>
      </trkpt>
      <trkpt lat="48.21884" lon="-3.16753">
        <ele>176.605895</ele>
        <time>2022-12-12T12:47:26.786Z</time>
      </trkpt>
      <trkpt lat="48.21886" lon="-3.16736">
        <ele>176.667981</ele>
        <time>2022-12-12T12:47:29.786Z</time>
      </trkpt>
      <trkpt lat="48.21888" lon="-3.16718">
        <ele>176.410879</ele>
        <time>2022-12-12T12:47:32.804Z</time>
      </trkpt>
      <trkpt lat="48.2189" lon="-3.167">
        <ele>176.160654</ele>
        <time>2022-12-12T12:47:35.793Z</time>
      </trkpt>
      <trkpt lat="48.21892" lon="-3.16682">
        <ele>175.911744</ele>
        <time>2022-12-12T12:47:38.801Z</time>
      </trkpt>
      <trkpt lat="48.21896" lon="-3.16665">
        <ele>175.654897</ele>
        <time>2022-12-12T12:47:41.798Z</time>
      </trkpt>
      <trkpt lat="48.21898" lon="-3.16647">
        <ele>175.406004</ele>
        <time>2022-12-12T12:47:44.802Z</time>
      </trkpt>
      <trkpt lat="48.21901" lon="-3.16631">
        <ele>175.17525</ele>
        <time>2022-12-12T12:47:47.778Z</time>
      </trkpt>
      <trkpt lat="48.21903" lon="-3.16616">
        <ele>174.954206</ele>
        <time>2022-12-12T12:47:50.791Z</time>
      </trkpt>
      <trkpt lat="48.21907" lon="-3.16601">
        <ele>174.734786</ele>
        <time>2022-12-12T12:47:53.796Z</time>
      </trkpt>
      <trkpt lat="48.21908" lon="-3.16585">
        <ele>174.514629</ele>
        <time>2022-12-12T12:47:56.778Z</time>
      </trkpt>
      <trkpt lat="48.21908" lon="-3.16569">
        <ele>174.291689</ele>
        <time>2022-12-12T12:47:59.800Z</time>
      </trkpt>
      <trkpt lat="48.21911" lon="-3.16552">
        <ele>174.049152</ele>
        <time>2022-12-12T12:48:02.779Z</time>
      </trkpt>
      <trkpt lat="48.21917" lon="-3.16539">
        <ele>173.822859</ele>
        <time>2022-12-12T12:48:05.780Z</time>
      </trkpt>
      <trkpt lat="48.21922" lon="-3.16525">
        <ele>173.602414</ele>
        <time>2022-12-12T12:48:08.795Z</time>
      </trkpt>
      <trkpt lat="48.21927" lon="-3.16511">
        <ele>173.382772</ele>
        <time>2022-12-12T12:48:11.794Z</time>
      </trkpt>
      <trkpt lat="48.21933" lon="-3.16496">
        <ele>173.145469</ele>
        <time>2022-12-12T12:48:14.795Z</time>
      </trkpt>
      <trkpt lat="48.21939" lon="-3.16481">
        <ele>173.070914</ele>
        <time>2022-12-12T12:48:17.805Z</time>
      </trkpt>
      <trkpt lat="48.21944" lon="-3.16467">
        <ele>173.229337</ele>
        <time>2022-12-12T12:48:20.803Z</time>
      </trkpt>
      <trkpt lat="48.21949" lon="-3.16455">
        <ele>173.366549</ele>
        <time>2022-12-12T12:48:23.797Z</time>
      </trkpt>
      <trkpt lat="48.21957" lon="-3.16448">
        <ele>173.501681</ele>
        <time>2022-12-12T12:48:25.801Z</time>
      </trkpt>
      <trkpt lat="48.21966" lon="-3.16435">
        <ele>173.685692</ele>
        <time>2022-12-12T12:48:28.800Z</time>
      </trkpt>
      <trkpt lat="48.21973" lon="-3.16422">
        <ele>173.853776</ele>
        <time>2022-12-12T12:48:31.801Z</time>
      </trkpt>
      <trkpt lat="48.21979" lon="-3.16406">
        <ele>174.026023</ele>
        <time>2022-12-12T12:48:34.776Z</time>
      </trkpt>
      <trkpt lat="48.21984" lon="-3.16388">
        <ele>174.212911</ele>
        <time>2022-12-12T12:48:37.782Z</time>
      </trkpt>
      <trkpt lat="48.2199" lon="-3.1637">
        <ele>174.411432</ele>
        <time>2022-12-12T12:48:40.805Z</time>
      </trkpt>
      <trkpt lat="48.21995" lon="-3.16354">
        <ele>174.586286</ele>
        <time>2022-12-12T12:48:43.798Z</time>
      </trkpt>
      <trkpt lat="48.21998" lon="-3.16339">
        <ele>174.745889</ele>
        <time>2022-12-12T12:48:46.778Z</time>
      </trkpt>
      <trkpt lat="48.22002" lon="-3.16323">
        <ele>174.906964</ele>
        <time>2022-12-12T12:48:49.789Z</time>
      </trkpt>
      <trkpt lat="48.22006" lon="-3.16307">
        <ele>175.078555</ele>
        <time>2022-12-12T12:48:52.807Z</time>
      </trkpt>
      <trkpt lat="48.2201" lon="-3.16291">
        <ele>175.240047</ele>
        <time>2022-12-12T12:48:55.796Z</time>
      </trkpt>
      <trkpt lat="48.22013" lon="-3.16274">
        <ele>175.415385</ele>
        <time>2022-12-12T12:48:58.798Z</time>
      </trkpt>
      <trkpt lat="48.22015" lon="-3.16257">
        <ele>175.589538</ele>
        <time>2022-12-12T12:49:01.802Z</time>
      </trkpt>
      <trkpt lat="48.22016" lon="-3.16242">
        <ele>175.595695</ele>
        <time>2022-12-12T12:49:04.803Z</time>
      </trkpt>
      <trkpt lat="48.22016" lon="-3.16226">
        <ele>175.502861</ele>
        <time>2022-12-12T12:49:07.788Z</time>
      </trkpt>
      <trkpt lat="48.22016" lon="-3.1621">
        <ele>175.412195</ele>
        <time>2022-12-12T12:49:10.815Z</time>
      </trkpt>
      <trkpt lat="48.22015" lon="-3.16195">
        <ele>175.325054</ele>
        <time>2022-12-12T12:49:13.803Z</time>
      </trkpt>
      <trkpt lat="48.22011" lon="-3.1618">
        <ele>175.235122</ele>
        <time>2022-12-12T12:49:16.786Z</time>
      </trkpt>
      <trkpt lat="48.22007" lon="-3.16167">
        <ele>175.154018</ele>
        <time>2022-12-12T12:49:19.800Z</time>
      </trkpt>
      <trkpt lat="48.22001" lon="-3.16151">
        <ele>175.053636</ele>
        <time>2022-12-12T12:49:22.799Z</time>
      </trkpt>
      <trkpt lat="48.21996" lon="-3.16139">
        <ele>174.965036</ele>
        <time>2022-12-12T12:49:25.777Z</time>
      </trkpt>
      <trkpt lat="48.21989" lon="-3.16127">
        <ele>174.875653</ele>
        <time>2022-12-12T12:49:28.777Z</time>
      </trkpt>
      <trkpt lat="48.21981" lon="-3.16118">
        <ele>174.793979</ele>
        <time>2022-12-12T12:49:31.785Z</time>
      </trkpt>
      <trkpt lat="48.21972" lon="-3.16109">
        <ele>174.704067</ele>
        <time>2022-12-12T12:49:34.784Z</time>
      </trkpt>
      <trkpt lat="48.21963" lon="-3.161">
        <ele>174.608486</ele>
        <time>2022-12-12T12:49:37.796Z</time>
      </trkpt>
      <trkpt lat="48.21952" lon="-3.1609">
        <ele>174.501378</ele>
        <time>2022-12-12T12:49:40.804Z</time>
      </trkpt>
      <trkpt lat="48.21943" lon="-3.1608">
        <ele>174.404668</ele>
        <time>2022-12-12T12:49:43.800Z</time>
      </trkpt>
      <trkpt lat="48.21934" lon="-3.16072">
        <ele>174.312355</ele>
        <time>2022-12-12T12:49:46.805Z</time>
      </trkpt>
      <trkpt lat="48.21924" lon="-3.16061">
        <ele>174.21188</ele>
        <time>2022-12-12T12:49:49.799Z</time>
      </trkpt>
      <trkpt lat="48.21916" lon="-3.16051">
        <ele>174.117559</ele>
        <time>2022-12-12T12:49:52.803Z</time>
      </trkpt>
      <trkpt lat="48.21907" lon="-3.16043">
        <ele>174.237118</ele>
        <time>2022-12-12T12:49:55.802Z</time>
      </trkpt>
      <trkpt lat="48.21898" lon="-3.16035">
        <ele>174.383506</ele>
        <time>2022-12-12T12:49:58.828Z</time>
      </trkpt>
      <trkpt lat="48.21888" lon="-3.1603">
        <ele>174.51976</ele>
        <time>2022-12-12T12:50:01.781Z</time>
      </trkpt>
      <trkpt lat="48.21878" lon="-3.16026">
        <ele>174.661114</ele>
        <time>2022-12-12T12:50:04.781Z</time>
      </trkpt>
      <trkpt lat="48.21867" lon="-3.16023">
        <ele>174.823442</ele>
        <time>2022-12-12T12:50:07.778Z</time>
      </trkpt>
      <trkpt lat="48.21854" lon="-3.16023">
        <ele>174.992315</ele>
        <time>2022-12-12T12:50:10.783Z</time>
      </trkpt>
      <trkpt lat="48.21843" lon="-3.16025">
        <ele>175.152276</ele>
        <time>2022-12-12T12:50:13.776Z</time>
      </trkpt>
      <trkpt lat="48.21831" lon="-3.16026">
        <ele>175.320614</ele>
        <time>2022-12-12T12:50:16.777Z</time>
      </trkpt>
      <trkpt lat="48.21818" lon="-3.1603">
        <ele>175.492433</ele>
        <time>2022-12-12T12:50:19.798Z</time>
      </trkpt>
      <trkpt lat="48.21807" lon="-3.16034">
        <ele>175.652906</ele>
        <time>2022-12-12T12:50:22.804Z</time>
      </trkpt>
      <trkpt lat="48.21796" lon="-3.16039">
        <ele>175.805401</ele>
        <time>2022-12-12T12:50:25.786Z</time>
      </trkpt>
      <trkpt lat="48.21785" lon="-3.16045">
        <ele>175.967323</ele>
        <time>2022-12-12T12:50:28.790Z</time>
      </trkpt>
      <trkpt lat="48.21774" lon="-3.16051">
        <ele>176.134843</ele>
        <time>2022-12-12T12:50:31.807Z</time>
      </trkpt>
      <trkpt lat="48.21762" lon="-3.16057">
        <ele>176.31092</ele>
        <time>2022-12-12T12:50:34.803Z</time>
      </trkpt>
      <trkpt lat="48.21753" lon="-3.1606">
        <ele>176.435361</ele>
        <time>2022-12-12T12:50:36.805Z</time>
      </trkpt>
      <trkpt lat="48.21744" lon="-3.16063">
        <ele>176.562735</ele>
        <time>2022-12-12T12:50:38.787Z</time>
      </trkpt>
      <trkpt lat="48.21731" lon="-3.16068">
        <ele>176.963552</ele>
        <time>2022-12-12T12:50:41.796Z</time>
      </trkpt>
      <trkpt lat="48.21719" lon="-3.16073">
        <ele>177.390557</ele>
        <time>2022-12-12T12:50:44.794Z</time>
      </trkpt>
      <trkpt lat="48.21705" lon="-3.16078">
        <ele>177.841337</ele>
        <time>2022-12-12T12:50:47.777Z</time>
      </trkpt>
      <trkpt lat="48.21696" lon="-3.16082">
        <ele>178.144988</ele>
        <time>2022-12-12T12:50:49.791Z</time>
      </trkpt>
      <trkpt lat="48.21687" lon="-3.16087">
        <ele>178.473313</ele>
        <time>2022-12-12T12:50:51.790Z</time>
      </trkpt>
      <trkpt lat="48.21678" lon="-3.16091">
        <ele>178.783851</ele>
        <time>2022-12-12T12:50:53.800Z</time>
      </trkpt>
      <trkpt lat="48.21665" lon="-3.16094">
        <ele>179.19624</ele>
        <time>2022-12-12T12:50:56.790Z</time>
      </trkpt>
      <trkpt lat="48.21655" lon="-3.16099">
        <ele>179.554562</ele>
        <time>2022-12-12T12:50:59.799Z</time>
      </trkpt>
      <trkpt lat="48.21645" lon="-3.16101">
        <ele>179.872302</ele>
        <time>2022-12-12T12:51:02.793Z</time>
      </trkpt>
      <trkpt lat="48.21635" lon="-3.16102">
        <ele>180.203444</ele>
        <time>2022-12-12T12:51:05.786Z</time>
      </trkpt>
      <trkpt lat="48.21624" lon="-3.16103">
        <ele>180.563918</ele>
        <time>2022-12-12T12:51:08.795Z</time>
      </trkpt>
      <trkpt lat="48.21612" lon="-3.16104">
        <ele>180.946378</ele>
        <time>2022-12-12T12:51:11.802Z</time>
      </trkpt>
      <trkpt lat="48.21601" lon="-3.16101">
        <ele>181.332951</ele>
        <time>2022-12-12T12:51:14.805Z</time>
      </trkpt>
      <trkpt lat="48.21588" lon="-3.16098">
        <ele>181.740595</ele>
        <time>2022-12-12T12:51:17.802Z</time>
      </trkpt>
      <trkpt lat="48.21577" lon="-3.16094">
        <ele>182.129127</ele>
        <time>2022-12-12T12:51:20.783Z</time>
      </trkpt>
      <trkpt lat="48.21566" lon="-3.16088">
        <ele>182.422445</ele>
        <time>2022-12-12T12:51:23.803Z</time>
      </trkpt>
      <trkpt lat="48.21555" lon="-3.16081">
        <ele>182.094193</ele>
        <time>2022-12-12T12:51:26.778Z</time>
      </trkpt>
      <trkpt lat="48.21546" lon="-3.16075">
        <ele>181.835356</ele>
        <time>2022-12-12T12:51:29.802Z</time>
      </trkpt>
      <trkpt lat="48.21537" lon="-3.1607">
        <ele>181.588229</ele>
        <time>2022-12-12T12:51:32.780Z</time>
      </trkpt>
      <trkpt lat="48.21528" lon="-3.16065">
        <ele>181.315353</ele>
        <time>2022-12-12T12:51:35.790Z</time>
      </trkpt>
      <trkpt lat="48.21517" lon="-3.16059">
        <ele>181.005237</ele>
        <time>2022-12-12T12:51:38.803Z</time>
      </trkpt>
      <trkpt lat="48.21507" lon="-3.16051">
        <ele>180.700747</ele>
        <time>2022-12-12T12:51:41.808Z</time>
      </trkpt>
      <trkpt lat="48.21496" lon="-3.16043">
        <ele>180.385122</ele>
        <time>2022-12-12T12:51:44.786Z</time>
      </trkpt>
      <trkpt lat="48.21486" lon="-3.16032">
        <ele>180.044034</ele>
        <time>2022-12-12T12:51:47.778Z</time>
      </trkpt>
      <trkpt lat="48.21475" lon="-3.16021">
        <ele>179.703951</ele>
        <time>2022-12-12T12:51:50.807Z</time>
      </trkpt>
      <trkpt lat="48.21466" lon="-3.16011">
        <ele>179.397393</ele>
        <time>2022-12-12T12:51:53.803Z</time>
      </trkpt>
      <trkpt lat="48.21458" lon="-3.16002">
        <ele>179.121933</ele>
        <time>2022-12-12T12:51:56.805Z</time>
      </trkpt>
      <trkpt lat="48.21448" lon="-3.15991">
        <ele>178.792847</ele>
        <time>2022-12-12T12:51:59.803Z</time>
      </trkpt>
      <trkpt lat="48.21438" lon="-3.1598">
        <ele>178.467072</ele>
        <time>2022-12-12T12:52:02.793Z</time>
      </trkpt>
      <trkpt lat="48.21429" lon="-3.15969">
        <ele>178.158403</ele>
        <time>2022-12-12T12:52:05.798Z</time>
      </trkpt>
      <trkpt lat="48.21422" lon="-3.15961">
        <ele>177.911922</ele>
        <time>2022-12-12T12:52:07.786Z</time>
      </trkpt>
      <trkpt lat="48.21412" lon="-3.15949">
        <ele>177.610915</ele>
        <time>2022-12-12T12:52:10.797Z</time>
      </trkpt>
      <trkpt lat="48.21402" lon="-3.15937">
        <ele>177.487443</ele>
        <time>2022-12-12T12:52:13.793Z</time>
      </trkpt>
      <trkpt lat="48.21392" lon="-3.15925">
        <ele>177.367366</ele>
        <time>2022-12-12T12:52:16.790Z</time>
      </trkpt>
      <trkpt lat="48.21383" lon="-3.15915">
        <ele>177.261338</ele>
        <time>2022-12-12T12:52:19.804Z</time>
      </trkpt>
      <trkpt lat="48.21376" lon="-3.15906">
        <ele>177.169565</ele>
        <time>2022-12-12T12:52:22.804Z</time>
      </trkpt>
      <trkpt lat="48.21367" lon="-3.15895">
        <ele>177.059473</ele>
        <time>2022-12-12T12:52:25.802Z</time>
      </trkpt>
      <trkpt lat="48.21356" lon="-3.15885">
        <ele>176.941979</ele>
        <time>2022-12-12T12:52:28.802Z</time>
      </trkpt>
      <trkpt lat="48.21347" lon="-3.15876">
        <ele>176.831843</ele>
        <time>2022-12-12T12:52:31.807Z</time>
      </trkpt>
      <trkpt lat="48.21335" lon="-3.15868">
        <ele>176.709837</ele>
        <time>2022-12-12T12:52:34.802Z</time>
      </trkpt>
      <trkpt lat="48.21324" lon="-3.1586">
        <ele>176.590256</ele>
        <time>2022-12-12T12:52:37.802Z</time>
      </trkpt>
      <trkpt lat="48.21313" lon="-3.15851">
        <ele>176.473548</ele>
        <time>2022-12-12T12:52:40.802Z</time>
      </trkpt>
      <trkpt lat="48.21301" lon="-3.15842">
        <ele>176.348093</ele>
        <time>2022-12-12T12:52:43.806Z</time>
      </trkpt>
      <trkpt lat="48.2129" lon="-3.15833">
        <ele>176.223585</ele>
        <time>2022-12-12T12:52:46.806Z</time>
      </trkpt>
      <trkpt lat="48.21279" lon="-3.15823">
        <ele>176.103946</ele>
        <time>2022-12-12T12:52:49.791Z</time>
      </trkpt>
      <trkpt lat="48.2127" lon="-3.15813">
        <ele>175.999215</ele>
        <time>2022-12-12T12:52:52.802Z</time>
      </trkpt>
      <trkpt lat="48.21262" lon="-3.15802">
        <ele>175.9015</ele>
        <time>2022-12-12T12:52:55.801Z</time>
      </trkpt>
      <trkpt lat="48.21255" lon="-3.15789">
        <ele>175.828295</ele>
        <time>2022-12-12T12:52:58.801Z</time>
      </trkpt>
      <trkpt lat="48.21247" lon="-3.15776">
        <ele>175.752762</ele>
        <time>2022-12-12T12:53:01.796Z</time>
      </trkpt>
      <trkpt lat="48.2124" lon="-3.15765">
        <ele>175.686927</ele>
        <time>2022-12-12T12:53:04.794Z</time>
      </trkpt>
      <trkpt lat="48.21233" lon="-3.1575">
        <ele>175.610909</ele>
        <time>2022-12-12T12:53:07.793Z</time>
      </trkpt>
      <trkpt lat="48.21229" lon="-3.15737">
        <ele>175.549293</ele>
        <time>2022-12-12T12:53:10.781Z</time>
      </trkpt>
      <trkpt lat="48.21225" lon="-3.15724">
        <ele>175.487231</ele>
        <time>2022-12-12T12:53:14.804Z</time>
      </trkpt>
      <trkpt lat="48.21221" lon="-3.1571">
        <ele>175.424073</ele>
        <time>2022-12-12T12:53:18.794Z</time>
      </trkpt>
      <trkpt lat="48.21218" lon="-3.15697">
        <ele>175.361313</ele>
        <time>2022-12-12T12:53:21.807Z</time>
      </trkpt>
      <trkpt lat="48.21214" lon="-3.15682">
        <ele>175.292551</ele>
        <time>2022-12-12T12:53:24.805Z</time>
      </trkpt>
      <trkpt lat="48.21212" lon="-3.15665">
        <ele>175.220929</ele>
        <time>2022-12-12T12:53:27.778Z</time>
      </trkpt>
      <trkpt lat="48.21211" lon="-3.15649">
        <ele>175.151019</ele>
        <time>2022-12-12T12:53:30.800Z</time>
      </trkpt>
      <trkpt lat="48.21209" lon="-3.15633">
        <ele>175.08011</ele>
        <time>2022-12-12T12:53:33.796Z</time>
      </trkpt>
      <trkpt lat="48.21208" lon="-3.15616">
        <ele>175.00702</ele>
        <time>2022-12-12T12:53:36.794Z</time>
      </trkpt>
      <trkpt lat="48.21208" lon="-3.15602">
        <ele>174.947822</ele>
        <time>2022-12-12T12:53:39.791Z</time>
      </trkpt>
      <trkpt lat="48.21207" lon="-3.15586">
        <ele>174.88013</ele>
        <time>2022-12-12T12:53:42.780Z</time>
      </trkpt>
      <trkpt lat="48.21206" lon="-3.15571">
        <ele>174.813884</ele>
        <time>2022-12-12T12:53:47.799Z</time>
      </trkpt>
      <trkpt lat="48.21203" lon="-3.15558">
        <ele>174.761095</ele>
        <time>2022-12-12T12:53:50.803Z</time>
      </trkpt>
      <trkpt lat="48.21202" lon="-3.15544">
        <ele>174.764412</ele>
        <time>2022-12-12T12:53:53.787Z</time>
      </trkpt>
      <trkpt lat="48.212" lon="-3.1553">
        <ele>174.767984</ele>
        <time>2022-12-12T12:53:56.776Z</time>
      </trkpt>
      <trkpt lat="48.21198" lon="-3.15515">
        <ele>174.771547</ele>
        <time>2022-12-12T12:53:59.801Z</time>
      </trkpt>
      <trkpt lat="48.21198" lon="-3.155">
        <ele>174.775403</ele>
        <time>2022-12-12T12:54:02.789Z</time>
      </trkpt>
      <trkpt lat="48.21197" lon="-3.15485">
        <ele>174.779024</ele>
        <time>2022-12-12T12:54:05.794Z</time>
      </trkpt>
      <trkpt lat="48.21198" lon="-3.15467">
        <ele>174.78339</ele>
        <time>2022-12-12T12:54:08.780Z</time>
      </trkpt>
      <trkpt lat="48.21198" lon="-3.15449">
        <ele>174.787829</ele>
        <time>2022-12-12T12:54:11.796Z</time>
      </trkpt>
      <trkpt lat="48.21197" lon="-3.15429">
        <ele>174.79255</ele>
        <time>2022-12-12T12:54:14.794Z</time>
      </trkpt>
      <trkpt lat="48.21197" lon="-3.1541">
        <ele>174.797256</ele>
        <time>2022-12-12T12:54:17.799Z</time>
      </trkpt>
      <trkpt lat="48.21197" lon="-3.15393">
        <ele>174.801426</ele>
        <time>2022-12-12T12:54:20.806Z</time>
      </trkpt>
      <trkpt lat="48.21197" lon="-3.15378">
        <ele>174.805011</ele>
        <time>2022-12-12T12:54:23.802Z</time>
      </trkpt>
      <trkpt lat="48.21198" lon="-3.1536">
        <ele>174.809437</ele>
        <time>2022-12-12T12:54:27.775Z</time>
      </trkpt>
      <trkpt lat="48.212" lon="-3.15345">
        <ele>174.813111</ele>
        <time>2022-12-12T12:54:30.804Z</time>
      </trkpt>
      <trkpt lat="48.21202" lon="-3.1533">
        <ele>174.816889</ele>
        <time>2022-12-12T12:54:33.787Z</time>
      </trkpt>
      <trkpt lat="48.21206" lon="-3.15315">
        <ele>174.82095</ele>
        <time>2022-12-12T12:54:36.807Z</time>
      </trkpt>
      <trkpt lat="48.2121" lon="-3.15299">
        <ele>174.824944</ele>
        <time>2022-12-12T12:54:39.804Z</time>
      </trkpt>
      <trkpt lat="48.21215" lon="-3.15287">
        <ele>174.865505</ele>
        <time>2022-12-12T12:54:42.792Z</time>
      </trkpt>
      <trkpt lat="48.21221" lon="-3.15273">
        <ele>174.940184</ele>
        <time>2022-12-12T12:54:45.803Z</time>
      </trkpt>
      <trkpt lat="48.21227" lon="-3.1526">
        <ele>175.017608</ele>
        <time>2022-12-12T12:54:48.798Z</time>
      </trkpt>
      <trkpt lat="48.21234" lon="-3.15246">
        <ele>175.098697</ele>
        <time>2022-12-12T12:54:51.807Z</time>
      </trkpt>
      <trkpt lat="48.21241" lon="-3.15233">
        <ele>175.179393</ele>
        <time>2022-12-12T12:54:54.782Z</time>
      </trkpt>
      <trkpt lat="48.21247" lon="-3.1522">
        <ele>175.254892</ele>
        <time>2022-12-12T12:54:57.808Z</time>
      </trkpt>
      <trkpt lat="48.21255" lon="-3.15206">
        <ele>175.340023</ele>
        <time>2022-12-12T12:55:00.794Z</time>
      </trkpt>
      <trkpt lat="48.21263" lon="-3.1519">
        <ele>175.435085</ele>
        <time>2022-12-12T12:55:03.795Z</time>
      </trkpt>
      <trkpt lat="48.21269" lon="-3.15179">
        <ele>175.503472</ele>
        <time>2022-12-12T12:55:05.803Z</time>
      </trkpt>
      <trkpt lat="48.21275" lon="-3.15168">
        <ele>175.572311</ele>
        <time>2022-12-12T12:55:07.804Z</time>
      </trkpt>
      <trkpt lat="48.2128" lon="-3.15157">
        <ele>175.638398</ele>
        <time>2022-12-12T12:55:09.786Z</time>
      </trkpt>
      <trkpt lat="48.21286" lon="-3.15146">
        <ele>175.703593</ele>
        <time>2022-12-12T12:55:11.799Z</time>
      </trkpt>
      <trkpt lat="48.21294" lon="-3.15131">
        <ele>175.796281</ele>
        <time>2022-12-12T12:55:14.795Z</time>
      </trkpt>
      <trkpt lat="48.21301" lon="-3.15116">
        <ele>175.879627</ele>
        <time>2022-12-12T12:55:17.797Z</time>
      </trkpt>
      <trkpt lat="48.21307" lon="-3.151">
        <ele>175.965949</ele>
        <time>2022-12-12T12:55:20.785Z</time>
      </trkpt>
      <trkpt lat="48.21313" lon="-3.15084">
        <ele>176.056764</ele>
        <time>2022-12-12T12:55:23.807Z</time>
      </trkpt>
      <trkpt lat="48.21318" lon="-3.15065">
        <ele>176.090916</ele>
        <time>2022-12-12T12:55:26.783Z</time>
      </trkpt>
      <trkpt lat="48.21321" lon="-3.15052">
        <ele>176.065881</ele>
        <time>2022-12-12T12:55:28.777Z</time>
      </trkpt>
      <trkpt lat="48.21322" lon="-3.15032">
        <ele>176.028777</ele>
        <time>2022-12-12T12:55:31.797Z</time>
      </trkpt>
      <trkpt lat="48.21324" lon="-3.15018">
        <ele>176.003336</ele>
        <time>2022-12-12T12:55:33.793Z</time>
      </trkpt>
      <trkpt lat="48.21325" lon="-3.15005">
        <ele>175.977567</ele>
        <time>2022-12-12T12:55:35.799Z</time>
      </trkpt>
      <trkpt lat="48.21326" lon="-3.14991">
        <ele>175.952671</ele>
        <time>2022-12-12T12:55:37.808Z</time>
      </trkpt>
      <trkpt lat="48.21327" lon="-3.14977">
        <ele>175.927362</ele>
        <time>2022-12-12T12:55:39.790Z</time>
      </trkpt>
      <trkpt lat="48.21328" lon="-3.14964">
        <ele>175.902207</ele>
        <time>2022-12-12T12:55:41.792Z</time>
      </trkpt>
      <trkpt lat="48.21331" lon="-3.14945">
        <ele>175.866473</ele>
        <time>2022-12-12T12:55:44.781Z</time>
      </trkpt>
      <trkpt lat="48.21335" lon="-3.14926">
        <ele>175.8294</ele>
        <time>2022-12-12T12:55:47.784Z</time>
      </trkpt>
      <trkpt lat="48.21339" lon="-3.14913">
        <ele>175.804254</ele>
        <time>2022-12-12T12:55:49.797Z</time>
      </trkpt>
      <trkpt lat="48.21342" lon="-3.149">
        <ele>175.779119</ele>
        <time>2022-12-12T12:55:51.778Z</time>
      </trkpt>
      <trkpt lat="48.21346" lon="-3.14888">
        <ele>175.752929</ele>
        <time>2022-12-12T12:55:53.804Z</time>
      </trkpt>
      <trkpt lat="48.2135" lon="-3.14875">
        <ele>175.727254</ele>
        <time>2022-12-12T12:55:55.797Z</time>
      </trkpt>
      <trkpt lat="48.21353" lon="-3.14862">
        <ele>175.70205</ele>
        <time>2022-12-12T12:55:57.794Z</time>
      </trkpt>
      <trkpt lat="48.21356" lon="-3.14849">
        <ele>175.676675</ele>
        <time>2022-12-12T12:55:59.776Z</time>
      </trkpt>
      <trkpt lat="48.21361" lon="-3.14837">
        <ele>175.651242</ele>
        <time>2022-12-12T12:56:01.798Z</time>
      </trkpt>
      <trkpt lat="48.21366" lon="-3.14824">
        <ele>175.623943</ele>
        <time>2022-12-12T12:56:03.805Z</time>
      </trkpt>
      <trkpt lat="48.2137" lon="-3.14811">
        <ele>175.625685</ele>
        <time>2022-12-12T12:56:05.801Z</time>
      </trkpt>
      <trkpt lat="48.21374" lon="-3.14798">
        <ele>175.650877</ele>
        <time>2022-12-12T12:56:07.786Z</time>
      </trkpt>
      <trkpt lat="48.21377" lon="-3.14785">
        <ele>175.676051</ele>
        <time>2022-12-12T12:56:09.784Z</time>
      </trkpt>
      <trkpt lat="48.21382" lon="-3.14767">
        <ele>175.712126</ele>
        <time>2022-12-12T12:56:12.782Z</time>
      </trkpt>
      <trkpt lat="48.21385" lon="-3.14754">
        <ele>175.73683</ele>
        <time>2022-12-12T12:56:14.785Z</time>
      </trkpt>
      <trkpt lat="48.21388" lon="-3.14741">
        <ele>175.761492</ele>
        <time>2022-12-12T12:56:16.805Z</time>
      </trkpt>
      <trkpt lat="48.21391" lon="-3.14728">
        <ele>175.78607</ele>
        <time>2022-12-12T12:56:18.787Z</time>
      </trkpt>
      <trkpt lat="48.21395" lon="-3.1471">
        <ele>175.819979</ele>
        <time>2022-12-12T12:56:21.788Z</time>
      </trkpt>
      <trkpt lat="48.21398" lon="-3.14693">
        <ele>175.851171</ele>
        <time>2022-12-12T12:56:24.804Z</time>
      </trkpt>
      <trkpt lat="48.21401" lon="-3.14675">
        <ele>175.885146</ele>
        <time>2022-12-12T12:56:27.801Z</time>
      </trkpt>
      <trkpt lat="48.21404" lon="-3.14656">
        <ele>175.920333</ele>
        <time>2022-12-12T12:56:30.804Z</time>
      </trkpt>
      <trkpt lat="48.21405" lon="-3.14638">
        <ele>175.954258</ele>
        <time>2022-12-12T12:56:33.801Z</time>
      </trkpt>
      <trkpt lat="48.21407" lon="-3.14619">
        <ele>175.988937</ele>
        <time>2022-12-12T12:56:36.804Z</time>
      </trkpt>
      <trkpt lat="48.2141" lon="-3.14601">
        <ele>176.021772</ele>
        <time>2022-12-12T12:56:39.781Z</time>
      </trkpt>
      <trkpt lat="48.21412" lon="-3.14584">
        <ele>176.052931</ele>
        <time>2022-12-12T12:56:42.803Z</time>
      </trkpt>
      <trkpt lat="48.21416" lon="-3.14567">
        <ele>176.085996</ele>
        <time>2022-12-12T12:56:45.784Z</time>
      </trkpt>
      <trkpt lat="48.2142" lon="-3.14549">
        <ele>176.065449</ele>
        <time>2022-12-12T12:56:48.806Z</time>
      </trkpt>
      <trkpt lat="48.21424" lon="-3.14531">
        <ele>176.01109</ele>
        <time>2022-12-12T12:56:51.794Z</time>
      </trkpt>
      <trkpt lat="48.21428" lon="-3.14512">
        <ele>175.955106</ele>
        <time>2022-12-12T12:56:54.795Z</time>
      </trkpt>
      <trkpt lat="48.2143" lon="-3.14499">
        <ele>175.914907</ele>
        <time>2022-12-12T12:56:56.809Z</time>
      </trkpt>
      <trkpt lat="48.21432" lon="-3.14485">
        <ele>175.875752</ele>
        <time>2022-12-12T12:56:58.798Z</time>
      </trkpt>
      <trkpt lat="48.21434" lon="-3.14472">
        <ele>175.835838</ele>
        <time>2022-12-12T12:57:00.803Z</time>
      </trkpt>
      <trkpt lat="48.21436" lon="-3.14458">
        <ele>175.796034</ele>
        <time>2022-12-12T12:57:02.805Z</time>
      </trkpt>
      <trkpt lat="48.21438" lon="-3.1444">
        <ele>175.743557</ele>
        <time>2022-12-12T12:57:05.804Z</time>
      </trkpt>
      <trkpt lat="48.21441" lon="-3.14423">
        <ele>175.694333</ele>
        <time>2022-12-12T12:57:08.803Z</time>
      </trkpt>
      <trkpt lat="48.21444" lon="-3.14406">
        <ele>175.642352</ele>
        <time>2022-12-12T12:57:11.806Z</time>
      </trkpt>
      <trkpt lat="48.21447" lon="-3.14387">
        <ele>175.586978</ele>
        <time>2022-12-12T12:57:14.804Z</time>
      </trkpt>
      <trkpt lat="48.2145" lon="-3.14368">
        <ele>175.530111</ele>
        <time>2022-12-12T12:57:17.804Z</time>
      </trkpt>
      <trkpt lat="48.21453" lon="-3.1435">
        <ele>175.476702</ele>
        <time>2022-12-12T12:57:20.787Z</time>
      </trkpt>
      <trkpt lat="48.21455" lon="-3.14334">
        <ele>175.430552</ele>
        <time>2022-12-12T12:57:23.792Z</time>
      </trkpt>
      <trkpt lat="48.21457" lon="-3.14317">
        <ele>175.383075</ele>
        <time>2022-12-12T12:57:26.783Z</time>
      </trkpt>
      <trkpt lat="48.21457" lon="-3.143">
        <ele>175.33352</ele>
        <time>2022-12-12T12:57:29.797Z</time>
      </trkpt>
      <trkpt lat="48.21455" lon="-3.14283">
        <ele>175.331818</ele>
        <time>2022-12-12T12:57:32.787Z</time>
      </trkpt>
      <trkpt lat="48.21451" lon="-3.14265">
        <ele>175.339345</ele>
        <time>2022-12-12T12:57:35.795Z</time>
      </trkpt>
      <trkpt lat="48.21447" lon="-3.14248">
        <ele>175.347005</ele>
        <time>2022-12-12T12:57:38.797Z</time>
      </trkpt>
      <trkpt lat="48.21443" lon="-3.14231">
        <ele>175.354563</ele>
        <time>2022-12-12T12:57:41.801Z</time>
      </trkpt>
      <trkpt lat="48.2144" lon="-3.14214">
        <ele>175.361856</ele>
        <time>2022-12-12T12:57:44.804Z</time>
      </trkpt>
      <trkpt lat="48.21439" lon="-3.14195">
        <ele>175.36976</ele>
        <time>2022-12-12T12:57:47.798Z</time>
      </trkpt>
      <trkpt lat="48.2144" lon="-3.14175">
        <ele>175.377892</ele>
        <time>2022-12-12T12:57:50.782Z</time>
      </trkpt>
      <trkpt lat="48.21442" lon="-3.14158">
        <ele>175.38529</ele>
        <time>2022-12-12T12:57:53.802Z</time>
      </trkpt>
      <trkpt lat="48.21445" lon="-3.14143">
        <ele>175.391875</ele>
        <time>2022-12-12T12:57:56.780Z</time>
      </trkpt>
      <trkpt lat="48.21447" lon="-3.14128">
        <ele>175.398089</ele>
        <time>2022-12-12T12:57:59.797Z</time>
      </trkpt>
      <trkpt lat="48.21449" lon="-3.14112">
        <ele>175.404943</ele>
        <time>2022-12-12T12:58:02.806Z</time>
      </trkpt>
      <trkpt lat="48.21449" lon="-3.14095">
        <ele>175.411978</ele>
        <time>2022-12-12T12:58:05.780Z</time>
      </trkpt>
      <trkpt lat="48.21448" lon="-3.14078">
        <ele>175.419239</ele>
        <time>2022-12-12T12:58:08.799Z</time>
      </trkpt>
      <trkpt lat="48.21447" lon="-3.14059">
        <ele>175.426869</ele>
        <time>2022-12-12T12:58:11.790Z</time>
      </trkpt>
      <trkpt lat="48.21446" lon="-3.14042">
        <ele>175.434217</ele>
        <time>2022-12-12T12:58:14.797Z</time>
      </trkpt>
      <trkpt lat="48.21445" lon="-3.14024">
        <ele>175.452336</ele>
        <time>2022-12-12T12:58:17.806Z</time>
      </trkpt>
      <trkpt lat="48.21444" lon="-3.14008">
        <ele>175.477342</ele>
        <time>2022-12-12T12:58:20.780Z</time>
      </trkpt>
      <trkpt lat="48.21443" lon="-3.13993">
        <ele>175.500841</ele>
        <time>2022-12-12T12:58:23.806Z</time>
      </trkpt>
      <trkpt lat="48.21442" lon="-3.13978">
        <ele>175.524099</ele>
        <time>2022-12-12T12:58:26.807Z</time>
      </trkpt>
      <trkpt lat="48.2144" lon="-3.13962">
        <ele>175.548213</ele>
        <time>2022-12-12T12:58:29.779Z</time>
      </trkpt>
      <trkpt lat="48.2144" lon="-3.13946">
        <ele>175.572891</ele>
        <time>2022-12-12T12:58:32.798Z</time>
      </trkpt>
      <trkpt lat="48.21439" lon="-3.13929">
        <ele>175.599486</ele>
        <time>2022-12-12T12:58:35.805Z</time>
      </trkpt>
      <trkpt lat="48.21439" lon="-3.13913">
        <ele>175.625552</ele>
        <time>2022-12-12T12:58:38.793Z</time>
      </trkpt>
      <trkpt lat="48.21439" lon="-3.13895">
        <ele>175.653169</ele>
        <time>2022-12-12T12:58:41.801Z</time>
      </trkpt>
      <trkpt lat="48.21439" lon="-3.13876">
        <ele>175.681724</ele>
        <time>2022-12-12T12:58:44.789Z</time>
      </trkpt>
      <trkpt lat="48.21439" lon="-3.13858">
        <ele>175.710117</ele>
        <time>2022-12-12T12:58:47.803Z</time>
      </trkpt>
      <trkpt lat="48.21439" lon="-3.13841">
        <ele>175.736374</ele>
        <time>2022-12-12T12:58:50.796Z</time>
      </trkpt>
      <trkpt lat="48.21438" lon="-3.13824">
        <ele>175.76292</ele>
        <time>2022-12-12T12:58:53.795Z</time>
      </trkpt>
      <trkpt lat="48.21437" lon="-3.13806">
        <ele>175.79048</ele>
        <time>2022-12-12T12:58:56.802Z</time>
      </trkpt>
      <trkpt lat="48.21435" lon="-3.13789">
        <ele>175.818525</ele>
        <time>2022-12-12T12:58:59.802Z</time>
      </trkpt>
      <trkpt lat="48.21432" lon="-3.13771">
        <ele>175.846503</ele>
        <time>2022-12-12T12:59:02.794Z</time>
      </trkpt>
      <trkpt lat="48.21429" lon="-3.13755">
        <ele>175.80999</ele>
        <time>2022-12-12T12:59:05.798Z</time>
      </trkpt>
      <trkpt lat="48.21426" lon="-3.13742">
        <ele>175.742748</ele>
        <time>2022-12-12T12:59:08.798Z</time>
      </trkpt>
      <trkpt lat="48.21421" lon="-3.13728">
        <ele>175.672647</ele>
        <time>2022-12-12T12:59:11.798Z</time>
      </trkpt>
      <trkpt lat="48.21417" lon="-3.13714">
        <ele>175.598159</ele>
        <time>2022-12-12T12:59:14.804Z</time>
      </trkpt>
      <trkpt lat="48.21412" lon="-3.137">
        <ele>175.521782</ele>
        <time>2022-12-12T12:59:17.793Z</time>
      </trkpt>
      <trkpt lat="48.21408" lon="-3.13684">
        <ele>175.444318</ele>
        <time>2022-12-12T12:59:20.796Z</time>
      </trkpt>
      <trkpt lat="48.21405" lon="-3.13668">
        <ele>175.365272</ele>
        <time>2022-12-12T12:59:23.785Z</time>
      </trkpt>
      <trkpt lat="48.21402" lon="-3.13651">
        <ele>175.282764</ele>
        <time>2022-12-12T12:59:26.797Z</time>
      </trkpt>
      <trkpt lat="48.214" lon="-3.13633">
        <ele>175.198642</ele>
        <time>2022-12-12T12:59:29.804Z</time>
      </trkpt>
      <trkpt lat="48.21399" lon="-3.13615">
        <ele>175.112799</ele>
        <time>2022-12-12T12:59:32.805Z</time>
      </trkpt>
      <trkpt lat="48.21399" lon="-3.13597">
        <ele>175.032225</ele>
        <time>2022-12-12T12:59:35.804Z</time>
      </trkpt>
      <trkpt lat="48.21398" lon="-3.13582">
        <ele>174.958564</ele>
        <time>2022-12-12T12:59:38.802Z</time>
      </trkpt>
      <trkpt lat="48.21396" lon="-3.13568">
        <ele>174.891563</ele>
        <time>2022-12-12T12:59:41.806Z</time>
      </trkpt>
      <trkpt lat="48.21394" lon="-3.13552">
        <ele>174.817365</ele>
        <time>2022-12-12T12:59:44.802Z</time>
      </trkpt>
      <trkpt lat="48.21393" lon="-3.13536">
        <ele>174.739325</ele>
        <time>2022-12-12T12:59:47.806Z</time>
      </trkpt>
      <trkpt lat="48.21392" lon="-3.13519">
        <ele>174.659191</ele>
        <time>2022-12-12T12:59:50.784Z</time>
      </trkpt>
      <trkpt lat="48.2139" lon="-3.13502">
        <ele>174.571518</ele>
        <time>2022-12-12T12:59:53.792Z</time>
      </trkpt>
      <trkpt lat="48.2139" lon="-3.13485">
        <ele>174.436507</ele>
        <time>2022-12-12T12:59:56.809Z</time>
      </trkpt>
      <trkpt lat="48.21388" lon="-3.13468">
        <ele>174.299099</ele>
        <time>2022-12-12T12:59:59.781Z</time>
      </trkpt>
      <trkpt lat="48.21385" lon="-3.13452">
        <ele>174.163661</ele>
        <time>2022-12-12T13:00:02.801Z</time>
      </trkpt>
      <trkpt lat="48.21382" lon="-3.13436">
        <ele>174.028397</ele>
        <time>2022-12-12T13:00:05.805Z</time>
      </trkpt>
      <trkpt lat="48.2138" lon="-3.13419">
        <ele>173.891425</ele>
        <time>2022-12-12T13:00:08.804Z</time>
      </trkpt>
      <trkpt lat="48.21377" lon="-3.13402">
        <ele>173.749468</ele>
        <time>2022-12-12T13:00:11.805Z</time>
      </trkpt>
      <trkpt lat="48.21376" lon="-3.13384">
        <ele>173.599462</ele>
        <time>2022-12-12T13:00:14.778Z</time>
      </trkpt>
      <trkpt lat="48.21376" lon="-3.13365">
        <ele>173.452682</ele>
        <time>2022-12-12T13:00:17.781Z</time>
      </trkpt>
      <trkpt lat="48.21375" lon="-3.13348">
        <ele>173.311484</ele>
        <time>2022-12-12T13:00:20.805Z</time>
      </trkpt>
      <trkpt lat="48.21376" lon="-3.13332">
        <ele>173.179689</ele>
        <time>2022-12-12T13:00:23.781Z</time>
      </trkpt>
      <trkpt lat="48.21376" lon="-3.13314">
        <ele>173.037721</ele>
        <time>2022-12-12T13:00:26.801Z</time>
      </trkpt>
      <trkpt lat="48.21376" lon="-3.13296">
        <ele>172.895794</ele>
        <time>2022-12-12T13:00:29.806Z</time>
      </trkpt>
      <trkpt lat="48.21376" lon="-3.13278">
        <ele>172.749015</ele>
        <time>2022-12-12T13:00:32.803Z</time>
      </trkpt>
      <trkpt lat="48.21376" lon="-3.1326">
        <ele>172.60225</ele>
        <time>2022-12-12T13:00:35.797Z</time>
      </trkpt>
      <trkpt lat="48.21375" lon="-3.13242">
        <ele>172.456772</ele>
        <time>2022-12-12T13:00:38.793Z</time>
      </trkpt>
      <trkpt lat="48.21373" lon="-3.13226">
        <ele>172.445485</ele>
        <time>2022-12-12T13:00:41.798Z</time>
      </trkpt>
      <trkpt lat="48.21369" lon="-3.13211">
        <ele>172.484404</ele>
        <time>2022-12-12T13:00:44.787Z</time>
      </trkpt>
      <trkpt lat="48.21363" lon="-3.13196">
        <ele>172.525226</ele>
        <time>2022-12-12T13:00:47.793Z</time>
      </trkpt>
      <trkpt lat="48.21356" lon="-3.13182">
        <ele>172.566686</ele>
        <time>2022-12-12T13:00:50.789Z</time>
      </trkpt>
      <trkpt lat="48.21349" lon="-3.13169">
        <ele>172.60722</ele>
        <time>2022-12-12T13:00:53.787Z</time>
      </trkpt>
      <trkpt lat="48.2134" lon="-3.13157">
        <ele>172.650278</ele>
        <time>2022-12-12T13:00:56.790Z</time>
      </trkpt>
      <trkpt lat="48.21331" lon="-3.13146">
        <ele>172.692554</ele>
        <time>2022-12-12T13:00:59.801Z</time>
      </trkpt>
      <trkpt lat="48.21322" lon="-3.13134">
        <ele>172.735454</ele>
        <time>2022-12-12T13:01:02.804Z</time>
      </trkpt>
      <trkpt lat="48.21314" lon="-3.13126">
        <ele>172.770176</ele>
        <time>2022-12-12T13:01:05.792Z</time>
      </trkpt>
      <trkpt lat="48.21305" lon="-3.13118">
        <ele>172.807725</ele>
        <time>2022-12-12T13:01:09.801Z</time>
      </trkpt>
      <trkpt lat="48.21295" lon="-3.13108">
        <ele>172.849866</ele>
        <time>2022-12-12T13:01:13.800Z</time>
      </trkpt>
      <trkpt lat="48.21285" lon="-3.131">
        <ele>172.892219</ele>
        <time>2022-12-12T13:01:17.788Z</time>
      </trkpt>
      <trkpt lat="48.21276" lon="-3.1309">
        <ele>172.93099</ele>
        <time>2022-12-12T13:01:21.791Z</time>
      </trkpt>
      <trkpt lat="48.21269" lon="-3.1308">
        <ele>172.965943</ele>
        <time>2022-12-12T13:01:25.779Z</time>
      </trkpt>
      <trkpt lat="48.21255" lon="-3.13059">
        <ele>173.0368</ele>
        <time>2022-12-12T13:02:16.798Z</time>
      </trkpt>
      <trkpt lat="48.21246" lon="-3.13048">
        <ele>173.044584</ele>
        <time>2022-12-12T13:02:20.799Z</time>
      </trkpt>
      <trkpt lat="48.21239" lon="-3.13038">
        <ele>172.995573</ele>
        <time>2022-12-12T13:02:24.801Z</time>
      </trkpt>
      <trkpt lat="48.21231" lon="-3.1303">
        <ele>172.950805</ele>
        <time>2022-12-12T13:02:28.779Z</time>
      </trkpt>
      <trkpt lat="48.21223" lon="-3.13022">
        <ele>172.904375</ele>
        <time>2022-12-12T13:02:32.802Z</time>
      </trkpt>
      <trkpt lat="48.21216" lon="-3.1301">
        <ele>172.85516</ele>
        <time>2022-12-12T13:02:36.809Z</time>
      </trkpt>
      <trkpt lat="48.21207" lon="-3.13003">
        <ele>172.805945</ele>
        <time>2022-12-12T13:02:41.789Z</time>
      </trkpt>
      <trkpt lat="48.21199" lon="-3.13013">
        <ele>172.756413</ele>
        <time>2022-12-12T13:02:47.806Z</time>
      </trkpt>
      <trkpt lat="48.21191" lon="-3.13021">
        <ele>172.710627</ele>
        <time>2022-12-12T13:03:18.780Z</time>
      </trkpt>
      <trkpt lat="48.21185" lon="-3.13016">
        <ele>172.679628</ele>
        <time>2022-12-12T13:03:36.537Z</time>
      </trkpt>
      <trkpt lat="48.21185" lon="-3.13014">
        <ele>172.671886</ele>
        <time>2022-12-12T13:25:28.707Z</time>
      </trkpt>
      <trkpt lat="48.21197" lon="-3.13006">
        <ele>172.612235</ele>
        <time>2022-12-12T13:28:35.789Z</time>
      </trkpt>
      <trkpt lat="48.21206" lon="-3.13002">
        <ele>172.56555</ele>
        <time>2022-12-12T13:28:40.788Z</time>
      </trkpt>
      <trkpt lat="48.21213" lon="-3.12989">
        <ele>172.514513</ele>
        <time>2022-12-12T13:28:45.792Z</time>
      </trkpt>
      <trkpt lat="48.2122" lon="-3.12976">
        <ele>172.461329</ele>
        <time>2022-12-12T13:28:50.805Z</time>
      </trkpt>
      <trkpt lat="48.21227" lon="-3.12967">
        <ele>172.418339</ele>
        <time>2022-12-12T13:28:54.789Z</time>
      </trkpt>
      <trkpt lat="48.21234" lon="-3.12957">
        <ele>172.372823</ele>
        <time>2022-12-12T13:28:58.786Z</time>
      </trkpt>
      <trkpt lat="48.21238" lon="-3.12945">
        <ele>172.329071</ele>
        <time>2022-12-12T13:29:23.788Z</time>
      </trkpt>
      <trkpt lat="48.21237" lon="-3.12944">
        <ele>172.325148</ele>
        <time>2022-12-12T13:29:42.425Z</time>
      </trkpt>
      <trkpt lat="48.21185" lon="-3.1301">
        <ele>172.178978</ele>
        <time>2022-12-12T13:33:30.790Z</time>
      </trkpt>
      <trkpt lat="48.21196" lon="-3.13006">
        <ele>172.171665</ele>
        <time>2022-12-12T13:33:43.794Z</time>
      </trkpt>
      <trkpt lat="48.21205" lon="-3.12999">
        <ele>172.165163</ele>
        <time>2022-12-12T13:33:46.799Z</time>
      </trkpt>
      <trkpt lat="48.21213" lon="-3.12989">
        <ele>172.158074</ele>
        <time>2022-12-12T13:33:50.803Z</time>
      </trkpt>
      <trkpt lat="48.2122" lon="-3.12979">
        <ele>172.15186</ele>
        <time>2022-12-12T13:33:54.796Z</time>
      </trkpt>
      <trkpt lat="48.21227" lon="-3.12966">
        <ele>172.144283</ele>
        <time>2022-12-12T13:33:58.804Z</time>
      </trkpt>
      <trkpt lat="48.21233" lon="-3.12954">
        <ele>172.137853</ele>
        <time>2022-12-12T13:34:01.791Z</time>
      </trkpt>
      <trkpt lat="48.21241" lon="-3.12943">
        <ele>172.13117</ele>
        <time>2022-12-12T13:34:04.797Z</time>
      </trkpt>
      <trkpt lat="48.21247" lon="-3.12932">
        <ele>172.124724</ele>
        <time>2022-12-12T13:34:07.806Z</time>
      </trkpt>
      <trkpt lat="48.21254" lon="-3.1292">
        <ele>172.117757</ele>
        <time>2022-12-12T13:34:10.803Z</time>
      </trkpt>
      <trkpt lat="48.21261" lon="-3.12907">
        <ele>172.110622</ele>
        <time>2022-12-12T13:34:13.803Z</time>
      </trkpt>
      <trkpt lat="48.21267" lon="-3.12894">
        <ele>172.103473</ele>
        <time>2022-12-12T13:34:16.804Z</time>
      </trkpt>
      <trkpt lat="48.21274" lon="-3.12883">
        <ele>172.096633</ele>
        <time>2022-12-12T13:34:19.804Z</time>
      </trkpt>
      <trkpt lat="48.21281" lon="-3.12872">
        <ele>172.089983</ele>
        <time>2022-12-12T13:34:22.806Z</time>
      </trkpt>
      <trkpt lat="48.2129" lon="-3.12863">
        <ele>172.22225</ele>
        <time>2022-12-12T13:34:25.789Z</time>
      </trkpt>
      <trkpt lat="48.21297" lon="-3.12853">
        <ele>172.36702</ele>
        <time>2022-12-12T13:34:28.806Z</time>
      </trkpt>
      <trkpt lat="48.21304" lon="-3.12842">
        <ele>172.513962</ele>
        <time>2022-12-12T13:34:31.807Z</time>
      </trkpt>
      <trkpt lat="48.21313" lon="-3.12833">
        <ele>172.669888</ele>
        <time>2022-12-12T13:34:34.789Z</time>
      </trkpt>
      <trkpt lat="48.21321" lon="-3.12823">
        <ele>172.818279</ele>
        <time>2022-12-12T13:34:37.806Z</time>
      </trkpt>
      <trkpt lat="48.2133" lon="-3.12813">
        <ele>172.977499</ele>
        <time>2022-12-12T13:34:40.808Z</time>
      </trkpt>
      <trkpt lat="48.21337" lon="-3.12804">
        <ele>173.111416</ele>
        <time>2022-12-12T13:34:43.808Z</time>
      </trkpt>
      <trkpt lat="48.21344" lon="-3.12795">
        <ele>173.254158</ele>
        <time>2022-12-12T13:34:46.809Z</time>
      </trkpt>
      <trkpt lat="48.21353" lon="-3.12785">
        <ele>173.403128</ele>
        <time>2022-12-12T13:34:49.801Z</time>
      </trkpt>
      <trkpt lat="48.21361" lon="-3.12776">
        <ele>173.556201</ele>
        <time>2022-12-12T13:34:52.796Z</time>
      </trkpt>
      <trkpt lat="48.2137" lon="-3.12766">
        <ele>173.709819</ele>
        <time>2022-12-12T13:34:55.788Z</time>
      </trkpt>
      <trkpt lat="48.21378" lon="-3.12757">
        <ele>173.86175</ele>
        <time>2022-12-12T13:34:58.805Z</time>
      </trkpt>
      <trkpt lat="48.21387" lon="-3.12748">
        <ele>174.016642</ele>
        <time>2022-12-12T13:35:02.802Z</time>
      </trkpt>
      <trkpt lat="48.21394" lon="-3.12739">
        <ele>174.158098</ele>
        <time>2022-12-12T13:35:06.788Z</time>
      </trkpt>
      <trkpt lat="48.21403" lon="-3.12729">
        <ele>174.311764</ele>
        <time>2022-12-12T13:35:10.803Z</time>
      </trkpt>
      <trkpt lat="48.21411" lon="-3.12718">
        <ele>174.472897</ele>
        <time>2022-12-12T13:35:14.805Z</time>
      </trkpt>
      <trkpt lat="48.2142" lon="-3.12707">
        <ele>174.635791</ele>
        <time>2022-12-12T13:35:18.805Z</time>
      </trkpt>
      <trkpt lat="48.21427" lon="-3.12699">
        <ele>174.755471</ele>
        <time>2022-12-12T13:35:22.788Z</time>
      </trkpt>
      <trkpt lat="48.21435" lon="-3.1269">
        <ele>174.871543</ele>
        <time>2022-12-12T13:35:26.796Z</time>
      </trkpt>
      <trkpt lat="48.21443" lon="-3.12681">
        <ele>174.988883</ele>
        <time>2022-12-12T13:35:30.790Z</time>
      </trkpt>
      <trkpt lat="48.2145" lon="-3.12672">
        <ele>175.10629</ele>
        <time>2022-12-12T13:35:34.807Z</time>
      </trkpt>
      <trkpt lat="48.21458" lon="-3.12662">
        <ele>175.220943</ele>
        <time>2022-12-12T13:35:38.807Z</time>
      </trkpt>
      <trkpt lat="48.21465" lon="-3.12653">
        <ele>175.335719</ele>
        <time>2022-12-12T13:35:42.795Z</time>
      </trkpt>
      <trkpt lat="48.21472" lon="-3.12642">
        <ele>175.452683</ele>
        <time>2022-12-12T13:35:46.791Z</time>
      </trkpt>
      <trkpt lat="48.21474" lon="-3.12627">
        <ele>175.569564</ele>
        <time>2022-12-12T13:35:50.793Z</time>
      </trkpt>
      <trkpt lat="48.21473" lon="-3.12613">
        <ele>175.681447</ele>
        <time>2022-12-12T13:35:54.796Z</time>
      </trkpt>
      <trkpt lat="48.21471" lon="-3.12598">
        <ele>175.806762</ele>
        <time>2022-12-12T13:35:58.787Z</time>
      </trkpt>
      <trkpt lat="48.21469" lon="-3.12581">
        <ele>175.942505</ele>
        <time>2022-12-12T13:36:02.810Z</time>
      </trkpt>
      <trkpt lat="48.21467" lon="-3.12564">
        <ele>176.076669</ele>
        <time>2022-12-12T13:36:06.789Z</time>
      </trkpt>
      <trkpt lat="48.21465" lon="-3.12549">
        <ele>176.201633</ele>
        <time>2022-12-12T13:36:10.804Z</time>
      </trkpt>
      <trkpt lat="48.21463" lon="-3.12532">
        <ele>176.339263</ele>
        <time>2022-12-12T13:36:14.806Z</time>
      </trkpt>
      <trkpt lat="48.21462" lon="-3.12515">
        <ele>176.47156</ele>
        <time>2022-12-12T13:36:18.795Z</time>
      </trkpt>
      <trkpt lat="48.2146" lon="-3.125">
        <ele>176.595706</ele>
        <time>2022-12-12T13:36:22.805Z</time>
      </trkpt>
      <trkpt lat="48.21458" lon="-3.12484">
        <ele>176.721918</ele>
        <time>2022-12-12T13:36:26.807Z</time>
      </trkpt>
      <trkpt lat="48.21457" lon="-3.12469">
        <ele>176.852103</ele>
        <time>2022-12-12T13:36:30.801Z</time>
      </trkpt>
      <trkpt lat="48.21454" lon="-3.12453">
        <ele>177.186294</ele>
        <time>2022-12-12T13:36:34.808Z</time>
      </trkpt>
      <trkpt lat="48.21452" lon="-3.12438">
        <ele>177.497415</ele>
        <time>2022-12-12T13:36:38.796Z</time>
      </trkpt>
      <trkpt lat="48.2145" lon="-3.12424">
        <ele>177.799627</ele>
        <time>2022-12-12T13:36:42.807Z</time>
      </trkpt>
      <trkpt lat="48.21448" lon="-3.12407">
        <ele>178.134176</ele>
        <time>2022-12-12T13:36:47.803Z</time>
      </trkpt>
      <trkpt lat="48.21446" lon="-3.12393">
        <ele>178.427519</ele>
        <time>2022-12-12T13:36:51.805Z</time>
      </trkpt>
      <trkpt lat="48.21444" lon="-3.12379">
        <ele>178.730076</ele>
        <time>2022-12-12T13:36:55.801Z</time>
      </trkpt>
      <trkpt lat="48.21442" lon="-3.12364">
        <ele>179.021311</ele>
        <time>2022-12-12T13:36:59.805Z</time>
      </trkpt>
      <trkpt lat="48.21441" lon="-3.12349">
        <ele>179.3306</ele>
        <time>2022-12-12T13:37:03.805Z</time>
      </trkpt>
      <trkpt lat="48.21438" lon="-3.12335">
        <ele>179.631177</ele>
        <time>2022-12-12T13:37:07.806Z</time>
      </trkpt>
      <trkpt lat="48.21437" lon="-3.1232">
        <ele>179.93156</ele>
        <time>2022-12-12T13:37:11.806Z</time>
      </trkpt>
      <trkpt lat="48.21435" lon="-3.12306">
        <ele>180.229548</ele>
        <time>2022-12-12T13:37:15.803Z</time>
      </trkpt>
      <trkpt lat="48.21433" lon="-3.12292">
        <ele>180.518782</ele>
        <time>2022-12-12T13:37:19.805Z</time>
      </trkpt>
      <trkpt lat="48.21432" lon="-3.12278">
        <ele>180.811584</ele>
        <time>2022-12-12T13:37:23.803Z</time>
      </trkpt>
      <trkpt lat="48.21429" lon="-3.12263">
        <ele>181.110848</ele>
        <time>2022-12-12T13:37:27.802Z</time>
      </trkpt>
      <trkpt lat="48.21427" lon="-3.12248">
        <ele>181.425928</ele>
        <time>2022-12-12T13:37:31.800Z</time>
      </trkpt>
      <trkpt lat="48.21426" lon="-3.12234">
        <ele>181.718281</ele>
        <time>2022-12-12T13:37:35.809Z</time>
      </trkpt>
      <trkpt lat="48.21424" lon="-3.12218">
        <ele>182.045579</ele>
        <time>2022-12-12T13:37:40.790Z</time>
      </trkpt>
      <trkpt lat="48.21422" lon="-3.12204">
        <ele>182.369988</ele>
        <time>2022-12-12T13:37:44.789Z</time>
      </trkpt>
      <trkpt lat="48.21421" lon="-3.12187">
        <ele>182.95294</ele>
        <time>2022-12-12T13:37:48.803Z</time>
      </trkpt>
      <trkpt lat="48.2142" lon="-3.12172">
        <ele>183.503122</ele>
        <time>2022-12-12T13:37:52.792Z</time>
      </trkpt>
      <trkpt lat="48.21417" lon="-3.12157">
        <ele>184.080424</ele>
        <time>2022-12-12T13:37:57.798Z</time>
      </trkpt>
      <trkpt lat="48.21416" lon="-3.12143">
        <ele>184.576968</ele>
        <time>2022-12-12T13:38:01.788Z</time>
      </trkpt>
      <trkpt lat="48.21415" lon="-3.12127">
        <ele>185.155598</ele>
        <time>2022-12-12T13:38:06.795Z</time>
      </trkpt>
      <trkpt lat="48.21413" lon="-3.12111">
        <ele>185.731814</ele>
        <time>2022-12-12T13:38:11.798Z</time>
      </trkpt>
      <trkpt lat="48.2141" lon="-3.12097">
        <ele>186.262246</ele>
        <time>2022-12-12T13:38:16.802Z</time>
      </trkpt>
      <trkpt lat="48.2141" lon="-3.12082">
        <ele>186.807771</ele>
        <time>2022-12-12T13:38:22.801Z</time>
      </trkpt>
      <trkpt lat="48.21407" lon="-3.12066">
        <ele>187.382696</ele>
        <time>2022-12-12T13:38:28.788Z</time>
      </trkpt>
      <trkpt lat="48.21405" lon="-3.12052">
        <ele>187.90034</ele>
        <time>2022-12-12T13:38:33.787Z</time>
      </trkpt>
      <trkpt lat="48.21404" lon="-3.12038">
        <ele>188.412411</ele>
        <time>2022-12-12T13:38:38.804Z</time>
      </trkpt>
      <trkpt lat="48.21401" lon="-3.12024">
        <ele>188.945257</ele>
        <time>2022-12-12T13:38:43.807Z</time>
      </trkpt>
      <trkpt lat="48.214" lon="-3.1201">
        <ele>189.451259</ele>
        <time>2022-12-12T13:38:48.801Z</time>
      </trkpt>
      <trkpt lat="48.21398" lon="-3.11994">
        <ele>190.026438</ele>
        <time>2022-12-12T13:38:54.790Z</time>
      </trkpt>
      <trkpt lat="48.21395" lon="-3.11979">
        <ele>190.607293</ele>
        <time>2022-12-12T13:39:00.786Z</time>
      </trkpt>
      <trkpt lat="48.21392" lon="-3.11964">
        <ele>191.16051</ele>
        <time>2022-12-12T13:39:06.808Z</time>
      </trkpt>
      <trkpt lat="48.21389" lon="-3.11949">
        <ele>191.724514</ele>
        <time>2022-12-12T13:39:12.798Z</time>
      </trkpt>
      <trkpt lat="48.21386" lon="-3.11934">
        <ele>192.193859</ele>
        <time>2022-12-12T13:39:17.789Z</time>
      </trkpt>
      <trkpt lat="48.21382" lon="-3.11919">
        <ele>192.553799</ele>
        <time>2022-12-12T13:39:22.806Z</time>
      </trkpt>
      <trkpt lat="48.21378" lon="-3.11904">
        <ele>192.91403</ele>
        <time>2022-12-12T13:39:27.787Z</time>
      </trkpt>
      <trkpt lat="48.21374" lon="-3.11889">
        <ele>193.279934</ele>
        <time>2022-12-12T13:39:32.810Z</time>
      </trkpt>
      <trkpt lat="48.21372" lon="-3.11874">
        <ele>193.632926</ele>
        <time>2022-12-12T13:39:37.788Z</time>
      </trkpt>
      <trkpt lat="48.21368" lon="-3.11861">
        <ele>193.95205</ele>
        <time>2022-12-12T13:39:42.800Z</time>
      </trkpt>
      <trkpt lat="48.21367" lon="-3.11848">
        <ele>194.263067</ele>
        <time>2022-12-12T13:39:47.805Z</time>
      </trkpt>
      <trkpt lat="48.21365" lon="-3.11835">
        <ele>194.570288</ele>
        <time>2022-12-12T13:39:52.805Z</time>
      </trkpt>
      <trkpt lat="48.21363" lon="-3.11821">
        <ele>194.89161</ele>
        <time>2022-12-12T13:39:57.794Z</time>
      </trkpt>
      <trkpt lat="48.21361" lon="-3.11807">
        <ele>195.224775</ele>
        <time>2022-12-12T13:40:02.802Z</time>
      </trkpt>
      <trkpt lat="48.21359" lon="-3.11792">
        <ele>195.558229</ele>
        <time>2022-12-12T13:40:07.809Z</time>
      </trkpt>
      <trkpt lat="48.21358" lon="-3.11778">
        <ele>195.889717</ele>
        <time>2022-12-12T13:40:12.813Z</time>
      </trkpt>
      <trkpt lat="48.21356" lon="-3.11763">
        <ele>196.222134</ele>
        <time>2022-12-12T13:40:17.795Z</time>
      </trkpt>
      <trkpt lat="48.21355" lon="-3.11749">
        <ele>196.565731</ele>
        <time>2022-12-12T13:40:22.807Z</time>
      </trkpt>
      <trkpt lat="48.21354" lon="-3.11734">
        <ele>196.903419</ele>
        <time>2022-12-12T13:40:27.795Z</time>
      </trkpt>
      <trkpt lat="48.21352" lon="-3.11719">
        <ele>197.248105</ele>
        <time>2022-12-12T13:40:32.803Z</time>
      </trkpt>
      <trkpt lat="48.21351" lon="-3.11704">
        <ele>197.579858</ele>
        <time>2022-12-12T13:40:37.787Z</time>
      </trkpt>
      <trkpt lat="48.21349" lon="-3.1169">
        <ele>197.925614</ele>
        <time>2022-12-12T13:40:42.795Z</time>
      </trkpt>
      <trkpt lat="48.21348" lon="-3.11676">
        <ele>198.259278</ele>
        <time>2022-12-12T13:40:47.801Z</time>
      </trkpt>
      <trkpt lat="48.21346" lon="-3.1166">
        <ele>198.662585</ele>
        <time>2022-12-12T13:40:52.804Z</time>
      </trkpt>
      <trkpt lat="48.21344" lon="-3.11646">
        <ele>199.029274</ele>
        <time>2022-12-12T13:40:57.796Z</time>
      </trkpt>
      <trkpt lat="48.21342" lon="-3.11632">
        <ele>199.420779</ele>
        <time>2022-12-12T13:41:02.803Z</time>
      </trkpt>
      <trkpt lat="48.21341" lon="-3.11617">
        <ele>199.817007</ele>
        <time>2022-12-12T13:41:07.789Z</time>
      </trkpt>
      <trkpt lat="48.21339" lon="-3.11603">
        <ele>200.192714</ele>
        <time>2022-12-12T13:41:12.814Z</time>
      </trkpt>
      <trkpt lat="48.21337" lon="-3.11588">
        <ele>200.580593</ele>
        <time>2022-12-12T13:41:17.796Z</time>
      </trkpt>
      <trkpt lat="48.21335" lon="-3.11574">
        <ele>200.961098</ele>
        <time>2022-12-12T13:41:22.805Z</time>
      </trkpt>
      <trkpt lat="48.21334" lon="-3.1156">
        <ele>201.324776</ele>
        <time>2022-12-12T13:41:27.810Z</time>
      </trkpt>
      <trkpt lat="48.21333" lon="-3.11545">
        <ele>201.709573</ele>
        <time>2022-12-12T13:41:32.813Z</time>
      </trkpt>
      <trkpt lat="48.21332" lon="-3.11531">
        <ele>202.066334</ele>
        <time>2022-12-12T13:41:37.789Z</time>
      </trkpt>
      <trkpt lat="48.21331" lon="-3.11518">
        <ele>202.429969</ele>
        <time>2022-12-12T13:41:42.811Z</time>
      </trkpt>
      <trkpt lat="48.21329" lon="-3.11503">
        <ele>202.822387</ele>
        <time>2022-12-12T13:41:47.792Z</time>
      </trkpt>
      <trkpt lat="48.21327" lon="-3.11488">
        <ele>203.218197</ele>
        <time>2022-12-12T13:41:52.809Z</time>
      </trkpt>
      <trkpt lat="48.21326" lon="-3.11474">
        <ele>203.594585</ele>
        <time>2022-12-12T13:41:57.808Z</time>
      </trkpt>
      <trkpt lat="48.21324" lon="-3.11459">
        <ele>203.985681</ele>
        <time>2022-12-12T13:42:02.805Z</time>
      </trkpt>
      <trkpt lat="48.21322" lon="-3.11443">
        <ele>204.394137</ele>
        <time>2022-12-12T13:42:07.807Z</time>
      </trkpt>
      <trkpt lat="48.21321" lon="-3.11428">
        <ele>204.791706</ele>
        <time>2022-12-12T13:42:12.806Z</time>
      </trkpt>
      <trkpt lat="48.2132" lon="-3.11413">
        <ele>205.188229</ele>
        <time>2022-12-12T13:42:17.788Z</time>
      </trkpt>
      <trkpt lat="48.21319" lon="-3.11397">
        <ele>205.574573</ele>
        <time>2022-12-12T13:42:22.800Z</time>
      </trkpt>
      <trkpt lat="48.21318" lon="-3.11382">
        <ele>205.948301</ele>
        <time>2022-12-12T13:42:27.797Z</time>
      </trkpt>
      <trkpt lat="48.21317" lon="-3.11367">
        <ele>206.314203</ele>
        <time>2022-12-12T13:42:32.810Z</time>
      </trkpt>
      <trkpt lat="48.21316" lon="-3.11352">
        <ele>206.701634</ele>
        <time>2022-12-12T13:42:37.791Z</time>
      </trkpt>
      <trkpt lat="48.21316" lon="-3.11336">
        <ele>207.088909</ele>
        <time>2022-12-12T13:42:42.808Z</time>
      </trkpt>
      <trkpt lat="48.21316" lon="-3.1132">
        <ele>207.481706</ele>
        <time>2022-12-12T13:42:47.824Z</time>
      </trkpt>
      <trkpt lat="48.21316" lon="-3.11304">
        <ele>207.866547</ele>
        <time>2022-12-12T13:42:52.807Z</time>
      </trkpt>
      <trkpt lat="48.21316" lon="-3.11288">
        <ele>208.261192</ele>
        <time>2022-12-12T13:42:57.794Z</time>
      </trkpt>
      <trkpt lat="48.21316" lon="-3.11272">
        <ele>208.643583</ele>
        <time>2022-12-12T13:43:02.809Z</time>
      </trkpt>
      <trkpt lat="48.21317" lon="-3.11256">
        <ele>209.043722</ele>
        <time>2022-12-12T13:43:07.811Z</time>
      </trkpt>
      <trkpt lat="48.21317" lon="-3.1124">
        <ele>209.429178</ele>
        <time>2022-12-12T13:43:12.811Z</time>
      </trkpt>
      <trkpt lat="48.21318" lon="-3.11225">
        <ele>209.814633</ele>
        <time>2022-12-12T13:43:17.794Z</time>
      </trkpt>
      <trkpt lat="48.21319" lon="-3.1121">
        <ele>210.187373</ele>
        <time>2022-12-12T13:43:22.811Z</time>
      </trkpt>
      <trkpt lat="48.21319" lon="-3.11195">
        <ele>210.538189</ele>
        <time>2022-12-12T13:43:27.815Z</time>
      </trkpt>
      <trkpt lat="48.21321" lon="-3.11181">
        <ele>210.901195</ele>
        <time>2022-12-12T13:43:32.806Z</time>
      </trkpt>
      <trkpt lat="48.2132" lon="-3.11165">
        <ele>211.281134</ele>
        <time>2022-12-12T13:43:37.792Z</time>
      </trkpt>
      <trkpt lat="48.21322" lon="-3.11149">
        <ele>211.669387</ele>
        <time>2022-12-12T13:43:42.823Z</time>
      </trkpt>
      <trkpt lat="48.21323" lon="-3.11134">
        <ele>212.04196</ele>
        <time>2022-12-12T13:43:47.811Z</time>
      </trkpt>
      <trkpt lat="48.21325" lon="-3.11119">
        <ele>212.403153</ele>
        <time>2022-12-12T13:43:52.803Z</time>
      </trkpt>
      <trkpt lat="48.21326" lon="-3.11104">
        <ele>212.766692</ele>
        <time>2022-12-12T13:43:57.811Z</time>
      </trkpt>
      <trkpt lat="48.21328" lon="-3.11089">
        <ele>213.121536</ele>
        <time>2022-12-12T13:44:02.810Z</time>
      </trkpt>
      <trkpt lat="48.2133" lon="-3.11074">
        <ele>213.487293</ele>
        <time>2022-12-12T13:44:07.792Z</time>
      </trkpt>
      <trkpt lat="48.21332" lon="-3.11059">
        <ele>213.850429</ele>
        <time>2022-12-12T13:44:12.801Z</time>
      </trkpt>
      <trkpt lat="48.21334" lon="-3.11043">
        <ele>214.224373</ele>
        <time>2022-12-12T13:44:17.814Z</time>
      </trkpt>
      <trkpt lat="48.21336" lon="-3.11028">
        <ele>214.58844</ele>
        <time>2022-12-12T13:44:22.809Z</time>
      </trkpt>
      <trkpt lat="48.21339" lon="-3.11013">
        <ele>214.953923</ele>
        <time>2022-12-12T13:44:27.797Z</time>
      </trkpt>
      <trkpt lat="48.21341" lon="-3.10998">
        <ele>215.32475</ele>
        <time>2022-12-12T13:44:32.809Z</time>
      </trkpt>
      <trkpt lat="48.21343" lon="-3.10983">
        <ele>215.688175</ele>
        <time>2022-12-12T13:44:37.811Z</time>
      </trkpt>
      <trkpt lat="48.21346" lon="-3.10967">
        <ele>216.081538</ele>
        <time>2022-12-12T13:44:42.818Z</time>
      </trkpt>
      <trkpt lat="48.21349" lon="-3.10951">
        <ele>216.472092</ele>
        <time>2022-12-12T13:44:47.807Z</time>
      </trkpt>
      <trkpt lat="48.21351" lon="-3.10938">
        <ele>216.794456</ele>
        <time>2022-12-12T13:44:51.815Z</time>
      </trkpt>
      <trkpt lat="48.21355" lon="-3.10923">
        <ele>217.18352</ele>
        <time>2022-12-12T13:44:56.806Z</time>
      </trkpt>
      <trkpt lat="48.21358" lon="-3.10907">
        <ele>217.579588</ele>
        <time>2022-12-12T13:45:01.792Z</time>
      </trkpt>
      <trkpt lat="48.21362" lon="-3.10891">
        <ele>217.977551</ele>
        <time>2022-12-12T13:45:06.805Z</time>
      </trkpt>
      <trkpt lat="48.21365" lon="-3.10875">
        <ele>218.380117</ele>
        <time>2022-12-12T13:45:11.804Z</time>
      </trkpt>
      <trkpt lat="48.21368" lon="-3.10862">
        <ele>218.719847</ele>
        <time>2022-12-12T13:45:15.806Z</time>
      </trkpt>
      <trkpt lat="48.21372" lon="-3.10848">
        <ele>219.084088</ele>
        <time>2022-12-12T13:45:19.806Z</time>
      </trkpt>
      <trkpt lat="48.21375" lon="-3.10835">
        <ele>219.414367</ele>
        <time>2022-12-12T13:45:23.790Z</time>
      </trkpt>
      <trkpt lat="48.21379" lon="-3.10822">
        <ele>219.758168</ele>
        <time>2022-12-12T13:45:27.809Z</time>
      </trkpt>
      <trkpt lat="48.21382" lon="-3.10809">
        <ele>220.108445</ele>
        <time>2022-12-12T13:45:31.816Z</time>
      </trkpt>
      <trkpt lat="48.21386" lon="-3.10795">
        <ele>220.480956</ele>
        <time>2022-12-12T13:45:36.791Z</time>
      </trkpt>
      <trkpt lat="48.21391" lon="-3.1078">
        <ele>220.88951</ele>
        <time>2022-12-12T13:45:41.804Z</time>
      </trkpt>
      <trkpt lat="48.21395" lon="-3.10767">
        <ele>221.242061</ele>
        <time>2022-12-12T13:45:45.794Z</time>
      </trkpt>
      <trkpt lat="48.214" lon="-3.10754">
        <ele>221.593987</ele>
        <time>2022-12-12T13:45:49.808Z</time>
      </trkpt>
      <trkpt lat="48.21404" lon="-3.10741">
        <ele>221.945729</ele>
        <time>2022-12-12T13:45:54.812Z</time>
      </trkpt>
      <trkpt lat="48.21409" lon="-3.10728">
        <ele>222.29826</ele>
        <time>2022-12-12T13:45:59.798Z</time>
      </trkpt>
      <trkpt lat="48.21413" lon="-3.10716">
        <ele>222.632301</ele>
        <time>2022-12-12T13:46:03.815Z</time>
      </trkpt>
      <trkpt lat="48.21419" lon="-3.10702">
        <ele>223.036927</ele>
        <time>2022-12-12T13:46:08.806Z</time>
      </trkpt>
      <trkpt lat="48.21423" lon="-3.10689">
        <ele>223.392296</ele>
        <time>2022-12-12T13:46:12.809Z</time>
      </trkpt>
      <trkpt lat="48.21428" lon="-3.10675">
        <ele>223.759993</ele>
        <time>2022-12-12T13:46:16.816Z</time>
      </trkpt>
      <trkpt lat="48.21433" lon="-3.10663">
        <ele>224.113533</ele>
        <time>2022-12-12T13:46:20.809Z</time>
      </trkpt>
      <trkpt lat="48.21438" lon="-3.1065">
        <ele>224.475233</ele>
        <time>2022-12-12T13:46:24.810Z</time>
      </trkpt>
      <trkpt lat="48.21443" lon="-3.10638">
        <ele>224.814242</ele>
        <time>2022-12-12T13:46:28.807Z</time>
      </trkpt>
      <trkpt lat="48.21449" lon="-3.10627">
        <ele>225.021366</ele>
        <time>2022-12-12T13:46:32.811Z</time>
      </trkpt>
      <trkpt lat="48.21454" lon="-3.10615">
        <ele>225.237034</ele>
        <time>2022-12-12T13:46:36.811Z</time>
      </trkpt>
      <trkpt lat="48.2146" lon="-3.10602">
        <ele>225.456317</ele>
        <time>2022-12-12T13:46:40.803Z</time>
      </trkpt>
      <trkpt lat="48.21465" lon="-3.1059">
        <ele>225.678076</ele>
        <time>2022-12-12T13:46:44.813Z</time>
      </trkpt>
      <trkpt lat="48.21472" lon="-3.10577">
        <ele>225.923515</ele>
        <time>2022-12-12T13:46:48.810Z</time>
      </trkpt>
      <trkpt lat="48.21478" lon="-3.10564">
        <ele>226.16936</ele>
        <time>2022-12-12T13:46:52.807Z</time>
      </trkpt>
      <trkpt lat="48.21485" lon="-3.10552">
        <ele>226.396773</ele>
        <time>2022-12-12T13:46:56.805Z</time>
      </trkpt>
      <trkpt lat="48.21491" lon="-3.10541">
        <ele>226.608819</ele>
        <time>2022-12-12T13:47:00.806Z</time>
      </trkpt>
      <trkpt lat="48.21496" lon="-3.10527">
        <ele>226.844208</ele>
        <time>2022-12-12T13:47:04.793Z</time>
      </trkpt>
      <trkpt lat="48.21502" lon="-3.10515">
        <ele>227.075974</ele>
        <time>2022-12-12T13:47:08.805Z</time>
      </trkpt>
      <trkpt lat="48.21509" lon="-3.10501">
        <ele>227.320203</ele>
        <time>2022-12-12T13:47:12.814Z</time>
      </trkpt>
      <trkpt lat="48.21515" lon="-3.10487">
        <ele>227.570454</ele>
        <time>2022-12-12T13:47:16.807Z</time>
      </trkpt>
      <trkpt lat="48.21522" lon="-3.10473">
        <ele>227.82948</ele>
        <time>2022-12-12T13:47:20.812Z</time>
      </trkpt>
      <trkpt lat="48.21529" lon="-3.10459">
        <ele>228.089913</ele>
        <time>2022-12-12T13:47:24.811Z</time>
      </trkpt>
      <trkpt lat="48.21535" lon="-3.10446">
        <ele>228.337863</ele>
        <time>2022-12-12T13:47:28.798Z</time>
      </trkpt>
      <trkpt lat="48.21542" lon="-3.10432">
        <ele>228.588164</ele>
        <time>2022-12-12T13:47:33.814Z</time>
      </trkpt>
      <trkpt lat="48.21548" lon="-3.10419">
        <ele>228.800405</ele>
        <time>2022-12-12T13:47:37.810Z</time>
      </trkpt>
      <trkpt lat="48.21554" lon="-3.10406">
        <ele>228.783446</ele>
        <time>2022-12-12T13:47:41.818Z</time>
      </trkpt>
      <trkpt lat="48.21561" lon="-3.10392">
        <ele>228.766083</ele>
        <time>2022-12-12T13:47:45.807Z</time>
      </trkpt>
      <trkpt lat="48.21567" lon="-3.10379">
        <ele>228.750072</ele>
        <time>2022-12-12T13:47:49.810Z</time>
      </trkpt>
      <trkpt lat="48.21572" lon="-3.10366">
        <ele>228.734064</ele>
        <time>2022-12-12T13:47:54.796Z</time>
      </trkpt>
      <trkpt lat="48.21573" lon="-3.10352">
        <ele>228.720148</ele>
        <time>2022-12-12T13:48:01.791Z</time>
      </trkpt>
      <trkpt lat="48.21566" lon="-3.10342">
        <ele>228.705469</ele>
        <time>2022-12-12T13:48:07.798Z</time>
      </trkpt>
      <trkpt lat="48.21561" lon="-3.10329">
        <ele>228.690813</ele>
        <time>2022-12-12T13:48:12.800Z</time>
      </trkpt>
      <trkpt lat="48.21566" lon="-3.10315">
        <ele>228.674574</ele>
        <time>2022-12-12T13:48:16.793Z</time>
      </trkpt>
      <trkpt lat="48.21572" lon="-3.10301">
        <ele>228.657123</ele>
        <time>2022-12-12T13:48:20.816Z</time>
      </trkpt>
      <trkpt lat="48.21577" lon="-3.10284">
        <ele>228.638649</ele>
        <time>2022-12-12T13:48:24.793Z</time>
      </trkpt>
      <trkpt lat="48.21581" lon="-3.1027">
        <ele>228.622819</ele>
        <time>2022-12-12T13:48:27.814Z</time>
      </trkpt>
      <trkpt lat="48.21586" lon="-3.10257">
        <ele>228.607885</ele>
        <time>2022-12-12T13:48:30.823Z</time>
      </trkpt>
      <trkpt lat="48.2159" lon="-3.10244">
        <ele>228.593268</ele>
        <time>2022-12-12T13:48:33.816Z</time>
      </trkpt>
      <trkpt lat="48.21594" lon="-3.10231">
        <ele>228.578309</ele>
        <time>2022-12-12T13:48:36.813Z</time>
      </trkpt>
      <trkpt lat="48.21598" lon="-3.10219">
        <ele>228.564351</ele>
        <time>2022-12-12T13:48:39.789Z</time>
      </trkpt>
      <trkpt lat="48.21602" lon="-3.10206">
        <ele>228.55042</ele>
        <time>2022-12-12T13:48:43.807Z</time>
      </trkpt>
      <trkpt lat="48.21606" lon="-3.10194">
        <ele>228.535963</ele>
        <time>2022-12-12T13:48:47.805Z</time>
      </trkpt>
      <trkpt lat="48.21611" lon="-3.10179">
        <ele>228.616965</ele>
        <time>2022-12-12T13:48:52.815Z</time>
      </trkpt>
      <trkpt lat="48.21616" lon="-3.10164">
        <ele>228.840331</ele>
        <time>2022-12-12T13:48:56.799Z</time>
      </trkpt>
      <trkpt lat="48.21619" lon="-3.10151">
        <ele>229.025315</ele>
        <time>2022-12-12T13:48:59.823Z</time>
      </trkpt>
      <trkpt lat="48.21625" lon="-3.10136">
        <ele>229.258211</ele>
        <time>2022-12-12T13:49:03.815Z</time>
      </trkpt>
      <trkpt lat="48.2163" lon="-3.10122">
        <ele>229.484587</ele>
        <time>2022-12-12T13:49:08.800Z</time>
      </trkpt>
      <trkpt lat="48.21634" lon="-3.10106">
        <ele>229.710032</ele>
        <time>2022-12-12T13:49:12.793Z</time>
      </trkpt>
      <trkpt lat="48.21638" lon="-3.10093">
        <ele>229.907215</ele>
        <time>2022-12-12T13:49:15.798Z</time>
      </trkpt>
      <trkpt lat="48.21643" lon="-3.10079">
        <ele>230.117151</ele>
        <time>2022-12-12T13:49:18.815Z</time>
      </trkpt>
      <trkpt lat="48.21647" lon="-3.10066">
        <ele>230.322517</ele>
        <time>2022-12-12T13:49:21.808Z</time>
      </trkpt>
      <trkpt lat="48.21652" lon="-3.10053">
        <ele>230.526955</ele>
        <time>2022-12-12T13:49:24.798Z</time>
      </trkpt>
      <trkpt lat="48.21656" lon="-3.10038">
        <ele>230.742785</ele>
        <time>2022-12-12T13:49:27.807Z</time>
      </trkpt>
      <trkpt lat="48.2166" lon="-3.10024">
        <ele>230.960693</ele>
        <time>2022-12-12T13:49:30.811Z</time>
      </trkpt>
      <trkpt lat="48.21665" lon="-3.10011">
        <ele>231.152637</ele>
        <time>2022-12-12T13:49:33.796Z</time>
      </trkpt>
      <trkpt lat="48.21669" lon="-3.09996">
        <ele>231.368966</ele>
        <time>2022-12-12T13:49:37.807Z</time>
      </trkpt>
      <trkpt lat="48.21673" lon="-3.09984">
        <ele>231.561834</ele>
        <time>2022-12-12T13:49:40.814Z</time>
      </trkpt>
      <trkpt lat="48.21678" lon="-3.09971">
        <ele>231.75721</ele>
        <time>2022-12-12T13:49:43.815Z</time>
      </trkpt>
      <trkpt lat="48.21682" lon="-3.09958">
        <ele>231.960194</ele>
        <time>2022-12-12T13:49:46.793Z</time>
      </trkpt>
      <trkpt lat="48.21686" lon="-3.09945">
        <ele>232.15642</ele>
        <time>2022-12-12T13:49:49.808Z</time>
      </trkpt>
      <trkpt lat="48.21691" lon="-3.09932">
        <ele>232.322297</ele>
        <time>2022-12-12T13:49:52.790Z</time>
      </trkpt>
      <trkpt lat="48.21695" lon="-3.09919">
        <ele>232.469624</ele>
        <time>2022-12-12T13:49:55.798Z</time>
      </trkpt>
      <trkpt lat="48.21699" lon="-3.09903">
        <ele>232.640762</ele>
        <time>2022-12-12T13:49:59.809Z</time>
      </trkpt>
      <trkpt lat="48.21703" lon="-3.0989">
        <ele>232.79227</ele>
        <time>2022-12-12T13:50:02.804Z</time>
      </trkpt>
      <trkpt lat="48.21707" lon="-3.09877">
        <ele>232.944768</ele>
        <time>2022-12-12T13:50:05.811Z</time>
      </trkpt>
      <trkpt lat="48.21712" lon="-3.09863">
        <ele>233.101388</ele>
        <time>2022-12-12T13:50:08.818Z</time>
      </trkpt>
      <trkpt lat="48.21716" lon="-3.0985">
        <ele>233.254532</ele>
        <time>2022-12-12T13:50:11.811Z</time>
      </trkpt>
      <trkpt lat="48.21721" lon="-3.09836">
        <ele>233.413192</ele>
        <time>2022-12-12T13:50:14.816Z</time>
      </trkpt>
      <trkpt lat="48.21725" lon="-3.09823">
        <ele>233.567691</ele>
        <time>2022-12-12T13:50:17.806Z</time>
      </trkpt>
      <trkpt lat="48.2173" lon="-3.09809">
        <ele>233.734913</ele>
        <time>2022-12-12T13:50:21.814Z</time>
      </trkpt>
      <trkpt lat="48.21735" lon="-3.09793">
        <ele>233.91262</ele>
        <time>2022-12-12T13:50:25.796Z</time>
      </trkpt>
      <trkpt lat="48.2174" lon="-3.09777">
        <ele>234.091879</ele>
        <time>2022-12-12T13:50:29.814Z</time>
      </trkpt>
      <trkpt lat="48.21745" lon="-3.09763">
        <ele>234.263828</ele>
        <time>2022-12-12T13:50:33.816Z</time>
      </trkpt>
      <trkpt lat="48.2175" lon="-3.09747">
        <ele>234.437424</ele>
        <time>2022-12-12T13:50:37.811Z</time>
      </trkpt>
      <trkpt lat="48.21754" lon="-3.09732">
        <ele>234.61182</ele>
        <time>2022-12-12T13:50:41.811Z</time>
      </trkpt>
      <trkpt lat="48.21759" lon="-3.09717">
        <ele>234.783433</ele>
        <time>2022-12-12T13:50:45.796Z</time>
      </trkpt>
      <trkpt lat="48.21764" lon="-3.09702">
        <ele>234.955045</ele>
        <time>2022-12-12T13:50:49.818Z</time>
      </trkpt>
      <trkpt lat="48.21768" lon="-3.09687">
        <ele>235.054108</ele>
        <time>2022-12-12T13:50:53.821Z</time>
      </trkpt>
      <trkpt lat="48.21773" lon="-3.09672">
        <ele>235.134158</ele>
        <time>2022-12-12T13:50:57.810Z</time>
      </trkpt>
      <trkpt lat="48.21777" lon="-3.09657">
        <ele>235.208541</ele>
        <time>2022-12-12T13:51:01.811Z</time>
      </trkpt>
      <trkpt lat="48.2178" lon="-3.09644">
        <ele>235.277163</ele>
        <time>2022-12-12T13:51:05.790Z</time>
      </trkpt>
      <trkpt lat="48.21784" lon="-3.09629">
        <ele>235.351637</ele>
        <time>2022-12-12T13:51:09.791Z</time>
      </trkpt>
      <trkpt lat="48.21787" lon="-3.09613">
        <ele>235.43238</ele>
        <time>2022-12-12T13:51:13.804Z</time>
      </trkpt>
      <trkpt lat="48.21791" lon="-3.09597">
        <ele>235.51448</ele>
        <time>2022-12-12T13:51:17.823Z</time>
      </trkpt>
      <trkpt lat="48.21794" lon="-3.09582">
        <ele>235.589573</ele>
        <time>2022-12-12T13:51:21.795Z</time>
      </trkpt>
      <trkpt lat="48.21797" lon="-3.09565">
        <ele>235.671676</ele>
        <time>2022-12-12T13:51:27.798Z</time>
      </trkpt>
      <trkpt lat="48.21799" lon="-3.09548">
        <ele>235.756658</ele>
        <time>2022-12-12T13:51:31.798Z</time>
      </trkpt>
      <trkpt lat="48.218" lon="-3.09531">
        <ele>235.838417</ele>
        <time>2022-12-12T13:51:35.809Z</time>
      </trkpt>
      <trkpt lat="48.21802" lon="-3.09517">
        <ele>235.904611</ele>
        <time>2022-12-12T13:51:38.813Z</time>
      </trkpt>
      <trkpt lat="48.21803" lon="-3.09503">
        <ele>235.970924</ele>
        <time>2022-12-12T13:51:41.816Z</time>
      </trkpt>
      <trkpt lat="48.21805" lon="-3.09489">
        <ele>236.039978</ele>
        <time>2022-12-12T13:51:44.809Z</time>
      </trkpt>
      <trkpt lat="48.21807" lon="-3.09471">
        <ele>236.125993</ele>
        <time>2022-12-12T13:51:48.792Z</time>
      </trkpt>
      <trkpt lat="48.21808" lon="-3.09454">
        <ele>236.205935</ele>
        <time>2022-12-12T13:51:52.811Z</time>
      </trkpt>
      <trkpt lat="48.21809" lon="-3.09438">
        <ele>236.288969</ele>
        <time>2022-12-12T13:51:57.795Z</time>
      </trkpt>
      <trkpt lat="48.21809" lon="-3.09422">
        <ele>236.463255</ele>
        <time>2022-12-12T13:52:01.811Z</time>
      </trkpt>
      <trkpt lat="48.21808" lon="-3.09405">
        <ele>236.643353</ele>
        <time>2022-12-12T13:52:05.809Z</time>
      </trkpt>
      <trkpt lat="48.21807" lon="-3.09388">
        <ele>236.827353</ele>
        <time>2022-12-12T13:52:09.823Z</time>
      </trkpt>
      <trkpt lat="48.21807" lon="-3.09374">
        <ele>236.974727</ele>
        <time>2022-12-12T13:52:12.823Z</time>
      </trkpt>
      <trkpt lat="48.21806" lon="-3.09359">
        <ele>237.140258</ele>
        <time>2022-12-12T13:52:16.798Z</time>
      </trkpt>
      <trkpt lat="48.21806" lon="-3.09341">
        <ele>237.32982</ele>
        <time>2022-12-12T13:52:20.819Z</time>
      </trkpt>
      <trkpt lat="48.21805" lon="-3.09328">
        <ele>237.475473</ele>
        <time>2022-12-12T13:52:23.815Z</time>
      </trkpt>
      <trkpt lat="48.21803" lon="-3.09311">
        <ele>237.654601</ele>
        <time>2022-12-12T13:52:27.814Z</time>
      </trkpt>
      <trkpt lat="48.21802" lon="-3.09298">
        <ele>237.801638</ele>
        <time>2022-12-12T13:52:31.811Z</time>
      </trkpt>
      <trkpt lat="48.21799" lon="-3.09284">
        <ele>237.952972</ele>
        <time>2022-12-12T13:52:35.809Z</time>
      </trkpt>
      <trkpt lat="48.21797" lon="-3.09267">
        <ele>238.146358</ele>
        <time>2022-12-12T13:52:39.803Z</time>
      </trkpt>
      <trkpt lat="48.21795" lon="-3.09252">
        <ele>238.31196</ele>
        <time>2022-12-12T13:52:42.818Z</time>
      </trkpt>
      <trkpt lat="48.21793" lon="-3.09238">
        <ele>238.462483</ele>
        <time>2022-12-12T13:52:45.809Z</time>
      </trkpt>
      <trkpt lat="48.21791" lon="-3.09223">
        <ele>238.622096</ele>
        <time>2022-12-12T13:52:48.813Z</time>
      </trkpt>
      <trkpt lat="48.21788" lon="-3.0921">
        <ele>238.771651</ele>
        <time>2022-12-12T13:52:51.790Z</time>
      </trkpt>
      <trkpt lat="48.21785" lon="-3.09197">
        <ele>238.92423</ele>
        <time>2022-12-12T13:52:54.793Z</time>
      </trkpt>
      <trkpt lat="48.21783" lon="-3.09183">
        <ele>239.074356</ele>
        <time>2022-12-12T13:52:57.811Z</time>
      </trkpt>
      <trkpt lat="48.21781" lon="-3.09169">
        <ele>239.224281</ele>
        <time>2022-12-12T13:53:00.807Z</time>
      </trkpt>
      <trkpt lat="48.21778" lon="-3.09154">
        <ele>239.38655</ele>
        <time>2022-12-12T13:53:04.810Z</time>
      </trkpt>
      <trkpt lat="48.21775" lon="-3.09136">
        <ele>239.570224</ele>
        <time>2022-12-12T13:53:08.812Z</time>
      </trkpt>
      <trkpt lat="48.21772" lon="-3.09121">
        <ele>239.725683</ele>
        <time>2022-12-12T13:53:11.812Z</time>
      </trkpt>
      <trkpt lat="48.21769" lon="-3.09107">
        <ele>239.882598</ele>
        <time>2022-12-12T13:53:14.812Z</time>
      </trkpt>
      <trkpt lat="48.21766" lon="-3.09092">
        <ele>240.03629</ele>
        <time>2022-12-12T13:53:17.810Z</time>
      </trkpt>
      <trkpt lat="48.21763" lon="-3.09078">
        <ele>240.184328</ele>
        <time>2022-12-12T13:53:20.799Z</time>
      </trkpt>
      <trkpt lat="48.21761" lon="-3.09064">
        <ele>240.328262</ele>
        <time>2022-12-12T13:53:23.812Z</time>
      </trkpt>
      <trkpt lat="48.21758" lon="-3.09047">
        <ele>240.504877</ele>
        <time>2022-12-12T13:53:27.809Z</time>
      </trkpt>
      <trkpt lat="48.21756" lon="-3.0903">
        <ele>240.671769</ele>
        <time>2022-12-12T13:53:31.809Z</time>
      </trkpt>
      <trkpt lat="48.21754" lon="-3.09014">
        <ele>240.843883</ele>
        <time>2022-12-12T13:53:35.794Z</time>
      </trkpt>
      <trkpt lat="48.21752" lon="-3.08997">
        <ele>241.015441</ele>
        <time>2022-12-12T13:53:39.797Z</time>
      </trkpt>
      <trkpt lat="48.2175" lon="-3.08983">
        <ele>241.152566</ele>
        <time>2022-12-12T13:53:42.808Z</time>
      </trkpt>
      <trkpt lat="48.21748" lon="-3.08968">
        <ele>241.310996</ele>
        <time>2022-12-12T13:53:46.815Z</time>
      </trkpt>
      <trkpt lat="48.21747" lon="-3.08953">
        <ele>241.463694</ele>
        <time>2022-12-12T13:53:49.802Z</time>
      </trkpt>
      <trkpt lat="48.21745" lon="-3.08936">
        <ele>241.632095</ele>
        <time>2022-12-12T13:53:52.822Z</time>
      </trkpt>
      <trkpt lat="48.21744" lon="-3.08922">
        <ele>241.775632</ele>
        <time>2022-12-12T13:53:55.820Z</time>
      </trkpt>
      <trkpt lat="48.21743" lon="-3.08908">
        <ele>241.900841</ele>
        <time>2022-12-12T13:53:58.819Z</time>
      </trkpt>
      <trkpt lat="48.21742" lon="-3.08893">
        <ele>241.916703</ele>
        <time>2022-12-12T13:54:01.814Z</time>
      </trkpt>
      <trkpt lat="48.21742" lon="-3.08878">
        <ele>241.93194</ele>
        <time>2022-12-12T13:54:04.794Z</time>
      </trkpt>
      <trkpt lat="48.21742" lon="-3.08863">
        <ele>241.947396</ele>
        <time>2022-12-12T13:54:07.812Z</time>
      </trkpt>
      <trkpt lat="48.21742" lon="-3.08847">
        <ele>241.963548</ele>
        <time>2022-12-12T13:54:10.789Z</time>
      </trkpt>
      <trkpt lat="48.21743" lon="-3.08833">
        <ele>241.978004</ele>
        <time>2022-12-12T13:54:13.795Z</time>
      </trkpt>
      <trkpt lat="48.21745" lon="-3.08817">
        <ele>241.993568</ele>
        <time>2022-12-12T13:54:17.814Z</time>
      </trkpt>
      <trkpt lat="48.21746" lon="-3.088">
        <ele>242.011287</ele>
        <time>2022-12-12T13:54:21.809Z</time>
      </trkpt>
      <trkpt lat="48.21748" lon="-3.08786">
        <ele>242.025564</ele>
        <time>2022-12-12T13:54:24.815Z</time>
      </trkpt>
      <trkpt lat="48.21749" lon="-3.08771">
        <ele>242.040872</ele>
        <time>2022-12-12T13:54:27.805Z</time>
      </trkpt>
      <trkpt lat="48.21752" lon="-3.08757">
        <ele>242.056378</ele>
        <time>2022-12-12T13:54:30.807Z</time>
      </trkpt>
      <trkpt lat="48.21754" lon="-3.08743">
        <ele>242.070523</ele>
        <time>2022-12-12T13:54:33.815Z</time>
      </trkpt>
      <trkpt lat="48.21758" lon="-3.0873">
        <ele>242.084447</ele>
        <time>2022-12-12T13:54:37.816Z</time>
      </trkpt>
      <trkpt lat="48.2176" lon="-3.08715">
        <ele>242.100309</ele>
        <time>2022-12-12T13:54:41.825Z</time>
      </trkpt>
      <trkpt lat="48.21764" lon="-3.08699">
        <ele>242.117462</ele>
        <time>2022-12-12T13:54:45.814Z</time>
      </trkpt>
      <trkpt lat="48.21767" lon="-3.08686">
        <ele>242.131702</ele>
        <time>2022-12-12T13:54:48.813Z</time>
      </trkpt>
      <trkpt lat="48.21771" lon="-3.08673">
        <ele>242.146245</ele>
        <time>2022-12-12T13:54:51.820Z</time>
      </trkpt>
      <trkpt lat="48.21775" lon="-3.08659">
        <ele>242.162184</ele>
        <time>2022-12-12T13:54:54.815Z</time>
      </trkpt>
      <trkpt lat="48.21779" lon="-3.08646">
        <ele>242.177841</ele>
        <time>2022-12-12T13:54:57.807Z</time>
      </trkpt>
      <trkpt lat="48.21781" lon="-3.08633">
        <ele>242.200262</ele>
        <time>2022-12-12T13:55:01.810Z</time>
      </trkpt>
      <trkpt lat="48.21786" lon="-3.0862">
        <ele>242.224513</ele>
        <time>2022-12-12T13:55:06.819Z</time>
      </trkpt>
      <trkpt lat="48.2179" lon="-3.08607">
        <ele>242.248272</ele>
        <time>2022-12-12T13:55:11.792Z</time>
      </trkpt>
      <trkpt lat="48.21796" lon="-3.08594">
        <ele>242.272992</ele>
        <time>2022-12-12T13:55:15.810Z</time>
      </trkpt>
      <trkpt lat="48.21801" lon="-3.08581">
        <ele>242.297101</ele>
        <time>2022-12-12T13:55:19.809Z</time>
      </trkpt>
      <trkpt lat="48.21805" lon="-3.08565">
        <ele>242.325732</ele>
        <time>2022-12-12T13:55:23.817Z</time>
      </trkpt>
      <trkpt lat="48.21809" lon="-3.08553">
        <ele>242.347752</ele>
        <time>2022-12-12T13:55:26.813Z</time>
      </trkpt>
      <trkpt lat="48.21814" lon="-3.08536">
        <ele>242.376979</ele>
        <time>2022-12-12T13:55:30.815Z</time>
      </trkpt>
      <trkpt lat="48.21818" lon="-3.08524">
        <ele>242.399788</ele>
        <time>2022-12-12T13:55:33.810Z</time>
      </trkpt>
      <trkpt lat="48.21822" lon="-3.08511">
        <ele>242.422923</ele>
        <time>2022-12-12T13:55:36.814Z</time>
      </trkpt>
      <trkpt lat="48.21828" lon="-3.08496">
        <ele>242.451626</ele>
        <time>2022-12-12T13:55:40.824Z</time>
      </trkpt>
      <trkpt lat="48.21833" lon="-3.08482">
        <ele>242.476883</ele>
        <time>2022-12-12T13:55:44.822Z</time>
      </trkpt>
      <trkpt lat="48.21838" lon="-3.08467">
        <ele>242.504396</ele>
        <time>2022-12-12T13:55:48.812Z</time>
      </trkpt>
      <trkpt lat="48.21842" lon="-3.08453">
        <ele>242.529539</ele>
        <time>2022-12-12T13:55:51.819Z</time>
      </trkpt>
      <trkpt lat="48.21848" lon="-3.0844">
        <ele>242.554842</ele>
        <time>2022-12-12T13:55:54.809Z</time>
      </trkpt>
      <trkpt lat="48.21852" lon="-3.08426">
        <ele>242.579363</ele>
        <time>2022-12-12T13:55:57.809Z</time>
      </trkpt>
      <trkpt lat="48.21855" lon="-3.08413">
        <ele>242.60337</ele>
        <time>2022-12-12T13:56:00.809Z</time>
      </trkpt>
      <trkpt lat="48.21861" lon="-3.08398">
        <ele>242.761562</ele>
        <time>2022-12-12T13:56:04.797Z</time>
      </trkpt>
      <trkpt lat="48.21865" lon="-3.08385">
        <ele>242.961756</ele>
        <time>2022-12-12T13:56:07.823Z</time>
      </trkpt>
      <trkpt lat="48.21869" lon="-3.08372">
        <ele>243.178057</ele>
        <time>2022-12-12T13:56:10.813Z</time>
      </trkpt>
      <trkpt lat="48.21873" lon="-3.08357">
        <ele>243.404796</ele>
        <time>2022-12-12T13:56:13.811Z</time>
      </trkpt>
      <trkpt lat="48.21877" lon="-3.08342">
        <ele>243.636725</ele>
        <time>2022-12-12T13:56:16.806Z</time>
      </trkpt>
      <trkpt lat="48.21882" lon="-3.08327">
        <ele>243.877417</ele>
        <time>2022-12-12T13:56:20.795Z</time>
      </trkpt>
      <trkpt lat="48.21885" lon="-3.08314">
        <ele>244.075096</ele>
        <time>2022-12-12T13:56:23.815Z</time>
      </trkpt>
      <trkpt lat="48.21888" lon="-3.08301">
        <ele>244.277556</ele>
        <time>2022-12-12T13:56:26.792Z</time>
      </trkpt>
      <trkpt lat="48.21892" lon="-3.08286">
        <ele>244.500443</ele>
        <time>2022-12-12T13:56:31.810Z</time>
      </trkpt>
      <trkpt lat="48.21896" lon="-3.08271">
        <ele>244.742529</ele>
        <time>2022-12-12T13:56:36.799Z</time>
      </trkpt>
      <trkpt lat="48.21899" lon="-3.08256">
        <ele>244.968829</ele>
        <time>2022-12-12T13:56:39.812Z</time>
      </trkpt>
      <trkpt lat="48.21902" lon="-3.08242">
        <ele>245.175703</ele>
        <time>2022-12-12T13:56:42.822Z</time>
      </trkpt>
      <trkpt lat="48.21905" lon="-3.08226">
        <ele>245.416504</ele>
        <time>2022-12-12T13:56:46.811Z</time>
      </trkpt>
      <trkpt lat="48.21908" lon="-3.08209">
        <ele>245.673363</ele>
        <time>2022-12-12T13:56:50.820Z</time>
      </trkpt>
      <trkpt lat="48.21909" lon="-3.08192">
        <ele>245.919234</ele>
        <time>2022-12-12T13:56:54.809Z</time>
      </trkpt>
      <trkpt lat="48.2191" lon="-3.08177">
        <ele>246.136312</ele>
        <time>2022-12-12T13:56:57.812Z</time>
      </trkpt>
      <trkpt lat="48.21912" lon="-3.08162">
        <ele>246.353143</ele>
        <time>2022-12-12T13:57:00.811Z</time>
      </trkpt>
      <trkpt lat="48.21912" lon="-3.08147">
        <ele>246.508319</ele>
        <time>2022-12-12T13:57:03.792Z</time>
      </trkpt>
      <trkpt lat="48.21913" lon="-3.08133">
        <ele>246.557583</ele>
        <time>2022-12-12T13:57:06.802Z</time>
      </trkpt>
      <trkpt lat="48.21913" lon="-3.08115">
        <ele>246.617561</ele>
        <time>2022-12-12T13:57:10.814Z</time>
      </trkpt>
      <trkpt lat="48.21914" lon="-3.081">
        <ele>246.669789</ele>
        <time>2022-12-12T13:57:13.810Z</time>
      </trkpt>
      <trkpt lat="48.21915" lon="-3.08082">
        <ele>246.729197</ele>
        <time>2022-12-12T13:57:17.817Z</time>
      </trkpt>
      <trkpt lat="48.21915" lon="-3.08068">
        <ele>246.77969</ele>
        <time>2022-12-12T13:57:20.796Z</time>
      </trkpt>
      <trkpt lat="48.21914" lon="-3.08052">
        <ele>246.83406</ele>
        <time>2022-12-12T13:57:23.792Z</time>
      </trkpt>
      <trkpt lat="48.21913" lon="-3.08036">
        <ele>246.888057</ele>
        <time>2022-12-12T13:57:26.822Z</time>
      </trkpt>
      <trkpt lat="48.21913" lon="-3.0802">
        <ele>246.94062</ele>
        <time>2022-12-12T13:57:29.811Z</time>
      </trkpt>
      <trkpt lat="48.21913" lon="-3.08006">
        <ele>246.988468</ele>
        <time>2022-12-12T13:57:32.810Z</time>
      </trkpt>
      <trkpt lat="48.21912" lon="-3.07989">
        <ele>247.044905</ele>
        <time>2022-12-12T13:57:36.809Z</time>
      </trkpt>
      <trkpt lat="48.2191" lon="-3.07973">
        <ele>247.099992</ele>
        <time>2022-12-12T13:57:40.793Z</time>
      </trkpt>
      <trkpt lat="48.2191" lon="-3.07958">
        <ele>247.153204</ele>
        <time>2022-12-12T13:57:44.797Z</time>
      </trkpt>
      <trkpt lat="48.21908" lon="-3.07943">
        <ele>247.203677</ele>
        <time>2022-12-12T13:57:47.812Z</time>
      </trkpt>
      <trkpt lat="48.21906" lon="-3.07928">
        <ele>247.254845</ele>
        <time>2022-12-12T13:57:50.807Z</time>
      </trkpt>
      <trkpt lat="48.21904" lon="-3.07914">
        <ele>247.305144</ele>
        <time>2022-12-12T13:57:53.796Z</time>
      </trkpt>
      <trkpt lat="48.21901" lon="-3.07901">
        <ele>247.35241</ele>
        <time>2022-12-12T13:57:56.815Z</time>
      </trkpt>
      <trkpt lat="48.21898" lon="-3.07886">
        <ele>247.402916</ele>
        <time>2022-12-12T13:57:59.823Z</time>
      </trkpt>
      <trkpt lat="48.21895" lon="-3.07872">
        <ele>247.505984</ele>
        <time>2022-12-12T13:58:02.815Z</time>
      </trkpt>
      <trkpt lat="48.21892" lon="-3.07857">
        <ele>247.613539</ele>
        <time>2022-12-12T13:58:05.810Z</time>
      </trkpt>
      <trkpt lat="48.2189" lon="-3.07842">
        <ele>247.721964</ele>
        <time>2022-12-12T13:58:08.815Z</time>
      </trkpt>
      <trkpt lat="48.21886" lon="-3.07827">
        <ele>247.836323</ele>
        <time>2022-12-12T13:58:11.793Z</time>
      </trkpt>
      <trkpt lat="48.21884" lon="-3.07811">
        <ele>247.948548</ele>
        <time>2022-12-12T13:58:14.812Z</time>
      </trkpt>
      <trkpt lat="48.21881" lon="-3.07795">
        <ele>248.069226</ele>
        <time>2022-12-12T13:58:17.824Z</time>
      </trkpt>
      <trkpt lat="48.21878" lon="-3.0778">
        <ele>248.174569</ele>
        <time>2022-12-12T13:58:20.802Z</time>
      </trkpt>
      <trkpt lat="48.21874" lon="-3.07763">
        <ele>248.300938</ele>
        <time>2022-12-12T13:58:24.810Z</time>
      </trkpt>
      <trkpt lat="48.21871" lon="-3.07748">
        <ele>248.4126</ele>
        <time>2022-12-12T13:58:27.823Z</time>
      </trkpt>
      <trkpt lat="48.21868" lon="-3.07732">
        <ele>248.531498</ele>
        <time>2022-12-12T13:58:30.829Z</time>
      </trkpt>
      <trkpt lat="48.21865" lon="-3.07716">
        <ele>248.646452</ele>
        <time>2022-12-12T13:58:33.816Z</time>
      </trkpt>
      <trkpt lat="48.21862" lon="-3.07698">
        <ele>248.778984</ele>
        <time>2022-12-12T13:58:36.799Z</time>
      </trkpt>
      <trkpt lat="48.21858" lon="-3.07681">
        <ele>248.905422</ele>
        <time>2022-12-12T13:58:39.813Z</time>
      </trkpt>
      <trkpt lat="48.21856" lon="-3.07666">
        <ele>249.01026</ele>
        <time>2022-12-12T13:58:42.821Z</time>
      </trkpt>
      <trkpt lat="48.21854" lon="-3.07652">
        <ele>249.116278</ele>
        <time>2022-12-12T13:58:45.805Z</time>
      </trkpt>
      <trkpt lat="48.21851" lon="-3.07638">
        <ele>249.221422</ele>
        <time>2022-12-12T13:58:48.797Z</time>
      </trkpt>
      <trkpt lat="48.21849" lon="-3.07622">
        <ele>249.303743</ele>
        <time>2022-12-12T13:58:51.802Z</time>
      </trkpt>
      <trkpt lat="48.21847" lon="-3.07606">
        <ele>249.273442</ele>
        <time>2022-12-12T13:58:54.812Z</time>
      </trkpt>
      <trkpt lat="48.21846" lon="-3.07589">
        <ele>249.239599</ele>
        <time>2022-12-12T13:58:57.813Z</time>
      </trkpt>
      <trkpt lat="48.21845" lon="-3.07572">
        <ele>249.206571</ele>
        <time>2022-12-12T13:59:00.813Z</time>
      </trkpt>
      <trkpt lat="48.21844" lon="-3.07555">
        <ele>249.174788</ele>
        <time>2022-12-12T13:59:03.815Z</time>
      </trkpt>
      <trkpt lat="48.21843" lon="-3.07537">
        <ele>249.140401</ele>
        <time>2022-12-12T13:59:07.824Z</time>
      </trkpt>
      <trkpt lat="48.21842" lon="-3.07521">
        <ele>249.109937</ele>
        <time>2022-12-12T13:59:10.811Z</time>
      </trkpt>
      <trkpt lat="48.21843" lon="-3.07505">
        <ele>249.07831</ele>
        <time>2022-12-12T13:59:13.813Z</time>
      </trkpt>
      <trkpt lat="48.21843" lon="-3.07488">
        <ele>249.046161</ele>
        <time>2022-12-12T13:59:16.809Z</time>
      </trkpt>
      <trkpt lat="48.21843" lon="-3.07471">
        <ele>249.012871</ele>
        <time>2022-12-12T13:59:19.819Z</time>
      </trkpt>
      <trkpt lat="48.21844" lon="-3.07455">
        <ele>248.982941</ele>
        <time>2022-12-12T13:59:22.814Z</time>
      </trkpt>
      <trkpt lat="48.21845" lon="-3.07439">
        <ele>248.952932</ele>
        <time>2022-12-12T13:59:25.822Z</time>
      </trkpt>
      <trkpt lat="48.21846" lon="-3.07423">
        <ele>248.922001</ele>
        <time>2022-12-12T13:59:28.824Z</time>
      </trkpt>
      <trkpt lat="48.21847" lon="-3.07406">
        <ele>248.888854</ele>
        <time>2022-12-12T13:59:31.811Z</time>
      </trkpt>
      <trkpt lat="48.21848" lon="-3.07388">
        <ele>248.853581</ele>
        <time>2022-12-12T13:59:34.801Z</time>
      </trkpt>
      <trkpt lat="48.21849" lon="-3.0737">
        <ele>248.818881</ele>
        <time>2022-12-12T13:59:37.820Z</time>
      </trkpt>
      <trkpt lat="48.2185" lon="-3.07353">
        <ele>248.799788</ele>
        <time>2022-12-12T13:59:40.812Z</time>
      </trkpt>
      <trkpt lat="48.21851" lon="-3.07338">
        <ele>248.82325</ele>
        <time>2022-12-12T13:59:43.825Z</time>
      </trkpt>
      <trkpt lat="48.21852" lon="-3.07322">
        <ele>248.848744</ele>
        <time>2022-12-12T13:59:46.818Z</time>
      </trkpt>
      <trkpt lat="48.21853" lon="-3.07304">
        <ele>248.878235</ele>
        <time>2022-12-12T13:59:49.825Z</time>
      </trkpt>
      <trkpt lat="48.21854" lon="-3.07288">
        <ele>248.903916</ele>
        <time>2022-12-12T13:59:52.821Z</time>
      </trkpt>
      <trkpt lat="48.21855" lon="-3.07272">
        <ele>248.930511</ele>
        <time>2022-12-12T13:59:55.812Z</time>
      </trkpt>
      <trkpt lat="48.21856" lon="-3.07256">
        <ele>248.955745</ele>
        <time>2022-12-12T13:59:58.815Z</time>
      </trkpt>
      <trkpt lat="48.21857" lon="-3.07242">
        <ele>248.979906</ele>
        <time>2022-12-12T14:00:01.818Z</time>
      </trkpt>
      <trkpt lat="48.21858" lon="-3.07225">
        <ele>249.006823</ele>
        <time>2022-12-12T14:00:04.800Z</time>
      </trkpt>
      <trkpt lat="48.21858" lon="-3.07209">
        <ele>249.033056</ele>
        <time>2022-12-12T14:00:07.816Z</time>
      </trkpt>
      <trkpt lat="48.21859" lon="-3.07193">
        <ele>249.058254</ele>
        <time>2022-12-12T14:00:10.822Z</time>
      </trkpt>
      <trkpt lat="48.21857" lon="-3.07177">
        <ele>249.084027</ele>
        <time>2022-12-12T14:00:13.795Z</time>
      </trkpt>
      <trkpt lat="48.21857" lon="-3.07161">
        <ele>249.111013</ele>
        <time>2022-12-12T14:00:16.799Z</time>
      </trkpt>
      <trkpt lat="48.21858" lon="-3.07143">
        <ele>249.139117</ele>
        <time>2022-12-12T14:00:19.811Z</time>
      </trkpt>
      <trkpt lat="48.21856" lon="-3.07128">
        <ele>249.163457</ele>
        <time>2022-12-12T14:00:22.806Z</time>
      </trkpt>
      <trkpt lat="48.21853" lon="-3.07112">
        <ele>249.191327</ele>
        <time>2022-12-12T14:00:26.814Z</time>
      </trkpt>
      <trkpt lat="48.21851" lon="-3.07094">
        <ele>249.220142</ele>
        <time>2022-12-12T14:00:29.795Z</time>
      </trkpt>
      <trkpt lat="48.2185" lon="-3.07076">
        <ele>249.116138</ele>
        <time>2022-12-12T14:00:32.805Z</time>
      </trkpt>
      <trkpt lat="48.21849" lon="-3.07061">
        <ele>248.972414</ele>
        <time>2022-12-12T14:00:35.804Z</time>
      </trkpt>
      <trkpt lat="48.21847" lon="-3.07044">
        <ele>248.809222</ele>
        <time>2022-12-12T14:00:39.815Z</time>
      </trkpt>
      <trkpt lat="48.21844" lon="-3.0703">
        <ele>248.666212</ele>
        <time>2022-12-12T14:00:42.794Z</time>
      </trkpt>
      <trkpt lat="48.2184" lon="-3.07014">
        <ele>248.506096</ele>
        <time>2022-12-12T14:00:45.806Z</time>
      </trkpt>
      <trkpt lat="48.21836" lon="-3.06998">
        <ele>248.34358</ele>
        <time>2022-12-12T14:00:48.824Z</time>
      </trkpt>
      <trkpt lat="48.21832" lon="-3.06982">
        <ele>248.176072</ele>
        <time>2022-12-12T14:00:51.810Z</time>
      </trkpt>
      <trkpt lat="48.21827" lon="-3.06966">
        <ele>248.014625</ele>
        <time>2022-12-12T14:00:54.821Z</time>
      </trkpt>
      <trkpt lat="48.21823" lon="-3.06953">
        <ele>247.878304</ele>
        <time>2022-12-12T14:00:57.817Z</time>
      </trkpt>
      <trkpt lat="48.21819" lon="-3.06941">
        <ele>247.7498</ele>
        <time>2022-12-12T14:01:00.821Z</time>
      </trkpt>
      <trkpt lat="48.21814" lon="-3.06928">
        <ele>247.608067</ele>
        <time>2022-12-12T14:01:03.810Z</time>
      </trkpt>
      <trkpt lat="48.21809" lon="-3.06915">
        <ele>247.459603</ele>
        <time>2022-12-12T14:01:06.815Z</time>
      </trkpt>
      <trkpt lat="48.21803" lon="-3.06901">
        <ele>247.307283</ele>
        <time>2022-12-12T14:01:09.815Z</time>
      </trkpt>
      <trkpt lat="48.21797" lon="-3.06887">
        <ele>247.150188</ele>
        <time>2022-12-12T14:01:12.811Z</time>
      </trkpt>
      <trkpt lat="48.21791" lon="-3.06873">
        <ele>246.993899</ele>
        <time>2022-12-12T14:01:15.817Z</time>
      </trkpt>
      <trkpt lat="48.21786" lon="-3.06861">
        <ele>246.854121</ele>
        <time>2022-12-12T14:01:18.807Z</time>
      </trkpt>
      <trkpt lat="48.21778" lon="-3.06848">
        <ele>246.692525</ele>
        <time>2022-12-12T14:01:22.801Z</time>
      </trkpt>
      <trkpt lat="48.21772" lon="-3.06838">
        <ele>246.755202</ele>
        <time>2022-12-12T14:01:25.794Z</time>
      </trkpt>
      <trkpt lat="48.21765" lon="-3.06827">
        <ele>246.863826</ele>
        <time>2022-12-12T14:01:28.824Z</time>
      </trkpt>
      <trkpt lat="48.21758" lon="-3.06815">
        <ele>246.98333</ele>
        <time>2022-12-12T14:01:31.810Z</time>
      </trkpt>
      <trkpt lat="48.2175" lon="-3.06804">
        <ele>247.105331</ele>
        <time>2022-12-12T14:01:34.807Z</time>
      </trkpt>
      <trkpt lat="48.21744" lon="-3.06794">
        <ele>247.210263</ele>
        <time>2022-12-12T14:01:37.817Z</time>
      </trkpt>
      <trkpt lat="48.21736" lon="-3.06785">
        <ele>247.315149</ele>
        <time>2022-12-12T14:01:40.800Z</time>
      </trkpt>
      <trkpt lat="48.21729" lon="-3.06774">
        <ele>247.434575</ele>
        <time>2022-12-12T14:01:43.820Z</time>
      </trkpt>
      <trkpt lat="48.21721" lon="-3.06763">
        <ele>247.554312</ele>
        <time>2022-12-12T14:01:46.811Z</time>
      </trkpt>
      <trkpt lat="48.21713" lon="-3.06752">
        <ele>247.675207</ele>
        <time>2022-12-12T14:01:49.823Z</time>
      </trkpt>
      <trkpt lat="48.21705" lon="-3.06742">
        <ele>247.789803</ele>
        <time>2022-12-12T14:01:52.824Z</time>
      </trkpt>
      <trkpt lat="48.21697" lon="-3.06732">
        <ele>247.905887</ele>
        <time>2022-12-12T14:01:55.811Z</time>
      </trkpt>
      <trkpt lat="48.21689" lon="-3.06721">
        <ele>248.030531</ele>
        <time>2022-12-12T14:01:58.824Z</time>
      </trkpt>
      <trkpt lat="48.21681" lon="-3.0671">
        <ele>248.150444</ele>
        <time>2022-12-12T14:02:01.816Z</time>
      </trkpt>
      <trkpt lat="48.21674" lon="-3.06701">
        <ele>248.252809</ele>
        <time>2022-12-12T14:02:04.822Z</time>
      </trkpt>
      <trkpt lat="48.21665" lon="-3.06689">
        <ele>248.384851</ele>
        <time>2022-12-12T14:02:08.815Z</time>
      </trkpt>
      <trkpt lat="48.21658" lon="-3.06679">
        <ele>248.489496</ele>
        <time>2022-12-12T14:02:11.825Z</time>
      </trkpt>
      <trkpt lat="48.2165" lon="-3.06669">
        <ele>248.607591</ele>
        <time>2022-12-12T14:02:14.808Z</time>
      </trkpt>
      <trkpt lat="48.21642" lon="-3.06657">
        <ele>248.676733</ele>
        <time>2022-12-12T14:02:17.815Z</time>
      </trkpt>
      <trkpt lat="48.21635" lon="-3.06646">
        <ele>248.675599</ele>
        <time>2022-12-12T14:02:20.818Z</time>
      </trkpt>
      <trkpt lat="48.21626" lon="-3.06635">
        <ele>248.674415</ele>
        <time>2022-12-12T14:02:23.825Z</time>
      </trkpt>
      <trkpt lat="48.21618" lon="-3.06624">
        <ele>248.673201</ele>
        <time>2022-12-12T14:02:26.824Z</time>
      </trkpt>
      <trkpt lat="48.2161" lon="-3.06614">
        <ele>248.67207</ele>
        <time>2022-12-12T14:02:29.823Z</time>
      </trkpt>
      <trkpt lat="48.21601" lon="-3.06602">
        <ele>248.670801</ele>
        <time>2022-12-12T14:02:33.823Z</time>
      </trkpt>
      <trkpt lat="48.21594" lon="-3.06593">
        <ele>248.669804</ele>
        <time>2022-12-12T14:02:36.818Z</time>
      </trkpt>
      <trkpt lat="48.21586" lon="-3.06581">
        <ele>248.668658</ele>
        <time>2022-12-12T14:02:39.799Z</time>
      </trkpt>
      <trkpt lat="48.2158" lon="-3.06568">
        <ele>248.667508</ele>
        <time>2022-12-12T14:02:42.816Z</time>
      </trkpt>
      <trkpt lat="48.21572" lon="-3.06556">
        <ele>248.666322</ele>
        <time>2022-12-12T14:02:45.823Z</time>
      </trkpt>
      <trkpt lat="48.21565" lon="-3.06545">
        <ele>248.665216</ele>
        <time>2022-12-12T14:02:48.814Z</time>
      </trkpt>
      <trkpt lat="48.21559" lon="-3.06534">
        <ele>248.664228</ele>
        <time>2022-12-12T14:02:51.823Z</time>
      </trkpt>
      <trkpt lat="48.21553" lon="-3.06521">
        <ele>248.663045</ele>
        <time>2022-12-12T14:02:55.825Z</time>
      </trkpt>
      <trkpt lat="48.21547" lon="-3.06507">
        <ele>248.661927</ele>
        <time>2022-12-12T14:02:59.817Z</time>
      </trkpt>
      <trkpt lat="48.21542" lon="-3.06494">
        <ele>248.660856</ele>
        <time>2022-12-12T14:03:03.805Z</time>
      </trkpt>
      <trkpt lat="48.21537" lon="-3.06477">
        <ele>248.659554</ele>
        <time>2022-12-12T14:03:07.816Z</time>
      </trkpt>
      <trkpt lat="48.21534" lon="-3.06462">
        <ele>248.658414</ele>
        <time>2022-12-12T14:03:10.825Z</time>
      </trkpt>
      <trkpt lat="48.21529" lon="-3.06448">
        <ele>248.584554</ele>
        <time>2022-12-12T14:03:13.816Z</time>
      </trkpt>
      <trkpt lat="48.21525" lon="-3.06432">
        <ele>248.474631</ele>
        <time>2022-12-12T14:03:16.810Z</time>
      </trkpt>
      <trkpt lat="48.21522" lon="-3.06417">
        <ele>248.365534</ele>
        <time>2022-12-12T14:03:19.813Z</time>
      </trkpt>
      <trkpt lat="48.2152" lon="-3.064">
        <ele>248.251212</ele>
        <time>2022-12-12T14:03:22.804Z</time>
      </trkpt>
      <trkpt lat="48.21517" lon="-3.06383">
        <ele>248.134729</ele>
        <time>2022-12-12T14:03:25.810Z</time>
      </trkpt>
      <trkpt lat="48.21515" lon="-3.06368">
        <ele>248.030603</ele>
        <time>2022-12-12T14:03:28.824Z</time>
      </trkpt>
      <trkpt lat="48.21514" lon="-3.06353">
        <ele>247.934262</ele>
        <time>2022-12-12T14:03:31.813Z</time>
      </trkpt>
      <trkpt lat="48.21512" lon="-3.06338">
        <ele>247.829587</ele>
        <time>2022-12-12T14:03:34.824Z</time>
      </trkpt>
      <trkpt lat="48.21512" lon="-3.06321">
        <ele>247.716201</ele>
        <time>2022-12-12T14:03:37.823Z</time>
      </trkpt>
      <trkpt lat="48.21512" lon="-3.06304">
        <ele>247.602179</ele>
        <time>2022-12-12T14:03:40.820Z</time>
      </trkpt>
      <trkpt lat="48.21511" lon="-3.06288">
        <ele>247.499353</ele>
        <time>2022-12-12T14:03:43.818Z</time>
      </trkpt>
      <trkpt lat="48.21512" lon="-3.06271">
        <ele>247.386419</ele>
        <time>2022-12-12T14:03:46.823Z</time>
      </trkpt>
      <trkpt lat="48.21513" lon="-3.06253">
        <ele>247.263364</ele>
        <time>2022-12-12T14:03:49.815Z</time>
      </trkpt>
      <trkpt lat="48.21515" lon="-3.06237">
        <ele>247.153814</ele>
        <time>2022-12-12T14:03:52.798Z</time>
      </trkpt>
      <trkpt lat="48.21517" lon="-3.06222">
        <ele>247.050567</ele>
        <time>2022-12-12T14:03:55.822Z</time>
      </trkpt>
      <trkpt lat="48.21519" lon="-3.06204">
        <ele>246.932958</ele>
        <time>2022-12-12T14:03:58.813Z</time>
      </trkpt>
      <trkpt lat="48.21522" lon="-3.06187">
        <ele>246.878228</ele>
        <time>2022-12-12T14:04:01.796Z</time>
      </trkpt>
      <trkpt lat="48.21526" lon="-3.06168">
        <ele>246.935484</ele>
        <time>2022-12-12T14:04:04.815Z</time>
      </trkpt>
      <trkpt lat="48.21527" lon="-3.06155">
        <ele>246.97608</ele>
        <time>2022-12-12T14:04:07.795Z</time>
      </trkpt>
      <trkpt lat="48.21532" lon="-3.06139">
        <ele>247.024793</ele>
        <time>2022-12-12T14:04:10.814Z</time>
      </trkpt>
      <trkpt lat="48.21537" lon="-3.06124">
        <ele>247.075173</ele>
        <time>2022-12-12T14:04:13.815Z</time>
      </trkpt>
      <trkpt lat="48.21543" lon="-3.06108">
        <ele>247.128792</ele>
        <time>2022-12-12T14:04:16.802Z</time>
      </trkpt>
      <trkpt lat="48.21549" lon="-3.06093">
        <ele>247.179382</ele>
        <time>2022-12-12T14:04:19.797Z</time>
      </trkpt>
      <trkpt lat="48.21553" lon="-3.06078">
        <ele>247.22785</ele>
        <time>2022-12-12T14:04:23.817Z</time>
      </trkpt>
      <trkpt lat="48.21558" lon="-3.06064">
        <ele>247.27058</ele>
        <time>2022-12-12T14:04:26.816Z</time>
      </trkpt>
      <trkpt lat="48.21566" lon="-3.0605">
        <ele>247.325753</ele>
        <time>2022-12-12T14:04:29.798Z</time>
      </trkpt>
      <trkpt lat="48.21575" lon="-3.06036">
        <ele>247.382155</ele>
        <time>2022-12-12T14:04:32.800Z</time>
      </trkpt>
      <trkpt lat="48.21581" lon="-3.06025">
        <ele>247.424288</ele>
        <time>2022-12-12T14:04:35.799Z</time>
      </trkpt>
      <trkpt lat="48.21588" lon="-3.06012">
        <ele>247.47154</ele>
        <time>2022-12-12T14:04:38.819Z</time>
      </trkpt>
      <trkpt lat="48.21595" lon="-3.05996">
        <ele>247.528568</ele>
        <time>2022-12-12T14:04:41.802Z</time>
      </trkpt>
      <trkpt lat="48.21601" lon="-3.05981">
        <ele>247.581167</ele>
        <time>2022-12-12T14:04:44.797Z</time>
      </trkpt>
      <trkpt lat="48.21608" lon="-3.05967">
        <ele>247.627956</ele>
        <time>2022-12-12T14:04:47.817Z</time>
      </trkpt>
      <trkpt lat="48.21616" lon="-3.05955">
        <ele>247.424099</ele>
        <time>2022-12-12T14:04:50.803Z</time>
      </trkpt>
      <trkpt lat="48.21621" lon="-3.05942">
        <ele>247.136266</ele>
        <time>2022-12-12T14:04:53.796Z</time>
      </trkpt>
      <trkpt lat="48.21627" lon="-3.05929">
        <ele>246.840499</ele>
        <time>2022-12-12T14:04:56.822Z</time>
      </trkpt>
      <trkpt lat="48.21633" lon="-3.05915">
        <ele>246.518304</ele>
        <time>2022-12-12T14:05:00.790Z</time>
      </trkpt>
      <trkpt lat="48.21638" lon="-3.05901">
        <ele>246.232933</ele>
        <time>2022-12-12T14:05:03.797Z</time>
      </trkpt>
      <trkpt lat="48.21645" lon="-3.05887">
        <ele>245.901219</ele>
        <time>2022-12-12T14:05:06.826Z</time>
      </trkpt>
      <trkpt lat="48.21652" lon="-3.05875">
        <ele>245.599389</ele>
        <time>2022-12-12T14:05:09.821Z</time>
      </trkpt>
      <trkpt lat="48.21658" lon="-3.05863">
        <ele>245.331519</ele>
        <time>2022-12-12T14:05:12.823Z</time>
      </trkpt>
      <trkpt lat="48.21663" lon="-3.0585">
        <ele>245.046149</ele>
        <time>2022-12-12T14:05:15.797Z</time>
      </trkpt>
      <trkpt lat="48.21668" lon="-3.05836">
        <ele>244.739079</ele>
        <time>2022-12-12T14:05:18.812Z</time>
      </trkpt>
      <trkpt lat="48.21672" lon="-3.05822">
        <ele>244.458442</ele>
        <time>2022-12-12T14:05:21.799Z</time>
      </trkpt>
      <trkpt lat="48.21676" lon="-3.05807">
        <ele>244.158798</ele>
        <time>2022-12-12T14:05:24.813Z</time>
      </trkpt>
      <trkpt lat="48.21679" lon="-3.05792">
        <ele>243.858186</ele>
        <time>2022-12-12T14:05:27.804Z</time>
      </trkpt>
      <trkpt lat="48.21684" lon="-3.05778">
        <ele>243.564477</ele>
        <time>2022-12-12T14:05:30.813Z</time>
      </trkpt>
      <trkpt lat="48.21687" lon="-3.05762">
        <ele>243.255836</ele>
        <time>2022-12-12T14:05:33.812Z</time>
      </trkpt>
      <trkpt lat="48.2169" lon="-3.05747">
        <ele>242.951269</ele>
        <time>2022-12-12T14:05:37.824Z</time>
      </trkpt>
      <trkpt lat="48.21692" lon="-3.05733">
        <ele>242.684306</ele>
        <time>2022-12-12T14:05:40.820Z</time>
      </trkpt>
      <trkpt lat="48.21696" lon="-3.05718">
        <ele>242.376338</ele>
        <time>2022-12-12T14:05:43.822Z</time>
      </trkpt>
      <trkpt lat="48.217" lon="-3.05703">
        <ele>242.053054</ele>
        <time>2022-12-12T14:05:46.821Z</time>
      </trkpt>
      <trkpt lat="48.21703" lon="-3.05688">
        <ele>241.740398</ele>
        <time>2022-12-12T14:05:49.825Z</time>
      </trkpt>
      <trkpt lat="48.21705" lon="-3.05675">
        <ele>241.465037</ele>
        <time>2022-12-12T14:05:53.816Z</time>
      </trkpt>
      <trkpt lat="48.21708" lon="-3.05661">
        <ele>241.162847</ele>
        <time>2022-12-12T14:05:56.824Z</time>
      </trkpt>
      <trkpt lat="48.21708" lon="-3.05646">
        <ele>240.865442</ele>
        <time>2022-12-12T14:05:59.808Z</time>
      </trkpt>
      <trkpt lat="48.21708" lon="-3.05631">
        <ele>240.564019</ele>
        <time>2022-12-12T14:06:02.814Z</time>
      </trkpt>
      <trkpt lat="48.21709" lon="-3.05616">
        <ele>240.2685</ele>
        <time>2022-12-12T14:06:05.815Z</time>
      </trkpt>
      <trkpt lat="48.21712" lon="-3.05602">
        <ele>239.961496</ele>
        <time>2022-12-12T14:06:08.817Z</time>
      </trkpt>
      <trkpt lat="48.21713" lon="-3.05587">
        <ele>239.674241</ele>
        <time>2022-12-12T14:06:11.816Z</time>
      </trkpt>
      <trkpt lat="48.21714" lon="-3.05573">
        <ele>239.386623</ele>
        <time>2022-12-12T14:06:14.825Z</time>
      </trkpt>
      <trkpt lat="48.21716" lon="-3.05558">
        <ele>239.08432</ele>
        <time>2022-12-12T14:06:17.817Z</time>
      </trkpt>
      <trkpt lat="48.21718" lon="-3.05542">
        <ele>238.739015</ele>
        <time>2022-12-12T14:06:20.815Z</time>
      </trkpt>
      <trkpt lat="48.2172" lon="-3.05526">
        <ele>238.425103</ele>
        <time>2022-12-12T14:06:23.817Z</time>
      </trkpt>
      <trkpt lat="48.21721" lon="-3.05512">
        <ele>238.128188</ele>
        <time>2022-12-12T14:06:26.818Z</time>
      </trkpt>
      <trkpt lat="48.21722" lon="-3.05497">
        <ele>237.840175</ele>
        <time>2022-12-12T14:06:29.813Z</time>
      </trkpt>
      <trkpt lat="48.21724" lon="-3.05482">
        <ele>237.520422</ele>
        <time>2022-12-12T14:06:32.822Z</time>
      </trkpt>
      <trkpt lat="48.21728" lon="-3.05467">
        <ele>237.207752</ele>
        <time>2022-12-12T14:06:35.798Z</time>
      </trkpt>
      <trkpt lat="48.21729" lon="-3.05453">
        <ele>236.834931</ele>
        <time>2022-12-12T14:06:38.815Z</time>
      </trkpt>
      <trkpt lat="48.21731" lon="-3.05438">
        <ele>236.405341</ele>
        <time>2022-12-12T14:06:42.810Z</time>
      </trkpt>
      <trkpt lat="48.21731" lon="-3.0542">
        <ele>235.904484</ele>
        <time>2022-12-12T14:06:46.798Z</time>
      </trkpt>
      <trkpt lat="48.2173" lon="-3.05403">
        <ele>235.436251</ele>
        <time>2022-12-12T14:06:50.819Z</time>
      </trkpt>
      <trkpt lat="48.2173" lon="-3.05389">
        <ele>235.060633</ele>
        <time>2022-12-12T14:06:54.823Z</time>
      </trkpt>
      <trkpt lat="48.21728" lon="-3.05375">
        <ele>234.658517</ele>
        <time>2022-12-12T14:06:58.824Z</time>
      </trkpt>
      <trkpt lat="48.21724" lon="-3.05361">
        <ele>234.245433</ele>
        <time>2022-12-12T14:07:02.809Z</time>
      </trkpt>
      <trkpt lat="48.21722" lon="-3.05346">
        <ele>233.805164</ele>
        <time>2022-12-12T14:07:05.814Z</time>
      </trkpt>
      <trkpt lat="48.21719" lon="-3.05332">
        <ele>233.412164</ele>
        <time>2022-12-12T14:07:08.817Z</time>
      </trkpt>
      <trkpt lat="48.21715" lon="-3.05317">
        <ele>232.957568</ele>
        <time>2022-12-12T14:07:12.826Z</time>
      </trkpt>
      <trkpt lat="48.2171" lon="-3.05301">
        <ele>232.453047</ele>
        <time>2022-12-12T14:07:16.814Z</time>
      </trkpt>
      <trkpt lat="48.21706" lon="-3.05287">
        <ele>232.036081</ele>
        <time>2022-12-12T14:07:19.823Z</time>
      </trkpt>
      <trkpt lat="48.21701" lon="-3.05272">
        <ele>231.581851</ele>
        <time>2022-12-12T14:07:22.822Z</time>
      </trkpt>
      <trkpt lat="48.21698" lon="-3.05259">
        <ele>231.164877</ele>
        <time>2022-12-12T14:07:25.818Z</time>
      </trkpt>
      <trkpt lat="48.21695" lon="-3.05242">
        <ele>230.689653</ele>
        <time>2022-12-12T14:07:28.817Z</time>
      </trkpt>
      <trkpt lat="48.21691" lon="-3.05226">
        <ele>230.207892</ele>
        <time>2022-12-12T14:07:31.799Z</time>
      </trkpt>
      <trkpt lat="48.21687" lon="-3.05211">
        <ele>229.771183</ele>
        <time>2022-12-12T14:07:34.815Z</time>
      </trkpt>
      <trkpt lat="48.21683" lon="-3.05199">
        <ele>229.627602</ele>
        <time>2022-12-12T14:07:37.814Z</time>
      </trkpt>
      <trkpt lat="48.21678" lon="-3.05184">
        <ele>229.608213</ele>
        <time>2022-12-12T14:07:40.819Z</time>
      </trkpt>
      <trkpt lat="48.21674" lon="-3.05168">
        <ele>229.588317</ele>
        <time>2022-12-12T14:07:43.801Z</time>
      </trkpt>
      <trkpt lat="48.21669" lon="-3.05153">
        <ele>229.5678</ele>
        <time>2022-12-12T14:07:46.822Z</time>
      </trkpt>
      <trkpt lat="48.21665" lon="-3.0514">
        <ele>229.551237</ele>
        <time>2022-12-12T14:07:48.826Z</time>
      </trkpt>
      <trkpt lat="48.2166" lon="-3.05122">
        <ele>229.527644</ele>
        <time>2022-12-12T14:07:51.815Z</time>
      </trkpt>
      <trkpt lat="48.21654" lon="-3.05105">
        <ele>229.505668</ele>
        <time>2022-12-12T14:07:54.821Z</time>
      </trkpt>
      <trkpt lat="48.21649" lon="-3.05089">
        <ele>229.484197</ele>
        <time>2022-12-12T14:07:57.821Z</time>
      </trkpt>
      <trkpt lat="48.21644" lon="-3.05073">
        <ele>229.462996</ele>
        <time>2022-12-12T14:08:00.820Z</time>
      </trkpt>
      <trkpt lat="48.21639" lon="-3.05056">
        <ele>229.441282</ele>
        <time>2022-12-12T14:08:03.812Z</time>
      </trkpt>
      <trkpt lat="48.21634" lon="-3.0504">
        <ele>229.420332</ele>
        <time>2022-12-12T14:08:06.826Z</time>
      </trkpt>
      <trkpt lat="48.21629" lon="-3.05025">
        <ele>229.39963</ele>
        <time>2022-12-12T14:08:09.806Z</time>
      </trkpt>
      <trkpt lat="48.21625" lon="-3.05008">
        <ele>229.377665</ele>
        <time>2022-12-12T14:08:12.816Z</time>
      </trkpt>
      <trkpt lat="48.21619" lon="-3.0499">
        <ele>229.355152</ele>
        <time>2022-12-12T14:08:15.822Z</time>
      </trkpt>
      <trkpt lat="48.21614" lon="-3.04973">
        <ele>229.333187</ele>
        <time>2022-12-12T14:08:18.821Z</time>
      </trkpt>
      <trkpt lat="48.21609" lon="-3.04955">
        <ele>229.190596</ele>
        <time>2022-12-12T14:08:21.805Z</time>
      </trkpt>
      <trkpt lat="48.21604" lon="-3.04938">
        <ele>228.822537</ele>
        <time>2022-12-12T14:08:24.820Z</time>
      </trkpt>
      <trkpt lat="48.21599" lon="-3.04921">
        <ele>228.458465</ele>
        <time>2022-12-12T14:08:27.822Z</time>
      </trkpt>
      <trkpt lat="48.21594" lon="-3.04904">
        <ele>228.099878</ele>
        <time>2022-12-12T14:08:30.815Z</time>
      </trkpt>
      <trkpt lat="48.21588" lon="-3.04887">
        <ele>227.718771</ele>
        <time>2022-12-12T14:08:33.810Z</time>
      </trkpt>
      <trkpt lat="48.21583" lon="-3.0487">
        <ele>227.370224</ele>
        <time>2022-12-12T14:08:36.821Z</time>
      </trkpt>
      <trkpt lat="48.21578" lon="-3.04854">
        <ele>227.01918</ele>
        <time>2022-12-12T14:08:39.812Z</time>
      </trkpt>
      <trkpt lat="48.21573" lon="-3.04837">
        <ele>226.655846</ele>
        <time>2022-12-12T14:08:42.823Z</time>
      </trkpt>
      <trkpt lat="48.21568" lon="-3.04821">
        <ele>226.309698</ele>
        <time>2022-12-12T14:08:45.826Z</time>
      </trkpt>
      <trkpt lat="48.21563" lon="-3.04808">
        <ele>226.025149</ele>
        <time>2022-12-12T14:08:48.825Z</time>
      </trkpt>
      <trkpt lat="48.21558" lon="-3.04794">
        <ele>225.720331</ele>
        <time>2022-12-12T14:08:52.804Z</time>
      </trkpt>
      <trkpt lat="48.21555" lon="-3.04781">
        <ele>225.448302</ele>
        <time>2022-12-12T14:08:55.813Z</time>
      </trkpt>
      <trkpt lat="48.21552" lon="-3.04768">
        <ele>225.169983</ele>
        <time>2022-12-12T14:08:58.816Z</time>
      </trkpt>
      <trkpt lat="48.21548" lon="-3.04755">
        <ele>224.898719</ele>
        <time>2022-12-12T14:09:01.823Z</time>
      </trkpt>
      <trkpt lat="48.21544" lon="-3.04742">
        <ele>224.634614</ele>
        <time>2022-12-12T14:09:04.820Z</time>
      </trkpt>
      <trkpt lat="48.2154" lon="-3.0473">
        <ele>224.361736</ele>
        <time>2022-12-12T14:09:07.820Z</time>
      </trkpt>
      <trkpt lat="48.21536" lon="-3.04717">
        <ele>224.079361</ele>
        <time>2022-12-12T14:09:10.826Z</time>
      </trkpt>
      <trkpt lat="48.21532" lon="-3.04702">
        <ele>224.065113</ele>
        <time>2022-12-12T14:09:13.795Z</time>
      </trkpt>
      <trkpt lat="48.21527" lon="-3.04686">
        <ele>224.054566</ele>
        <time>2022-12-12T14:09:16.818Z</time>
      </trkpt>
      <trkpt lat="48.21521" lon="-3.04666">
        <ele>224.041537</ele>
        <time>2022-12-12T14:09:19.824Z</time>
      </trkpt>
      <trkpt lat="48.21515" lon="-3.04648">
        <ele>224.030004</ele>
        <time>2022-12-12T14:09:22.821Z</time>
      </trkpt>
      <trkpt lat="48.2151" lon="-3.04631">
        <ele>224.019295</ele>
        <time>2022-12-12T14:09:25.813Z</time>
      </trkpt>
      <trkpt lat="48.21505" lon="-3.04615">
        <ele>224.008389</ele>
        <time>2022-12-12T14:09:28.810Z</time>
      </trkpt>
      <trkpt lat="48.215" lon="-3.04597">
        <ele>223.996728</ele>
        <time>2022-12-12T14:09:31.823Z</time>
      </trkpt>
      <trkpt lat="48.21496" lon="-3.04584">
        <ele>223.988683</ele>
        <time>2022-12-12T14:09:33.825Z</time>
      </trkpt>
      <trkpt lat="48.21492" lon="-3.04569">
        <ele>223.978821</ele>
        <time>2022-12-12T14:09:36.823Z</time>
      </trkpt>
      <trkpt lat="48.21488" lon="-3.04556">
        <ele>223.970614</ele>
        <time>2022-12-12T14:09:39.807Z</time>
      </trkpt>
      <trkpt lat="48.21485" lon="-3.04542">
        <ele>223.961886</ele>
        <time>2022-12-12T14:09:42.804Z</time>
      </trkpt>
      <trkpt lat="48.21483" lon="-3.04525">
        <ele>223.951673</ele>
        <time>2022-12-12T14:09:46.827Z</time>
      </trkpt>
      <trkpt lat="48.21481" lon="-3.0451">
        <ele>223.942357</ele>
        <time>2022-12-12T14:09:50.806Z</time>
      </trkpt>
      <trkpt lat="48.21478" lon="-3.04493">
        <ele>223.932051</ele>
        <time>2022-12-12T14:09:54.822Z</time>
      </trkpt>
      <trkpt lat="48.21477" lon="-3.04478">
        <ele>223.923408</ele>
        <time>2022-12-12T14:09:57.810Z</time>
      </trkpt>
      <trkpt lat="48.21476" lon="-3.04463">
        <ele>223.910189</ele>
        <time>2022-12-12T14:10:00.820Z</time>
      </trkpt>
      <trkpt lat="48.21476" lon="-3.04445">
        <ele>223.81032</ele>
        <time>2022-12-12T14:10:04.821Z</time>
      </trkpt>
      <trkpt lat="48.21477" lon="-3.04429">
        <ele>223.723858</ele>
        <time>2022-12-12T14:10:07.811Z</time>
      </trkpt>
      <trkpt lat="48.21478" lon="-3.04412">
        <ele>223.632876</ele>
        <time>2022-12-12T14:10:10.817Z</time>
      </trkpt>
      <trkpt lat="48.21481" lon="-3.04395">
        <ele>223.53291</ele>
        <time>2022-12-12T14:10:13.819Z</time>
      </trkpt>
      <trkpt lat="48.21484" lon="-3.04377">
        <ele>223.432582</ele>
        <time>2022-12-12T14:10:16.809Z</time>
      </trkpt>
      <trkpt lat="48.21486" lon="-3.04358">
        <ele>223.329776</ele>
        <time>2022-12-12T14:10:19.815Z</time>
      </trkpt>
      <trkpt lat="48.21491" lon="-3.04339">
        <ele>223.220019</ele>
        <time>2022-12-12T14:10:22.800Z</time>
      </trkpt>
      <trkpt lat="48.21495" lon="-3.04321">
        <ele>223.114137</ele>
        <time>2022-12-12T14:10:25.808Z</time>
      </trkpt>
      <trkpt lat="48.215" lon="-3.04305">
        <ele>223.014809</ele>
        <time>2022-12-12T14:10:28.813Z</time>
      </trkpt>
      <trkpt lat="48.21506" lon="-3.04289">
        <ele>222.921091</ele>
        <time>2022-12-12T14:10:31.802Z</time>
      </trkpt>
      <trkpt lat="48.2151" lon="-3.04273">
        <ele>222.826328</ele>
        <time>2022-12-12T14:10:34.823Z</time>
      </trkpt>
      <trkpt lat="48.21515" lon="-3.04257">
        <ele>222.729057</ele>
        <time>2022-12-12T14:10:37.820Z</time>
      </trkpt>
      <trkpt lat="48.21521" lon="-3.04241">
        <ele>222.630819</ele>
        <time>2022-12-12T14:10:40.814Z</time>
      </trkpt>
      <trkpt lat="48.21526" lon="-3.04224">
        <ele>222.528319</ele>
        <time>2022-12-12T14:10:43.829Z</time>
      </trkpt>
      <trkpt lat="48.21532" lon="-3.04207">
        <ele>222.436361</ele>
        <time>2022-12-12T14:10:46.811Z</time>
      </trkpt>
      <trkpt lat="48.21537" lon="-3.0419">
        <ele>222.405475</ele>
        <time>2022-12-12T14:10:49.813Z</time>
      </trkpt>
      <trkpt lat="48.21541" lon="-3.04175">
        <ele>222.378248</ele>
        <time>2022-12-12T14:10:52.823Z</time>
      </trkpt>
      <trkpt lat="48.21546" lon="-3.04161">
        <ele>222.351786</ele>
        <time>2022-12-12T14:10:55.808Z</time>
      </trkpt>
      <trkpt lat="48.21552" lon="-3.04145">
        <ele>222.321754</ele>
        <time>2022-12-12T14:10:58.812Z</time>
      </trkpt>
      <trkpt lat="48.21557" lon="-3.04128">
        <ele>222.29011</ele>
        <time>2022-12-12T14:11:01.823Z</time>
      </trkpt>
      <trkpt lat="48.2156" lon="-3.0411">
        <ele>222.259509</ele>
        <time>2022-12-12T14:11:04.816Z</time>
      </trkpt>
      <trkpt lat="48.21562" lon="-3.04094">
        <ele>222.231547</ele>
        <time>2022-12-12T14:11:07.816Z</time>
      </trkpt>
      <trkpt lat="48.21563" lon="-3.04078">
        <ele>222.204697</ele>
        <time>2022-12-12T14:11:10.823Z</time>
      </trkpt>
      <trkpt lat="48.21565" lon="-3.04062">
        <ele>222.178506</ele>
        <time>2022-12-12T14:11:13.804Z</time>
      </trkpt>
      <trkpt lat="48.21566" lon="-3.04045">
        <ele>222.150122</ele>
        <time>2022-12-12T14:11:16.823Z</time>
      </trkpt>
      <trkpt lat="48.21566" lon="-3.04027">
        <ele>222.12026</ele>
        <time>2022-12-12T14:11:19.824Z</time>
      </trkpt>
      <trkpt lat="48.21566" lon="-3.04011">
        <ele>222.093739</ele>
        <time>2022-12-12T14:11:22.821Z</time>
      </trkpt>
      <trkpt lat="48.21565" lon="-3.03994">
        <ele>222.06462</ele>
        <time>2022-12-12T14:11:26.822Z</time>
      </trkpt>
      <trkpt lat="48.21563" lon="-3.03979">
        <ele>222.039879</ele>
        <time>2022-12-12T14:11:30.809Z</time>
      </trkpt>
      <trkpt lat="48.21555" lon="-3.0397">
        <ele>222.016432</ele>
        <time>2022-12-12T14:11:37.795Z</time>
      </trkpt>
      <trkpt lat="48.21551" lon="-3.03969">
        <ele>222.004335</ele>
        <time>2022-12-12T14:12:05.958Z</time>
      </trkpt>
      <trkpt lat="48.2173" lon="-3.02612">
        <ele>211.522421</ele>
        <time>2022-12-12T14:23:37.822Z</time>
      </trkpt>
      <trkpt lat="48.21732" lon="-3.02594">
        <ele>210.850487</ele>
        <time>2022-12-12T14:23:41.802Z</time>
      </trkpt>
      <trkpt lat="48.21736" lon="-3.02579">
        <ele>210.25185</ele>
        <time>2022-12-12T14:23:44.828Z</time>
      </trkpt>
      <trkpt lat="48.2174" lon="-3.02563">
        <ele>209.576321</ele>
        <time>2022-12-12T14:23:47.824Z</time>
      </trkpt>
      <trkpt lat="48.2174" lon="-3.02546">
        <ele>208.954595</ele>
        <time>2022-12-12T14:23:50.810Z</time>
      </trkpt>
      <trkpt lat="48.21738" lon="-3.02528">
        <ele>208.273554</ele>
        <time>2022-12-12T14:23:53.817Z</time>
      </trkpt>
      <trkpt lat="48.21737" lon="-3.0251">
        <ele>207.588963</ele>
        <time>2022-12-12T14:23:56.826Z</time>
      </trkpt>
      <trkpt lat="48.21736" lon="-3.02493">
        <ele>206.944432</ele>
        <time>2022-12-12T14:23:59.808Z</time>
      </trkpt>
      <trkpt lat="48.21733" lon="-3.02476">
        <ele>206.294728</ele>
        <time>2022-12-12T14:24:02.823Z</time>
      </trkpt>
      <trkpt lat="48.21731" lon="-3.02461">
        <ele>205.691278</ele>
        <time>2022-12-12T14:24:05.824Z</time>
      </trkpt>
      <trkpt lat="48.21728" lon="-3.02444">
        <ele>205.057954</ele>
        <time>2022-12-12T14:24:09.819Z</time>
      </trkpt>
      <trkpt lat="48.21724" lon="-3.02431">
        <ele>204.498253</ele>
        <time>2022-12-12T14:24:12.824Z</time>
      </trkpt>
      <trkpt lat="48.21719" lon="-3.02416">
        <ele>203.885191</ele>
        <time>2022-12-12T14:24:15.821Z</time>
      </trkpt>
      <trkpt lat="48.21712" lon="-3.02401">
        <ele>203.211219</ele>
        <time>2022-12-12T14:24:19.820Z</time>
      </trkpt>
      <trkpt lat="48.21705" lon="-3.02384">
        <ele>202.440113</ele>
        <time>2022-12-12T14:24:22.835Z</time>
      </trkpt>
      <trkpt lat="48.21696" lon="-3.02369">
        <ele>202.08041</ele>
        <time>2022-12-12T14:24:25.808Z</time>
      </trkpt>
      <trkpt lat="48.21688" lon="-3.02356">
        <ele>201.810293</ele>
        <time>2022-12-12T14:24:28.824Z</time>
      </trkpt>
      <trkpt lat="48.21679" lon="-3.02341">
        <ele>201.516486</ele>
        <time>2022-12-12T14:24:31.826Z</time>
      </trkpt>
      <trkpt lat="48.21671" lon="-3.02328">
        <ele>201.230168</ele>
        <time>2022-12-12T14:24:34.833Z</time>
      </trkpt>
      <trkpt lat="48.21663" lon="-3.02315">
        <ele>200.975814</ele>
        <time>2022-12-12T14:24:37.829Z</time>
      </trkpt>
      <trkpt lat="48.21655" lon="-3.02302">
        <ele>200.700137</ele>
        <time>2022-12-12T14:24:40.816Z</time>
      </trkpt>
      <trkpt lat="48.21645" lon="-3.02288">
        <ele>200.405857</ele>
        <time>2022-12-12T14:24:43.818Z</time>
      </trkpt>
      <trkpt lat="48.21639" lon="-3.02278">
        <ele>200.202638</ele>
        <time>2022-12-12T14:24:45.822Z</time>
      </trkpt>
      <trkpt lat="48.21631" lon="-3.02265">
        <ele>199.921744</ele>
        <time>2022-12-12T14:24:48.826Z</time>
      </trkpt>
      <trkpt lat="48.21622" lon="-3.02253">
        <ele>199.657792</ele>
        <time>2022-12-12T14:24:51.833Z</time>
      </trkpt>
      <trkpt lat="48.21614" lon="-3.02241">
        <ele>199.40062</ele>
        <time>2022-12-12T14:24:54.827Z</time>
      </trkpt>
      <trkpt lat="48.21606" lon="-3.02229">
        <ele>199.144475</ele>
        <time>2022-12-12T14:24:57.818Z</time>
      </trkpt>
      <trkpt lat="48.21597" lon="-3.02213">
        <ele>198.833129</ele>
        <time>2022-12-12T14:25:00.824Z</time>
      </trkpt>
      <trkpt lat="48.21589" lon="-3.02199">
        <ele>198.544688</ele>
        <time>2022-12-12T14:25:03.827Z</time>
      </trkpt>
      <trkpt lat="48.21581" lon="-3.02187">
        <ele>198.303743</ele>
        <time>2022-12-12T14:25:06.825Z</time>
      </trkpt>
      <trkpt lat="48.21575" lon="-3.02176">
        <ele>198.259001</ele>
        <time>2022-12-12T14:25:18.809Z</time>
      </trkpt>
      <trkpt lat="48.21569" lon="-3.02164">
        <ele>198.241173</ele>
        <time>2022-12-12T14:25:22.810Z</time>
      </trkpt>
      <trkpt lat="48.21564" lon="-3.02151">
        <ele>198.222509</ele>
        <time>2022-12-12T14:25:25.825Z</time>
      </trkpt>
      <trkpt lat="48.21557" lon="-3.02134">
        <ele>198.19908</ele>
        <time>2022-12-12T14:25:28.825Z</time>
      </trkpt>
      <trkpt lat="48.21554" lon="-3.02119">
        <ele>198.180017</ele>
        <time>2022-12-12T14:25:30.820Z</time>
      </trkpt>
      <trkpt lat="48.21549" lon="-3.02102">
        <ele>198.157678</ele>
        <time>2022-12-12T14:25:33.830Z</time>
      </trkpt>
      <trkpt lat="48.21545" lon="-3.02088">
        <ele>198.13993</ele>
        <time>2022-12-12T14:25:36.823Z</time>
      </trkpt>
      <trkpt lat="48.21541" lon="-3.02071">
        <ele>198.118868</ele>
        <time>2022-12-12T14:25:39.805Z</time>
      </trkpt>
      <trkpt lat="48.21538" lon="-3.02053">
        <ele>198.096677</ele>
        <time>2022-12-12T14:25:42.805Z</time>
      </trkpt>
      <trkpt lat="48.21535" lon="-3.02035">
        <ele>198.073558</ele>
        <time>2022-12-12T14:25:45.813Z</time>
      </trkpt>
      <trkpt lat="48.21531" lon="-3.02017">
        <ele>198.051247</ele>
        <time>2022-12-12T14:25:48.822Z</time>
      </trkpt>
      <trkpt lat="48.21529" lon="-3.02001">
        <ele>198.032155</ele>
        <time>2022-12-12T14:25:51.825Z</time>
      </trkpt>
      <trkpt lat="48.21526" lon="-3.01985">
        <ele>198.012147</ele>
        <time>2022-12-12T14:25:54.825Z</time>
      </trkpt>
      <trkpt lat="48.21525" lon="-3.01968">
        <ele>197.99223</ele>
        <time>2022-12-12T14:25:57.825Z</time>
      </trkpt>
      <trkpt lat="48.21522" lon="-3.01952">
        <ele>197.972373</ele>
        <time>2022-12-12T14:26:00.801Z</time>
      </trkpt>
      <trkpt lat="48.21519" lon="-3.01935">
        <ele>197.95023</ele>
        <time>2022-12-12T14:26:03.814Z</time>
      </trkpt>
      <trkpt lat="48.21516" lon="-3.01917">
        <ele>197.800621</ele>
        <time>2022-12-12T14:26:06.833Z</time>
      </trkpt>
      <trkpt lat="48.21514" lon="-3.019">
        <ele>197.650907</ele>
        <time>2022-12-12T14:26:09.824Z</time>
      </trkpt>
      <trkpt lat="48.21511" lon="-3.01882">
        <ele>197.500632</ele>
        <time>2022-12-12T14:26:12.824Z</time>
      </trkpt>
      <trkpt lat="48.21508" lon="-3.01864">
        <ele>197.350886</ele>
        <time>2022-12-12T14:26:15.830Z</time>
      </trkpt>
      <trkpt lat="48.21506" lon="-3.01846">
        <ele>197.203826</ele>
        <time>2022-12-12T14:26:18.806Z</time>
      </trkpt>
      <trkpt lat="48.21503" lon="-3.01829">
        <ele>197.05942</ele>
        <time>2022-12-12T14:26:21.824Z</time>
      </trkpt>
      <trkpt lat="48.215" lon="-3.01812">
        <ele>196.916063</ele>
        <time>2022-12-12T14:26:24.825Z</time>
      </trkpt>
      <trkpt lat="48.21498" lon="-3.01797">
        <ele>196.791274</ele>
        <time>2022-12-12T14:26:27.810Z</time>
      </trkpt>
      <trkpt lat="48.21496" lon="-3.0178">
        <ele>196.650804</ele>
        <time>2022-12-12T14:26:30.814Z</time>
      </trkpt>
      <trkpt lat="48.21494" lon="-3.01764">
        <ele>196.517813</ele>
        <time>2022-12-12T14:26:33.820Z</time>
      </trkpt>
      <trkpt lat="48.21492" lon="-3.01747">
        <ele>196.378199</ele>
        <time>2022-12-12T14:26:36.829Z</time>
      </trkpt>
      <trkpt lat="48.2149" lon="-3.01729">
        <ele>196.229252</ele>
        <time>2022-12-12T14:26:39.802Z</time>
      </trkpt>
      <trkpt lat="48.21487" lon="-3.01709">
        <ele>196.06646</ele>
        <time>2022-12-12T14:26:42.828Z</time>
      </trkpt>
      <trkpt lat="48.21485" lon="-3.01695">
        <ele>195.94831</ele>
        <time>2022-12-12T14:26:44.823Z</time>
      </trkpt>
      <trkpt lat="48.21484" lon="-3.01681">
        <ele>195.83142</ele>
        <time>2022-12-12T14:26:46.824Z</time>
      </trkpt>
      <trkpt lat="48.21483" lon="-3.01667">
        <ele>195.694762</ele>
        <time>2022-12-12T14:26:48.803Z</time>
      </trkpt>
      <trkpt lat="48.21482" lon="-3.01647">
        <ele>195.428654</ele>
        <time>2022-12-12T14:26:51.824Z</time>
      </trkpt>
      <trkpt lat="48.21481" lon="-3.01628">
        <ele>195.178151</ele>
        <time>2022-12-12T14:26:54.825Z</time>
      </trkpt>
      <trkpt lat="48.21482" lon="-3.01611">
        <ele>194.940681</ele>
        <time>2022-12-12T14:26:57.825Z</time>
      </trkpt>
      <trkpt lat="48.21483" lon="-3.01594">
        <ele>194.722682</ele>
        <time>2022-12-12T14:27:00.825Z</time>
      </trkpt>
      <trkpt lat="48.21484" lon="-3.01579">
        <ele>194.522284</ele>
        <time>2022-12-12T14:27:03.835Z</time>
      </trkpt>
      <trkpt lat="48.21486" lon="-3.01565">
        <ele>194.334754</ele>
        <time>2022-12-12T14:27:06.812Z</time>
      </trkpt>
      <trkpt lat="48.21488" lon="-3.0155">
        <ele>194.123271</ele>
        <time>2022-12-12T14:27:10.812Z</time>
      </trkpt>
      <trkpt lat="48.2149" lon="-3.01536">
        <ele>193.92946</ele>
        <time>2022-12-12T14:27:15.808Z</time>
      </trkpt>
      <trkpt lat="48.21494" lon="-3.01523">
        <ele>193.747183</ele>
        <time>2022-12-12T14:27:18.806Z</time>
      </trkpt>
      <trkpt lat="48.21498" lon="-3.01507">
        <ele>193.520841</ele>
        <time>2022-12-12T14:27:22.804Z</time>
      </trkpt>
      <trkpt lat="48.21503" lon="-3.01493">
        <ele>193.306098</ele>
        <time>2022-12-12T14:27:26.828Z</time>
      </trkpt>
      <trkpt lat="48.21508" lon="-3.01481">
        <ele>193.118785</ele>
        <time>2022-12-12T14:27:30.814Z</time>
      </trkpt>
      <trkpt lat="48.2151" lon="-3.01475">
        <ele>193.022363</ele>
        <time>2022-12-12T14:27:37.570Z</time>
      </trkpt>
      <trkpt lat="48.21524" lon="-3.01447">
        <ele>192.554145</ele>
        <time>2022-12-12T14:32:57.807Z</time>
      </trkpt>
      <trkpt lat="48.21529" lon="-3.01435">
        <ele>192.365738</ele>
        <time>2022-12-12T14:33:00.804Z</time>
      </trkpt>
      <trkpt lat="48.21534" lon="-3.0142">
        <ele>192.154299</ele>
        <time>2022-12-12T14:33:04.817Z</time>
      </trkpt>
      <trkpt lat="48.2154" lon="-3.01404">
        <ele>192.147795</ele>
        <time>2022-12-12T14:33:08.808Z</time>
      </trkpt>
      <trkpt lat="48.21545" lon="-3.0139">
        <ele>192.141723</ele>
        <time>2022-12-12T14:33:12.823Z</time>
      </trkpt>
      <trkpt lat="48.21549" lon="-3.01375">
        <ele>192.135675</ele>
        <time>2022-12-12T14:33:16.808Z</time>
      </trkpt>
      <trkpt lat="48.21554" lon="-3.01362">
        <ele>192.130148</ele>
        <time>2022-12-12T14:33:19.813Z</time>
      </trkpt>
      <trkpt lat="48.2156" lon="-3.01347">
        <ele>192.123997</ele>
        <time>2022-12-12T14:33:22.811Z</time>
      </trkpt>
      <trkpt lat="48.21564" lon="-3.01334">
        <ele>192.118297</ele>
        <time>2022-12-12T14:33:25.828Z</time>
      </trkpt>
      <trkpt lat="48.21568" lon="-3.01317">
        <ele>192.111744</ele>
        <time>2022-12-12T14:33:28.811Z</time>
      </trkpt>
      <trkpt lat="48.21572" lon="-3.01301">
        <ele>192.105346</ele>
        <time>2022-12-12T14:33:31.811Z</time>
      </trkpt>
      <trkpt lat="48.21575" lon="-3.01284">
        <ele>192.099091</ele>
        <time>2022-12-12T14:33:34.804Z</time>
      </trkpt>
      <trkpt lat="48.21578" lon="-3.01269">
        <ele>192.09322</ele>
        <time>2022-12-12T14:33:37.827Z</time>
      </trkpt>
      <trkpt lat="48.2158" lon="-3.01255">
        <ele>192.088063</ele>
        <time>2022-12-12T14:33:40.825Z</time>
      </trkpt>
      <trkpt lat="48.21582" lon="-3.01241">
        <ele>192.08247</ele>
        <time>2022-12-12T14:33:43.831Z</time>
      </trkpt>
      <trkpt lat="48.21583" lon="-3.01224">
        <ele>192.07642</ele>
        <time>2022-12-12T14:33:46.829Z</time>
      </trkpt>
      <trkpt lat="48.21584" lon="-3.01207">
        <ele>192.070153</ele>
        <time>2022-12-12T14:33:49.817Z</time>
      </trkpt>
      <trkpt lat="48.21583" lon="-3.0119">
        <ele>192.063703</ele>
        <time>2022-12-12T14:33:52.827Z</time>
      </trkpt>
      <trkpt lat="48.21582" lon="-3.01172">
        <ele>192.056911</ele>
        <time>2022-12-12T14:33:55.828Z</time>
      </trkpt>
      <trkpt lat="48.2158" lon="-3.01154">
        <ele>191.905667</ele>
        <time>2022-12-12T14:33:58.823Z</time>
      </trkpt>
      <trkpt lat="48.21577" lon="-3.01139">
        <ele>191.725692</ele>
        <time>2022-12-12T14:34:01.818Z</time>
      </trkpt>
      <trkpt lat="48.21575" lon="-3.01122">
        <ele>191.519389</ele>
        <time>2022-12-12T14:34:05.827Z</time>
      </trkpt>
      <trkpt lat="48.21571" lon="-3.01105">
        <ele>191.303998</ele>
        <time>2022-12-12T14:34:09.805Z</time>
      </trkpt>
      <trkpt lat="48.21566" lon="-3.0109">
        <ele>191.103765</ele>
        <time>2022-12-12T14:34:12.824Z</time>
      </trkpt>
      <trkpt lat="48.21561" lon="-3.01075">
        <ele>190.899517</ele>
        <time>2022-12-12T14:34:15.818Z</time>
      </trkpt>
      <trkpt lat="48.21555" lon="-3.01059">
        <ele>190.67524</ele>
        <time>2022-12-12T14:34:18.805Z</time>
      </trkpt>
      <trkpt lat="48.21547" lon="-3.01044">
        <ele>190.449835</ele>
        <time>2022-12-12T14:34:21.824Z</time>
      </trkpt>
      <trkpt lat="48.21542" lon="-3.01033">
        <ele>190.286196</ele>
        <time>2022-12-12T14:34:23.811Z</time>
      </trkpt>
      <trkpt lat="48.21535" lon="-3.01018">
        <ele>190.065985</ele>
        <time>2022-12-12T14:34:26.827Z</time>
      </trkpt>
      <trkpt lat="48.21528" lon="-3.01006">
        <ele>189.882025</ele>
        <time>2022-12-12T14:34:29.814Z</time>
      </trkpt>
      <trkpt lat="48.21523" lon="-3.00994">
        <ele>189.709524</ele>
        <time>2022-12-12T14:34:32.825Z</time>
      </trkpt>
      <trkpt lat="48.21516" lon="-3.00984">
        <ele>189.535892</ele>
        <time>2022-12-12T14:34:35.808Z</time>
      </trkpt>
      <trkpt lat="48.21509" lon="-3.00971">
        <ele>189.337708</ele>
        <time>2022-12-12T14:34:38.817Z</time>
      </trkpt>
      <trkpt lat="48.21501" lon="-3.00958">
        <ele>189.131621</ele>
        <time>2022-12-12T14:34:41.806Z</time>
      </trkpt>
      <trkpt lat="48.21492" lon="-3.00944">
        <ele>188.895431</ele>
        <time>2022-12-12T14:34:44.830Z</time>
      </trkpt>
      <trkpt lat="48.21484" lon="-3.00932">
        <ele>188.997694</ele>
        <time>2022-12-12T14:34:47.823Z</time>
      </trkpt>
      <trkpt lat="48.21477" lon="-3.00921">
        <ele>189.246929</ele>
        <time>2022-12-12T14:34:50.822Z</time>
      </trkpt>
      <trkpt lat="48.2147" lon="-3.00911">
        <ele>189.485063</ele>
        <time>2022-12-12T14:34:53.807Z</time>
      </trkpt>
      <trkpt lat="48.21463" lon="-3.00901">
        <ele>189.716759</ele>
        <time>2022-12-12T14:34:56.818Z</time>
      </trkpt>
      <trkpt lat="48.21454" lon="-3.0089">
        <ele>190.002846</ele>
        <time>2022-12-12T14:34:59.824Z</time>
      </trkpt>
      <trkpt lat="48.21444" lon="-3.00878">
        <ele>190.306271</ele>
        <time>2022-12-12T14:35:02.824Z</time>
      </trkpt>
      <trkpt lat="48.21434" lon="-3.00865">
        <ele>190.613625</ele>
        <time>2022-12-12T14:35:05.826Z</time>
      </trkpt>
      <trkpt lat="48.21426" lon="-3.00855">
        <ele>190.871185</ele>
        <time>2022-12-12T14:35:08.817Z</time>
      </trkpt>
      <trkpt lat="48.21416" lon="-3.00842">
        <ele>191.197959</ele>
        <time>2022-12-12T14:35:11.822Z</time>
      </trkpt>
      <trkpt lat="48.21407" lon="-3.0083">
        <ele>191.49226</ele>
        <time>2022-12-12T14:35:14.817Z</time>
      </trkpt>
      <trkpt lat="48.21398" lon="-3.0082">
        <ele>191.757492</ele>
        <time>2022-12-12T14:35:17.824Z</time>
      </trkpt>
      <trkpt lat="48.21389" lon="-3.0081">
        <ele>192.036263</ele>
        <time>2022-12-12T14:35:20.818Z</time>
      </trkpt>
      <trkpt lat="48.21379" lon="-3.008">
        <ele>192.323773</ele>
        <time>2022-12-12T14:35:23.822Z</time>
      </trkpt>
      <trkpt lat="48.2137" lon="-3.00789">
        <ele>192.598673</ele>
        <time>2022-12-12T14:35:26.825Z</time>
      </trkpt>
      <trkpt lat="48.21361" lon="-3.0078">
        <ele>192.857196</ele>
        <time>2022-12-12T14:35:29.827Z</time>
      </trkpt>
      <trkpt lat="48.21353" lon="-3.00771">
        <ele>193.091453</ele>
        <time>2022-12-12T14:35:32.818Z</time>
      </trkpt>
      <trkpt lat="48.21344" lon="-3.00762">
        <ele>193.268683</ele>
        <time>2022-12-12T14:35:36.829Z</time>
      </trkpt>
      <trkpt lat="48.21335" lon="-3.0075">
        <ele>193.406769</ele>
        <time>2022-12-12T14:35:40.819Z</time>
      </trkpt>
      <trkpt lat="48.21327" lon="-3.00742">
        <ele>193.513448</ele>
        <time>2022-12-12T14:35:43.826Z</time>
      </trkpt>
      <trkpt lat="48.21319" lon="-3.00734">
        <ele>193.623293</ele>
        <time>2022-12-12T14:35:46.822Z</time>
      </trkpt>
      <trkpt lat="48.21312" lon="-3.00725">
        <ele>193.730591</ele>
        <time>2022-12-12T14:35:49.813Z</time>
      </trkpt>
      <trkpt lat="48.21305" lon="-3.00716">
        <ele>193.834924</ele>
        <time>2022-12-12T14:35:52.823Z</time>
      </trkpt>
      <trkpt lat="48.21296" lon="-3.00705">
        <ele>193.966048</ele>
        <time>2022-12-12T14:35:56.823Z</time>
      </trkpt>
      <trkpt lat="48.21288" lon="-3.00694">
        <ele>194.093299</ele>
        <time>2022-12-12T14:36:00.827Z</time>
      </trkpt>
      <trkpt lat="48.2128" lon="-3.00685">
        <ele>194.215568</ele>
        <time>2022-12-12T14:36:04.824Z</time>
      </trkpt>
      <trkpt lat="48.21272" lon="-3.00675">
        <ele>194.334727</ele>
        <time>2022-12-12T14:36:08.817Z</time>
      </trkpt>
      <trkpt lat="48.21263" lon="-3.00665">
        <ele>194.461581</ele>
        <time>2022-12-12T14:36:12.828Z</time>
      </trkpt>
      <trkpt lat="48.21255" lon="-3.00655">
        <ele>194.580117</ele>
        <time>2022-12-12T14:36:16.809Z</time>
      </trkpt>
      <trkpt lat="48.21247" lon="-3.00645">
        <ele>194.702368</ele>
        <time>2022-12-12T14:36:21.807Z</time>
      </trkpt>
      <trkpt lat="48.21238" lon="-3.00637">
        <ele>194.814763</ele>
        <time>2022-12-12T14:36:25.824Z</time>
      </trkpt>
      <trkpt lat="48.2123" lon="-3.00626">
        <ele>194.940139</ele>
        <time>2022-12-12T14:36:29.804Z</time>
      </trkpt>
      <trkpt lat="48.21221" lon="-3.00615">
        <ele>195.07038</ele>
        <time>2022-12-12T14:36:33.822Z</time>
      </trkpt>
      <trkpt lat="48.21214" lon="-3.00607">
        <ele>195.174299</ele>
        <time>2022-12-12T14:36:36.813Z</time>
      </trkpt>
      <trkpt lat="48.21206" lon="-3.00599">
        <ele>195.21887</ele>
        <time>2022-12-12T14:36:39.828Z</time>
      </trkpt>
      <trkpt lat="48.21199" lon="-3.00591">
        <ele>195.148779</ele>
        <time>2022-12-12T14:36:42.837Z</time>
      </trkpt>
      <trkpt lat="48.21192" lon="-3.00581">
        <ele>195.072355</ele>
        <time>2022-12-12T14:36:45.825Z</time>
      </trkpt>
      <trkpt lat="48.21184" lon="-3.00573">
        <ele>195.002892</ele>
        <time>2022-12-12T14:36:48.823Z</time>
      </trkpt>
      <trkpt lat="48.21177" lon="-3.00566">
        <ele>194.933745</ele>
        <time>2022-12-12T14:36:51.812Z</time>
      </trkpt>
      <trkpt lat="48.2117" lon="-3.00556">
        <ele>194.862886</ele>
        <time>2022-12-12T14:36:54.808Z</time>
      </trkpt>
      <trkpt lat="48.21162" lon="-3.00548">
        <ele>194.789967</ele>
        <time>2022-12-12T14:36:57.814Z</time>
      </trkpt>
      <trkpt lat="48.21154" lon="-3.0054">
        <ele>194.713084</ele>
        <time>2022-12-12T14:37:00.827Z</time>
      </trkpt>
      <trkpt lat="48.21146" lon="-3.00532">
        <ele>194.640248</ele>
        <time>2022-12-12T14:37:03.815Z</time>
      </trkpt>
      <trkpt lat="48.21137" lon="-3.00521">
        <ele>194.55412</ele>
        <time>2022-12-12T14:37:07.814Z</time>
      </trkpt>
      <trkpt lat="48.21128" lon="-3.0051">
        <ele>194.462312</ele>
        <time>2022-12-12T14:37:11.807Z</time>
      </trkpt>
      <trkpt lat="48.2112" lon="-3.00501">
        <ele>194.387636</ele>
        <time>2022-12-12T14:37:14.832Z</time>
      </trkpt>
      <trkpt lat="48.21112" lon="-3.00492">
        <ele>194.311424</ele>
        <time>2022-12-12T14:37:17.829Z</time>
      </trkpt>
      <trkpt lat="48.21104" lon="-3.00482">
        <ele>194.230933</ele>
        <time>2022-12-12T14:37:20.818Z</time>
      </trkpt>
      <trkpt lat="48.21095" lon="-3.00472">
        <ele>194.144641</ele>
        <time>2022-12-12T14:37:23.823Z</time>
      </trkpt>
      <trkpt lat="48.21086" lon="-3.00462">
        <ele>194.062603</ele>
        <time>2022-12-12T14:37:26.827Z</time>
      </trkpt>
      <trkpt lat="48.21077" lon="-3.00451">
        <ele>193.972918</ele>
        <time>2022-12-12T14:37:29.822Z</time>
      </trkpt>
      <trkpt lat="48.21068" lon="-3.0044">
        <ele>193.883461</ele>
        <time>2022-12-12T14:37:32.828Z</time>
      </trkpt>
      <trkpt lat="48.21058" lon="-3.0043">
        <ele>193.823455</ele>
        <time>2022-12-12T14:37:35.828Z</time>
      </trkpt>
      <trkpt lat="48.21049" lon="-3.00419">
        <ele>193.772202</ele>
        <time>2022-12-12T14:37:38.813Z</time>
      </trkpt>
      <trkpt lat="48.21039" lon="-3.00408">
        <ele>193.717353</ele>
        <time>2022-12-12T14:37:41.823Z</time>
      </trkpt>
      <trkpt lat="48.21029" lon="-3.00397">
        <ele>193.661804</ele>
        <time>2022-12-12T14:37:44.830Z</time>
      </trkpt>
      <trkpt lat="48.2102" lon="-3.00385">
        <ele>193.60607</ele>
        <time>2022-12-12T14:37:47.813Z</time>
      </trkpt>
      <trkpt lat="48.2101" lon="-3.00374">
        <ele>193.550882</ele>
        <time>2022-12-12T14:37:50.827Z</time>
      </trkpt>
      <trkpt lat="48.21" lon="-3.00363">
        <ele>193.497838</ele>
        <time>2022-12-12T14:37:53.812Z</time>
      </trkpt>
      <trkpt lat="48.20991" lon="-3.00352">
        <ele>193.446655</ele>
        <time>2022-12-12T14:37:56.832Z</time>
      </trkpt>
      <trkpt lat="48.20982" lon="-3.00341">
        <ele>193.394478</ele>
        <time>2022-12-12T14:37:59.828Z</time>
      </trkpt>
      <trkpt lat="48.20973" lon="-3.00331">
        <ele>193.340537</ele>
        <time>2022-12-12T14:38:02.824Z</time>
      </trkpt>
      <trkpt lat="48.20964" lon="-3.00321">
        <ele>193.292141</ele>
        <time>2022-12-12T14:38:05.818Z</time>
      </trkpt>
      <trkpt lat="48.20955" lon="-3.00311">
        <ele>193.243515</ele>
        <time>2022-12-12T14:38:08.816Z</time>
      </trkpt>
      <trkpt lat="48.20946" lon="-3.00299">
        <ele>193.188131</ele>
        <time>2022-12-12T14:38:11.814Z</time>
      </trkpt>
      <trkpt lat="48.20936" lon="-3.00288">
        <ele>193.132413</ele>
        <time>2022-12-12T14:38:14.824Z</time>
      </trkpt>
      <trkpt lat="48.20926" lon="-3.00276">
        <ele>193.075441</ele>
        <time>2022-12-12T14:38:17.825Z</time>
      </trkpt>
      <trkpt lat="48.20916" lon="-3.00265">
        <ele>193.131909</ele>
        <time>2022-12-12T14:38:20.835Z</time>
      </trkpt>
      <trkpt lat="48.20908" lon="-3.00257">
        <ele>193.191995</ele>
        <time>2022-12-12T14:38:22.831Z</time>
      </trkpt>
      <trkpt lat="48.20898" lon="-3.00245">
        <ele>193.27937</ele>
        <time>2022-12-12T14:38:25.839Z</time>
      </trkpt>
      <trkpt lat="48.20887" lon="-3.00233">
        <ele>193.363351</ele>
        <time>2022-12-12T14:38:28.840Z</time>
      </trkpt>
      <trkpt lat="48.20877" lon="-3.00221">
        <ele>193.449168</ele>
        <time>2022-12-12T14:38:31.840Z</time>
      </trkpt>
      <trkpt lat="48.20867" lon="-3.00209">
        <ele>193.533444</ele>
        <time>2022-12-12T14:38:34.836Z</time>
      </trkpt>
      <trkpt lat="48.20857" lon="-3.00198">
        <ele>193.616621</ele>
        <time>2022-12-12T14:38:37.827Z</time>
      </trkpt>
      <trkpt lat="48.20847" lon="-3.00188">
        <ele>193.693539</ele>
        <time>2022-12-12T14:38:40.830Z</time>
      </trkpt>
      <trkpt lat="48.20839" lon="-3.00178">
        <ele>193.760844</ele>
        <time>2022-12-12T14:38:43.823Z</time>
      </trkpt>
      <trkpt lat="48.20831" lon="-3.00168">
        <ele>193.826717</ele>
        <time>2022-12-12T14:38:46.816Z</time>
      </trkpt>
      <trkpt lat="48.20823" lon="-3.0016">
        <ele>193.891814</ele>
        <time>2022-12-12T14:38:49.828Z</time>
      </trkpt>
      <trkpt lat="48.20815" lon="-3.0015">
        <ele>193.958505</ele>
        <time>2022-12-12T14:38:52.833Z</time>
      </trkpt>
      <trkpt lat="48.20808" lon="-3.00141">
        <ele>194.022537</ele>
        <time>2022-12-12T14:38:55.830Z</time>
      </trkpt>
      <trkpt lat="48.20798" lon="-3.00131">
        <ele>194.101791</ele>
        <time>2022-12-12T14:38:59.840Z</time>
      </trkpt>
      <trkpt lat="48.2079" lon="-3.00122">
        <ele>194.164246</ele>
        <time>2022-12-12T14:39:02.830Z</time>
      </trkpt>
      <trkpt lat="48.20782" lon="-3.00115">
        <ele>194.223648</ele>
        <time>2022-12-12T14:39:05.808Z</time>
      </trkpt>
      <trkpt lat="48.20774" lon="-3.00107">
        <ele>194.351859</ele>
        <time>2022-12-12T14:39:08.820Z</time>
      </trkpt>
      <trkpt lat="48.20765" lon="-3.00099">
        <ele>194.505484</ele>
        <time>2022-12-12T14:39:11.826Z</time>
      </trkpt>
      <trkpt lat="48.20757" lon="-3.00092">
        <ele>194.6484</ele>
        <time>2022-12-12T14:39:15.823Z</time>
      </trkpt>
      <trkpt lat="48.20749" lon="-3.00086">
        <ele>194.786951</ele>
        <time>2022-12-12T14:39:19.807Z</time>
      </trkpt>
      <trkpt lat="48.20739" lon="-3.00079">
        <ele>194.957461</ele>
        <time>2022-12-12T14:39:24.822Z</time>
      </trkpt>
      <trkpt lat="48.2073" lon="-3.00071">
        <ele>195.113866</ele>
        <time>2022-12-12T14:39:28.824Z</time>
      </trkpt>
      <trkpt lat="48.2072" lon="-3.00066">
        <ele>195.279222</ele>
        <time>2022-12-12T14:39:32.818Z</time>
      </trkpt>
      <trkpt lat="48.20711" lon="-3.00062">
        <ele>195.427995</ele>
        <time>2022-12-12T14:39:35.822Z</time>
      </trkpt>
      <trkpt lat="48.20701" lon="-3.00057">
        <ele>195.589136</ele>
        <time>2022-12-12T14:39:38.827Z</time>
      </trkpt>
      <trkpt lat="48.20691" lon="-3.00052">
        <ele>195.746422</ele>
        <time>2022-12-12T14:39:41.827Z</time>
      </trkpt>
      <trkpt lat="48.20681" lon="-3.00048">
        <ele>195.906648</ele>
        <time>2022-12-12T14:39:44.814Z</time>
      </trkpt>
      <trkpt lat="48.20672" lon="-3.00042">
        <ele>196.048779</ele>
        <time>2022-12-12T14:39:47.827Z</time>
      </trkpt>
      <trkpt lat="48.20663" lon="-3.00039">
        <ele>196.187206</ele>
        <time>2022-12-12T14:39:50.818Z</time>
      </trkpt>
      <trkpt lat="48.20652" lon="-3.00036">
        <ele>196.366988</ele>
        <time>2022-12-12T14:39:54.805Z</time>
      </trkpt>
      <trkpt lat="48.20642" lon="-3.00035">
        <ele>196.51325</ele>
        <time>2022-12-12T14:39:57.817Z</time>
      </trkpt>
      <trkpt lat="48.20633" lon="-3.00033">
        <ele>196.655951</ele>
        <time>2022-12-12T14:40:00.802Z</time>
      </trkpt>
      <trkpt lat="48.20623" lon="-3.00032">
        <ele>196.806269</ele>
        <time>2022-12-12T14:40:03.803Z</time>
      </trkpt>
      <trkpt lat="48.20614" lon="-3.00031">
        <ele>196.944704</ele>
        <time>2022-12-12T14:40:06.812Z</time>
      </trkpt>
      <trkpt lat="48.20604" lon="-3.00029">
        <ele>197.191148</ele>
        <time>2022-12-12T14:40:10.817Z</time>
      </trkpt>
      <trkpt lat="48.20593" lon="-3.00029">
        <ele>197.539059</ele>
        <time>2022-12-12T14:40:14.824Z</time>
      </trkpt>
      <trkpt lat="48.20583" lon="-3.00028">
        <ele>197.846921</ele>
        <time>2022-12-12T14:40:17.809Z</time>
      </trkpt>
      <trkpt lat="48.20571" lon="-3.0003">
        <ele>198.218494</ele>
        <time>2022-12-12T14:40:21.806Z</time>
      </trkpt>
      <trkpt lat="48.20561" lon="-3.00032">
        <ele>198.54257</ele>
        <time>2022-12-12T14:40:24.811Z</time>
      </trkpt>
      <trkpt lat="48.20551" lon="-3.00033">
        <ele>198.832903</ele>
        <time>2022-12-12T14:40:27.821Z</time>
      </trkpt>
      <trkpt lat="48.2054" lon="-3.00034">
        <ele>199.178195</ele>
        <time>2022-12-12T14:40:31.830Z</time>
      </trkpt>
      <trkpt lat="48.20528" lon="-3.00037">
        <ele>199.543836</ele>
        <time>2022-12-12T14:40:35.822Z</time>
      </trkpt>
      <trkpt lat="48.20519" lon="-3.00039">
        <ele>199.836312</ele>
        <time>2022-12-12T14:40:38.824Z</time>
      </trkpt>
      <trkpt lat="48.20508" lon="-3.00043">
        <ele>200.180239</ele>
        <time>2022-12-12T14:40:41.817Z</time>
      </trkpt>
      <trkpt lat="48.20498" lon="-3.00046">
        <ele>200.508708</ele>
        <time>2022-12-12T14:40:44.826Z</time>
      </trkpt>
      <trkpt lat="48.20488" lon="-3.0005">
        <ele>200.821265</ele>
        <time>2022-12-12T14:40:47.824Z</time>
      </trkpt>
      <trkpt lat="48.20478" lon="-3.00054">
        <ele>201.135249</ele>
        <time>2022-12-12T14:40:50.828Z</time>
      </trkpt>
      <trkpt lat="48.20468" lon="-3.00059">
        <ele>201.461298</ele>
        <time>2022-12-12T14:40:54.801Z</time>
      </trkpt>
      <trkpt lat="48.20458" lon="-3.00063">
        <ele>201.786733</ele>
        <time>2022-12-12T14:40:59.807Z</time>
      </trkpt>
      <trkpt lat="48.20447" lon="-3.00068">
        <ele>202.124134</ele>
        <time>2022-12-12T14:41:03.811Z</time>
      </trkpt>
      <trkpt lat="48.20438" lon="-3.00072">
        <ele>202.410057</ele>
        <time>2022-12-12T14:41:06.824Z</time>
      </trkpt>
      <trkpt lat="48.20429" lon="-3.00076">
        <ele>202.603857</ele>
        <time>2022-12-12T14:41:09.831Z</time>
      </trkpt>
      <trkpt lat="48.20419" lon="-3.00081">
        <ele>202.757406</ele>
        <time>2022-12-12T14:41:13.816Z</time>
      </trkpt>
      <trkpt lat="48.20409" lon="-3.00086">
        <ele>202.89812</ele>
        <time>2022-12-12T14:41:17.813Z</time>
      </trkpt>
      <trkpt lat="48.20399" lon="-3.0009">
        <ele>203.045421</ele>
        <time>2022-12-12T14:41:21.824Z</time>
      </trkpt>
      <trkpt lat="48.2039" lon="-3.00095">
        <ele>203.17477</ele>
        <time>2022-12-12T14:41:24.826Z</time>
      </trkpt>
      <trkpt lat="48.20381" lon="-3.001">
        <ele>203.306029</ele>
        <time>2022-12-12T14:41:27.827Z</time>
      </trkpt>
      <trkpt lat="48.20371" lon="-3.00105">
        <ele>203.440812</ele>
        <time>2022-12-12T14:41:30.826Z</time>
      </trkpt>
      <trkpt lat="48.20362" lon="-3.0011">
        <ele>203.569994</ele>
        <time>2022-12-12T14:41:33.829Z</time>
      </trkpt>
      <trkpt lat="48.20354" lon="-3.00114">
        <ele>203.694866</ele>
        <time>2022-12-12T14:41:36.825Z</time>
      </trkpt>
      <trkpt lat="48.20344" lon="-3.00118">
        <ele>203.828499</ele>
        <time>2022-12-12T14:41:39.825Z</time>
      </trkpt>
      <trkpt lat="48.20335" lon="-3.00121">
        <ele>203.962998</ele>
        <time>2022-12-12T14:41:42.829Z</time>
      </trkpt>
      <trkpt lat="48.20325" lon="-3.00126">
        <ele>204.103707</ele>
        <time>2022-12-12T14:41:45.827Z</time>
      </trkpt>
      <trkpt lat="48.20315" lon="-3.00129">
        <ele>204.243697</ele>
        <time>2022-12-12T14:41:48.812Z</time>
      </trkpt>
      <trkpt lat="48.20306" lon="-3.00133">
        <ele>204.375288</ele>
        <time>2022-12-12T14:41:51.829Z</time>
      </trkpt>
      <trkpt lat="48.20296" lon="-3.00138">
        <ele>204.516505</ele>
        <time>2022-12-12T14:41:54.811Z</time>
      </trkpt>
      <trkpt lat="48.20286" lon="-3.00141">
        <ele>204.660365</ele>
        <time>2022-12-12T14:41:57.810Z</time>
      </trkpt>
      <trkpt lat="48.20275" lon="-3.00143">
        <ele>204.80637</ele>
        <time>2022-12-12T14:42:00.823Z</time>
      </trkpt>
      <trkpt lat="48.20264" lon="-3.00144">
        <ele>204.95363</ele>
        <time>2022-12-12T14:42:03.828Z</time>
      </trkpt>
      <trkpt lat="48.20253" lon="-3.00145">
        <ele>204.697647</ele>
        <time>2022-12-12T14:42:06.828Z</time>
      </trkpt>
      <trkpt lat="48.20242" lon="-3.00146">
        <ele>204.324927</ele>
        <time>2022-12-12T14:42:09.808Z</time>
      </trkpt>
      <trkpt lat="48.20232" lon="-3.00146">
        <ele>203.973038</ele>
        <time>2022-12-12T14:42:12.826Z</time>
      </trkpt>
      <trkpt lat="48.20222" lon="-3.00146">
        <ele>203.634546</ele>
        <time>2022-12-12T14:42:15.828Z</time>
      </trkpt>
      <trkpt lat="48.20211" lon="-3.00145">
        <ele>203.275572</ele>
        <time>2022-12-12T14:42:18.827Z</time>
      </trkpt>
      <trkpt lat="48.20201" lon="-3.00144">
        <ele>202.913184</ele>
        <time>2022-12-12T14:42:21.812Z</time>
      </trkpt>
      <trkpt lat="48.20191" lon="-3.00142">
        <ele>202.564518</ele>
        <time>2022-12-12T14:42:24.813Z</time>
      </trkpt>
      <trkpt lat="48.20181" lon="-3.00141">
        <ele>202.23138</ele>
        <time>2022-12-12T14:42:27.816Z</time>
      </trkpt>
      <trkpt lat="48.20171" lon="-3.00139">
        <ele>201.895467</ele>
        <time>2022-12-12T14:42:30.827Z</time>
      </trkpt>
      <trkpt lat="48.20162" lon="-3.00136">
        <ele>201.573336</ele>
        <time>2022-12-12T14:42:33.826Z</time>
      </trkpt>
      <trkpt lat="48.20153" lon="-3.00133">
        <ele>201.244046</ele>
        <time>2022-12-12T14:42:36.819Z</time>
      </trkpt>
      <trkpt lat="48.20142" lon="-3.00129">
        <ele>200.874202</ele>
        <time>2022-12-12T14:42:39.825Z</time>
      </trkpt>
      <trkpt lat="48.20131" lon="-3.00124">
        <ele>200.472302</ele>
        <time>2022-12-12T14:42:42.811Z</time>
      </trkpt>
      <trkpt lat="48.2012" lon="-3.00119">
        <ele>200.091306</ele>
        <time>2022-12-12T14:42:45.825Z</time>
      </trkpt>
      <trkpt lat="48.20111" lon="-3.00115">
        <ele>199.775797</ele>
        <time>2022-12-12T14:42:48.829Z</time>
      </trkpt>
      <trkpt lat="48.20101" lon="-3.0011">
        <ele>199.397326</ele>
        <time>2022-12-12T14:42:52.829Z</time>
      </trkpt>
      <trkpt lat="48.20092" lon="-3.00105">
        <ele>199.070238</ele>
        <time>2022-12-12T14:42:55.826Z</time>
      </trkpt>
      <trkpt lat="48.20083" lon="-3.00099">
        <ele>198.798081</ele>
        <time>2022-12-12T14:42:58.827Z</time>
      </trkpt>
      <trkpt lat="48.20073" lon="-3.00091">
        <ele>198.624704</ele>
        <time>2022-12-12T14:43:02.823Z</time>
      </trkpt>
      <trkpt lat="48.20063" lon="-3.00085">
        <ele>198.475656</ele>
        <time>2022-12-12T14:43:05.824Z</time>
      </trkpt>
      <trkpt lat="48.20055" lon="-3.00078">
        <ele>198.336415</ele>
        <time>2022-12-12T14:43:08.829Z</time>
      </trkpt>
      <trkpt lat="48.20046" lon="-3.0007">
        <ele>198.174977</ele>
        <time>2022-12-12T14:43:11.809Z</time>
      </trkpt>
      <trkpt lat="48.20036" lon="-3.00061">
        <ele>198.004491</ele>
        <time>2022-12-12T14:43:14.825Z</time>
      </trkpt>
      <trkpt lat="48.20026" lon="-3.00051">
        <ele>197.825197</ele>
        <time>2022-12-12T14:43:17.825Z</time>
      </trkpt>
      <trkpt lat="48.20017" lon="-3.00042">
        <ele>197.658537</ele>
        <time>2022-12-12T14:43:20.810Z</time>
      </trkpt>
      <trkpt lat="48.20007" lon="-3.0003">
        <ele>197.476758</ele>
        <time>2022-12-12T14:43:23.827Z</time>
      </trkpt>
      <trkpt lat="48.2" lon="-3.00021">
        <ele>197.34283</ele>
        <time>2022-12-12T14:43:25.824Z</time>
      </trkpt>
      <trkpt lat="48.19992" lon="-3.00008">
        <ele>197.156712</ele>
        <time>2022-12-12T14:43:28.811Z</time>
      </trkpt>
      <trkpt lat="48.19984" lon="-2.99997">
        <ele>196.995328</ele>
        <time>2022-12-12T14:43:31.815Z</time>
      </trkpt>
      <trkpt lat="48.19976" lon="-2.99986">
        <ele>196.840755</ele>
        <time>2022-12-12T14:43:34.830Z</time>
      </trkpt>
      <trkpt lat="48.19968" lon="-2.99972">
        <ele>196.656232</ele>
        <time>2022-12-12T14:43:37.828Z</time>
      </trkpt>
      <trkpt lat="48.19959" lon="-2.99959">
        <ele>196.477828</ele>
        <time>2022-12-12T14:43:40.823Z</time>
      </trkpt>
      <trkpt lat="48.19952" lon="-2.99946">
        <ele>196.301476</ele>
        <time>2022-12-12T14:43:43.823Z</time>
      </trkpt>
      <trkpt lat="48.19945" lon="-2.99933">
        <ele>196.21733</ele>
        <time>2022-12-12T14:43:46.814Z</time>
      </trkpt>
      <trkpt lat="48.19938" lon="-2.9992">
        <ele>196.438986</ele>
        <time>2022-12-12T14:43:49.810Z</time>
      </trkpt>
      <trkpt lat="48.19932" lon="-2.99907">
        <ele>196.655245</ele>
        <time>2022-12-12T14:43:52.823Z</time>
      </trkpt>
      <trkpt lat="48.19927" lon="-2.99894">
        <ele>196.857189</ele>
        <time>2022-12-12T14:43:55.831Z</time>
      </trkpt>
      <trkpt lat="48.1992" lon="-2.9988">
        <ele>197.077814</ele>
        <time>2022-12-12T14:43:58.813Z</time>
      </trkpt>
      <trkpt lat="48.19915" lon="-2.99867">
        <ele>197.285555</ele>
        <time>2022-12-12T14:44:01.825Z</time>
      </trkpt>
      <trkpt lat="48.1991" lon="-2.99851">
        <ele>197.515579</ele>
        <time>2022-12-12T14:44:05.827Z</time>
      </trkpt>
      <trkpt lat="48.19905" lon="-2.99838">
        <ele>197.717852</ele>
        <time>2022-12-12T14:44:09.806Z</time>
      </trkpt>
      <trkpt lat="48.19899" lon="-2.99828">
        <ele>197.908167</ele>
        <time>2022-12-12T14:44:14.809Z</time>
      </trkpt>
      <trkpt lat="48.19893" lon="-2.99839">
        <ele>198.098833</ele>
        <time>2022-12-12T14:44:21.815Z</time>
      </trkpt>
      <trkpt lat="48.1989" lon="-2.99854">
        <ele>198.307924</ele>
        <time>2022-12-12T14:44:27.814Z</time>
      </trkpt>
      <trkpt lat="48.19888" lon="-2.9987">
        <ele>198.521196</ele>
        <time>2022-12-12T14:44:32.822Z</time>
      </trkpt>
      <trkpt lat="48.19885" lon="-2.99884">
        <ele>198.719336</ele>
        <time>2022-12-12T14:44:36.808Z</time>
      </trkpt>
      <trkpt lat="48.19881" lon="-2.99899">
        <ele>198.934681</ele>
        <time>2022-12-12T14:44:40.811Z</time>
      </trkpt>
      <trkpt lat="48.19875" lon="-2.9991">
        <ele>199.123331</ele>
        <time>2022-12-12T14:44:43.818Z</time>
      </trkpt>
      <trkpt lat="48.19868" lon="-2.99923">
        <ele>199.345518</ele>
        <time>2022-12-12T14:44:47.827Z</time>
      </trkpt>
      <trkpt lat="48.1986" lon="-2.99933">
        <ele>199.549567</ele>
        <time>2022-12-12T14:44:51.825Z</time>
      </trkpt>
      <trkpt lat="48.19853" lon="-2.99941">
        <ele>199.733625</ele>
        <time>2022-12-12T14:44:55.823Z</time>
      </trkpt>
      <trkpt lat="48.19845" lon="-2.99949">
        <ele>199.5657</ele>
        <time>2022-12-12T14:44:59.826Z</time>
      </trkpt>
      <trkpt lat="48.19834" lon="-2.99957">
        <ele>199.230405</ele>
        <time>2022-12-12T14:45:03.812Z</time>
      </trkpt>
      <trkpt lat="48.19826" lon="-2.99967">
        <ele>198.932373</ele>
        <time>2022-12-12T14:45:07.816Z</time>
      </trkpt>
      <trkpt lat="48.19817" lon="-2.99974">
        <ele>198.627444</ele>
        <time>2022-12-12T14:45:13.810Z</time>
      </trkpt>
      <trkpt lat="48.19807" lon="-2.99984">
        <ele>198.27816</ele>
        <time>2022-12-12T14:45:17.819Z</time>
      </trkpt>
      <trkpt lat="48.19798" lon="-2.99991">
        <ele>197.985186</ele>
        <time>2022-12-12T14:45:20.824Z</time>
      </trkpt>
      <trkpt lat="48.1979" lon="-3.00001">
        <ele>197.676917</ele>
        <time>2022-12-12T14:45:23.833Z</time>
      </trkpt>
      <trkpt lat="48.19782" lon="-3.00011">
        <ele>197.371467</ele>
        <time>2022-12-12T14:45:26.811Z</time>
      </trkpt>
      <trkpt lat="48.19775" lon="-3.00022">
        <ele>197.086554</ele>
        <time>2022-12-12T14:45:29.826Z</time>
      </trkpt>
      <trkpt lat="48.19769" lon="-3.00036">
        <ele>196.777931</ele>
        <time>2022-12-12T14:45:33.813Z</time>
      </trkpt>
      <trkpt lat="48.19763" lon="-3.0005">
        <ele>196.448018</ele>
        <time>2022-12-12T14:45:37.817Z</time>
      </trkpt>
      <trkpt lat="48.19759" lon="-3.00063">
        <ele>196.182681</ele>
        <time>2022-12-12T14:45:40.816Z</time>
      </trkpt>
      <trkpt lat="48.19755" lon="-3.00077">
        <ele>195.874925</ele>
        <time>2022-12-12T14:45:44.829Z</time>
      </trkpt>
      <trkpt lat="48.19753" lon="-3.00091">
        <ele>195.600022</ele>
        <time>2022-12-12T14:45:47.825Z</time>
      </trkpt>
      <trkpt lat="48.19751" lon="-3.00105">
        <ele>195.327086</ele>
        <time>2022-12-12T14:45:50.827Z</time>
      </trkpt>
      <trkpt lat="48.19748" lon="-3.00121">
        <ele>195.007139</ele>
        <time>2022-12-12T14:45:53.814Z</time>
      </trkpt>
      <trkpt lat="48.19745" lon="-3.00136">
        <ele>194.705454</ele>
        <time>2022-12-12T14:45:56.825Z</time>
      </trkpt>
      <trkpt lat="48.19744" lon="-3.00151">
        <ele>194.582312</ele>
        <time>2022-12-12T14:45:59.814Z</time>
      </trkpt>
      <trkpt lat="48.19743" lon="-3.00168">
        <ele>194.6064</ele>
        <time>2022-12-12T14:46:03.831Z</time>
      </trkpt>
      <trkpt lat="48.19742" lon="-3.00182">
        <ele>194.625679</ele>
        <time>2022-12-12T14:46:06.830Z</time>
      </trkpt>
      <trkpt lat="48.19741" lon="-3.00196">
        <ele>194.645762</ele>
        <time>2022-12-12T14:46:09.817Z</time>
      </trkpt>
      <trkpt lat="48.19741" lon="-3.0021">
        <ele>194.665084</ele>
        <time>2022-12-12T14:46:12.823Z</time>
      </trkpt>
      <trkpt lat="48.19739" lon="-3.00226">
        <ele>194.687764</ele>
        <time>2022-12-12T14:46:16.807Z</time>
      </trkpt>
      <trkpt lat="48.19738" lon="-3.00241">
        <ele>194.708334</ele>
        <time>2022-12-12T14:46:19.817Z</time>
      </trkpt>
      <trkpt lat="48.19735" lon="-3.00256">
        <ele>194.73009</ele>
        <time>2022-12-12T14:46:22.823Z</time>
      </trkpt>
      <trkpt lat="48.19733" lon="-3.00273">
        <ele>194.753591</ele>
        <time>2022-12-12T14:46:25.809Z</time>
      </trkpt>
      <trkpt lat="48.19732" lon="-3.0029">
        <ele>194.777436</ele>
        <time>2022-12-12T14:46:28.828Z</time>
      </trkpt>
      <trkpt lat="48.1973" lon="-3.00306">
        <ele>194.79933</ele>
        <time>2022-12-12T14:46:31.830Z</time>
      </trkpt>
      <trkpt lat="48.19728" lon="-3.0032">
        <ele>194.819034</ele>
        <time>2022-12-12T14:46:34.828Z</time>
      </trkpt>
      <trkpt lat="48.19727" lon="-3.00336">
        <ele>194.841668</ele>
        <time>2022-12-12T14:46:38.830Z</time>
      </trkpt>
      <trkpt lat="48.19725" lon="-3.00352">
        <ele>194.864039</ele>
        <time>2022-12-12T14:46:43.807Z</time>
      </trkpt>
      <trkpt lat="48.19724" lon="-3.00367">
        <ele>194.885934</ele>
        <time>2022-12-12T14:46:48.809Z</time>
      </trkpt>
      <trkpt lat="48.19718" lon="-3.00381">
        <ele>194.908096</ele>
        <time>2022-12-12T14:46:53.810Z</time>
      </trkpt>
      <trkpt lat="48.19713" lon="-3.00392">
        <ele>194.927373</ele>
        <time>2022-12-12T14:46:56.825Z</time>
      </trkpt>
      <trkpt lat="48.19705" lon="-3.00407">
        <ele>194.969742</ele>
        <time>2022-12-12T14:46:59.816Z</time>
      </trkpt>
      <trkpt lat="48.19698" lon="-3.00418">
        <ele>195.027462</ele>
        <time>2022-12-12T14:47:01.826Z</time>
      </trkpt>
      <trkpt lat="48.19691" lon="-3.00429">
        <ele>195.086121</ele>
        <time>2022-12-12T14:47:03.815Z</time>
      </trkpt>
      <trkpt lat="48.19684" lon="-3.0044">
        <ele>195.144876</ele>
        <time>2022-12-12T14:47:05.819Z</time>
      </trkpt>
      <trkpt lat="48.19678" lon="-3.00453">
        <ele>195.207661</ele>
        <time>2022-12-12T14:47:07.825Z</time>
      </trkpt>
      <trkpt lat="48.19671" lon="-3.00467">
        <ele>195.273374</ele>
        <time>2022-12-12T14:47:09.827Z</time>
      </trkpt>
      <trkpt lat="48.19664" lon="-3.00481">
        <ele>195.342991</ele>
        <time>2022-12-12T14:47:11.828Z</time>
      </trkpt>
      <trkpt lat="48.19657" lon="-3.00494">
        <ele>195.411388</ele>
        <time>2022-12-12T14:47:13.826Z</time>
      </trkpt>
      <trkpt lat="48.19648" lon="-3.00509">
        <ele>195.486778</ele>
        <time>2022-12-12T14:47:15.814Z</time>
      </trkpt>
      <trkpt lat="48.19641" lon="-3.00523">
        <ele>195.557685</ele>
        <time>2022-12-12T14:47:17.824Z</time>
      </trkpt>
      <trkpt lat="48.19634" lon="-3.00536">
        <ele>195.622203</ele>
        <time>2022-12-12T14:47:19.814Z</time>
      </trkpt>
      <trkpt lat="48.19628" lon="-3.00548">
        <ele>195.680197</ele>
        <time>2022-12-12T14:47:21.826Z</time>
      </trkpt>
      <trkpt lat="48.19619" lon="-3.00562">
        <ele>195.755576</ele>
        <time>2022-12-12T14:47:24.844Z</time>
      </trkpt>
      <trkpt lat="48.19613" lon="-3.00572">
        <ele>195.80983</ele>
        <time>2022-12-12T14:47:27.828Z</time>
      </trkpt>
      <trkpt lat="48.19606" lon="-3.00582">
        <ele>195.863552</ele>
        <time>2022-12-12T14:47:30.827Z</time>
      </trkpt>
      <trkpt lat="48.19601" lon="-3.00595">
        <ele>195.924993</ele>
        <time>2022-12-12T14:47:34.825Z</time>
      </trkpt>
      <trkpt lat="48.19602" lon="-3.00611">
        <ele>195.986838</ele>
        <time>2022-12-12T14:47:39.816Z</time>
      </trkpt>
      <trkpt lat="48.19606" lon="-3.00625">
        <ele>196.438162</ele>
        <time>2022-12-12T14:47:44.828Z</time>
      </trkpt>
      <trkpt lat="48.19609" lon="-3.00638">
        <ele>196.943214</ele>
        <time>2022-12-12T14:47:49.818Z</time>
      </trkpt>
      <trkpt lat="48.19614" lon="-3.00651">
        <ele>197.503101</ele>
        <time>2022-12-12T14:47:55.815Z</time>
      </trkpt>
      <trkpt lat="48.19618" lon="-3.00665">
        <ele>198.05337</ele>
        <time>2022-12-12T14:48:01.814Z</time>
      </trkpt>
      <trkpt lat="48.19621" lon="-3.00678">
        <ele>198.568088</ele>
        <time>2022-12-12T14:48:09.807Z</time>
      </trkpt>
      <trkpt lat="48.19622" lon="-3.00693">
        <ele>199.116458</ele>
        <time>2022-12-12T14:48:16.818Z</time>
      </trkpt>
      <trkpt lat="48.19619" lon="-3.00706">
        <ele>199.616255</ele>
        <time>2022-12-12T14:48:23.810Z</time>
      </trkpt>
      <trkpt lat="48.19618" lon="-3.0072">
        <ele>200.13519</ele>
        <time>2022-12-12T14:48:30.816Z</time>
      </trkpt>
      <trkpt lat="48.19615" lon="-3.00735">
        <ele>200.696462</ele>
        <time>2022-12-12T14:48:37.813Z</time>
      </trkpt>
      <trkpt lat="48.19612" lon="-3.00748">
        <ele>201.237091</ele>
        <time>2022-12-12T14:48:44.820Z</time>
      </trkpt>
      <trkpt lat="48.19607" lon="-3.00763">
        <ele>201.813022</ele>
        <time>2022-12-12T14:48:51.815Z</time>
      </trkpt>
      <trkpt lat="48.19603" lon="-3.00775">
        <ele>202.313068</ele>
        <time>2022-12-12T14:48:57.816Z</time>
      </trkpt>
      <trkpt lat="48.196" lon="-3.00788">
        <ele>202.811513</ele>
        <time>2022-12-12T14:49:03.809Z</time>
      </trkpt>
      <trkpt lat="48.19595" lon="-3.00801">
        <ele>203.374418</ele>
        <time>2022-12-12T14:49:09.808Z</time>
      </trkpt>
      <trkpt lat="48.1959" lon="-3.00813">
        <ele>203.907208</ele>
        <time>2022-12-12T14:49:15.813Z</time>
      </trkpt>
      <trkpt lat="48.19585" lon="-3.00827">
        <ele>204.491521</ele>
        <time>2022-12-12T14:49:21.808Z</time>
      </trkpt>
      <trkpt lat="48.1958" lon="-3.00841">
        <ele>205.055527</ele>
        <time>2022-12-12T14:49:27.804Z</time>
      </trkpt>
      <trkpt lat="48.19577" lon="-3.00856">
        <ele>205.631948</ele>
        <time>2022-12-12T14:49:33.815Z</time>
      </trkpt>
      <trkpt lat="48.19571" lon="-3.00867">
        <ele>205.794791</ele>
        <time>2022-12-12T14:49:39.818Z</time>
      </trkpt>
      <trkpt lat="48.19562" lon="-3.0087">
        <ele>205.558872</ele>
        <time>2022-12-12T14:49:44.814Z</time>
      </trkpt>
      <trkpt lat="48.19552" lon="-3.00872">
        <ele>205.32644</ele>
        <time>2022-12-12T14:49:49.829Z</time>
      </trkpt>
      <trkpt lat="48.19542" lon="-3.00878">
        <ele>205.071445</ele>
        <time>2022-12-12T14:49:54.815Z</time>
      </trkpt>
      <trkpt lat="48.19532" lon="-3.00882">
        <ele>204.821876</ele>
        <time>2022-12-12T14:49:58.823Z</time>
      </trkpt>
      <trkpt lat="48.19523" lon="-3.00886">
        <ele>204.592733</ele>
        <time>2022-12-12T14:50:02.828Z</time>
      </trkpt>
      <trkpt lat="48.19514" lon="-3.00888">
        <ele>204.356237</ele>
        <time>2022-12-12T14:50:06.824Z</time>
      </trkpt>
      <trkpt lat="48.19504" lon="-3.00892">
        <ele>204.112146</ele>
        <time>2022-12-12T14:50:10.828Z</time>
      </trkpt>
      <trkpt lat="48.19494" lon="-3.00894">
        <ele>203.87017</ele>
        <time>2022-12-12T14:50:14.831Z</time>
      </trkpt>
      <trkpt lat="48.19483" lon="-3.00897">
        <ele>203.592336</ele>
        <time>2022-12-12T14:50:18.838Z</time>
      </trkpt>
      <trkpt lat="48.19473" lon="-3.00898">
        <ele>203.3568</ele>
        <time>2022-12-12T14:50:21.830Z</time>
      </trkpt>
      <trkpt lat="48.19463" lon="-3.00897">
        <ele>203.124469</ele>
        <time>2022-12-12T14:50:24.827Z</time>
      </trkpt>
      <trkpt lat="48.19453" lon="-3.00898">
        <ele>202.87285</ele>
        <time>2022-12-12T14:50:27.809Z</time>
      </trkpt>
      <trkpt lat="48.19441" lon="-3.00899">
        <ele>202.59491</ele>
        <time>2022-12-12T14:50:30.827Z</time>
      </trkpt>
      <trkpt lat="48.1943" lon="-3.00899">
        <ele>202.312267</ele>
        <time>2022-12-12T14:50:33.844Z</time>
      </trkpt>
      <trkpt lat="48.19418" lon="-3.00899">
        <ele>202.022401</ele>
        <time>2022-12-12T14:50:36.828Z</time>
      </trkpt>
      <trkpt lat="48.19407" lon="-3.009">
        <ele>201.756117</ele>
        <time>2022-12-12T14:50:39.827Z</time>
      </trkpt>
      <trkpt lat="48.19396" lon="-3.009">
        <ele>201.423466</ele>
        <time>2022-12-12T14:50:42.826Z</time>
      </trkpt>
      <trkpt lat="48.19385" lon="-3.009">
        <ele>200.897308</ele>
        <time>2022-12-12T14:50:45.827Z</time>
      </trkpt>
      <trkpt lat="48.19374" lon="-3.00899">
        <ele>200.371269</ele>
        <time>2022-12-12T14:50:48.821Z</time>
      </trkpt>
      <trkpt lat="48.19363" lon="-3.00898">
        <ele>199.820144</ele>
        <time>2022-12-12T14:50:51.819Z</time>
      </trkpt>
      <trkpt lat="48.19351" lon="-3.00898">
        <ele>199.225393</ele>
        <time>2022-12-12T14:50:54.842Z</time>
      </trkpt>
      <trkpt lat="48.19339" lon="-3.00898">
        <ele>198.674804</ele>
        <time>2022-12-12T14:50:57.820Z</time>
      </trkpt>
      <trkpt lat="48.19329" lon="-3.00899">
        <ele>198.171647</ele>
        <time>2022-12-12T14:51:00.830Z</time>
      </trkpt>
      <trkpt lat="48.19317" lon="-3.00899">
        <ele>197.591929</ele>
        <time>2022-12-12T14:51:04.842Z</time>
      </trkpt>
      <trkpt lat="48.19307" lon="-3.00899">
        <ele>197.109666</ele>
        <time>2022-12-12T14:51:07.816Z</time>
      </trkpt>
      <trkpt lat="48.19296" lon="-3.00901">
        <ele>196.552588</ele>
        <time>2022-12-12T14:51:10.827Z</time>
      </trkpt>
      <trkpt lat="48.19284" lon="-3.00902">
        <ele>195.971481</ele>
        <time>2022-12-12T14:51:13.829Z</time>
      </trkpt>
      <trkpt lat="48.19273" lon="-3.00904">
        <ele>195.441082</ele>
        <time>2022-12-12T14:51:16.828Z</time>
      </trkpt>
      <trkpt lat="48.19262" lon="-3.00908">
        <ele>194.873014</ele>
        <time>2022-12-12T14:51:19.829Z</time>
      </trkpt>
      <trkpt lat="48.1925" lon="-3.00912">
        <ele>194.28633</ele>
        <time>2022-12-12T14:51:22.823Z</time>
      </trkpt>
      <trkpt lat="48.19239" lon="-3.00916">
        <ele>193.727164</ele>
        <time>2022-12-12T14:51:25.815Z</time>
      </trkpt>
      <trkpt lat="48.19228" lon="-3.00919">
        <ele>193.173057</ele>
        <time>2022-12-12T14:51:28.832Z</time>
      </trkpt>
      <trkpt lat="48.19217" lon="-3.00922">
        <ele>192.554288</ele>
        <time>2022-12-12T14:51:31.827Z</time>
      </trkpt>
      <trkpt lat="48.19205" lon="-3.00925">
        <ele>191.808651</ele>
        <time>2022-12-12T14:51:34.829Z</time>
      </trkpt>
      <trkpt lat="48.19194" lon="-3.00928">
        <ele>191.034919</ele>
        <time>2022-12-12T14:51:37.834Z</time>
      </trkpt>
      <trkpt lat="48.19183" lon="-3.00931">
        <ele>190.289605</ele>
        <time>2022-12-12T14:51:40.836Z</time>
      </trkpt>
      <trkpt lat="48.19172" lon="-3.00936">
        <ele>189.523281</ele>
        <time>2022-12-12T14:51:43.829Z</time>
      </trkpt>
      <trkpt lat="48.19161" lon="-3.00941">
        <ele>188.801012</ele>
        <time>2022-12-12T14:51:46.829Z</time>
      </trkpt>
      <trkpt lat="48.19151" lon="-3.00946">
        <ele>188.092659</ele>
        <time>2022-12-12T14:51:49.839Z</time>
      </trkpt>
      <trkpt lat="48.19141" lon="-3.00952">
        <ele>187.353691</ele>
        <time>2022-12-12T14:51:52.825Z</time>
      </trkpt>
      <trkpt lat="48.1913" lon="-3.00957">
        <ele>186.630042</ele>
        <time>2022-12-12T14:51:55.830Z</time>
      </trkpt>
      <trkpt lat="48.19121" lon="-3.00962">
        <ele>185.983625</ele>
        <time>2022-12-12T14:51:58.828Z</time>
      </trkpt>
      <trkpt lat="48.19112" lon="-3.00967">
        <ele>185.339235</ele>
        <time>2022-12-12T14:52:01.808Z</time>
      </trkpt>
      <trkpt lat="48.19102" lon="-3.00972">
        <ele>184.682331</ele>
        <time>2022-12-12T14:52:04.838Z</time>
      </trkpt>
      <trkpt lat="48.19092" lon="-3.00977">
        <ele>183.992773</ele>
        <time>2022-12-12T14:52:08.844Z</time>
      </trkpt>
      <trkpt lat="48.19084" lon="-3.00983">
        <ele>183.370853</ele>
        <time>2022-12-12T14:52:12.816Z</time>
      </trkpt>
      <trkpt lat="48.19075" lon="-3.0099">
        <ele>182.713519</ele>
        <time>2022-12-12T14:52:16.831Z</time>
      </trkpt>
      <trkpt lat="48.19068" lon="-3.00999">
        <ele>182.07434</ele>
        <time>2022-12-12T14:52:19.816Z</time>
      </trkpt>
      <trkpt lat="48.19062" lon="-3.01011">
        <ele>181.440504</ele>
        <time>2022-12-12T14:52:22.819Z</time>
      </trkpt>
      <trkpt lat="48.19056" lon="-3.01022">
        <ele>180.773323</ele>
        <time>2022-12-12T14:52:25.825Z</time>
      </trkpt>
      <trkpt lat="48.19049" lon="-3.01034">
        <ele>179.962514</ele>
        <time>2022-12-12T14:52:28.829Z</time>
      </trkpt>
      <trkpt lat="48.19043" lon="-3.01046">
        <ele>179.160714</ele>
        <time>2022-12-12T14:52:31.818Z</time>
      </trkpt>
      <trkpt lat="48.19037" lon="-3.01058">
        <ele>178.384549</ele>
        <time>2022-12-12T14:52:34.817Z</time>
      </trkpt>
      <trkpt lat="48.19029" lon="-3.01071">
        <ele>177.470734</ele>
        <time>2022-12-12T14:52:38.827Z</time>
      </trkpt>
      <trkpt lat="48.19024" lon="-3.01082">
        <ele>176.749602</ele>
        <time>2022-12-12T14:52:41.837Z</time>
      </trkpt>
      <trkpt lat="48.19018" lon="-3.01094">
        <ele>175.998342</ele>
        <time>2022-12-12T14:52:44.829Z</time>
      </trkpt>
      <trkpt lat="48.19011" lon="-3.01106">
        <ele>175.155333</ele>
        <time>2022-12-12T14:52:47.833Z</time>
      </trkpt>
      <trkpt lat="48.19004" lon="-3.01116">
        <ele>174.401785</ele>
        <time>2022-12-12T14:52:50.842Z</time>
      </trkpt>
      <trkpt lat="48.18997" lon="-3.01129">
        <ele>173.529987</ele>
        <time>2022-12-12T14:52:54.814Z</time>
      </trkpt>
      <trkpt lat="48.18989" lon="-3.01142">
        <ele>172.623417</ele>
        <time>2022-12-12T14:52:58.819Z</time>
      </trkpt>
      <trkpt lat="48.18982" lon="-3.01152">
        <ele>171.832924</ele>
        <time>2022-12-12T14:53:01.811Z</time>
      </trkpt>
      <trkpt lat="48.18975" lon="-3.01163">
        <ele>171.11439</ele>
        <time>2022-12-12T14:53:04.831Z</time>
      </trkpt>
      <trkpt lat="48.18968" lon="-3.01171">
        <ele>170.395723</ele>
        <time>2022-12-12T14:53:07.827Z</time>
      </trkpt>
      <trkpt lat="48.1896" lon="-3.01178">
        <ele>169.69268</ele>
        <time>2022-12-12T14:53:10.810Z</time>
      </trkpt>
      <trkpt lat="48.18953" lon="-3.01187">
        <ele>168.946173</ele>
        <time>2022-12-12T14:53:13.841Z</time>
      </trkpt>
      <trkpt lat="48.18943" lon="-3.01198">
        <ele>168.01204</ele>
        <time>2022-12-12T14:53:17.829Z</time>
      </trkpt>
      <trkpt lat="48.18934" lon="-3.01208">
        <ele>167.131254</ele>
        <time>2022-12-12T14:53:21.817Z</time>
      </trkpt>
      <trkpt lat="48.18927" lon="-3.01217">
        <ele>166.142814</ele>
        <time>2022-12-12T14:53:24.828Z</time>
      </trkpt>
      <trkpt lat="48.18919" lon="-3.01227">
        <ele>164.897411</ele>
        <time>2022-12-12T14:53:27.840Z</time>
      </trkpt>
      <trkpt lat="48.18911" lon="-3.01237">
        <ele>163.593079</ele>
        <time>2022-12-12T14:53:30.811Z</time>
      </trkpt>
      <trkpt lat="48.18902" lon="-3.01248">
        <ele>162.256058</ele>
        <time>2022-12-12T14:53:33.830Z</time>
      </trkpt>
      <trkpt lat="48.18894" lon="-3.01259">
        <ele>160.940133</ele>
        <time>2022-12-12T14:53:36.826Z</time>
      </trkpt>
      <trkpt lat="48.18887" lon="-3.01269">
        <ele>159.826723</ele>
        <time>2022-12-12T14:53:39.830Z</time>
      </trkpt>
      <trkpt lat="48.18879" lon="-3.01281">
        <ele>158.423709</ele>
        <time>2022-12-12T14:53:43.835Z</time>
      </trkpt>
      <trkpt lat="48.18871" lon="-3.0129">
        <ele>157.315822</ele>
        <time>2022-12-12T14:53:46.810Z</time>
      </trkpt>
      <trkpt lat="48.18863" lon="-3.01301">
        <ele>155.959501</ele>
        <time>2022-12-12T14:53:50.822Z</time>
      </trkpt>
      <trkpt lat="48.18855" lon="-3.0131">
        <ele>154.815634</ele>
        <time>2022-12-12T14:53:54.825Z</time>
      </trkpt>
      <trkpt lat="48.18848" lon="-3.0132">
        <ele>153.627506</ele>
        <time>2022-12-12T14:53:59.816Z</time>
      </trkpt>
      <trkpt lat="48.18848" lon="-3.01335">
        <ele>152.433117</ele>
        <time>2022-12-12T14:54:05.816Z</time>
      </trkpt>
      <trkpt lat="48.18855" lon="-3.01347">
        <ele>151.18079</ele>
        <time>2022-12-12T14:54:09.812Z</time>
      </trkpt>
      <trkpt lat="48.18864" lon="-3.01356">
        <ele>149.868021</ele>
        <time>2022-12-12T14:54:13.828Z</time>
      </trkpt>
      <trkpt lat="48.18872" lon="-3.01364">
        <ele>148.677347</ele>
        <time>2022-12-12T14:54:16.815Z</time>
      </trkpt>
      <trkpt lat="48.18882" lon="-3.01373">
        <ele>147.267795</ele>
        <time>2022-12-12T14:54:19.809Z</time>
      </trkpt>
      <trkpt lat="48.18891" lon="-3.01382">
        <ele>146.04559</ele>
        <time>2022-12-12T14:54:21.830Z</time>
      </trkpt>
      <trkpt lat="48.18898" lon="-3.01391">
        <ele>145.187337</ele>
        <time>2022-12-12T14:54:23.831Z</time>
      </trkpt>
      <trkpt lat="48.18907" lon="-3.01401">
        <ele>144.61461</ele>
        <time>2022-12-12T14:54:25.810Z</time>
      </trkpt>
      <trkpt lat="48.18916" lon="-3.01414">
        <ele>143.999826</ele>
        <time>2022-12-12T14:54:27.826Z</time>
      </trkpt>
      <trkpt lat="48.18923" lon="-3.01426">
        <ele>143.428768</ele>
        <time>2022-12-12T14:54:29.819Z</time>
      </trkpt>
      <trkpt lat="48.18931" lon="-3.01439">
        <ele>142.838437</ele>
        <time>2022-12-12T14:54:31.826Z</time>
      </trkpt>
      <trkpt lat="48.18938" lon="-3.01452">
        <ele>142.274638</ele>
        <time>2022-12-12T14:54:33.834Z</time>
      </trkpt>
      <trkpt lat="48.18944" lon="-3.01464">
        <ele>141.756543</ele>
        <time>2022-12-12T14:54:35.836Z</time>
      </trkpt>
      <trkpt lat="48.1895" lon="-3.01475">
        <ele>141.237517</ele>
        <time>2022-12-12T14:54:37.825Z</time>
      </trkpt>
      <trkpt lat="48.18956" lon="-3.01487">
        <ele>140.740454</ele>
        <time>2022-12-12T14:54:39.820Z</time>
      </trkpt>
      <trkpt lat="48.18961" lon="-3.015">
        <ele>140.245851</ele>
        <time>2022-12-12T14:54:41.814Z</time>
      </trkpt>
      <trkpt lat="48.18966" lon="-3.01513">
        <ele>139.699067</ele>
        <time>2022-12-12T14:54:43.819Z</time>
      </trkpt>
      <trkpt lat="48.18971" lon="-3.01527">
        <ele>139.157351</ele>
        <time>2022-12-12T14:54:45.830Z</time>
      </trkpt>
      <trkpt lat="48.18976" lon="-3.01541">
        <ele>138.631423</ele>
        <time>2022-12-12T14:54:47.842Z</time>
      </trkpt>
      <trkpt lat="48.18981" lon="-3.01554">
        <ele>138.105328</ele>
        <time>2022-12-12T14:54:49.829Z</time>
      </trkpt>
      <trkpt lat="48.18985" lon="-3.01568">
        <ele>137.578695</ele>
        <time>2022-12-12T14:54:51.814Z</time>
      </trkpt>
      <trkpt lat="48.18989" lon="-3.01586">
        <ele>136.915475</ele>
        <time>2022-12-12T14:54:54.831Z</time>
      </trkpt>
      <trkpt lat="48.18993" lon="-3.01605">
        <ele>136.234439</ele>
        <time>2022-12-12T14:54:57.828Z</time>
      </trkpt>
      <trkpt lat="48.18996" lon="-3.01619">
        <ele>135.804031</ele>
        <time>2022-12-12T14:54:59.824Z</time>
      </trkpt>
      <trkpt lat="48.18999" lon="-3.01637">
        <ele>135.253793</ele>
        <time>2022-12-12T14:55:02.830Z</time>
      </trkpt>
      <trkpt lat="48.19" lon="-3.0165">
        <ele>134.848628</ele>
        <time>2022-12-12T14:55:04.830Z</time>
      </trkpt>
      <trkpt lat="48.19003" lon="-3.01667">
        <ele>134.325685</ele>
        <time>2022-12-12T14:55:07.817Z</time>
      </trkpt>
      <trkpt lat="48.19005" lon="-3.01683">
        <ele>133.829769</ele>
        <time>2022-12-12T14:55:10.826Z</time>
      </trkpt>
      <trkpt lat="48.19007" lon="-3.017">
        <ele>133.332984</ele>
        <time>2022-12-12T14:55:14.844Z</time>
      </trkpt>
      <trkpt lat="48.1901" lon="-3.01715">
        <ele>132.855543</ele>
        <time>2022-12-12T14:55:18.826Z</time>
      </trkpt>
      <trkpt lat="48.19001" lon="-3.01708">
        <ele>132.41667</ele>
        <time>2022-12-12T14:56:03.815Z</time>
      </trkpt>
      <trkpt lat="48.18995" lon="-3.01696">
        <ele>131.942688</ele>
        <time>2022-12-12T14:56:07.826Z</time>
      </trkpt>
      <trkpt lat="48.18988" lon="-3.01668">
        <ele>131.064187</ele>
        <time>2022-12-12T14:56:44.812Z</time>
      </trkpt>
      <trkpt lat="48.1898" lon="-3.01656">
        <ele>130.54878</ele>
        <time>2022-12-12T14:56:47.812Z</time>
      </trkpt>
      <trkpt lat="48.18973" lon="-3.01643">
        <ele>130.076041</ele>
        <time>2022-12-12T14:56:50.810Z</time>
      </trkpt>
      <trkpt lat="48.18967" lon="-3.01632">
        <ele>129.64451</ele>
        <time>2022-12-12T14:56:53.831Z</time>
      </trkpt>
      <trkpt lat="48.18961" lon="-3.01622">
        <ele>129.228474</ele>
        <time>2022-12-12T14:56:56.839Z</time>
      </trkpt>
      <trkpt lat="48.18955" lon="-3.0161">
        <ele>128.760903</ele>
        <time>2022-12-12T14:57:00.837Z</time>
      </trkpt>
      <trkpt lat="48.18946" lon="-3.01597">
        <ele>128.206354</ele>
        <time>2022-12-12T14:57:04.836Z</time>
      </trkpt>
      <trkpt lat="48.18939" lon="-3.01586">
        <ele>128.077859</ele>
        <time>2022-12-12T14:57:07.839Z</time>
      </trkpt>
      <trkpt lat="48.18932" lon="-3.01577">
        <ele>128.044445</ele>
        <time>2022-12-12T14:57:10.830Z</time>
      </trkpt>
      <trkpt lat="48.18924" lon="-3.01566">
        <ele>128.004532</ele>
        <time>2022-12-12T14:57:14.830Z</time>
      </trkpt>
      <trkpt lat="48.18917" lon="-3.01557">
        <ele>127.971884</ele>
        <time>2022-12-12T14:57:18.831Z</time>
      </trkpt>
      <trkpt lat="48.1891" lon="-3.01547">
        <ele>127.936404</ele>
        <time>2022-12-12T14:57:24.816Z</time>
      </trkpt>
      <trkpt lat="48.18901" lon="-3.01534">
        <ele>127.888601</ele>
        <time>2022-12-12T14:57:51.815Z</time>
      </trkpt>
      <trkpt lat="48.18892" lon="-3.01522">
        <ele>127.847221</ele>
        <time>2022-12-12T14:57:55.817Z</time>
      </trkpt>
      <trkpt lat="48.18885" lon="-3.01512">
        <ele>127.81192</ele>
        <time>2022-12-12T14:57:58.833Z</time>
      </trkpt>
      <trkpt lat="48.18879" lon="-3.01502">
        <ele>127.777871</ele>
        <time>2022-12-12T14:58:01.842Z</time>
      </trkpt>
      <trkpt lat="48.1887" lon="-3.01492">
        <ele>127.738282</ele>
        <time>2022-12-12T14:58:05.843Z</time>
      </trkpt>
      <trkpt lat="48.18863" lon="-3.01481">
        <ele>127.701505</ele>
        <time>2022-12-12T14:58:09.814Z</time>
      </trkpt>
      <trkpt lat="48.18856" lon="-3.01471">
        <ele>127.667321</ele>
        <time>2022-12-12T14:58:13.829Z</time>
      </trkpt>
      <trkpt lat="48.18848" lon="-3.0146">
        <ele>127.626913</ele>
        <time>2022-12-12T14:58:18.828Z</time>
      </trkpt>
      <trkpt lat="48.18841" lon="-3.01449">
        <ele>127.589103</ele>
        <time>2022-12-12T14:58:23.831Z</time>
      </trkpt>
      <trkpt lat="48.18833" lon="-3.01439">
        <ele>127.551194</ele>
        <time>2022-12-12T14:58:30.821Z</time>
      </trkpt>
      <trkpt lat="48.18827" lon="-3.01428">
        <ele>127.516848</ele>
        <time>2022-12-12T14:58:35.816Z</time>
      </trkpt>
      <trkpt lat="48.1882" lon="-3.01416">
        <ele>127.477843</ele>
        <time>2022-12-12T14:58:39.819Z</time>
      </trkpt>
      <trkpt lat="48.18813" lon="-3.01407">
        <ele>127.441467</ele>
        <time>2022-12-12T14:58:42.816Z</time>
      </trkpt>
      <trkpt lat="48.18806" lon="-3.01398">
        <ele>127.387793</ele>
        <time>2022-12-12T14:58:45.814Z</time>
      </trkpt>
      <trkpt lat="48.18799" lon="-3.01389">
        <ele>127.333427</ele>
        <time>2022-12-12T14:58:48.833Z</time>
      </trkpt>
      <trkpt lat="48.18792" lon="-3.01378">
        <ele>127.276145</ele>
        <time>2022-12-12T14:58:51.825Z</time>
      </trkpt>
      <trkpt lat="48.18786" lon="-3.01367">
        <ele>127.218589</ele>
        <time>2022-12-12T14:58:54.838Z</time>
      </trkpt>
      <trkpt lat="48.18778" lon="-3.01356">
        <ele>127.159248</ele>
        <time>2022-12-12T14:58:57.815Z</time>
      </trkpt>
      <trkpt lat="48.18772" lon="-3.01346">
        <ele>127.104153</ele>
        <time>2022-12-12T14:59:00.835Z</time>
      </trkpt>
      <trkpt lat="48.18765" lon="-3.01337">
        <ele>127.050399</ele>
        <time>2022-12-12T14:59:03.809Z</time>
      </trkpt>
      <trkpt lat="48.18757" lon="-3.01327">
        <ele>126.991437</ele>
        <time>2022-12-12T14:59:06.841Z</time>
      </trkpt>
      <trkpt lat="48.1875" lon="-3.01316">
        <ele>126.930725</ele>
        <time>2022-12-12T14:59:09.813Z</time>
      </trkpt>
      <trkpt lat="48.18742" lon="-3.01305">
        <ele>126.867366</ele>
        <time>2022-12-12T14:59:12.832Z</time>
      </trkpt>
      <trkpt lat="48.18733" lon="-3.01294">
        <ele>126.801073</ele>
        <time>2022-12-12T14:59:15.825Z</time>
      </trkpt>
      <trkpt lat="48.18724" lon="-3.01283">
        <ele>126.734324</ele>
        <time>2022-12-12T14:59:18.846Z</time>
      </trkpt>
      <trkpt lat="48.18716" lon="-3.01275">
        <ele>126.676681</ele>
        <time>2022-12-12T14:59:21.829Z</time>
      </trkpt>
      <trkpt lat="48.18707" lon="-3.01269">
        <ele>126.620344</ele>
        <time>2022-12-12T14:59:24.816Z</time>
      </trkpt>
      <trkpt lat="48.18697" lon="-3.01261">
        <ele>126.555609</ele>
        <time>2022-12-12T14:59:28.829Z</time>
      </trkpt>
      <trkpt lat="48.18688" lon="-3.01253">
        <ele>126.497144</ele>
        <time>2022-12-12T14:59:31.832Z</time>
      </trkpt>
      <trkpt lat="48.18679" lon="-3.01247">
        <ele>126.436992</ele>
        <time>2022-12-12T14:59:34.829Z</time>
      </trkpt>
      <trkpt lat="48.18669" lon="-3.01239">
        <ele>126.465931</ele>
        <time>2022-12-12T14:59:37.832Z</time>
      </trkpt>
      <trkpt lat="48.18659" lon="-3.01232">
        <ele>126.610938</ele>
        <time>2022-12-12T14:59:40.831Z</time>
      </trkpt>
      <trkpt lat="48.18648" lon="-3.01226">
        <ele>126.761699</ele>
        <time>2022-12-12T14:59:43.834Z</time>
      </trkpt>
      <trkpt lat="48.18636" lon="-3.0122">
        <ele>126.912531</ele>
        <time>2022-12-12T14:59:46.831Z</time>
      </trkpt>
      <trkpt lat="48.18625" lon="-3.01214">
        <ele>127.066005</ele>
        <time>2022-12-12T14:59:49.839Z</time>
      </trkpt>
      <trkpt lat="48.18613" lon="-3.01209">
        <ele>127.222744</ele>
        <time>2022-12-12T14:59:52.841Z</time>
      </trkpt>
      <trkpt lat="48.18602" lon="-3.01203">
        <ele>127.371745</ele>
        <time>2022-12-12T14:59:55.837Z</time>
      </trkpt>
      <trkpt lat="48.18591" lon="-3.01196">
        <ele>127.519984</ele>
        <time>2022-12-12T14:59:58.836Z</time>
      </trkpt>
      <trkpt lat="48.18579" lon="-3.0119">
        <ele>127.670461</ele>
        <time>2022-12-12T15:00:01.830Z</time>
      </trkpt>
      <trkpt lat="48.1857" lon="-3.01185">
        <ele>127.790427</ele>
        <time>2022-12-12T15:00:04.821Z</time>
      </trkpt>
      <trkpt lat="48.1856" lon="-3.01179">
        <ele>127.93034</ele>
        <time>2022-12-12T15:00:08.830Z</time>
      </trkpt>
      <trkpt lat="48.18549" lon="-3.01173">
        <ele>128.075254</ele>
        <time>2022-12-12T15:00:12.828Z</time>
      </trkpt>
      <trkpt lat="48.1854" lon="-3.01168">
        <ele>128.19346</ele>
        <time>2022-12-12T15:00:15.840Z</time>
      </trkpt>
      <trkpt lat="48.18531" lon="-3.01162">
        <ele>128.321666</ele>
        <time>2022-12-12T15:00:18.814Z</time>
      </trkpt>
      <trkpt lat="48.1852" lon="-3.01156">
        <ele>128.465399</ele>
        <time>2022-12-12T15:00:21.816Z</time>
      </trkpt>
      <trkpt lat="48.18509" lon="-3.01149">
        <ele>128.611333</ele>
        <time>2022-12-12T15:00:24.833Z</time>
      </trkpt>
      <trkpt lat="48.18499" lon="-3.01143">
        <ele>128.707579</ele>
        <time>2022-12-12T15:00:27.830Z</time>
      </trkpt>
      <trkpt lat="48.18488" lon="-3.01136">
        <ele>128.784061</ele>
        <time>2022-12-12T15:00:30.825Z</time>
      </trkpt>
      <trkpt lat="48.18477" lon="-3.01129">
        <ele>128.86306</ele>
        <time>2022-12-12T15:00:33.841Z</time>
      </trkpt>
      <trkpt lat="48.18465" lon="-3.01123">
        <ele>128.944553</ele>
        <time>2022-12-12T15:00:36.844Z</time>
      </trkpt>
      <trkpt lat="48.18454" lon="-3.01115">
        <ele>129.026466</ele>
        <time>2022-12-12T15:00:39.829Z</time>
      </trkpt>
      <trkpt lat="48.18442" lon="-3.01107">
        <ele>129.11071</ele>
        <time>2022-12-12T15:00:42.826Z</time>
      </trkpt>
      <trkpt lat="48.18431" lon="-3.01099">
        <ele>129.19317</ele>
        <time>2022-12-12T15:00:45.823Z</time>
      </trkpt>
      <trkpt lat="48.18419" lon="-3.01092">
        <ele>129.272061</ele>
        <time>2022-12-12T15:00:48.846Z</time>
      </trkpt>
      <trkpt lat="48.18409" lon="-3.01087">
        <ele>129.344456</ele>
        <time>2022-12-12T15:00:51.834Z</time>
      </trkpt>
      <trkpt lat="48.184" lon="-3.0108">
        <ele>129.410306</ele>
        <time>2022-12-12T15:00:54.818Z</time>
      </trkpt>
      <trkpt lat="48.18391" lon="-3.01074">
        <ele>129.475789</ele>
        <time>2022-12-12T15:00:57.817Z</time>
      </trkpt>
      <trkpt lat="48.18379" lon="-3.01068">
        <ele>129.557234</ele>
        <time>2022-12-12T15:01:00.833Z</time>
      </trkpt>
      <trkpt lat="48.1837" lon="-3.01064">
        <ele>129.616363</ele>
        <time>2022-12-12T15:01:02.839Z</time>
      </trkpt>
      <trkpt lat="48.18358" lon="-3.01061">
        <ele>129.699111</ele>
        <time>2022-12-12T15:01:05.837Z</time>
      </trkpt>
      <trkpt lat="48.18347" lon="-3.0106">
        <ele>129.77137</ele>
        <time>2022-12-12T15:01:08.844Z</time>
      </trkpt>
      <trkpt lat="48.18336" lon="-3.01059">
        <ele>129.845898</ele>
        <time>2022-12-12T15:01:11.842Z</time>
      </trkpt>
      <trkpt lat="48.18324" lon="-3.01058">
        <ele>129.924113</ele>
        <time>2022-12-12T15:01:14.835Z</time>
      </trkpt>
      <trkpt lat="48.18312" lon="-3.01058">
        <ele>130.009797</ele>
        <time>2022-12-12T15:01:17.824Z</time>
      </trkpt>
      <trkpt lat="48.183" lon="-3.01058">
        <ele>130.092101</ele>
        <time>2022-12-12T15:01:20.815Z</time>
      </trkpt>
      <trkpt lat="48.18288" lon="-3.01056">
        <ele>130.170007</ele>
        <time>2022-12-12T15:01:23.816Z</time>
      </trkpt>
      <trkpt lat="48.18276" lon="-3.01055">
        <ele>130.253774</ele>
        <time>2022-12-12T15:01:26.831Z</time>
      </trkpt>
      <trkpt lat="48.18264" lon="-3.01056">
        <ele>130.334709</ele>
        <time>2022-12-12T15:01:29.833Z</time>
      </trkpt>
      <trkpt lat="48.18251" lon="-3.01056">
        <ele>130.420393</ele>
        <time>2022-12-12T15:01:32.836Z</time>
      </trkpt>
      <trkpt lat="48.18238" lon="-3.01055">
        <ele>130.509592</ele>
        <time>2022-12-12T15:01:35.831Z</time>
      </trkpt>
      <trkpt lat="48.18225" lon="-3.01053">
        <ele>130.602943</ele>
        <time>2022-12-12T15:01:38.842Z</time>
      </trkpt>
      <trkpt lat="48.18213" lon="-3.01054">
        <ele>130.67914</ele>
        <time>2022-12-12T15:01:41.821Z</time>
      </trkpt>
      <trkpt lat="48.18204" lon="-3.01054">
        <ele>130.744429</ele>
        <time>2022-12-12T15:01:44.821Z</time>
      </trkpt>
      <trkpt lat="48.18194" lon="-3.01054">
        <ele>130.811086</ele>
        <time>2022-12-12T15:01:47.825Z</time>
      </trkpt>
      <trkpt lat="48.18183" lon="-3.01053">
        <ele>130.888674</ele>
        <time>2022-12-12T15:01:50.831Z</time>
      </trkpt>
      <trkpt lat="48.1817" lon="-3.01052">
        <ele>130.971109</ele>
        <time>2022-12-12T15:01:53.827Z</time>
      </trkpt>
      <trkpt lat="48.18158" lon="-3.0105">
        <ele>131.05312</ele>
        <time>2022-12-12T15:01:56.814Z</time>
      </trkpt>
      <trkpt lat="48.18147" lon="-3.01048">
        <ele>130.967824</ele>
        <time>2022-12-12T15:01:59.823Z</time>
      </trkpt>
      <trkpt lat="48.18136" lon="-3.01046">
        <ele>130.875881</ele>
        <time>2022-12-12T15:02:02.837Z</time>
      </trkpt>
      <trkpt lat="48.18126" lon="-3.01043">
        <ele>130.789632</ele>
        <time>2022-12-12T15:02:05.839Z</time>
      </trkpt>
      <trkpt lat="48.18114" lon="-3.01038">
        <ele>130.693129</ele>
        <time>2022-12-12T15:02:08.841Z</time>
      </trkpt>
      <trkpt lat="48.18102" lon="-3.01034">
        <ele>130.589265</ele>
        <time>2022-12-12T15:02:11.813Z</time>
      </trkpt>
      <trkpt lat="48.18091" lon="-3.0103">
        <ele>130.491859</ele>
        <time>2022-12-12T15:02:14.834Z</time>
      </trkpt>
      <trkpt lat="48.18079" lon="-3.01026">
        <ele>130.388894</ele>
        <time>2022-12-12T15:02:17.835Z</time>
      </trkpt>
      <trkpt lat="48.18066" lon="-3.01023">
        <ele>130.283877</ele>
        <time>2022-12-12T15:02:20.831Z</time>
      </trkpt>
      <trkpt lat="48.18054" lon="-3.0102">
        <ele>130.183495</ele>
        <time>2022-12-12T15:02:23.831Z</time>
      </trkpt>
      <trkpt lat="48.18044" lon="-3.0102">
        <ele>130.097135</ele>
        <time>2022-12-12T15:02:26.835Z</time>
      </trkpt>
      <trkpt lat="48.18033" lon="-3.0102">
        <ele>130.008266</ele>
        <time>2022-12-12T15:02:29.825Z</time>
      </trkpt>
      <trkpt lat="48.18022" lon="-3.0102">
        <ele>129.914501</ele>
        <time>2022-12-12T15:02:32.815Z</time>
      </trkpt>
      <trkpt lat="48.18011" lon="-3.01021">
        <ele>129.822381</ele>
        <time>2022-12-12T15:02:35.828Z</time>
      </trkpt>
      <trkpt lat="48.17999" lon="-3.0102">
        <ele>129.726103</ele>
        <time>2022-12-12T15:02:38.837Z</time>
      </trkpt>
      <trkpt lat="48.17989" lon="-3.0102">
        <ele>129.64228</ele>
        <time>2022-12-12T15:02:41.828Z</time>
      </trkpt>
      <trkpt lat="48.1798" lon="-3.0102">
        <ele>129.564203</ele>
        <time>2022-12-12T15:02:44.820Z</time>
      </trkpt>
      <trkpt lat="48.1797" lon="-3.01019">
        <ele>129.507795</ele>
        <time>2022-12-12T15:02:47.825Z</time>
      </trkpt>
      <trkpt lat="48.1796" lon="-3.01019">
        <ele>129.450269</ele>
        <time>2022-12-12T15:02:50.829Z</time>
      </trkpt>
      <trkpt lat="48.17948" lon="-3.0102">
        <ele>129.385342</ele>
        <time>2022-12-12T15:02:53.839Z</time>
      </trkpt>
      <trkpt lat="48.17936" lon="-3.0102">
        <ele>129.315859</ele>
        <time>2022-12-12T15:02:56.831Z</time>
      </trkpt>
      <trkpt lat="48.17923" lon="-3.0102">
        <ele>129.24126</ele>
        <time>2022-12-12T15:02:59.838Z</time>
      </trkpt>
      <trkpt lat="48.1791" lon="-3.0102">
        <ele>129.170079</ele>
        <time>2022-12-12T15:03:02.833Z</time>
      </trkpt>
      <trkpt lat="48.17897" lon="-3.01019">
        <ele>129.094876</ele>
        <time>2022-12-12T15:03:05.833Z</time>
      </trkpt>
      <trkpt lat="48.17884" lon="-3.01017">
        <ele>129.020985</ele>
        <time>2022-12-12T15:03:08.818Z</time>
      </trkpt>
      <trkpt lat="48.17871" lon="-3.01016">
        <ele>128.945602</ele>
        <time>2022-12-12T15:03:11.822Z</time>
      </trkpt>
      <trkpt lat="48.17862" lon="-3.01013">
        <ele>128.891927</ele>
        <time>2022-12-12T15:03:13.833Z</time>
      </trkpt>
      <trkpt lat="48.17853" lon="-3.01012">
        <ele>128.839043</ele>
        <time>2022-12-12T15:03:15.829Z</time>
      </trkpt>
      <trkpt lat="48.17844" lon="-3.01009">
        <ele>128.787615</ele>
        <time>2022-12-12T15:03:17.816Z</time>
      </trkpt>
      <trkpt lat="48.17833" lon="-3.01006">
        <ele>128.723878</ele>
        <time>2022-12-12T15:03:20.828Z</time>
      </trkpt>
      <trkpt lat="48.17821" lon="-3.01003">
        <ele>128.656084</ele>
        <time>2022-12-12T15:03:23.829Z</time>
      </trkpt>
      <trkpt lat="48.17808" lon="-3.01">
        <ele>128.583374</ele>
        <time>2022-12-12T15:03:26.843Z</time>
      </trkpt>
      <trkpt lat="48.17796" lon="-3.00997">
        <ele>128.541119</ele>
        <time>2022-12-12T15:03:29.838Z</time>
      </trkpt>
      <trkpt lat="48.17783" lon="-3.00994">
        <ele>128.539795</ele>
        <time>2022-12-12T15:03:32.837Z</time>
      </trkpt>
      <trkpt lat="48.17773" lon="-3.00992">
        <ele>128.538869</ele>
        <time>2022-12-12T15:03:34.826Z</time>
      </trkpt>
      <trkpt lat="48.17764" lon="-3.0099">
        <ele>128.537955</ele>
        <time>2022-12-12T15:03:36.831Z</time>
      </trkpt>
      <trkpt lat="48.17752" lon="-3.00987">
        <ele>128.536737</ele>
        <time>2022-12-12T15:03:39.834Z</time>
      </trkpt>
      <trkpt lat="48.1774" lon="-3.00984">
        <ele>128.535484</ele>
        <time>2022-12-12T15:03:42.830Z</time>
      </trkpt>
      <trkpt lat="48.17728" lon="-3.00981">
        <ele>128.534292</ele>
        <time>2022-12-12T15:03:45.827Z</time>
      </trkpt>
      <trkpt lat="48.17716" lon="-3.00976">
        <ele>128.533007</ele>
        <time>2022-12-12T15:03:48.841Z</time>
      </trkpt>
      <trkpt lat="48.17704" lon="-3.00971">
        <ele>128.531716</ele>
        <time>2022-12-12T15:03:51.824Z</time>
      </trkpt>
      <trkpt lat="48.17695" lon="-3.00966">
        <ele>128.530768</ele>
        <time>2022-12-12T15:03:53.834Z</time>
      </trkpt>
      <trkpt lat="48.17686" lon="-3.00961">
        <ele>128.52986</ele>
        <time>2022-12-12T15:03:55.838Z</time>
      </trkpt>
      <trkpt lat="48.17675" lon="-3.00953">
        <ele>128.528572</ele>
        <time>2022-12-12T15:03:58.831Z</time>
      </trkpt>
      <trkpt lat="48.17665" lon="-3.00946">
        <ele>128.527482</ele>
        <time>2022-12-12T15:04:01.830Z</time>
      </trkpt>
      <trkpt lat="48.17656" lon="-3.00939">
        <ele>128.526525</ele>
        <time>2022-12-12T15:04:04.836Z</time>
      </trkpt>
      <trkpt lat="48.17647" lon="-3.0093">
        <ele>128.525403</ele>
        <time>2022-12-12T15:04:07.842Z</time>
      </trkpt>
      <trkpt lat="48.17638" lon="-3.00922">
        <ele>128.524338</ele>
        <time>2022-12-12T15:04:10.843Z</time>
      </trkpt>
      <trkpt lat="48.1763" lon="-3.00915">
        <ele>128.49511</ele>
        <time>2022-12-12T15:04:13.834Z</time>
      </trkpt>
      <trkpt lat="48.17621" lon="-3.00909">
        <ele>128.394445</ele>
        <time>2022-12-12T15:04:16.840Z</time>
      </trkpt>
      <trkpt lat="48.17613" lon="-3.009">
        <ele>128.281631</ele>
        <time>2022-12-12T15:04:20.843Z</time>
      </trkpt>
      <trkpt lat="48.17603" lon="-3.00892">
        <ele>128.164699</ele>
        <time>2022-12-12T15:04:25.825Z</time>
      </trkpt>
      <trkpt lat="48.17595" lon="-3.00886">
        <ele>128.060675</ele>
        <time>2022-12-12T15:04:34.820Z</time>
      </trkpt>
      <trkpt lat="48.17586" lon="-3.00876">
        <ele>127.939423</ele>
        <time>2022-12-12T15:04:39.820Z</time>
      </trkpt>
      <trkpt lat="48.17578" lon="-3.00869">
        <ele>127.831809</ele>
        <time>2022-12-12T15:04:43.817Z</time>
      </trkpt>
      <trkpt lat="48.17569" lon="-3.00862">
        <ele>127.725284</ele>
        <time>2022-12-12T15:04:49.820Z</time>
      </trkpt>
      <trkpt lat="48.17562" lon="-3.00854">
        <ele>127.626925</ele>
        <time>2022-12-12T15:05:08.817Z</time>
      </trkpt>
      <trkpt lat="48.17547" lon="-3.00845">
        <ele>127.452706</ele>
        <time>2022-12-12T15:05:45.820Z</time>
      </trkpt>
      <trkpt lat="48.17538" lon="-3.00837">
        <ele>127.338024</ele>
        <time>2022-12-12T15:05:48.817Z</time>
      </trkpt>
      <trkpt lat="48.17529" lon="-3.00829">
        <ele>127.228146</ele>
        <time>2022-12-12T15:05:51.822Z</time>
      </trkpt>
      <trkpt lat="48.1752" lon="-3.00822">
        <ele>127.119649</ele>
        <time>2022-12-12T15:05:54.835Z</time>
      </trkpt>
      <trkpt lat="48.17512" lon="-3.00816">
        <ele>127.016314</ele>
        <time>2022-12-12T15:05:57.826Z</time>
      </trkpt>
      <trkpt lat="48.17503" lon="-3.00808">
        <ele>126.9012</ele>
        <time>2022-12-12T15:06:01.845Z</time>
      </trkpt>
      <trkpt lat="48.17493" lon="-3.008">
        <ele>126.782251</ele>
        <time>2022-12-12T15:06:05.813Z</time>
      </trkpt>
      <trkpt lat="48.17485" lon="-3.00793">
        <ele>126.675809</ele>
        <time>2022-12-12T15:06:08.825Z</time>
      </trkpt>
      <trkpt lat="48.17476" lon="-3.00786">
        <ele>126.569923</ele>
        <time>2022-12-12T15:06:11.833Z</time>
      </trkpt>
      <trkpt lat="48.17467" lon="-3.00778">
        <ele>126.459115</ele>
        <time>2022-12-12T15:06:14.833Z</time>
      </trkpt>
      <trkpt lat="48.17457" lon="-3.00769">
        <ele>126.332245</ele>
        <time>2022-12-12T15:06:17.831Z</time>
      </trkpt>
      <trkpt lat="48.17446" lon="-3.0076">
        <ele>126.208018</ele>
        <time>2022-12-12T15:06:20.824Z</time>
      </trkpt>
      <trkpt lat="48.17437" lon="-3.00753">
        <ele>126.095595</ele>
        <time>2022-12-12T15:06:23.836Z</time>
      </trkpt>
      <trkpt lat="48.17426" lon="-3.00744">
        <ele>125.972809</ele>
        <time>2022-12-12T15:06:27.829Z</time>
      </trkpt>
      <trkpt lat="48.17416" lon="-3.00737">
        <ele>125.852616</ele>
        <time>2022-12-12T15:06:31.837Z</time>
      </trkpt>
      <trkpt lat="48.17407" lon="-3.0073">
        <ele>125.749119</ele>
        <time>2022-12-12T15:06:34.834Z</time>
      </trkpt>
      <trkpt lat="48.17397" lon="-3.00719">
        <ele>125.624872</ele>
        <time>2022-12-12T15:06:37.837Z</time>
      </trkpt>
      <trkpt lat="48.17389" lon="-3.00708">
        <ele>125.50362</ele>
        <time>2022-12-12T15:06:40.833Z</time>
      </trkpt>
      <trkpt lat="48.17381" lon="-3.00695">
        <ele>125.382063</ele>
        <time>2022-12-12T15:06:43.836Z</time>
      </trkpt>
      <trkpt lat="48.17374" lon="-3.00682">
        <ele>125.264475</ele>
        <time>2022-12-12T15:06:46.812Z</time>
      </trkpt>
      <trkpt lat="48.17366" lon="-3.00665">
        <ele>125.122312</ele>
        <time>2022-12-12T15:06:49.835Z</time>
      </trkpt>
      <trkpt lat="48.17361" lon="-3.00648">
        <ele>124.994088</ele>
        <time>2022-12-12T15:06:52.815Z</time>
      </trkpt>
      <trkpt lat="48.17357" lon="-3.00632">
        <ele>124.873364</ele>
        <time>2022-12-12T15:06:55.833Z</time>
      </trkpt>
      <trkpt lat="48.17353" lon="-3.00617">
        <ele>124.763212</ele>
        <time>2022-12-12T15:06:58.831Z</time>
      </trkpt>
      <trkpt lat="48.1735" lon="-3.00601">
        <ele>124.618819</ele>
        <time>2022-12-12T15:07:01.823Z</time>
      </trkpt>
      <trkpt lat="48.17348" lon="-3.00586">
        <ele>124.42389</ele>
        <time>2022-12-12T15:07:04.841Z</time>
      </trkpt>
      <trkpt lat="48.17346" lon="-3.00572">
        <ele>124.224157</ele>
        <time>2022-12-12T15:07:08.833Z</time>
      </trkpt>
      <trkpt lat="48.17344" lon="-3.00557">
        <ele>124.034035</ele>
        <time>2022-12-12T15:07:12.823Z</time>
      </trkpt>
      <trkpt lat="48.17342" lon="-3.00542">
        <ele>123.829433</ele>
        <time>2022-12-12T15:07:17.818Z</time>
      </trkpt>
      <trkpt lat="48.17338" lon="-3.00529">
        <ele>123.644031</ele>
        <time>2022-12-12T15:07:22.823Z</time>
      </trkpt>
      <trkpt lat="48.17335" lon="-3.00514">
        <ele>123.446966</ele>
        <time>2022-12-12T15:07:27.816Z</time>
      </trkpt>
      <trkpt lat="48.17331" lon="-3.00495">
        <ele>123.186475</ele>
        <time>2022-12-12T15:07:30.833Z</time>
      </trkpt>
      <trkpt lat="48.1733" lon="-3.00479">
        <ele>122.978464</ele>
        <time>2022-12-12T15:07:32.812Z</time>
      </trkpt>
      <trkpt lat="48.17326" lon="-3.00464">
        <ele>122.779025</ele>
        <time>2022-12-12T15:07:34.833Z</time>
      </trkpt>
      <trkpt lat="48.17324" lon="-3.0045">
        <ele>122.590442</ele>
        <time>2022-12-12T15:07:36.832Z</time>
      </trkpt>
      <trkpt lat="48.17322" lon="-3.00437">
        <ele>122.413955</ele>
        <time>2022-12-12T15:07:38.845Z</time>
      </trkpt>
      <trkpt lat="48.17319" lon="-3.0042">
        <ele>122.190426</ele>
        <time>2022-12-12T15:07:41.836Z</time>
      </trkpt>
      <trkpt lat="48.17315" lon="-3.00404">
        <ele>121.964378</ele>
        <time>2022-12-12T15:07:45.833Z</time>
      </trkpt>
      <trkpt lat="48.17312" lon="-3.0039">
        <ele>121.779573</ele>
        <time>2022-12-12T15:07:49.825Z</time>
      </trkpt>
      <trkpt lat="48.1731" lon="-3.00375">
        <ele>121.580026</ele>
        <time>2022-12-12T15:07:53.821Z</time>
      </trkpt>
      <trkpt lat="48.17307" lon="-3.00362">
        <ele>121.403305</ele>
        <time>2022-12-12T15:07:56.830Z</time>
      </trkpt>
      <trkpt lat="48.17304" lon="-3.00348">
        <ele>121.216708</ele>
        <time>2022-12-12T15:07:59.841Z</time>
      </trkpt>
      <trkpt lat="48.17302" lon="-3.00333">
        <ele>121.133942</ele>
        <time>2022-12-12T15:08:02.832Z</time>
      </trkpt>
      <trkpt lat="48.17299" lon="-3.00317">
        <ele>121.061864</ele>
        <time>2022-12-12T15:08:05.834Z</time>
      </trkpt>
      <trkpt lat="48.17296" lon="-3.00302">
        <ele>120.992328</ele>
        <time>2022-12-12T15:08:08.832Z</time>
      </trkpt>
      <trkpt lat="48.17293" lon="-3.00285">
        <ele>120.916331</ele>
        <time>2022-12-12T15:08:11.817Z</time>
      </trkpt>
      <trkpt lat="48.1729" lon="-3.00269">
        <ele>120.842085</ele>
        <time>2022-12-12T15:08:14.844Z</time>
      </trkpt>
      <trkpt lat="48.17287" lon="-3.00253">
        <ele>120.770245</ele>
        <time>2022-12-12T15:08:17.839Z</time>
      </trkpt>
      <trkpt lat="48.17284" lon="-3.00236">
        <ele>120.690647</ele>
        <time>2022-12-12T15:08:20.845Z</time>
      </trkpt>
      <trkpt lat="48.17281" lon="-3.0022">
        <ele>120.61772</ele>
        <time>2022-12-12T15:08:23.837Z</time>
      </trkpt>
      <trkpt lat="48.17279" lon="-3.00205">
        <ele>120.549074</ele>
        <time>2022-12-12T15:08:26.835Z</time>
      </trkpt>
      <trkpt lat="48.17276" lon="-3.00188">
        <ele>120.46984</ele>
        <time>2022-12-12T15:08:29.833Z</time>
      </trkpt>
      <trkpt lat="48.17272" lon="-3.0017">
        <ele>120.390781</ele>
        <time>2022-12-12T15:08:32.842Z</time>
      </trkpt>
      <trkpt lat="48.17269" lon="-3.00153">
        <ele>120.311547</ele>
        <time>2022-12-12T15:08:35.834Z</time>
      </trkpt>
      <trkpt lat="48.17266" lon="-3.00136">
        <ele>120.234531</ele>
        <time>2022-12-12T15:08:38.834Z</time>
      </trkpt>
      <trkpt lat="48.17265" lon="-3.00122">
        <ele>120.170102</ele>
        <time>2022-12-12T15:08:41.833Z</time>
      </trkpt>
      <trkpt lat="48.17263" lon="-3.00106">
        <ele>120.098867</ele>
        <time>2022-12-12T15:08:44.831Z</time>
      </trkpt>
      <trkpt lat="48.1726" lon="-3.0009">
        <ele>120.023814</ele>
        <time>2022-12-12T15:08:47.830Z</time>
      </trkpt>
      <trkpt lat="48.17256" lon="-3.00075">
        <ele>120.041269</ele>
        <time>2022-12-12T15:08:50.833Z</time>
      </trkpt>
      <trkpt lat="48.17255" lon="-3.00058">
        <ele>120.090702</ele>
        <time>2022-12-12T15:08:53.819Z</time>
      </trkpt>
      <trkpt lat="48.17252" lon="-3.00042">
        <ele>120.140955</ele>
        <time>2022-12-12T15:08:56.815Z</time>
      </trkpt>
      <trkpt lat="48.17248" lon="-3.00024">
        <ele>120.194884</ele>
        <time>2022-12-12T15:08:59.827Z</time>
      </trkpt>
      <trkpt lat="48.17244" lon="-3.00007">
        <ele>120.249531</ele>
        <time>2022-12-12T15:09:02.823Z</time>
      </trkpt>
      <trkpt lat="48.17241" lon="-2.99992">
        <ele>120.297414</ele>
        <time>2022-12-12T15:09:05.840Z</time>
      </trkpt>
      <trkpt lat="48.17239" lon="-2.99977">
        <ele>120.341949</ele>
        <time>2022-12-12T15:09:07.835Z</time>
      </trkpt>
      <trkpt lat="48.17236" lon="-2.99959">
        <ele>120.395986</ele>
        <time>2022-12-12T15:09:10.822Z</time>
      </trkpt>
      <trkpt lat="48.17233" lon="-2.99942">
        <ele>120.449912</ele>
        <time>2022-12-12T15:09:13.835Z</time>
      </trkpt>
      <trkpt lat="48.17229" lon="-2.99926">
        <ele>120.499942</ele>
        <time>2022-12-12T15:09:16.825Z</time>
      </trkpt>
      <trkpt lat="48.17226" lon="-2.99909">
        <ele>120.551898</ele>
        <time>2022-12-12T15:09:19.838Z</time>
      </trkpt>
      <trkpt lat="48.17223" lon="-2.99891">
        <ele>120.60651</ele>
        <time>2022-12-12T15:09:22.839Z</time>
      </trkpt>
      <trkpt lat="48.1722" lon="-2.99876">
        <ele>120.652428</ele>
        <time>2022-12-12T15:09:25.835Z</time>
      </trkpt>
      <trkpt lat="48.17217" lon="-2.99862">
        <ele>120.697001</ele>
        <time>2022-12-12T15:09:28.846Z</time>
      </trkpt>
      <trkpt lat="48.17214" lon="-2.99847">
        <ele>120.742777</ele>
        <time>2022-12-12T15:09:31.842Z</time>
      </trkpt>
      <trkpt lat="48.17211" lon="-2.99832">
        <ele>120.789045</ele>
        <time>2022-12-12T15:09:34.817Z</time>
      </trkpt>
      <trkpt lat="48.17209" lon="-2.99814">
        <ele>120.927789</ele>
        <time>2022-12-12T15:09:37.828Z</time>
      </trkpt>
      <trkpt lat="48.17205" lon="-2.99797">
        <ele>121.108339</ele>
        <time>2022-12-12T15:09:40.829Z</time>
      </trkpt>
      <trkpt lat="48.17203" lon="-2.9978">
        <ele>121.280137</ele>
        <time>2022-12-12T15:09:43.835Z</time>
      </trkpt>
      <trkpt lat="48.17199" lon="-2.99764">
        <ele>121.443646</ele>
        <time>2022-12-12T15:09:46.845Z</time>
      </trkpt>
      <trkpt lat="48.17197" lon="-2.99748">
        <ele>121.606092</ele>
        <time>2022-12-12T15:09:49.821Z</time>
      </trkpt>
      <trkpt lat="48.17195" lon="-2.99733">
        <ele>121.760822</ele>
        <time>2022-12-12T15:09:52.826Z</time>
      </trkpt>
      <trkpt lat="48.17192" lon="-2.99718">
        <ele>121.917475</ele>
        <time>2022-12-12T15:09:55.821Z</time>
      </trkpt>
      <trkpt lat="48.1719" lon="-2.99702">
        <ele>122.078455</ele>
        <time>2022-12-12T15:09:58.815Z</time>
      </trkpt>
      <trkpt lat="48.17187" lon="-2.99684">
        <ele>122.259815</ele>
        <time>2022-12-12T15:10:01.823Z</time>
      </trkpt>
      <trkpt lat="48.17183" lon="-2.99667">
        <ele>122.433834</ele>
        <time>2022-12-12T15:10:04.846Z</time>
      </trkpt>
      <trkpt lat="48.1718" lon="-2.9965">
        <ele>122.616288</ele>
        <time>2022-12-12T15:10:07.835Z</time>
      </trkpt>
      <trkpt lat="48.17176" lon="-2.99631">
        <ele>122.809911</ele>
        <time>2022-12-12T15:10:10.815Z</time>
      </trkpt>
      <trkpt lat="48.17171" lon="-2.99612">
        <ele>123.006305</ele>
        <time>2022-12-12T15:10:13.824Z</time>
      </trkpt>
      <trkpt lat="48.17169" lon="-2.99595">
        <ele>123.18204</ele>
        <time>2022-12-12T15:10:16.846Z</time>
      </trkpt>
      <trkpt lat="48.17166" lon="-2.99577">
        <ele>123.365759</ele>
        <time>2022-12-12T15:10:19.837Z</time>
      </trkpt>
      <trkpt lat="48.17163" lon="-2.9956">
        <ele>123.523661</ele>
        <time>2022-12-12T15:10:22.824Z</time>
      </trkpt>
      <trkpt lat="48.17159" lon="-2.99544">
        <ele>123.663399</ele>
        <time>2022-12-12T15:10:25.827Z</time>
      </trkpt>
      <trkpt lat="48.17153" lon="-2.99528">
        <ele>123.797431</ele>
        <time>2022-12-12T15:10:28.817Z</time>
      </trkpt>
      <trkpt lat="48.17145" lon="-2.99514">
        <ele>123.942684</ele>
        <time>2022-12-12T15:10:32.817Z</time>
      </trkpt>
      <trkpt lat="48.17138" lon="-2.99503">
        <ele>124.066012</ele>
        <time>2022-12-12T15:10:35.823Z</time>
      </trkpt>
      <trkpt lat="48.17129" lon="-2.99494">
        <ele>124.191643</ele>
        <time>2022-12-12T15:10:38.835Z</time>
      </trkpt>
      <trkpt lat="48.17118" lon="-2.99484">
        <ele>124.331848</ele>
        <time>2022-12-12T15:10:41.816Z</time>
      </trkpt>
      <trkpt lat="48.17107" lon="-2.99474">
        <ele>124.479934</ele>
        <time>2022-12-12T15:10:44.832Z</time>
      </trkpt>
      <trkpt lat="48.17097" lon="-2.99466">
        <ele>124.619692</ele>
        <time>2022-12-12T15:10:47.818Z</time>
      </trkpt>
      <trkpt lat="48.17087" lon="-2.9946">
        <ele>124.737552</ele>
        <time>2022-12-12T15:10:50.820Z</time>
      </trkpt>
      <trkpt lat="48.17077" lon="-2.99457">
        <ele>124.859192</ele>
        <time>2022-12-12T15:10:53.818Z</time>
      </trkpt>
      <trkpt lat="48.17066" lon="-2.99453">
        <ele>124.992893</ele>
        <time>2022-12-12T15:10:56.816Z</time>
      </trkpt>
      <trkpt lat="48.17054" lon="-2.9945">
        <ele>125.13116</ele>
        <time>2022-12-12T15:10:59.835Z</time>
      </trkpt>
      <trkpt lat="48.17042" lon="-2.99449">
        <ele>125.269438</ele>
        <time>2022-12-12T15:11:02.837Z</time>
      </trkpt>
      <trkpt lat="48.1703" lon="-2.9945">
        <ele>125.40396</ele>
        <time>2022-12-12T15:11:05.837Z</time>
      </trkpt>
      <trkpt lat="48.17018" lon="-2.99452">
        <ele>125.542228</ele>
        <time>2022-12-12T15:11:08.837Z</time>
      </trkpt>
      <trkpt lat="48.17008" lon="-2.99455">
        <ele>125.438062</ele>
        <time>2022-12-12T15:11:11.818Z</time>
      </trkpt>
      <trkpt lat="48.16998" lon="-2.99457">
        <ele>125.312046</ele>
        <time>2022-12-12T15:11:14.836Z</time>
      </trkpt>
      <trkpt lat="48.16987" lon="-2.99459">
        <ele>125.159309</ele>
        <time>2022-12-12T15:11:18.835Z</time>
      </trkpt>
      <trkpt lat="48.16977" lon="-2.99462">
        <ele>125.023419</ele>
        <time>2022-12-12T15:11:21.843Z</time>
      </trkpt>
      <trkpt lat="48.16966" lon="-2.99465">
        <ele>124.880853</ele>
        <time>2022-12-12T15:11:24.841Z</time>
      </trkpt>
      <trkpt lat="48.16956" lon="-2.99467">
        <ele>124.740765</ele>
        <time>2022-12-12T15:11:27.820Z</time>
      </trkpt>
      <trkpt lat="48.16946" lon="-2.99469">
        <ele>124.604875</ele>
        <time>2022-12-12T15:11:30.819Z</time>
      </trkpt>
      <trkpt lat="48.16935" lon="-2.99473">
        <ele>124.456286</ele>
        <time>2022-12-12T15:11:33.838Z</time>
      </trkpt>
      <trkpt lat="48.16924" lon="-2.99475">
        <ele>124.306668</ele>
        <time>2022-12-12T15:11:36.842Z</time>
      </trkpt>
      <trkpt lat="48.16912" lon="-2.99478">
        <ele>124.157272</ele>
        <time>2022-12-12T15:11:39.845Z</time>
      </trkpt>
      <trkpt lat="48.16901" lon="-2.99481">
        <ele>124.002505</ele>
        <time>2022-12-12T15:11:42.824Z</time>
      </trkpt>
      <trkpt lat="48.1689" lon="-2.99484">
        <ele>123.851959</ele>
        <time>2022-12-12T15:11:45.827Z</time>
      </trkpt>
      <trkpt lat="48.16878" lon="-2.99486">
        <ele>123.69542</ele>
        <time>2022-12-12T15:11:48.823Z</time>
      </trkpt>
      <trkpt lat="48.16866" lon="-2.9949">
        <ele>123.537889</ele>
        <time>2022-12-12T15:11:51.819Z</time>
      </trkpt>
      <trkpt lat="48.16855" lon="-2.99493">
        <ele>123.384495</ele>
        <time>2022-12-12T15:11:54.848Z</time>
      </trkpt>
      <trkpt lat="48.16843" lon="-2.99497">
        <ele>123.221594</ele>
        <time>2022-12-12T15:11:57.827Z</time>
      </trkpt>
      <trkpt lat="48.1683" lon="-2.995">
        <ele>123.136572</ele>
        <time>2022-12-12T15:12:00.843Z</time>
      </trkpt>
      <trkpt lat="48.16817" lon="-2.99503">
        <ele>123.084226</ele>
        <time>2022-12-12T15:12:03.833Z</time>
      </trkpt>
      <trkpt lat="48.16807" lon="-2.99506">
        <ele>123.041016</ele>
        <time>2022-12-12T15:12:06.835Z</time>
      </trkpt>
      <trkpt lat="48.16797" lon="-2.9951">
        <ele>122.998097</ele>
        <time>2022-12-12T15:12:09.825Z</time>
      </trkpt>
      <trkpt lat="48.16787" lon="-2.99514">
        <ele>122.954208</ele>
        <time>2022-12-12T15:12:12.846Z</time>
      </trkpt>
      <trkpt lat="48.16775" lon="-2.99521">
        <ele>122.903075</ele>
        <time>2022-12-12T15:12:15.834Z</time>
      </trkpt>
      <trkpt lat="48.16764" lon="-2.99527">
        <ele>122.852826</ele>
        <time>2022-12-12T15:12:18.835Z</time>
      </trkpt>
      <trkpt lat="48.16753" lon="-2.99534">
        <ele>122.80317</ele>
        <time>2022-12-12T15:12:21.829Z</time>
      </trkpt>
      <trkpt lat="48.16742" lon="-2.99541">
        <ele>122.754817</ele>
        <time>2022-12-12T15:12:24.834Z</time>
      </trkpt>
      <trkpt lat="48.16731" lon="-2.99548">
        <ele>122.705526</ele>
        <time>2022-12-12T15:12:27.833Z</time>
      </trkpt>
      <trkpt lat="48.16719" lon="-2.99555">
        <ele>122.653527</ele>
        <time>2022-12-12T15:12:30.845Z</time>
      </trkpt>
      <trkpt lat="48.16708" lon="-2.99561">
        <ele>122.602213</ele>
        <time>2022-12-12T15:12:33.836Z</time>
      </trkpt>
      <trkpt lat="48.16696" lon="-2.99568">
        <ele>122.550128</ele>
        <time>2022-12-12T15:12:36.841Z</time>
      </trkpt>
      <trkpt lat="48.16684" lon="-2.99574">
        <ele>122.498717</ele>
        <time>2022-12-12T15:12:39.846Z</time>
      </trkpt>
      <trkpt lat="48.16673" lon="-2.99581">
        <ele>122.447586</ele>
        <time>2022-12-12T15:12:42.834Z</time>
      </trkpt>
      <trkpt lat="48.1666" lon="-2.99589">
        <ele>122.411551</ele>
        <time>2022-12-12T15:12:45.818Z</time>
      </trkpt>
      <trkpt lat="48.16652" lon="-2.99595">
        <ele>122.390593</ele>
        <time>2022-12-12T15:12:47.822Z</time>
      </trkpt>
      <trkpt lat="48.16643" lon="-2.99601">
        <ele>122.368622</ele>
        <time>2022-12-12T15:12:49.824Z</time>
      </trkpt>
      <trkpt lat="48.16634" lon="-2.99606">
        <ele>122.347359</ele>
        <time>2022-12-12T15:12:51.843Z</time>
      </trkpt>
      <trkpt lat="48.16622" lon="-2.99613">
        <ele>122.31765</ele>
        <time>2022-12-12T15:12:54.843Z</time>
      </trkpt>
      <trkpt lat="48.16611" lon="-2.9962">
        <ele>122.29034</ele>
        <time>2022-12-12T15:12:57.836Z</time>
      </trkpt>
      <trkpt lat="48.16601" lon="-2.99626">
        <ele>122.266365</ele>
        <time>2022-12-12T15:13:00.823Z</time>
      </trkpt>
      <trkpt lat="48.16592" lon="-2.99631">
        <ele>122.243724</ele>
        <time>2022-12-12T15:13:03.834Z</time>
      </trkpt>
      <trkpt lat="48.16581" lon="-2.99638">
        <ele>122.218049</ele>
        <time>2022-12-12T15:13:06.820Z</time>
      </trkpt>
      <trkpt lat="48.1657" lon="-2.99644">
        <ele>122.19057</ele>
        <time>2022-12-12T15:13:09.835Z</time>
      </trkpt>
      <trkpt lat="48.1656" lon="-2.99649">
        <ele>122.165697</ele>
        <time>2022-12-12T15:13:12.850Z</time>
      </trkpt>
      <trkpt lat="48.16551" lon="-2.99655">
        <ele>122.143517</ele>
        <time>2022-12-12T15:13:15.832Z</time>
      </trkpt>
      <trkpt lat="48.16542" lon="-2.9966">
        <ele>122.122896</ele>
        <time>2022-12-12T15:13:18.833Z</time>
      </trkpt>
      <trkpt lat="48.16533" lon="-2.99665">
        <ele>122.099777</ele>
        <time>2022-12-12T15:13:22.820Z</time>
      </trkpt>
      <trkpt lat="48.16525" lon="-2.99672">
        <ele>122.079131</ele>
        <time>2022-12-12T15:13:28.826Z</time>
      </trkpt>
      <trkpt lat="48.16516" lon="-2.99678">
        <ele>122.056452</ele>
        <time>2022-12-12T15:13:45.826Z</time>
      </trkpt>
      <trkpt lat="48.16506" lon="-2.99681">
        <ele>122.034887</ele>
        <time>2022-12-12T15:13:56.820Z</time>
      </trkpt>
      <trkpt lat="48.16497" lon="-2.99689">
        <ele>121.964666</ele>
        <time>2022-12-12T15:14:15.821Z</time>
      </trkpt>
      <trkpt lat="48.16487" lon="-2.99695">
        <ele>121.863432</ele>
        <time>2022-12-12T15:14:18.818Z</time>
      </trkpt>
      <trkpt lat="48.16478" lon="-2.997">
        <ele>121.77812</ele>
        <time>2022-12-12T15:14:20.837Z</time>
      </trkpt>
      <trkpt lat="48.16469" lon="-2.99705">
        <ele>121.69154</ele>
        <time>2022-12-12T15:14:22.847Z</time>
      </trkpt>
      <trkpt lat="48.16457" lon="-2.99712">
        <ele>121.572822</ele>
        <time>2022-12-12T15:14:25.824Z</time>
      </trkpt>
      <trkpt lat="48.16446" lon="-2.99719">
        <ele>121.462429</ele>
        <time>2022-12-12T15:14:28.841Z</time>
      </trkpt>
      <trkpt lat="48.16437" lon="-2.99725">
        <ele>121.374656</ele>
        <time>2022-12-12T15:14:31.843Z</time>
      </trkpt>
      <trkpt lat="48.16428" lon="-2.9973">
        <ele>121.287879</ele>
        <time>2022-12-12T15:14:34.830Z</time>
      </trkpt>
      <trkpt lat="48.16419" lon="-2.99736">
        <ele>121.196975</ele>
        <time>2022-12-12T15:14:37.833Z</time>
      </trkpt>
      <trkpt lat="48.16408" lon="-2.99742">
        <ele>121.094465</ele>
        <time>2022-12-12T15:14:41.831Z</time>
      </trkpt>
      <trkpt lat="48.16398" lon="-2.99748">
        <ele>120.991317</ele>
        <time>2022-12-12T15:14:45.842Z</time>
      </trkpt>
      <trkpt lat="48.16387" lon="-2.99753">
        <ele>120.891233</ele>
        <time>2022-12-12T15:14:49.820Z</time>
      </trkpt>
      <trkpt lat="48.16376" lon="-2.9976">
        <ele>120.781453</ele>
        <time>2022-12-12T15:14:53.816Z</time>
      </trkpt>
      <trkpt lat="48.16367" lon="-2.99765">
        <ele>120.697234</ele>
        <time>2022-12-12T15:14:56.819Z</time>
      </trkpt>
      <trkpt lat="48.16358" lon="-2.99771">
        <ele>120.606567</ele>
        <time>2022-12-12T15:14:59.833Z</time>
      </trkpt>
      <trkpt lat="48.16349" lon="-2.99777">
        <ele>120.511446</ele>
        <time>2022-12-12T15:15:02.835Z</time>
      </trkpt>
      <trkpt lat="48.16338" lon="-2.99784">
        <ele>120.409545</ele>
        <time>2022-12-12T15:15:05.838Z</time>
      </trkpt>
      <trkpt lat="48.16328" lon="-2.9979">
        <ele>120.451163</ele>
        <time>2022-12-12T15:15:08.844Z</time>
      </trkpt>
      <trkpt lat="48.16319" lon="-2.99796">
        <ele>120.516155</ele>
        <time>2022-12-12T15:15:11.840Z</time>
      </trkpt>
      <trkpt lat="48.1631" lon="-2.99802">
        <ele>120.578889</ele>
        <time>2022-12-12T15:15:14.843Z</time>
      </trkpt>
      <trkpt lat="48.16299" lon="-2.99809">
        <ele>120.652013</ele>
        <time>2022-12-12T15:15:17.842Z</time>
      </trkpt>
      <trkpt lat="48.16289" lon="-2.99815">
        <ele>120.717729</ele>
        <time>2022-12-12T15:15:20.840Z</time>
      </trkpt>
      <trkpt lat="48.16279" lon="-2.99821">
        <ele>120.786527</ele>
        <time>2022-12-12T15:15:23.826Z</time>
      </trkpt>
      <trkpt lat="48.16268" lon="-2.99828">
        <ele>120.861416</ele>
        <time>2022-12-12T15:15:26.833Z</time>
      </trkpt>
      <trkpt lat="48.16259" lon="-2.99834">
        <ele>120.926874</ele>
        <time>2022-12-12T15:15:29.838Z</time>
      </trkpt>
      <trkpt lat="48.16249" lon="-2.9984">
        <ele>120.991257</ele>
        <time>2022-12-12T15:15:32.836Z</time>
      </trkpt>
      <trkpt lat="48.1624" lon="-2.99847">
        <ele>121.060951</ele>
        <time>2022-12-12T15:15:35.840Z</time>
      </trkpt>
      <trkpt lat="48.16229" lon="-2.99854">
        <ele>121.131898</ele>
        <time>2022-12-12T15:15:38.844Z</time>
      </trkpt>
      <trkpt lat="48.1622" lon="-2.99859">
        <ele>121.197298</ele>
        <time>2022-12-12T15:15:41.839Z</time>
      </trkpt>
      <trkpt lat="48.16208" lon="-2.99864">
        <ele>121.273804</ele>
        <time>2022-12-12T15:15:45.821Z</time>
      </trkpt>
      <trkpt lat="48.16198" lon="-2.9987">
        <ele>121.342259</ele>
        <time>2022-12-12T15:15:48.831Z</time>
      </trkpt>
      <trkpt lat="48.16186" lon="-2.99877">
        <ele>121.422951</ele>
        <time>2022-12-12T15:15:51.843Z</time>
      </trkpt>
      <trkpt lat="48.16175" lon="-2.99884">
        <ele>121.499647</ele>
        <time>2022-12-12T15:15:54.820Z</time>
      </trkpt>
      <trkpt lat="48.16165" lon="-2.9989">
        <ele>121.551539</ele>
        <time>2022-12-12T15:15:57.841Z</time>
      </trkpt>
      <trkpt lat="48.16155" lon="-2.99896">
        <ele>121.586823</ele>
        <time>2022-12-12T15:16:00.849Z</time>
      </trkpt>
      <trkpt lat="48.16145" lon="-2.99902">
        <ele>121.623575</ele>
        <time>2022-12-12T15:16:03.845Z</time>
      </trkpt>
      <trkpt lat="48.16135" lon="-2.99908">
        <ele>121.658143</ele>
        <time>2022-12-12T15:16:06.845Z</time>
      </trkpt>
      <trkpt lat="48.16126" lon="-2.99913">
        <ele>121.690427</ele>
        <time>2022-12-12T15:16:09.828Z</time>
      </trkpt>
      <trkpt lat="48.16115" lon="-2.9992">
        <ele>121.733407</ele>
        <time>2022-12-12T15:16:12.835Z</time>
      </trkpt>
      <trkpt lat="48.16104" lon="-2.99927">
        <ele>121.772552</ele>
        <time>2022-12-12T15:16:15.833Z</time>
      </trkpt>
      <trkpt lat="48.16093" lon="-2.99934">
        <ele>121.811296</ele>
        <time>2022-12-12T15:16:18.849Z</time>
      </trkpt>
      <trkpt lat="48.16083" lon="-2.99941">
        <ele>121.849593</ele>
        <time>2022-12-12T15:16:22.852Z</time>
      </trkpt>
      <trkpt lat="48.16074" lon="-2.99947">
        <ele>121.88251</ele>
        <time>2022-12-12T15:16:25.841Z</time>
      </trkpt>
      <trkpt lat="48.16064" lon="-2.99951">
        <ele>121.917828</ele>
        <time>2022-12-12T15:16:28.821Z</time>
      </trkpt>
      <trkpt lat="48.16053" lon="-2.99957">
        <ele>121.95815</ele>
        <time>2022-12-12T15:16:31.842Z</time>
      </trkpt>
      <trkpt lat="48.16042" lon="-2.99963">
        <ele>121.996738</ele>
        <time>2022-12-12T15:16:34.825Z</time>
      </trkpt>
      <trkpt lat="48.1603" lon="-2.99969">
        <ele>122.038438</ele>
        <time>2022-12-12T15:16:37.837Z</time>
      </trkpt>
      <trkpt lat="48.16018" lon="-2.99974">
        <ele>122.08084</ele>
        <time>2022-12-12T15:16:40.844Z</time>
      </trkpt>
      <trkpt lat="48.16005" lon="-2.99978">
        <ele>122.123612</ele>
        <time>2022-12-12T15:16:43.841Z</time>
      </trkpt>
      <trkpt lat="48.15992" lon="-2.99981">
        <ele>121.936369</ele>
        <time>2022-12-12T15:16:46.833Z</time>
      </trkpt>
      <trkpt lat="48.15981" lon="-2.99984">
        <ele>121.683925</ele>
        <time>2022-12-12T15:16:49.842Z</time>
      </trkpt>
      <trkpt lat="48.15969" lon="-2.99986">
        <ele>121.427894</ele>
        <time>2022-12-12T15:16:52.816Z</time>
      </trkpt>
      <trkpt lat="48.15958" lon="-2.99989">
        <ele>121.190767</ele>
        <time>2022-12-12T15:16:55.847Z</time>
      </trkpt>
      <trkpt lat="48.15949" lon="-2.9999">
        <ele>120.980922</ele>
        <time>2022-12-12T15:16:58.847Z</time>
      </trkpt>
      <trkpt lat="48.15938" lon="-2.99992">
        <ele>120.75596</ele>
        <time>2022-12-12T15:17:01.841Z</time>
      </trkpt>
      <trkpt lat="48.15927" lon="-2.99996">
        <ele>120.499649</ele>
        <time>2022-12-12T15:17:04.817Z</time>
      </trkpt>
      <trkpt lat="48.15915" lon="-3.00001">
        <ele>120.242314</ele>
        <time>2022-12-12T15:17:07.844Z</time>
      </trkpt>
      <trkpt lat="48.15905" lon="-3.00009">
        <ele>119.991411</ele>
        <time>2022-12-12T15:17:10.847Z</time>
      </trkpt>
      <trkpt lat="48.15895" lon="-3.00017">
        <ele>119.748804</ele>
        <time>2022-12-12T15:17:13.816Z</time>
      </trkpt>
      <trkpt lat="48.15886" lon="-3.00028">
        <ele>119.496867</ele>
        <time>2022-12-12T15:17:16.839Z</time>
      </trkpt>
      <trkpt lat="48.15878" lon="-3.0004">
        <ele>119.252331</ele>
        <time>2022-12-12T15:17:19.818Z</time>
      </trkpt>
      <trkpt lat="48.1587" lon="-3.00053">
        <ele>119.004621</ele>
        <time>2022-12-12T15:17:22.831Z</time>
      </trkpt>
      <trkpt lat="48.15863" lon="-3.00066">
        <ele>118.767933</ele>
        <time>2022-12-12T15:17:25.840Z</time>
      </trkpt>
      <trkpt lat="48.15856" lon="-3.00081">
        <ele>118.500769</ele>
        <time>2022-12-12T15:17:28.838Z</time>
      </trkpt>
      <trkpt lat="48.15851" lon="-3.00095">
        <ele>118.264232</ele>
        <time>2022-12-12T15:17:31.818Z</time>
      </trkpt>
      <trkpt lat="48.15848" lon="-3.00111">
        <ele>118.529676</ele>
        <time>2022-12-12T15:17:34.817Z</time>
      </trkpt>
      <trkpt lat="48.15845" lon="-3.00127">
        <ele>118.819045</ele>
        <time>2022-12-12T15:17:37.844Z</time>
      </trkpt>
      <trkpt lat="48.15842" lon="-3.00142">
        <ele>119.082133</ele>
        <time>2022-12-12T15:17:40.837Z</time>
      </trkpt>
      <trkpt lat="48.15843" lon="-3.0016">
        <ele>119.386785</ele>
        <time>2022-12-12T15:17:43.827Z</time>
      </trkpt>
      <trkpt lat="48.15841" lon="-3.00178">
        <ele>119.695026</ele>
        <time>2022-12-12T15:17:46.817Z</time>
      </trkpt>
      <trkpt lat="48.1584" lon="-3.00196">
        <ele>120.017851</ele>
        <time>2022-12-12T15:17:49.845Z</time>
      </trkpt>
      <trkpt lat="48.15838" lon="-3.00214">
        <ele>120.315438</ele>
        <time>2022-12-12T15:17:52.820Z</time>
      </trkpt>
      <trkpt lat="48.15837" lon="-3.0023">
        <ele>120.591621</ele>
        <time>2022-12-12T15:17:55.822Z</time>
      </trkpt>
      <trkpt lat="48.15836" lon="-3.00246">
        <ele>120.873769</ele>
        <time>2022-12-12T15:17:58.838Z</time>
      </trkpt>
      <trkpt lat="48.15837" lon="-3.00263">
        <ele>121.164911</ele>
        <time>2022-12-12T15:18:01.841Z</time>
      </trkpt>
      <trkpt lat="48.15839" lon="-3.00279">
        <ele>121.432277</ele>
        <time>2022-12-12T15:18:04.843Z</time>
      </trkpt>
      <trkpt lat="48.1584" lon="-3.00294">
        <ele>121.69494</ele>
        <time>2022-12-12T15:18:07.833Z</time>
      </trkpt>
      <trkpt lat="48.15843" lon="-3.00308">
        <ele>121.94523</ele>
        <time>2022-12-12T15:18:10.823Z</time>
      </trkpt>
      <trkpt lat="48.15844" lon="-3.00322">
        <ele>122.182744</ele>
        <time>2022-12-12T15:18:13.842Z</time>
      </trkpt>
      <trkpt lat="48.15847" lon="-3.00336">
        <ele>122.425277</ele>
        <time>2022-12-12T15:18:16.822Z</time>
      </trkpt>
      <trkpt lat="48.15849" lon="-3.00351">
        <ele>122.700172</ele>
        <time>2022-12-12T15:18:19.842Z</time>
      </trkpt>
      <trkpt lat="48.15852" lon="-3.00367">
        <ele>122.868392</ele>
        <time>2022-12-12T15:18:22.837Z</time>
      </trkpt>
      <trkpt lat="48.15855" lon="-3.00384">
        <ele>122.870059</ele>
        <time>2022-12-12T15:18:25.839Z</time>
      </trkpt>
      <trkpt lat="48.1586" lon="-3.00399">
        <ele>122.871677</ele>
        <time>2022-12-12T15:18:28.817Z</time>
      </trkpt>
      <trkpt lat="48.15865" lon="-3.00416">
        <ele>122.873512</ele>
        <time>2022-12-12T15:18:31.819Z</time>
      </trkpt>
      <trkpt lat="48.15869" lon="-3.00429">
        <ele>122.874811</ele>
        <time>2022-12-12T15:18:33.831Z</time>
      </trkpt>
      <trkpt lat="48.15875" lon="-3.00445">
        <ele>122.876616</ele>
        <time>2022-12-12T15:18:36.848Z</time>
      </trkpt>
      <trkpt lat="48.15878" lon="-3.00461">
        <ele>122.878233</ele>
        <time>2022-12-12T15:18:39.824Z</time>
      </trkpt>
      <trkpt lat="48.15882" lon="-3.00476">
        <ele>122.879804</ele>
        <time>2022-12-12T15:18:42.836Z</time>
      </trkpt>
      <trkpt lat="48.15886" lon="-3.00491">
        <ele>122.881297</ele>
        <time>2022-12-12T15:18:45.834Z</time>
      </trkpt>
      <trkpt lat="48.15889" lon="-3.00505">
        <ele>122.882751</ele>
        <time>2022-12-12T15:18:48.843Z</time>
      </trkpt>
      <trkpt lat="48.15895" lon="-3.00521">
        <ele>122.884482</ele>
        <time>2022-12-12T15:18:51.842Z</time>
      </trkpt>
      <trkpt lat="48.159" lon="-3.00537">
        <ele>122.886185</ele>
        <time>2022-12-12T15:18:54.837Z</time>
      </trkpt>
      <trkpt lat="48.15905" lon="-3.00552">
        <ele>122.88779</ele>
        <time>2022-12-12T15:18:57.844Z</time>
      </trkpt>
      <trkpt lat="48.1591" lon="-3.00568">
        <ele>122.889469</ele>
        <time>2022-12-12T15:19:00.834Z</time>
      </trkpt>
      <trkpt lat="48.15915" lon="-3.00585">
        <ele>122.891301</ele>
        <time>2022-12-12T15:19:03.844Z</time>
      </trkpt>
      <trkpt lat="48.15921" lon="-3.00603">
        <ele>122.893206</ele>
        <time>2022-12-12T15:19:06.845Z</time>
      </trkpt>
      <trkpt lat="48.15924" lon="-3.00616">
        <ele>122.810375</ele>
        <time>2022-12-12T15:19:08.819Z</time>
      </trkpt>
      <trkpt lat="48.15927" lon="-3.00634">
        <ele>122.642401</ele>
        <time>2022-12-12T15:19:11.829Z</time>
      </trkpt>
      <trkpt lat="48.15929" lon="-3.0065">
        <ele>122.488131</ele>
        <time>2022-12-12T15:19:14.817Z</time>
      </trkpt>
      <trkpt lat="48.15928" lon="-3.00668">
        <ele>122.324858</ele>
        <time>2022-12-12T15:19:17.840Z</time>
      </trkpt>
      <trkpt lat="48.15929" lon="-3.00688">
        <ele>122.143137</ele>
        <time>2022-12-12T15:19:20.843Z</time>
      </trkpt>
      <trkpt lat="48.1593" lon="-3.00705">
        <ele>121.979195</ele>
        <time>2022-12-12T15:19:23.840Z</time>
      </trkpt>
      <trkpt lat="48.15931" lon="-3.00724">
        <ele>121.806843</ele>
        <time>2022-12-12T15:19:26.819Z</time>
      </trkpt>
      <trkpt lat="48.15931" lon="-3.00738">
        <ele>121.677147</ele>
        <time>2022-12-12T15:19:28.835Z</time>
      </trkpt>
      <trkpt lat="48.15931" lon="-3.00752">
        <ele>121.551016</ele>
        <time>2022-12-12T15:19:30.831Z</time>
      </trkpt>
      <trkpt lat="48.15931" lon="-3.00766">
        <ele>121.417648</ele>
        <time>2022-12-12T15:19:32.832Z</time>
      </trkpt>
      <trkpt lat="48.15931" lon="-3.00781">
        <ele>121.282377</ele>
        <time>2022-12-12T15:19:34.843Z</time>
      </trkpt>
      <trkpt lat="48.15932" lon="-3.008">
        <ele>121.103599</ele>
        <time>2022-12-12T15:19:37.841Z</time>
      </trkpt>
      <trkpt lat="48.15932" lon="-3.0082">
        <ele>120.927872</ele>
        <time>2022-12-12T15:19:40.839Z</time>
      </trkpt>
      <trkpt lat="48.15931" lon="-3.00837">
        <ele>120.76318</ele>
        <time>2022-12-12T15:19:43.837Z</time>
      </trkpt>
      <trkpt lat="48.1593" lon="-3.00856">
        <ele>120.594296</ele>
        <time>2022-12-12T15:19:46.843Z</time>
      </trkpt>
      <trkpt lat="48.1593" lon="-3.00874">
        <ele>120.42597</ele>
        <time>2022-12-12T15:19:49.822Z</time>
      </trkpt>
      <trkpt lat="48.1593" lon="-3.00892">
        <ele>120.335667</ele>
        <time>2022-12-12T15:19:52.819Z</time>
      </trkpt>
      <trkpt lat="48.15929" lon="-3.00906">
        <ele>120.272648</ele>
        <time>2022-12-12T15:19:54.827Z</time>
      </trkpt>
      <trkpt lat="48.15928" lon="-3.00926">
        <ele>120.177912</ele>
        <time>2022-12-12T15:19:57.836Z</time>
      </trkpt>
      <trkpt lat="48.15928" lon="-3.00946">
        <ele>120.087334</ele>
        <time>2022-12-12T15:20:00.818Z</time>
      </trkpt>
      <trkpt lat="48.15927" lon="-3.00964">
        <ele>120.000998</ele>
        <time>2022-12-12T15:20:03.840Z</time>
      </trkpt>
      <trkpt lat="48.15925" lon="-3.00982">
        <ele>119.918392</ele>
        <time>2022-12-12T15:20:06.844Z</time>
      </trkpt>
      <trkpt lat="48.15922" lon="-3.01">
        <ele>119.832673</ele>
        <time>2022-12-12T15:20:09.820Z</time>
      </trkpt>
      <trkpt lat="48.15916" lon="-3.01015">
        <ele>119.753022</ele>
        <time>2022-12-12T15:20:12.821Z</time>
      </trkpt>
      <trkpt lat="48.15909" lon="-3.01029">
        <ele>119.674812</ele>
        <time>2022-12-12T15:20:15.820Z</time>
      </trkpt>
      <trkpt lat="48.15902" lon="-3.01038">
        <ele>119.609932</ele>
        <time>2022-12-12T15:20:18.821Z</time>
      </trkpt>
      <trkpt lat="48.15893" lon="-3.01045">
        <ele>119.54032</ele>
        <time>2022-12-12T15:20:21.817Z</time>
      </trkpt>
      <trkpt lat="48.15884" lon="-3.0105">
        <ele>119.471244</ele>
        <time>2022-12-12T15:20:24.842Z</time>
      </trkpt>
      <trkpt lat="48.15873" lon="-3.01056">
        <ele>119.388062</ele>
        <time>2022-12-12T15:20:28.846Z</time>
      </trkpt>
      <trkpt lat="48.15862" lon="-3.01061">
        <ele>119.313216</ele>
        <time>2022-12-12T15:20:31.821Z</time>
      </trkpt>
      <trkpt lat="48.15852" lon="-3.01065">
        <ele>119.239162</ele>
        <time>2022-12-12T15:20:34.844Z</time>
      </trkpt>
      <trkpt lat="48.15841" lon="-3.01069">
        <ele>119.162039</ele>
        <time>2022-12-12T15:20:37.839Z</time>
      </trkpt>
      <trkpt lat="48.1583" lon="-3.01071">
        <ele>119.111973</ele>
        <time>2022-12-12T15:20:40.849Z</time>
      </trkpt>
      <trkpt lat="48.1582" lon="-3.01075">
        <ele>119.062172</ele>
        <time>2022-12-12T15:20:43.845Z</time>
      </trkpt>
      <trkpt lat="48.15808" lon="-3.01078">
        <ele>119.007083</ele>
        <time>2022-12-12T15:20:46.843Z</time>
      </trkpt>
      <trkpt lat="48.15796" lon="-3.0108">
        <ele>118.950781</ele>
        <time>2022-12-12T15:20:49.846Z</time>
      </trkpt>
      <trkpt lat="48.15784" lon="-3.01082">
        <ele>118.89564</ele>
        <time>2022-12-12T15:20:52.843Z</time>
      </trkpt>
      <trkpt lat="48.15774" lon="-3.01086">
        <ele>118.84388</ele>
        <time>2022-12-12T15:20:55.841Z</time>
      </trkpt>
      <trkpt lat="48.15763" lon="-3.01088">
        <ele>118.792251</ele>
        <time>2022-12-12T15:20:58.847Z</time>
      </trkpt>
      <trkpt lat="48.15751" lon="-3.0109">
        <ele>118.736307</ele>
        <time>2022-12-12T15:21:01.824Z</time>
      </trkpt>
      <trkpt lat="48.15741" lon="-3.01091">
        <ele>118.689035</ele>
        <time>2022-12-12T15:21:04.847Z</time>
      </trkpt>
      <trkpt lat="48.15729" lon="-3.01092">
        <ele>118.636702</ele>
        <time>2022-12-12T15:21:07.840Z</time>
      </trkpt>
      <trkpt lat="48.15717" lon="-3.01093">
        <ele>118.58016</ele>
        <time>2022-12-12T15:21:10.847Z</time>
      </trkpt>
      <trkpt lat="48.15706" lon="-3.01094">
        <ele>118.529279</ele>
        <time>2022-12-12T15:21:13.849Z</time>
      </trkpt>
      <trkpt lat="48.15695" lon="-3.01094">
        <ele>118.476066</ele>
        <time>2022-12-12T15:21:16.845Z</time>
      </trkpt>
      <trkpt lat="48.15683" lon="-3.01095">
        <ele>118.420512</ele>
        <time>2022-12-12T15:21:19.839Z</time>
      </trkpt>
      <trkpt lat="48.15671" lon="-3.01096">
        <ele>118.364014</ele>
        <time>2022-12-12T15:21:22.845Z</time>
      </trkpt>
      <trkpt lat="48.15659" lon="-3.01096">
        <ele>118.27912</ele>
        <time>2022-12-12T15:21:25.840Z</time>
      </trkpt>
      <trkpt lat="48.15647" lon="-3.01095">
        <ele>118.148153</ele>
        <time>2022-12-12T15:21:28.835Z</time>
      </trkpt>
      <trkpt lat="48.15634" lon="-3.01094">
        <ele>118.008161</ele>
        <time>2022-12-12T15:21:31.829Z</time>
      </trkpt>
      <trkpt lat="48.1562" lon="-3.01094">
        <ele>117.860045</ele>
        <time>2022-12-12T15:21:34.814Z</time>
      </trkpt>
      <trkpt lat="48.15607" lon="-3.01093">
        <ele>117.72011</ele>
        <time>2022-12-12T15:21:37.833Z</time>
      </trkpt>
      <trkpt lat="48.15598" lon="-3.01092">
        <ele>117.62235</ele>
        <time>2022-12-12T15:21:39.826Z</time>
      </trkpt>
      <trkpt lat="48.15588" lon="-3.01092">
        <ele>117.521424</ele>
        <time>2022-12-12T15:21:41.823Z</time>
      </trkpt>
      <trkpt lat="48.15575" lon="-3.01091">
        <ele>117.381811</ele>
        <time>2022-12-12T15:21:44.821Z</time>
      </trkpt>
      <trkpt lat="48.15563" lon="-3.01092">
        <ele>117.247561</ele>
        <time>2022-12-12T15:21:47.819Z</time>
      </trkpt>
      <trkpt lat="48.15553" lon="-3.01092">
        <ele>117.144527</ele>
        <time>2022-12-12T15:21:50.821Z</time>
      </trkpt>
      <trkpt lat="48.15543" lon="-3.01092">
        <ele>117.0372</ele>
        <time>2022-12-12T15:21:53.845Z</time>
      </trkpt>
      <trkpt lat="48.15533" lon="-3.01091">
        <ele>116.929758</ele>
        <time>2022-12-12T15:21:56.844Z</time>
      </trkpt>
      <trkpt lat="48.15523" lon="-3.01092">
        <ele>116.817553</ele>
        <time>2022-12-12T15:21:59.818Z</time>
      </trkpt>
      <trkpt lat="48.1551" lon="-3.01094">
        <ele>116.675299</ele>
        <time>2022-12-12T15:22:02.845Z</time>
      </trkpt>
      <trkpt lat="48.15501" lon="-3.01094">
        <ele>116.57761</ele>
        <time>2022-12-12T15:22:04.837Z</time>
      </trkpt>
      <trkpt lat="48.15491" lon="-3.01095">
        <ele>116.473384</ele>
        <time>2022-12-12T15:22:06.846Z</time>
      </trkpt>
      <trkpt lat="48.15481" lon="-3.01097">
        <ele>116.377772</ele>
        <time>2022-12-12T15:22:08.821Z</time>
      </trkpt>
      <trkpt lat="48.15468" lon="-3.01101">
        <ele>116.287561</ele>
        <time>2022-12-12T15:22:11.816Z</time>
      </trkpt>
      <trkpt lat="48.15457" lon="-3.01108">
        <ele>116.203948</ele>
        <time>2022-12-12T15:22:14.832Z</time>
      </trkpt>
      <trkpt lat="48.15445" lon="-3.01118">
        <ele>116.114316</ele>
        <time>2022-12-12T15:22:17.846Z</time>
      </trkpt>
      <trkpt lat="48.15435" lon="-3.01128">
        <ele>116.029318</ele>
        <time>2022-12-12T15:22:20.818Z</time>
      </trkpt>
      <trkpt lat="48.15426" lon="-3.01139">
        <ele>115.954095</ele>
        <time>2022-12-12T15:22:23.846Z</time>
      </trkpt>
      <trkpt lat="48.15419" lon="-3.01148">
        <ele>115.889949</ele>
        <time>2022-12-12T15:22:26.826Z</time>
      </trkpt>
      <trkpt lat="48.15408" lon="-3.01159">
        <ele>115.80024</ele>
        <time>2022-12-12T15:22:29.818Z</time>
      </trkpt>
      <trkpt lat="48.15397" lon="-3.01169">
        <ele>115.711551</ele>
        <time>2022-12-12T15:22:32.843Z</time>
      </trkpt>
      <trkpt lat="48.15385" lon="-3.01177">
        <ele>115.622386</ele>
        <time>2022-12-12T15:22:35.839Z</time>
      </trkpt>
      <trkpt lat="48.15373" lon="-3.01182">
        <ele>115.540395</ele>
        <time>2022-12-12T15:22:38.835Z</time>
      </trkpt>
      <trkpt lat="48.15362" lon="-3.01186">
        <ele>115.459314</ele>
        <time>2022-12-12T15:22:41.834Z</time>
      </trkpt>
      <trkpt lat="48.15351" lon="-3.01189">
        <ele>115.386594</ele>
        <time>2022-12-12T15:22:44.835Z</time>
      </trkpt>
      <trkpt lat="48.15339" lon="-3.0119">
        <ele>115.305605</ele>
        <time>2022-12-12T15:22:47.830Z</time>
      </trkpt>
      <trkpt lat="48.15327" lon="-3.0119">
        <ele>115.222586</ele>
        <time>2022-12-12T15:22:50.832Z</time>
      </trkpt>
      <trkpt lat="48.15318" lon="-3.0119">
        <ele>115.179819</ele>
        <time>2022-12-12T15:22:52.823Z</time>
      </trkpt>
      <trkpt lat="48.15308" lon="-3.01187">
        <ele>115.201707</ele>
        <time>2022-12-12T15:22:54.824Z</time>
      </trkpt>
      <trkpt lat="48.15299" lon="-3.01183">
        <ele>115.221149</ele>
        <time>2022-12-12T15:22:56.827Z</time>
      </trkpt>
      <trkpt lat="48.15287" lon="-3.01178">
        <ele>115.247526</ele>
        <time>2022-12-12T15:22:59.839Z</time>
      </trkpt>
      <trkpt lat="48.15277" lon="-3.01172">
        <ele>115.271064</ele>
        <time>2022-12-12T15:23:03.819Z</time>
      </trkpt>
      <trkpt lat="48.15266" lon="-3.01164">
        <ele>115.29857</ele>
        <time>2022-12-12T15:23:06.841Z</time>
      </trkpt>
      <trkpt lat="48.15254" lon="-3.01154">
        <ele>115.327863</ele>
        <time>2022-12-12T15:23:09.839Z</time>
      </trkpt>
      <trkpt lat="48.15245" lon="-3.01149">
        <ele>115.347457</ele>
        <time>2022-12-12T15:23:11.833Z</time>
      </trkpt>
      <trkpt lat="48.15232" lon="-3.01141">
        <ele>115.378371</ele>
        <time>2022-12-12T15:23:14.830Z</time>
      </trkpt>
      <trkpt lat="48.15221" lon="-3.01133">
        <ele>115.404324</ele>
        <time>2022-12-12T15:23:17.820Z</time>
      </trkpt>
      <trkpt lat="48.15212" lon="-3.01126">
        <ele>115.427076</ele>
        <time>2022-12-12T15:23:19.827Z</time>
      </trkpt>
      <trkpt lat="48.15203" lon="-3.0112">
        <ele>115.44688</ele>
        <time>2022-12-12T15:23:21.819Z</time>
      </trkpt>
      <trkpt lat="48.15195" lon="-3.01114">
        <ele>115.466537</ele>
        <time>2022-12-12T15:23:23.839Z</time>
      </trkpt>
      <trkpt lat="48.15184" lon="-3.01107">
        <ele>115.492105</ele>
        <time>2022-12-12T15:23:26.845Z</time>
      </trkpt>
      <trkpt lat="48.15176" lon="-3.011">
        <ele>115.513176</ele>
        <time>2022-12-12T15:23:29.845Z</time>
      </trkpt>
      <trkpt lat="48.15168" lon="-3.01092">
        <ele>115.534135</ele>
        <time>2022-12-12T15:23:33.827Z</time>
      </trkpt>
      <trkpt lat="48.15158" lon="-3.01082">
        <ele>115.559156</ele>
        <time>2022-12-12T15:23:37.849Z</time>
      </trkpt>
      <trkpt lat="48.15148" lon="-3.01072">
        <ele>115.503818</ele>
        <time>2022-12-12T15:23:40.845Z</time>
      </trkpt>
      <trkpt lat="48.15139" lon="-3.01059">
        <ele>115.440086</ele>
        <time>2022-12-12T15:23:43.820Z</time>
      </trkpt>
      <trkpt lat="48.15133" lon="-3.01044">
        <ele>115.379705</ele>
        <time>2022-12-12T15:23:46.826Z</time>
      </trkpt>
      <trkpt lat="48.15127" lon="-3.0103">
        <ele>115.321387</ele>
        <time>2022-12-12T15:23:49.840Z</time>
      </trkpt>
      <trkpt lat="48.15121" lon="-3.01017">
        <ele>115.267129</ele>
        <time>2022-12-12T15:23:52.843Z</time>
      </trkpt>
      <trkpt lat="48.15116" lon="-3.01005">
        <ele>115.216169</ele>
        <time>2022-12-12T15:23:55.844Z</time>
      </trkpt>
      <trkpt lat="48.15113" lon="-3.00991">
        <ele>115.164532</ele>
        <time>2022-12-12T15:23:58.844Z</time>
      </trkpt>
      <trkpt lat="48.15108" lon="-3.00976">
        <ele>115.107268</ele>
        <time>2022-12-12T15:24:01.843Z</time>
      </trkpt>
      <trkpt lat="48.15103" lon="-3.00959">
        <ele>115.04332</ele>
        <time>2022-12-12T15:24:04.834Z</time>
      </trkpt>
      <trkpt lat="48.15098" lon="-3.00943">
        <ele>114.981915</ele>
        <time>2022-12-12T15:24:07.835Z</time>
      </trkpt>
      <trkpt lat="48.15093" lon="-3.00927">
        <ele>114.918811</ele>
        <time>2022-12-12T15:24:10.842Z</time>
      </trkpt>
      <trkpt lat="48.15089" lon="-3.00912">
        <ele>114.863115</ele>
        <time>2022-12-12T15:24:13.830Z</time>
      </trkpt>
      <trkpt lat="48.15084" lon="-3.00896">
        <ele>114.802343</ele>
        <time>2022-12-12T15:24:16.842Z</time>
      </trkpt>
      <trkpt lat="48.15078" lon="-3.00879">
        <ele>114.73471</ele>
        <time>2022-12-12T15:24:19.844Z</time>
      </trkpt>
      <trkpt lat="48.15073" lon="-3.00862">
        <ele>114.669261</ele>
        <time>2022-12-12T15:24:22.834Z</time>
      </trkpt>
      <trkpt lat="48.15067" lon="-3.00846">
        <ele>114.656366</ele>
        <time>2022-12-12T15:24:25.816Z</time>
      </trkpt>
      <trkpt lat="48.15061" lon="-3.00829">
        <ele>114.802843</ele>
        <time>2022-12-12T15:24:28.837Z</time>
      </trkpt>
      <trkpt lat="48.15054" lon="-3.00814">
        <ele>114.944219</ele>
        <time>2022-12-12T15:24:31.844Z</time>
      </trkpt>
      <trkpt lat="48.15048" lon="-3.00803">
        <ele>115.05762</ele>
        <time>2022-12-12T15:24:33.847Z</time>
      </trkpt>
      <trkpt lat="48.15042" lon="-3.00788">
        <ele>115.184578</ele>
        <time>2022-12-12T15:24:36.844Z</time>
      </trkpt>
      <trkpt lat="48.15035" lon="-3.00775">
        <ele>115.315763</ele>
        <time>2022-12-12T15:24:39.841Z</time>
      </trkpt>
      <trkpt lat="48.15027" lon="-3.00763">
        <ele>115.441921</ele>
        <time>2022-12-12T15:24:42.834Z</time>
      </trkpt>
      <trkpt lat="48.15022" lon="-3.0075">
        <ele>115.557151</ele>
        <time>2022-12-12T15:24:45.818Z</time>
      </trkpt>
      <trkpt lat="48.15015" lon="-3.00737">
        <ele>115.687903</ele>
        <time>2022-12-12T15:24:48.840Z</time>
      </trkpt>
      <trkpt lat="48.15008" lon="-3.00724">
        <ele>115.812818</ele>
        <time>2022-12-12T15:24:51.834Z</time>
      </trkpt>
      <trkpt lat="48.15" lon="-3.0071">
        <ele>115.953906</ele>
        <time>2022-12-12T15:24:54.842Z</time>
      </trkpt>
      <trkpt lat="48.14994" lon="-3.00699">
        <ele>116.063292</ele>
        <time>2022-12-12T15:24:56.833Z</time>
      </trkpt>
      <trkpt lat="48.14986" lon="-3.00684">
        <ele>116.213581</ele>
        <time>2022-12-12T15:24:59.840Z</time>
      </trkpt>
      <trkpt lat="48.14978" lon="-3.00671">
        <ele>116.34834</ele>
        <time>2022-12-12T15:25:02.845Z</time>
      </trkpt>
      <trkpt lat="48.14972" lon="-3.00659">
        <ele>116.460753</ele>
        <time>2022-12-12T15:25:05.839Z</time>
      </trkpt>
      <trkpt lat="48.14965" lon="-3.00647">
        <ele>116.580932</ele>
        <time>2022-12-12T15:25:08.844Z</time>
      </trkpt>
      <trkpt lat="48.14957" lon="-3.00633">
        <ele>116.647745</ele>
        <time>2022-12-12T15:25:11.844Z</time>
      </trkpt>
      <trkpt lat="48.1495" lon="-3.00618">
        <ele>116.499671</ele>
        <time>2022-12-12T15:25:14.848Z</time>
      </trkpt>
      <trkpt lat="48.14941" lon="-3.00604">
        <ele>116.353603</ele>
        <time>2022-12-12T15:25:17.824Z</time>
      </trkpt>
      <trkpt lat="48.14934" lon="-3.00591">
        <ele>116.219204</ele>
        <time>2022-12-12T15:25:20.844Z</time>
      </trkpt>
      <trkpt lat="48.14929" lon="-3.00578">
        <ele>116.104085</ele>
        <time>2022-12-12T15:25:23.840Z</time>
      </trkpt>
      <trkpt lat="48.14923" lon="-3.00566">
        <ele>115.988863</ele>
        <time>2022-12-12T15:25:26.842Z</time>
      </trkpt>
      <trkpt lat="48.14917" lon="-3.00556">
        <ele>115.878229</ele>
        <time>2022-12-12T15:25:29.848Z</time>
      </trkpt>
      <trkpt lat="48.14909" lon="-3.00543">
        <ele>115.747156</ele>
        <time>2022-12-12T15:25:32.821Z</time>
      </trkpt>
      <trkpt lat="48.14901" lon="-3.0053">
        <ele>115.59928</ele>
        <time>2022-12-12T15:25:35.842Z</time>
      </trkpt>
      <trkpt lat="48.14892" lon="-3.00516">
        <ele>115.453093</ele>
        <time>2022-12-12T15:25:38.848Z</time>
      </trkpt>
      <trkpt lat="48.14883" lon="-3.00504">
        <ele>115.309936</ele>
        <time>2022-12-12T15:25:41.843Z</time>
      </trkpt>
      <trkpt lat="48.14876" lon="-3.00494">
        <ele>115.200775</ele>
        <time>2022-12-12T15:25:44.848Z</time>
      </trkpt>
      <trkpt lat="48.14869" lon="-3.0048">
        <ele>115.060377</ele>
        <time>2022-12-12T15:25:48.823Z</time>
      </trkpt>
      <trkpt lat="48.1486" lon="-3.00468">
        <ele>114.920002</ele>
        <time>2022-12-12T15:25:52.843Z</time>
      </trkpt>
      <trkpt lat="48.14853" lon="-3.00457">
        <ele>114.800349</ele>
        <time>2022-12-12T15:25:55.824Z</time>
      </trkpt>
      <trkpt lat="48.14846" lon="-3.00447">
        <ele>114.687057</ele>
        <time>2022-12-12T15:25:58.833Z</time>
      </trkpt>
      <trkpt lat="48.14837" lon="-3.00434">
        <ele>114.587337</ele>
        <time>2022-12-12T15:26:01.828Z</time>
      </trkpt>
      <trkpt lat="48.14829" lon="-3.00422">
        <ele>114.631912</ele>
        <time>2022-12-12T15:26:04.829Z</time>
      </trkpt>
      <trkpt lat="48.1482" lon="-3.00411">
        <ele>114.67771</ele>
        <time>2022-12-12T15:26:07.832Z</time>
      </trkpt>
      <trkpt lat="48.14811" lon="-3.00401">
        <ele>114.720401</ele>
        <time>2022-12-12T15:26:10.841Z</time>
      </trkpt>
      <trkpt lat="48.14802" lon="-3.00392">
        <ele>114.76205</ele>
        <time>2022-12-12T15:26:13.834Z</time>
      </trkpt>
      <trkpt lat="48.14792" lon="-3.00383">
        <ele>114.807257</ele>
        <time>2022-12-12T15:26:16.821Z</time>
      </trkpt>
      <trkpt lat="48.14782" lon="-3.00375">
        <ele>114.850956</ele>
        <time>2022-12-12T15:26:19.830Z</time>
      </trkpt>
      <trkpt lat="48.1477" lon="-3.00368">
        <ele>114.900015</ele>
        <time>2022-12-12T15:26:22.823Z</time>
      </trkpt>
      <trkpt lat="48.1476" lon="-3.00361">
        <ele>114.943491</ele>
        <time>2022-12-12T15:26:25.840Z</time>
      </trkpt>
      <trkpt lat="48.14749" lon="-3.00356">
        <ele>114.985955</ele>
        <time>2022-12-12T15:26:28.824Z</time>
      </trkpt>
      <trkpt lat="48.14738" lon="-3.00351">
        <ele>115.030916</ele>
        <time>2022-12-12T15:26:31.831Z</time>
      </trkpt>
      <trkpt lat="48.14727" lon="-3.00346">
        <ele>115.076093</ele>
        <time>2022-12-12T15:26:34.848Z</time>
      </trkpt>
      <trkpt lat="48.14717" lon="-3.00343">
        <ele>115.115414</ele>
        <time>2022-12-12T15:26:37.843Z</time>
      </trkpt>
      <trkpt lat="48.14708" lon="-3.00339">
        <ele>115.152735</ele>
        <time>2022-12-12T15:26:40.833Z</time>
      </trkpt>
      <trkpt lat="48.14697" lon="-3.00336">
        <ele>115.195073</ele>
        <time>2022-12-12T15:26:43.825Z</time>
      </trkpt>
      <trkpt lat="48.14686" lon="-3.00332">
        <ele>115.238078</ele>
        <time>2022-12-12T15:26:46.820Z</time>
      </trkpt>
      <trkpt lat="48.14675" lon="-3.00329">
        <ele>115.251394</ele>
        <time>2022-12-12T15:26:49.823Z</time>
      </trkpt>
      <trkpt lat="48.14666" lon="-3.00326">
        <ele>115.182353</ele>
        <time>2022-12-12T15:26:52.834Z</time>
      </trkpt>
      <trkpt lat="48.14657" lon="-3.00323">
        <ele>115.111724</ele>
        <time>2022-12-12T15:26:55.829Z</time>
      </trkpt>
      <trkpt lat="48.14647" lon="-3.0032">
        <ele>115.036023</ele>
        <time>2022-12-12T15:26:58.846Z</time>
      </trkpt>
      <trkpt lat="48.14635" lon="-3.00316">
        <ele>114.945417</ele>
        <time>2022-12-12T15:27:01.850Z</time>
      </trkpt>
      <trkpt lat="48.14625" lon="-3.00311">
        <ele>114.861898</ele>
        <time>2022-12-12T15:27:04.832Z</time>
      </trkpt>
      <trkpt lat="48.14614" lon="-3.00308">
        <ele>114.778051</ele>
        <time>2022-12-12T15:27:07.843Z</time>
      </trkpt>
      <trkpt lat="48.14603" lon="-3.00303">
        <ele>114.692794</ele>
        <time>2022-12-12T15:27:10.841Z</time>
      </trkpt>
      <trkpt lat="48.14594" lon="-3.00298">
        <ele>114.617955</ele>
        <time>2022-12-12T15:27:13.843Z</time>
      </trkpt>
      <trkpt lat="48.14583" lon="-3.00294">
        <ele>114.535227</ele>
        <time>2022-12-12T15:27:16.844Z</time>
      </trkpt>
      <trkpt lat="48.14572" lon="-3.0029">
        <ele>114.447598</ele>
        <time>2022-12-12T15:27:19.843Z</time>
      </trkpt>
      <trkpt lat="48.14561" lon="-3.00285">
        <ele>114.359006</ele>
        <time>2022-12-12T15:27:22.841Z</time>
      </trkpt>
      <trkpt lat="48.1455" lon="-3.00278">
        <ele>114.274108</ele>
        <time>2022-12-12T15:27:25.830Z</time>
      </trkpt>
      <trkpt lat="48.1454" lon="-3.00271">
        <ele>114.185545</ele>
        <time>2022-12-12T15:27:28.846Z</time>
      </trkpt>
      <trkpt lat="48.14529" lon="-3.00264">
        <ele>114.094402</ele>
        <time>2022-12-12T15:27:31.846Z</time>
      </trkpt>
      <trkpt lat="48.14517" lon="-3.00258">
        <ele>114.002268</ele>
        <time>2022-12-12T15:27:34.849Z</time>
      </trkpt>
      <trkpt lat="48.14506" lon="-3.00251">
        <ele>113.915449</ele>
        <time>2022-12-12T15:27:37.842Z</time>
      </trkpt>
      <trkpt lat="48.14494" lon="-3.00246">
        <ele>114.03156</ele>
        <time>2022-12-12T15:27:40.843Z</time>
      </trkpt>
      <trkpt lat="48.14484" lon="-3.00241">
        <ele>114.141599</ele>
        <time>2022-12-12T15:27:43.842Z</time>
      </trkpt>
      <trkpt lat="48.14475" lon="-3.00237">
        <ele>114.232575</ele>
        <time>2022-12-12T15:27:46.827Z</time>
      </trkpt>
      <trkpt lat="48.14465" lon="-3.00238">
        <ele>114.324394</ele>
        <time>2022-12-12T15:27:49.832Z</time>
      </trkpt>
      <trkpt lat="48.14455" lon="-3.0024">
        <ele>114.424557</ele>
        <time>2022-12-12T15:27:52.821Z</time>
      </trkpt>
      <trkpt lat="48.14445" lon="-3.00247">
        <ele>114.533761</ele>
        <time>2022-12-12T15:27:55.825Z</time>
      </trkpt>
      <trkpt lat="48.14436" lon="-3.00257">
        <ele>114.646309</ele>
        <time>2022-12-12T15:27:58.819Z</time>
      </trkpt>
      <trkpt lat="48.14427" lon="-3.00268">
        <ele>114.75964</ele>
        <time>2022-12-12T15:28:01.827Z</time>
      </trkpt>
      <trkpt lat="48.14418" lon="-3.00279">
        <ele>114.87669</ele>
        <time>2022-12-12T15:28:04.834Z</time>
      </trkpt>
      <trkpt lat="48.14409" lon="-3.0029">
        <ele>114.99172</ele>
        <time>2022-12-12T15:28:07.819Z</time>
      </trkpt>
      <trkpt lat="48.14399" lon="-3.00303">
        <ele>115.120143</ele>
        <time>2022-12-12T15:28:10.829Z</time>
      </trkpt>
      <trkpt lat="48.14391" lon="-3.00317">
        <ele>115.243816</ele>
        <time>2022-12-12T15:28:13.820Z</time>
      </trkpt>
      <trkpt lat="48.14382" lon="-3.00329">
        <ele>115.360424</ele>
        <time>2022-12-12T15:28:16.843Z</time>
      </trkpt>
      <trkpt lat="48.14375" lon="-3.00342">
        <ele>115.470309</ele>
        <time>2022-12-12T15:28:19.835Z</time>
      </trkpt>
      <trkpt lat="48.14368" lon="-3.00355">
        <ele>115.580194</ele>
        <time>2022-12-12T15:28:22.838Z</time>
      </trkpt>
      <trkpt lat="48.1436" lon="-3.00369">
        <ele>115.679673</ele>
        <time>2022-12-12T15:28:25.827Z</time>
      </trkpt>
      <trkpt lat="48.14354" lon="-3.00382">
        <ele>115.635416</ele>
        <time>2022-12-12T15:28:28.843Z</time>
      </trkpt>
      <trkpt lat="48.14348" lon="-3.00394">
        <ele>115.595461</ele>
        <time>2022-12-12T15:28:31.839Z</time>
      </trkpt>
      <trkpt lat="48.14342" lon="-3.00405">
        <ele>115.55507</ele>
        <time>2022-12-12T15:28:34.824Z</time>
      </trkpt>
      <trkpt lat="48.14336" lon="-3.00418">
        <ele>115.513821</ele>
        <time>2022-12-12T15:28:37.838Z</time>
      </trkpt>
      <trkpt lat="48.14331" lon="-3.00431">
        <ele>115.471192</ele>
        <time>2022-12-12T15:28:40.844Z</time>
      </trkpt>
      <trkpt lat="48.14326" lon="-3.00445">
        <ele>115.429871</ele>
        <time>2022-12-12T15:28:43.831Z</time>
      </trkpt>
      <trkpt lat="48.14321" lon="-3.00456">
        <ele>115.392805</ele>
        <time>2022-12-12T15:28:46.833Z</time>
      </trkpt>
      <trkpt lat="48.14316" lon="-3.00472">
        <ele>115.344987</ele>
        <time>2022-12-12T15:28:50.844Z</time>
      </trkpt>
      <trkpt lat="48.14312" lon="-3.00485">
        <ele>115.305881</ele>
        <time>2022-12-12T15:28:55.822Z</time>
      </trkpt>
      <trkpt lat="48.14307" lon="-3.00498">
        <ele>115.264527</ele>
        <time>2022-12-12T15:29:11.832Z</time>
      </trkpt>
      <trkpt lat="48.14303" lon="-3.00511">
        <ele>115.226505</ele>
        <time>2022-12-12T15:29:16.835Z</time>
      </trkpt>
      <trkpt lat="48.14298" lon="-3.00525">
        <ele>115.18459</ele>
        <time>2022-12-12T15:29:20.841Z</time>
      </trkpt>
      <trkpt lat="48.14294" lon="-3.00539">
        <ele>115.14144</ele>
        <time>2022-12-12T15:29:23.846Z</time>
      </trkpt>
      <trkpt lat="48.14289" lon="-3.00554">
        <ele>115.095693</ele>
        <time>2022-12-12T15:29:26.841Z</time>
      </trkpt>
      <trkpt lat="48.14284" lon="-3.0057">
        <ele>115.048</ele>
        <time>2022-12-12T15:29:29.840Z</time>
      </trkpt>
      <trkpt lat="48.14278" lon="-3.00586">
        <ele>114.99805</ele>
        <time>2022-12-12T15:29:32.842Z</time>
      </trkpt>
      <trkpt lat="48.14272" lon="-3.00603">
        <ele>114.920447</ele>
        <time>2022-12-12T15:29:35.843Z</time>
      </trkpt>
      <trkpt lat="48.14265" lon="-3.0062">
        <ele>114.65434</ele>
        <time>2022-12-12T15:29:38.826Z</time>
      </trkpt>
      <trkpt lat="48.1426" lon="-3.00637">
        <ele>114.394962</ele>
        <time>2022-12-12T15:29:41.840Z</time>
      </trkpt>
      <trkpt lat="48.14253" lon="-3.00653">
        <ele>114.136083</ele>
        <time>2022-12-12T15:29:44.845Z</time>
      </trkpt>
      <trkpt lat="48.14247" lon="-3.00669">
        <ele>113.889422</ele>
        <time>2022-12-12T15:29:47.824Z</time>
      </trkpt>
      <trkpt lat="48.14241" lon="-3.00684">
        <ele>113.650129</ele>
        <time>2022-12-12T15:29:50.821Z</time>
      </trkpt>
      <trkpt lat="48.14232" lon="-3.00698">
        <ele>113.388688</ele>
        <time>2022-12-12T15:29:53.820Z</time>
      </trkpt>
      <trkpt lat="48.14224" lon="-3.00712">
        <ele>113.131646</ele>
        <time>2022-12-12T15:29:56.841Z</time>
      </trkpt>
      <trkpt lat="48.14216" lon="-3.00723">
        <ele>112.910503</ele>
        <time>2022-12-12T15:29:59.839Z</time>
      </trkpt>
      <trkpt lat="48.14206" lon="-3.00735">
        <ele>112.660136</ele>
        <time>2022-12-12T15:30:02.821Z</time>
      </trkpt>
      <trkpt lat="48.14196" lon="-3.00746">
        <ele>112.405843</ele>
        <time>2022-12-12T15:30:05.836Z</time>
      </trkpt>
      <trkpt lat="48.14186" lon="-3.00754">
        <ele>112.162019</ele>
        <time>2022-12-12T15:30:08.841Z</time>
      </trkpt>
      <trkpt lat="48.14176" lon="-3.00761">
        <ele>111.933507</ele>
        <time>2022-12-12T15:30:11.838Z</time>
      </trkpt>
      <trkpt lat="48.14164" lon="-3.00768">
        <ele>111.685721</ele>
        <time>2022-12-12T15:30:14.847Z</time>
      </trkpt>
      <trkpt lat="48.14153" lon="-3.00775">
        <ele>111.444497</ele>
        <time>2022-12-12T15:30:17.842Z</time>
      </trkpt>
      <trkpt lat="48.14143" lon="-3.0078">
        <ele>111.255532</ele>
        <time>2022-12-12T15:30:20.844Z</time>
      </trkpt>
      <trkpt lat="48.14133" lon="-3.00789">
        <ele>111.176829</ele>
        <time>2022-12-12T15:30:23.826Z</time>
      </trkpt>
      <trkpt lat="48.14124" lon="-3.008">
        <ele>111.093262</ele>
        <time>2022-12-12T15:30:26.825Z</time>
      </trkpt>
      <trkpt lat="48.14115" lon="-3.00814">
        <ele>111.008521</ele>
        <time>2022-12-12T15:30:29.823Z</time>
      </trkpt>
      <trkpt lat="48.14108" lon="-3.00827">
        <ele>110.928163</ele>
        <time>2022-12-12T15:30:32.834Z</time>
      </trkpt>
      <trkpt lat="48.14099" lon="-3.00841">
        <ele>110.840526</ele>
        <time>2022-12-12T15:30:35.840Z</time>
      </trkpt>
      <trkpt lat="48.14092" lon="-3.00853">
        <ele>110.765875</ele>
        <time>2022-12-12T15:30:38.846Z</time>
      </trkpt>
      <trkpt lat="48.14083" lon="-3.00867">
        <ele>110.679373</ele>
        <time>2022-12-12T15:30:41.819Z</time>
      </trkpt>
      <trkpt lat="48.14075" lon="-3.00879">
        <ele>110.60193</ele>
        <time>2022-12-12T15:30:44.835Z</time>
      </trkpt>
      <trkpt lat="48.14068" lon="-3.0089">
        <ele>110.529688</ele>
        <time>2022-12-12T15:30:47.822Z</time>
      </trkpt>
      <trkpt lat="48.14059" lon="-3.00899">
        <ele>110.457935</ele>
        <time>2022-12-12T15:30:50.828Z</time>
      </trkpt>
      <trkpt lat="48.14051" lon="-3.00908">
        <ele>110.386739</ele>
        <time>2022-12-12T15:30:53.825Z</time>
      </trkpt>
      <trkpt lat="48.14041" lon="-3.00921">
        <ele>110.300803</ele>
        <time>2022-12-12T15:30:56.844Z</time>
      </trkpt>
      <trkpt lat="48.14031" lon="-3.00929">
        <ele>110.217185</ele>
        <time>2022-12-12T15:30:59.817Z</time>
      </trkpt>
      <trkpt lat="48.1402" lon="-3.0094">
        <ele>110.132385</ele>
        <time>2022-12-12T15:31:02.843Z</time>
      </trkpt>
      <trkpt lat="48.1401" lon="-3.00949">
        <ele>110.050061</ele>
        <time>2022-12-12T15:31:05.829Z</time>
      </trkpt>
      <trkpt lat="48.14" lon="-3.00961">
        <ele>110.074503</ele>
        <time>2022-12-12T15:31:08.848Z</time>
      </trkpt>
      <trkpt lat="48.13989" lon="-3.00971">
        <ele>110.110761</ele>
        <time>2022-12-12T15:31:11.844Z</time>
      </trkpt>
      <trkpt lat="48.1398" lon="-3.0098">
        <ele>110.144148</ele>
        <time>2022-12-12T15:31:14.843Z</time>
      </trkpt>
      <trkpt lat="48.1397" lon="-3.00989">
        <ele>110.17762</ele>
        <time>2022-12-12T15:31:17.840Z</time>
      </trkpt>
      <trkpt lat="48.13959" lon="-3.00998">
        <ele>110.211939</ele>
        <time>2022-12-12T15:31:20.840Z</time>
      </trkpt>
      <trkpt lat="48.13948" lon="-3.01008">
        <ele>110.249292</ele>
        <time>2022-12-12T15:31:23.841Z</time>
      </trkpt>
      <trkpt lat="48.13938" lon="-3.01018">
        <ele>110.286202</ele>
        <time>2022-12-12T15:31:26.839Z</time>
      </trkpt>
      <trkpt lat="48.13927" lon="-3.01028">
        <ele>110.322028</ele>
        <time>2022-12-12T15:31:29.845Z</time>
      </trkpt>
      <trkpt lat="48.13919" lon="-3.01036">
        <ele>110.351792</ele>
        <time>2022-12-12T15:31:32.841Z</time>
      </trkpt>
      <trkpt lat="48.1391" lon="-3.01045">
        <ele>110.380913</ele>
        <time>2022-12-12T15:31:35.831Z</time>
      </trkpt>
      <trkpt lat="48.13901" lon="-3.01054">
        <ele>110.413306</ele>
        <time>2022-12-12T15:31:38.823Z</time>
      </trkpt>
      <trkpt lat="48.13891" lon="-3.01065">
        <ele>110.449557</ele>
        <time>2022-12-12T15:31:41.846Z</time>
      </trkpt>
      <trkpt lat="48.13881" lon="-3.01074">
        <ele>110.483641</ele>
        <time>2022-12-12T15:31:44.842Z</time>
      </trkpt>
      <trkpt lat="48.13871" lon="-3.01083">
        <ele>110.517067</ele>
        <time>2022-12-12T15:31:47.838Z</time>
      </trkpt>
      <trkpt lat="48.13862" lon="-3.0109">
        <ele>110.547346</ele>
        <time>2022-12-12T15:31:50.823Z</time>
      </trkpt>
      <trkpt lat="48.13853" lon="-3.01092">
        <ele>110.551893</ele>
        <time>2022-12-12T15:31:53.827Z</time>
      </trkpt>
      <trkpt lat="48.13842" lon="-3.01092">
        <ele>110.521999</ele>
        <time>2022-12-12T15:31:57.831Z</time>
      </trkpt>
      <trkpt lat="48.13831" lon="-3.01091">
        <ele>110.491768</ele>
        <time>2022-12-12T15:32:00.826Z</time>
      </trkpt>
      <trkpt lat="48.13821" lon="-3.01091">
        <ele>110.462448</ele>
        <time>2022-12-12T15:32:03.841Z</time>
      </trkpt>
      <trkpt lat="48.13811" lon="-3.0109">
        <ele>110.43324</ele>
        <time>2022-12-12T15:32:06.842Z</time>
      </trkpt>
      <trkpt lat="48.138" lon="-3.01087">
        <ele>110.403798</ele>
        <time>2022-12-12T15:32:09.832Z</time>
      </trkpt>
      <trkpt lat="48.13791" lon="-3.01084">
        <ele>110.376996</ele>
        <time>2022-12-12T15:32:12.816Z</time>
      </trkpt>
      <trkpt lat="48.13779" lon="-3.0108">
        <ele>110.34264</ele>
        <time>2022-12-12T15:32:16.821Z</time>
      </trkpt>
      <trkpt lat="48.13768" lon="-3.01076">
        <ele>110.310869</ele>
        <time>2022-12-12T15:32:19.821Z</time>
      </trkpt>
      <trkpt lat="48.13758" lon="-3.0107">
        <ele>110.278796</ele>
        <time>2022-12-12T15:32:22.844Z</time>
      </trkpt>
      <trkpt lat="48.13746" lon="-3.01065">
        <ele>110.245722</ele>
        <time>2022-12-12T15:32:25.844Z</time>
      </trkpt>
      <trkpt lat="48.13735" lon="-3.01057">
        <ele>110.211962</ele>
        <time>2022-12-12T15:32:28.845Z</time>
      </trkpt>
      <trkpt lat="48.13725" lon="-3.0105">
        <ele>110.179175</ele>
        <time>2022-12-12T15:32:31.844Z</time>
      </trkpt>
      <trkpt lat="48.13715" lon="-3.01044">
        <ele>110.148525</ele>
        <time>2022-12-12T15:32:34.842Z</time>
      </trkpt>
      <trkpt lat="48.13705" lon="-3.01036">
        <ele>110.117844</ele>
        <time>2022-12-12T15:32:37.845Z</time>
      </trkpt>
      <trkpt lat="48.13695" lon="-3.01028">
        <ele>110.084946</ele>
        <time>2022-12-12T15:32:40.845Z</time>
      </trkpt>
      <trkpt lat="48.13685" lon="-3.01017">
        <ele>110.059131</ele>
        <time>2022-12-12T15:32:43.830Z</time>
      </trkpt>
      <trkpt lat="48.13677" lon="-3.01007">
        <ele>110.087149</ele>
        <time>2022-12-12T15:32:46.844Z</time>
      </trkpt>
      <trkpt lat="48.13668" lon="-3.00997">
        <ele>110.113477</ele>
        <time>2022-12-12T15:32:49.825Z</time>
      </trkpt>
      <trkpt lat="48.1366" lon="-3.00985">
        <ele>110.141512</ele>
        <time>2022-12-12T15:32:52.830Z</time>
      </trkpt>
      <trkpt lat="48.13654" lon="-3.00972">
        <ele>110.1675</ele>
        <time>2022-12-12T15:32:55.847Z</time>
      </trkpt>
      <trkpt lat="48.13648" lon="-3.00957">
        <ele>110.196099</ele>
        <time>2022-12-12T15:32:58.841Z</time>
      </trkpt>
      <trkpt lat="48.13645" lon="-3.00942">
        <ele>110.222897</ele>
        <time>2022-12-12T15:33:01.827Z</time>
      </trkpt>
      <trkpt lat="48.13642" lon="-3.00923">
        <ele>110.254266</ele>
        <time>2022-12-12T15:33:04.839Z</time>
      </trkpt>
      <trkpt lat="48.1364" lon="-3.00906">
        <ele>110.28301</ele>
        <time>2022-12-12T15:33:07.840Z</time>
      </trkpt>
      <trkpt lat="48.1364" lon="-3.0089">
        <ele>110.309934</ele>
        <time>2022-12-12T15:33:10.835Z</time>
      </trkpt>
      <trkpt lat="48.13641" lon="-3.00876">
        <ele>110.332851</ele>
        <time>2022-12-12T15:33:13.824Z</time>
      </trkpt>
      <trkpt lat="48.13642" lon="-3.0086">
        <ele>110.358942</ele>
        <time>2022-12-12T15:33:16.844Z</time>
      </trkpt>
      <trkpt lat="48.13643" lon="-3.00844">
        <ele>110.386955</ele>
        <time>2022-12-12T15:33:19.847Z</time>
      </trkpt>
      <trkpt lat="48.13645" lon="-3.00829">
        <ele>110.411744</ele>
        <time>2022-12-12T15:33:22.846Z</time>
      </trkpt>
      <trkpt lat="48.13648" lon="-3.00812">
        <ele>110.440268</ele>
        <time>2022-12-12T15:33:25.843Z</time>
      </trkpt>
      <trkpt lat="48.1365" lon="-3.00797">
        <ele>110.465595</ele>
        <time>2022-12-12T15:33:28.844Z</time>
      </trkpt>
      <trkpt lat="48.13652" lon="-3.00781">
        <ele>110.492952</ele>
        <time>2022-12-12T15:33:31.822Z</time>
      </trkpt>
      <trkpt lat="48.13653" lon="-3.00763">
        <ele>110.650949</ele>
        <time>2022-12-12T15:33:34.838Z</time>
      </trkpt>
      <trkpt lat="48.13655" lon="-3.00744">
        <ele>110.856201</ele>
        <time>2022-12-12T15:33:37.844Z</time>
      </trkpt>
      <trkpt lat="48.13655" lon="-3.00726">
        <ele>111.064591</ele>
        <time>2022-12-12T15:33:40.822Z</time>
      </trkpt>
      <trkpt lat="48.13653" lon="-3.00709">
        <ele>111.254434</ele>
        <time>2022-12-12T15:33:43.845Z</time>
      </trkpt>
      <trkpt lat="48.13652" lon="-3.00689">
        <ele>111.469096</ele>
        <time>2022-12-12T15:33:46.839Z</time>
      </trkpt>
      <trkpt lat="48.13649" lon="-3.00671">
        <ele>111.673803</ele>
        <time>2022-12-12T15:33:49.845Z</time>
      </trkpt>
      <trkpt lat="48.13647" lon="-3.00655">
        <ele>111.85847</ele>
        <time>2022-12-12T15:33:52.844Z</time>
      </trkpt>
      <trkpt lat="48.13646" lon="-3.0064">
        <ele>112.026492</ele>
        <time>2022-12-12T15:33:55.846Z</time>
      </trkpt>
      <trkpt lat="48.13645" lon="-3.00624">
        <ele>112.197375</ele>
        <time>2022-12-12T15:33:58.844Z</time>
      </trkpt>
      <trkpt lat="48.13643" lon="-3.00607">
        <ele>112.393916</ele>
        <time>2022-12-12T15:34:01.844Z</time>
      </trkpt>
      <trkpt lat="48.1364" lon="-3.0059">
        <ele>112.590307</ele>
        <time>2022-12-12T15:34:04.844Z</time>
      </trkpt>
      <trkpt lat="48.13636" lon="-3.00572">
        <ele>112.801174</ele>
        <time>2022-12-12T15:34:07.847Z</time>
      </trkpt>
      <trkpt lat="48.13633" lon="-3.00554">
        <ele>113.002118</ele>
        <time>2022-12-12T15:34:10.827Z</time>
      </trkpt>
      <trkpt lat="48.13628" lon="-3.00536">
        <ele>113.2166</ele>
        <time>2022-12-12T15:34:13.845Z</time>
      </trkpt>
      <trkpt lat="48.13623" lon="-3.00518">
        <ele>113.438366</ele>
        <time>2022-12-12T15:34:16.848Z</time>
      </trkpt>
      <trkpt lat="48.13618" lon="-3.00503">
        <ele>113.463673</ele>
        <time>2022-12-12T15:34:19.825Z</time>
      </trkpt>
      <trkpt lat="48.13613" lon="-3.0049">
        <ele>113.434132</ele>
        <time>2022-12-12T15:34:22.830Z</time>
      </trkpt>
      <trkpt lat="48.13607" lon="-3.00475">
        <ele>113.40136</ele>
        <time>2022-12-12T15:34:25.826Z</time>
      </trkpt>
      <trkpt lat="48.13601" lon="-3.00462">
        <ele>113.370675</ele>
        <time>2022-12-12T15:34:28.844Z</time>
      </trkpt>
      <trkpt lat="48.13593" lon="-3.00449">
        <ele>113.3369</ele>
        <time>2022-12-12T15:34:31.847Z</time>
      </trkpt>
      <trkpt lat="48.13585" lon="-3.00435">
        <ele>113.30097</ele>
        <time>2022-12-12T15:34:34.820Z</time>
      </trkpt>
      <trkpt lat="48.13575" lon="-3.00422">
        <ele>113.262707</ele>
        <time>2022-12-12T15:34:37.840Z</time>
      </trkpt>
      <trkpt lat="48.13566" lon="-3.00411">
        <ele>113.228851</ele>
        <time>2022-12-12T15:34:40.846Z</time>
      </trkpt>
      <trkpt lat="48.13556" lon="-3.00399">
        <ele>113.192672</ele>
        <time>2022-12-12T15:34:43.840Z</time>
      </trkpt>
      <trkpt lat="48.13548" lon="-3.00388">
        <ele>113.159699</ele>
        <time>2022-12-12T15:34:46.844Z</time>
      </trkpt>
      <trkpt lat="48.1354" lon="-3.00378">
        <ele>113.130142</ele>
        <time>2022-12-12T15:34:49.848Z</time>
      </trkpt>
      <trkpt lat="48.13531" lon="-3.00365">
        <ele>113.094717</ele>
        <time>2022-12-12T15:34:53.843Z</time>
      </trkpt>
      <trkpt lat="48.13522" lon="-3.00353">
        <ele>113.059599</ele>
        <time>2022-12-12T15:34:56.840Z</time>
      </trkpt>
      <trkpt lat="48.13512" lon="-3.00341">
        <ele>113.022728</ele>
        <time>2022-12-12T15:34:59.844Z</time>
      </trkpt>
      <trkpt lat="48.13502" lon="-3.00329">
        <ele>112.98612</ele>
        <time>2022-12-12T15:35:02.844Z</time>
      </trkpt>
      <trkpt lat="48.13493" lon="-3.00317">
        <ele>112.935923</ele>
        <time>2022-12-12T15:35:05.841Z</time>
      </trkpt>
      <trkpt lat="48.13484" lon="-3.00306">
        <ele>112.872342</ele>
        <time>2022-12-12T15:35:08.830Z</time>
      </trkpt>
      <trkpt lat="48.13475" lon="-3.00296">
        <ele>112.808362</ele>
        <time>2022-12-12T15:35:11.837Z</time>
      </trkpt>
      <trkpt lat="48.13465" lon="-3.00284">
        <ele>112.740444</ele>
        <time>2022-12-12T15:35:14.841Z</time>
      </trkpt>
      <trkpt lat="48.13455" lon="-3.00272">
        <ele>112.673967</ele>
        <time>2022-12-12T15:35:17.821Z</time>
      </trkpt>
      <trkpt lat="48.13446" lon="-3.0026">
        <ele>112.607605</ele>
        <time>2022-12-12T15:35:20.837Z</time>
      </trkpt>
      <trkpt lat="48.13437" lon="-3.0025">
        <ele>112.544055</ele>
        <time>2022-12-12T15:35:23.843Z</time>
      </trkpt>
      <trkpt lat="48.1343" lon="-3.0024">
        <ele>112.488033</ele>
        <time>2022-12-12T15:35:26.842Z</time>
      </trkpt>
      <trkpt lat="48.13421" lon="-3.0023">
        <ele>112.427342</ele>
        <time>2022-12-12T15:35:29.838Z</time>
      </trkpt>
      <trkpt lat="48.13412" lon="-3.0022">
        <ele>112.369729</ele>
        <time>2022-12-12T15:35:32.846Z</time>
      </trkpt>
      <trkpt lat="48.13403" lon="-3.00212">
        <ele>112.309903</ele>
        <time>2022-12-12T15:35:35.842Z</time>
      </trkpt>
      <trkpt lat="48.13394" lon="-3.00206">
        <ele>112.258351</ele>
        <time>2022-12-12T15:35:38.826Z</time>
      </trkpt>
      <trkpt lat="48.13382" lon="-3.00204">
        <ele>112.189808</ele>
        <time>2022-12-12T15:35:41.827Z</time>
      </trkpt>
      <trkpt lat="48.1337" lon="-3.00205">
        <ele>112.125144</ele>
        <time>2022-12-12T15:35:44.830Z</time>
      </trkpt>
      <trkpt lat="48.13358" lon="-3.00207">
        <ele>112.060935</ele>
        <time>2022-12-12T15:35:47.824Z</time>
      </trkpt>
      <trkpt lat="48.13346" lon="-3.0021">
        <ele>111.993194</ele>
        <time>2022-12-12T15:35:50.838Z</time>
      </trkpt>
      <trkpt lat="48.13335" lon="-3.00213">
        <ele>111.860105</ele>
        <time>2022-12-12T15:35:53.847Z</time>
      </trkpt>
      <trkpt lat="48.1332" lon="-3.0022">
        <ele>111.648157</ele>
        <time>2022-12-12T15:35:56.825Z</time>
      </trkpt>
      <trkpt lat="48.1331" lon="-3.00222">
        <ele>111.521176</ele>
        <time>2022-12-12T15:35:59.836Z</time>
      </trkpt>
      <trkpt lat="48.133" lon="-3.00227">
        <ele>111.381317</ele>
        <time>2022-12-12T15:36:02.831Z</time>
      </trkpt>
      <trkpt lat="48.13289" lon="-3.00231">
        <ele>111.22171</ele>
        <time>2022-12-12T15:36:05.836Z</time>
      </trkpt>
      <trkpt lat="48.13278" lon="-3.00238">
        <ele>111.069628</ele>
        <time>2022-12-12T15:36:08.832Z</time>
      </trkpt>
      <trkpt lat="48.13269" lon="-3.00244">
        <ele>110.934103</ele>
        <time>2022-12-12T15:36:11.834Z</time>
      </trkpt>
      <trkpt lat="48.13259" lon="-3.0025">
        <ele>110.80008</ele>
        <time>2022-12-12T15:36:14.843Z</time>
      </trkpt>
      <trkpt lat="48.1325" lon="-3.00256">
        <ele>110.665219</ele>
        <time>2022-12-12T15:36:17.843Z</time>
      </trkpt>
      <trkpt lat="48.1324" lon="-3.00263">
        <ele>110.516595</ele>
        <time>2022-12-12T15:36:20.837Z</time>
      </trkpt>
      <trkpt lat="48.13231" lon="-3.0027">
        <ele>110.380153</ele>
        <time>2022-12-12T15:36:23.843Z</time>
      </trkpt>
      <trkpt lat="48.13221" lon="-3.00276">
        <ele>110.238516</ele>
        <time>2022-12-12T15:36:26.844Z</time>
      </trkpt>
      <trkpt lat="48.13211" lon="-3.00285">
        <ele>110.094406</ele>
        <time>2022-12-12T15:36:29.832Z</time>
      </trkpt>
      <trkpt lat="48.13203" lon="-3.00292">
        <ele>109.960708</ele>
        <time>2022-12-12T15:36:32.840Z</time>
      </trkpt>
      <trkpt lat="48.13193" lon="-3.00302">
        <ele>109.802616</ele>
        <time>2022-12-12T15:36:35.835Z</time>
      </trkpt>
      <trkpt lat="48.13184" lon="-3.00311">
        <ele>109.659257</ele>
        <time>2022-12-12T15:36:38.843Z</time>
      </trkpt>
      <trkpt lat="48.13177" lon="-3.00322">
        <ele>109.648564</ele>
        <time>2022-12-12T15:36:42.821Z</time>
      </trkpt>
      <trkpt lat="48.13169" lon="-3.0033">
        <ele>109.730161</ele>
        <time>2022-12-12T15:36:45.843Z</time>
      </trkpt>
      <trkpt lat="48.13162" lon="-3.0034">
        <ele>109.818112</ele>
        <time>2022-12-12T15:36:48.846Z</time>
      </trkpt>
      <trkpt lat="48.13155" lon="-3.00349">
        <ele>109.902264</ele>
        <time>2022-12-12T15:36:51.839Z</time>
      </trkpt>
      <trkpt lat="48.13147" lon="-3.00361">
        <ele>109.995325</ele>
        <time>2022-12-12T15:36:54.846Z</time>
      </trkpt>
      <trkpt lat="48.13139" lon="-3.00373">
        <ele>110.101484</ele>
        <time>2022-12-12T15:36:57.842Z</time>
      </trkpt>
      <trkpt lat="48.13132" lon="-3.00386">
        <ele>110.198962</ele>
        <time>2022-12-12T15:37:00.839Z</time>
      </trkpt>
      <trkpt lat="48.13124" lon="-3.00396">
        <ele>110.288803</ele>
        <time>2022-12-12T15:37:03.825Z</time>
      </trkpt>
      <trkpt lat="48.13116" lon="-3.00408">
        <ele>110.391836</ele>
        <time>2022-12-12T15:37:06.841Z</time>
      </trkpt>
      <trkpt lat="48.13108" lon="-3.0042">
        <ele>110.489684</ele>
        <time>2022-12-12T15:37:09.847Z</time>
      </trkpt>
      <trkpt lat="48.13102" lon="-3.00431">
        <ele>110.573823</ele>
        <time>2022-12-12T15:37:12.843Z</time>
      </trkpt>
      <trkpt lat="48.13096" lon="-3.00442">
        <ele>110.653919</ele>
        <time>2022-12-12T15:37:15.848Z</time>
      </trkpt>
      <trkpt lat="48.13093" lon="-3.00456">
        <ele>110.74138</ele>
        <time>2022-12-12T15:37:18.828Z</time>
      </trkpt>
      <trkpt lat="48.1309" lon="-3.00471">
        <ele>110.835742</ele>
        <time>2022-12-12T15:37:21.824Z</time>
      </trkpt>
      <trkpt lat="48.13089" lon="-3.00488">
        <ele>110.937922</ele>
        <time>2022-12-12T15:37:24.820Z</time>
      </trkpt>
      <trkpt lat="48.13085" lon="-3.00507">
        <ele>111.05028</ele>
        <time>2022-12-12T15:37:27.840Z</time>
      </trkpt>
      <trkpt lat="48.13083" lon="-3.00523">
        <ele>111.147326</ele>
        <time>2022-12-12T15:37:30.842Z</time>
      </trkpt>
      <trkpt lat="48.13082" lon="-3.00539">
        <ele>111.158354</ele>
        <time>2022-12-12T15:37:33.847Z</time>
      </trkpt>
      <trkpt lat="48.13079" lon="-3.00556">
        <ele>111.104741</ele>
        <time>2022-12-12T15:37:36.842Z</time>
      </trkpt>
      <trkpt lat="48.13076" lon="-3.00573">
        <ele>111.049813</ele>
        <time>2022-12-12T15:37:39.849Z</time>
      </trkpt>
      <trkpt lat="48.13075" lon="-3.00588">
        <ele>111.000961</ele>
        <time>2022-12-12T15:37:42.840Z</time>
      </trkpt>
      <trkpt lat="48.13073" lon="-3.00605">
        <ele>110.949458</ele>
        <time>2022-12-12T15:37:45.840Z</time>
      </trkpt>
      <trkpt lat="48.13071" lon="-3.0062">
        <ele>110.900007</ele>
        <time>2022-12-12T15:37:48.846Z</time>
      </trkpt>
      <trkpt lat="48.1307" lon="-3.00635">
        <ele>110.852828</ele>
        <time>2022-12-12T15:37:51.840Z</time>
      </trkpt>
      <trkpt lat="48.13069" lon="-3.00651">
        <ele>110.803279</ele>
        <time>2022-12-12T15:37:54.839Z</time>
      </trkpt>
      <trkpt lat="48.13068" lon="-3.00669">
        <ele>110.747155</ele>
        <time>2022-12-12T15:37:57.844Z</time>
      </trkpt>
      <trkpt lat="48.13067" lon="-3.00685">
        <ele>110.697868</ele>
        <time>2022-12-12T15:38:00.843Z</time>
      </trkpt>
      <trkpt lat="48.13067" lon="-3.00699">
        <ele>110.655361</ele>
        <time>2022-12-12T15:38:03.833Z</time>
      </trkpt>
      <trkpt lat="48.13064" lon="-3.00717">
        <ele>110.598514</ele>
        <time>2022-12-12T15:38:06.845Z</time>
      </trkpt>
      <trkpt lat="48.13061" lon="-3.00736">
        <ele>110.538035</ele>
        <time>2022-12-12T15:38:09.825Z</time>
      </trkpt>
      <trkpt lat="48.13061" lon="-3.00755">
        <ele>110.478091</ele>
        <time>2022-12-12T15:38:12.828Z</time>
      </trkpt>
      <trkpt lat="48.13059" lon="-3.00772">
        <ele>110.423769</ele>
        <time>2022-12-12T15:38:15.841Z</time>
      </trkpt>
      <trkpt lat="48.13056" lon="-3.00789">
        <ele>110.37165</ele>
        <time>2022-12-12T15:38:18.844Z</time>
      </trkpt>
      <trkpt lat="48.13056" lon="-3.00806">
        <ele>110.409941</ele>
        <time>2022-12-12T15:38:21.825Z</time>
      </trkpt>
      <trkpt lat="48.13054" lon="-3.00821">
        <ele>110.500064</ele>
        <time>2022-12-12T15:38:24.843Z</time>
      </trkpt>
      <trkpt lat="48.13053" lon="-3.00838">
        <ele>110.597119</ele>
        <time>2022-12-12T15:38:27.846Z</time>
      </trkpt>
      <trkpt lat="48.13051" lon="-3.00857">
        <ele>110.706688</ele>
        <time>2022-12-12T15:38:30.848Z</time>
      </trkpt>
      <trkpt lat="48.13049" lon="-3.00875">
        <ele>110.810958</ele>
        <time>2022-12-12T15:38:33.844Z</time>
      </trkpt>
      <trkpt lat="48.13048" lon="-3.00891">
        <ele>110.904685</ele>
        <time>2022-12-12T15:38:36.849Z</time>
      </trkpt>
      <trkpt lat="48.13045" lon="-3.00909">
        <ele>111.008209</ele>
        <time>2022-12-12T15:38:39.845Z</time>
      </trkpt>
      <trkpt lat="48.1304" lon="-3.00926">
        <ele>111.117561</ele>
        <time>2022-12-12T15:38:42.833Z</time>
      </trkpt>
      <trkpt lat="48.13036" lon="-3.00946">
        <ele>111.232577</ele>
        <time>2022-12-12T15:38:45.842Z</time>
      </trkpt>
      <trkpt lat="48.13031" lon="-3.00958">
        <ele>111.316043</ele>
        <time>2022-12-12T15:38:47.834Z</time>
      </trkpt>
      <trkpt lat="48.13027" lon="-3.00974">
        <ele>111.415986</ele>
        <time>2022-12-12T15:38:50.827Z</time>
      </trkpt>
      <trkpt lat="48.13021" lon="-3.0099">
        <ele>111.518442</ele>
        <time>2022-12-12T15:38:53.823Z</time>
      </trkpt>
      <trkpt lat="48.13014" lon="-3.01006">
        <ele>111.628149</ele>
        <time>2022-12-12T15:38:56.835Z</time>
      </trkpt>
      <trkpt lat="48.13009" lon="-3.01021">
        <ele>111.727177</ele>
        <time>2022-12-12T15:38:59.825Z</time>
      </trkpt>
      <trkpt lat="48.13002" lon="-3.01034">
        <ele>111.820514</ele>
        <time>2022-12-12T15:39:02.821Z</time>
      </trkpt>
      <trkpt lat="48.12996" lon="-3.01048">
        <ele>111.908643</ele>
        <time>2022-12-12T15:39:05.844Z</time>
      </trkpt>
      <trkpt lat="48.1299" lon="-3.01064">
        <ele>111.978422</ele>
        <time>2022-12-12T15:39:08.843Z</time>
      </trkpt>
      <trkpt lat="48.12986" lon="-3.01078">
        <ele>112.03596</ele>
        <time>2022-12-12T15:39:11.844Z</time>
      </trkpt>
      <trkpt lat="48.12979" lon="-3.01091">
        <ele>112.097941</ele>
        <time>2022-12-12T15:39:15.828Z</time>
      </trkpt>
      <trkpt lat="48.12973" lon="-3.01102">
        <ele>112.152612</ele>
        <time>2022-12-12T15:39:18.838Z</time>
      </trkpt>
      <trkpt lat="48.12966" lon="-3.01115">
        <ele>112.215002</ele>
        <time>2022-12-12T15:39:21.847Z</time>
      </trkpt>
      <trkpt lat="48.12958" lon="-3.01127">
        <ele>112.275971</ele>
        <time>2022-12-12T15:39:24.838Z</time>
      </trkpt>
      <trkpt lat="48.12951" lon="-3.01138">
        <ele>112.335078</ele>
        <time>2022-12-12T15:39:27.843Z</time>
      </trkpt>
      <trkpt lat="48.12943" lon="-3.0115">
        <ele>112.397869</ele>
        <time>2022-12-12T15:39:30.842Z</time>
      </trkpt>
      <trkpt lat="48.12935" lon="-3.01164">
        <ele>112.468607</ele>
        <time>2022-12-12T15:39:33.845Z</time>
      </trkpt>
      <trkpt lat="48.12926" lon="-3.01176">
        <ele>112.534837</ele>
        <time>2022-12-12T15:39:36.848Z</time>
      </trkpt>
      <trkpt lat="48.12919" lon="-3.01189">
        <ele>112.598405</ele>
        <time>2022-12-12T15:39:39.847Z</time>
      </trkpt>
      <trkpt lat="48.1291" lon="-3.01202">
        <ele>112.66677</ele>
        <time>2022-12-12T15:39:42.838Z</time>
      </trkpt>
      <trkpt lat="48.12902" lon="-3.01212">
        <ele>112.724076</ele>
        <time>2022-12-12T15:39:46.164Z</time>
      </trkpt>
      <trkpt lat="48.12895" lon="-3.01224">
        <ele>112.784883</ele>
        <time>2022-12-12T15:39:48.833Z</time>
      </trkpt>
      <trkpt lat="48.1289" lon="-3.01239">
        <ele>112.847359</ele>
        <time>2022-12-12T15:39:51.830Z</time>
      </trkpt>
      <trkpt lat="48.12884" lon="-3.01255">
        <ele>112.89969</ele>
        <time>2022-12-12T15:39:54.842Z</time>
      </trkpt>
      <trkpt lat="48.1288" lon="-3.01272">
        <ele>112.857191</ele>
        <time>2022-12-12T15:39:57.821Z</time>
      </trkpt>
      <trkpt lat="48.12873" lon="-3.0129">
        <ele>112.812711</ele>
        <time>2022-12-12T15:40:00.826Z</time>
      </trkpt>
      <trkpt lat="48.12868" lon="-3.01307">
        <ele>112.76895</ele>
        <time>2022-12-12T15:40:03.845Z</time>
      </trkpt>
      <trkpt lat="48.12863" lon="-3.01323">
        <ele>112.729445</ele>
        <time>2022-12-12T15:40:06.846Z</time>
      </trkpt>
      <trkpt lat="48.12859" lon="-3.01338">
        <ele>112.691794</ele>
        <time>2022-12-12T15:40:09.824Z</time>
      </trkpt>
      <trkpt lat="48.12855" lon="-3.01351">
        <ele>112.658465</ele>
        <time>2022-12-12T15:40:12.834Z</time>
      </trkpt>
      <trkpt lat="48.12851" lon="-3.01366">
        <ele>112.621552</ele>
        <time>2022-12-12T15:40:15.845Z</time>
      </trkpt>
      <trkpt lat="48.12846" lon="-3.01379">
        <ele>112.588716</ele>
        <time>2022-12-12T15:40:18.824Z</time>
      </trkpt>
      <trkpt lat="48.12838" lon="-3.01391">
        <ele>112.548268</ele>
        <time>2022-12-12T15:40:21.824Z</time>
      </trkpt>
      <trkpt lat="48.12829" lon="-3.01401">
        <ele>112.509234</ele>
        <time>2022-12-12T15:40:24.828Z</time>
      </trkpt>
      <trkpt lat="48.12821" lon="-3.01409">
        <ele>112.477934</ele>
        <time>2022-12-12T15:40:27.843Z</time>
      </trkpt>
      <trkpt lat="48.12811" lon="-3.01418">
        <ele>112.437831</ele>
        <time>2022-12-12T15:40:31.854Z</time>
      </trkpt>
      <trkpt lat="48.12802" lon="-3.01424">
        <ele>112.404532</ele>
        <time>2022-12-12T15:40:34.844Z</time>
      </trkpt>
      <trkpt lat="48.12792" lon="-3.01431">
        <ele>112.366778</ele>
        <time>2022-12-12T15:40:37.845Z</time>
      </trkpt>
      <trkpt lat="48.12781" lon="-3.01439">
        <ele>112.326145</ele>
        <time>2022-12-12T15:40:40.840Z</time>
      </trkpt>
      <trkpt lat="48.12771" lon="-3.01446">
        <ele>112.284286</ele>
        <time>2022-12-12T15:40:43.830Z</time>
      </trkpt>
      <trkpt lat="48.1276" lon="-3.01452">
        <ele>112.227064</ele>
        <time>2022-12-12T15:40:46.840Z</time>
      </trkpt>
      <trkpt lat="48.12749" lon="-3.01459">
        <ele>112.167505</ele>
        <time>2022-12-12T15:40:49.845Z</time>
      </trkpt>
      <trkpt lat="48.12737" lon="-3.01465">
        <ele>112.104809</ele>
        <time>2022-12-12T15:40:52.823Z</time>
      </trkpt>
      <trkpt lat="48.12725" lon="-3.01471">
        <ele>112.042519</ele>
        <time>2022-12-12T15:40:55.845Z</time>
      </trkpt>
      <trkpt lat="48.12712" lon="-3.01476">
        <ele>111.977093</ele>
        <time>2022-12-12T15:40:58.845Z</time>
      </trkpt>
      <trkpt lat="48.12704" lon="-3.01479">
        <ele>111.932696</ele>
        <time>2022-12-12T15:41:00.846Z</time>
      </trkpt>
      <trkpt lat="48.12695" lon="-3.01483">
        <ele>111.887215</ele>
        <time>2022-12-12T15:41:02.845Z</time>
      </trkpt>
      <trkpt lat="48.12683" lon="-3.0149">
        <ele>111.82373</ele>
        <time>2022-12-12T15:41:05.847Z</time>
      </trkpt>
      <trkpt lat="48.12674" lon="-3.01493">
        <ele>111.777955</ele>
        <time>2022-12-12T15:41:07.842Z</time>
      </trkpt>
      <trkpt lat="48.12662" lon="-3.01498">
        <ele>111.718401</ele>
        <time>2022-12-12T15:41:10.827Z</time>
      </trkpt>
      <trkpt lat="48.12651" lon="-3.01503">
        <ele>111.66228</ele>
        <time>2022-12-12T15:41:13.840Z</time>
      </trkpt>
      <trkpt lat="48.12642" lon="-3.01507">
        <ele>111.614896</ele>
        <time>2022-12-12T15:41:16.847Z</time>
      </trkpt>
      <trkpt lat="48.12632" lon="-3.01511">
        <ele>111.562767</ele>
        <time>2022-12-12T15:41:19.843Z</time>
      </trkpt>
      <trkpt lat="48.12621" lon="-3.01516">
        <ele>111.506078</ele>
        <time>2022-12-12T15:41:22.845Z</time>
      </trkpt>
      <trkpt lat="48.12609" lon="-3.0152">
        <ele>111.44723</ele>
        <time>2022-12-12T15:41:25.839Z</time>
      </trkpt>
      <trkpt lat="48.12597" lon="-3.01523">
        <ele>111.327875</ele>
        <time>2022-12-12T15:41:28.847Z</time>
      </trkpt>
      <trkpt lat="48.12588" lon="-3.01526">
        <ele>111.083442</ele>
        <time>2022-12-12T15:41:30.840Z</time>
      </trkpt>
      <trkpt lat="48.12576" lon="-3.01526">
        <ele>110.784643</ele>
        <time>2022-12-12T15:41:33.833Z</time>
      </trkpt>
      <trkpt lat="48.12563" lon="-3.01526">
        <ele>110.45518</ele>
        <time>2022-12-12T15:41:36.841Z</time>
      </trkpt>
      <trkpt lat="48.12553" lon="-3.01526">
        <ele>110.207405</ele>
        <time>2022-12-12T15:41:38.841Z</time>
      </trkpt>
      <trkpt lat="48.12543" lon="-3.01525">
        <ele>109.94126</ele>
        <time>2022-12-12T15:41:40.831Z</time>
      </trkpt>
      <trkpt lat="48.12533" lon="-3.01525">
        <ele>109.693532</ele>
        <time>2022-12-12T15:41:42.831Z</time>
      </trkpt>
      <trkpt lat="48.12524" lon="-3.01524">
        <ele>109.45553</ele>
        <time>2022-12-12T15:41:44.845Z</time>
      </trkpt>
      <trkpt lat="48.12511" lon="-3.01522">
        <ele>109.130047</ele>
        <time>2022-12-12T15:41:47.824Z</time>
      </trkpt>
      <trkpt lat="48.125" lon="-3.01522">
        <ele>108.828695</ele>
        <time>2022-12-12T15:41:50.828Z</time>
      </trkpt>
      <trkpt lat="48.1249" lon="-3.01521">
        <ele>108.577717</ele>
        <time>2022-12-12T15:41:53.846Z</time>
      </trkpt>
      <trkpt lat="48.12478" lon="-3.01518">
        <ele>108.280182</ele>
        <time>2022-12-12T15:41:56.823Z</time>
      </trkpt>
      <trkpt lat="48.12467" lon="-3.01514">
        <ele>107.988672</ele>
        <time>2022-12-12T15:41:59.841Z</time>
      </trkpt>
      <trkpt lat="48.12455" lon="-3.01511">
        <ele>107.677974</ele>
        <time>2022-12-12T15:42:02.844Z</time>
      </trkpt>
      <trkpt lat="48.12444" lon="-3.01508">
        <ele>107.380786</ele>
        <time>2022-12-12T15:42:05.836Z</time>
      </trkpt>
      <trkpt lat="48.12433" lon="-3.01504">
        <ele>107.091099</ele>
        <time>2022-12-12T15:42:08.844Z</time>
      </trkpt>
      <trkpt lat="48.12423" lon="-3.015">
        <ele>106.826768</ele>
        <time>2022-12-12T15:42:11.843Z</time>
      </trkpt>
      <trkpt lat="48.12411" lon="-3.01496">
        <ele>106.936495</ele>
        <time>2022-12-12T15:42:14.837Z</time>
      </trkpt>
      <trkpt lat="48.124" lon="-3.01489">
        <ele>107.081091</ele>
        <time>2022-12-12T15:42:17.844Z</time>
      </trkpt>
      <trkpt lat="48.12388" lon="-3.01483">
        <ele>107.229016</ele>
        <time>2022-12-12T15:42:20.838Z</time>
      </trkpt>
      <trkpt lat="48.12377" lon="-3.01476">
        <ele>107.370007</ele>
        <time>2022-12-12T15:42:23.843Z</time>
      </trkpt>
      <trkpt lat="48.12366" lon="-3.0147">
        <ele>107.512468</ele>
        <time>2022-12-12T15:42:26.840Z</time>
      </trkpt>
      <trkpt lat="48.12355" lon="-3.01464">
        <ele>107.644296</ele>
        <time>2022-12-12T15:42:29.844Z</time>
      </trkpt>
      <trkpt lat="48.12345" lon="-3.01456">
        <ele>107.784</ele>
        <time>2022-12-12T15:42:32.844Z</time>
      </trkpt>
      <trkpt lat="48.12334" lon="-3.01448">
        <ele>107.922933</ele>
        <time>2022-12-12T15:42:35.841Z</time>
      </trkpt>
      <trkpt lat="48.12324" lon="-3.01443">
        <ele>108.052557</ele>
        <time>2022-12-12T15:42:38.844Z</time>
      </trkpt>
      <trkpt lat="48.12314" lon="-3.01436">
        <ele>108.183739</ele>
        <time>2022-12-12T15:42:41.822Z</time>
      </trkpt>
      <trkpt lat="48.12305" lon="-3.01429">
        <ele>108.302875</ele>
        <time>2022-12-12T15:42:44.836Z</time>
      </trkpt>
      <trkpt lat="48.12295" lon="-3.0142">
        <ele>108.442589</ele>
        <time>2022-12-12T15:42:47.823Z</time>
      </trkpt>
      <trkpt lat="48.12284" lon="-3.01409">
        <ele>108.596355</ele>
        <time>2022-12-12T15:42:50.841Z</time>
      </trkpt>
      <trkpt lat="48.12275" lon="-3.01397">
        <ele>108.735682</ele>
        <time>2022-12-12T15:42:53.826Z</time>
      </trkpt>
      <trkpt lat="48.12265" lon="-3.01384">
        <ele>108.891223</ele>
        <time>2022-12-12T15:42:56.843Z</time>
      </trkpt>
      <trkpt lat="48.12255" lon="-3.01373">
        <ele>109.12233</ele>
        <time>2022-12-12T15:42:59.836Z</time>
      </trkpt>
      <trkpt lat="48.12246" lon="-3.0136">
        <ele>109.381314</ele>
        <time>2022-12-12T15:43:02.844Z</time>
      </trkpt>
      <trkpt lat="48.12237" lon="-3.01347">
        <ele>109.644253</ele>
        <time>2022-12-12T15:43:05.851Z</time>
      </trkpt>
      <trkpt lat="48.12229" lon="-3.01334">
        <ele>109.89027</ele>
        <time>2022-12-12T15:43:08.838Z</time>
      </trkpt>
      <trkpt lat="48.1222" lon="-3.01322">
        <ele>110.148959</ele>
        <time>2022-12-12T15:43:11.843Z</time>
      </trkpt>
      <trkpt lat="48.12213" lon="-3.01309">
        <ele>110.377276</ele>
        <time>2022-12-12T15:43:14.844Z</time>
      </trkpt>
      <trkpt lat="48.12206" lon="-3.01297">
        <ele>110.594801</ele>
        <time>2022-12-12T15:43:17.844Z</time>
      </trkpt>
      <trkpt lat="48.12201" lon="-3.01286">
        <ele>110.785375</ele>
        <time>2022-12-12T15:43:19.856Z</time>
      </trkpt>
      <trkpt lat="48.12194" lon="-3.0127">
        <ele>111.054299</ele>
        <time>2022-12-12T15:43:22.843Z</time>
      </trkpt>
      <trkpt lat="48.12188" lon="-3.01254">
        <ele>111.30659</ele>
        <time>2022-12-12T15:43:25.838Z</time>
      </trkpt>
      <trkpt lat="48.12182" lon="-3.0124">
        <ele>111.542643</ele>
        <time>2022-12-12T15:43:28.849Z</time>
      </trkpt>
      <trkpt lat="48.12176" lon="-3.01224">
        <ele>111.791483</ele>
        <time>2022-12-12T15:43:31.844Z</time>
      </trkpt>
      <trkpt lat="48.12171" lon="-3.01208">
        <ele>112.051104</ele>
        <time>2022-12-12T15:43:34.845Z</time>
      </trkpt>
      <trkpt lat="48.12166" lon="-3.0119">
        <ele>112.312539</ele>
        <time>2022-12-12T15:43:37.840Z</time>
      </trkpt>
      <trkpt lat="48.12162" lon="-3.01171">
        <ele>112.591502</ele>
        <time>2022-12-12T15:43:40.822Z</time>
      </trkpt>
      <trkpt lat="48.12159" lon="-3.01155">
        <ele>112.715374</ele>
        <time>2022-12-12T15:43:43.824Z</time>
      </trkpt>
      <trkpt lat="48.12156" lon="-3.01141">
        <ele>112.751713</ele>
        <time>2022-12-12T15:43:46.833Z</time>
      </trkpt>
      <trkpt lat="48.12155" lon="-3.01123">
        <ele>112.794912</ele>
        <time>2022-12-12T15:43:50.826Z</time>
      </trkpt>
      <trkpt lat="48.12156" lon="-3.01105">
        <ele>112.839427</ele>
        <time>2022-12-12T15:43:54.847Z</time>
      </trkpt>
      <trkpt lat="48.12157" lon="-3.01091">
        <ele>112.873085</ele>
        <time>2022-12-12T15:43:57.841Z</time>
      </trkpt>
      <trkpt lat="48.12157" lon="-3.01075">
        <ele>112.914066</ele>
        <time>2022-12-12T15:44:00.842Z</time>
      </trkpt>
      <trkpt lat="48.12161" lon="-3.01058">
        <ele>112.956347</ele>
        <time>2022-12-12T15:44:03.822Z</time>
      </trkpt>
      <trkpt lat="48.12164" lon="-3.0104">
        <ele>113.002585</ele>
        <time>2022-12-12T15:44:06.842Z</time>
      </trkpt>
      <trkpt lat="48.12166" lon="-3.01022">
        <ele>113.046257</ele>
        <time>2022-12-12T15:44:09.823Z</time>
      </trkpt>
      <trkpt lat="48.12167" lon="-3.01008">
        <ele>113.080358</ele>
        <time>2022-12-12T15:44:11.829Z</time>
      </trkpt>
      <trkpt lat="48.12168" lon="-3.0099">
        <ele>113.124691</ele>
        <time>2022-12-12T15:44:14.842Z</time>
      </trkpt>
      <trkpt lat="48.12169" lon="-3.00973">
        <ele>113.166429</ele>
        <time>2022-12-12T15:44:17.840Z</time>
      </trkpt>
      <trkpt lat="48.12168" lon="-3.00955">
        <ele>113.211319</ele>
        <time>2022-12-12T15:44:20.839Z</time>
      </trkpt>
      <trkpt lat="48.12168" lon="-3.00941">
        <ele>113.245719</ele>
        <time>2022-12-12T15:44:22.843Z</time>
      </trkpt>
      <trkpt lat="48.12169" lon="-3.00926">
        <ele>113.281406</ele>
        <time>2022-12-12T15:44:24.845Z</time>
      </trkpt>
      <trkpt lat="48.1217" lon="-3.00912">
        <ele>113.316073</ele>
        <time>2022-12-12T15:44:26.844Z</time>
      </trkpt>
      <trkpt lat="48.12171" lon="-3.00895">
        <ele>113.28324</ele>
        <time>2022-12-12T15:44:28.845Z</time>
      </trkpt>
      <trkpt lat="48.12172" lon="-3.0088">
        <ele>112.990015</ele>
        <time>2022-12-12T15:44:30.836Z</time>
      </trkpt>
      <trkpt lat="48.12173" lon="-3.00859">
        <ele>112.581266</ele>
        <time>2022-12-12T15:44:33.842Z</time>
      </trkpt>
      <trkpt lat="48.12174" lon="-3.00843">
        <ele>112.258541</ele>
        <time>2022-12-12T15:44:36.844Z</time>
      </trkpt>
      <trkpt lat="48.12173" lon="-3.00827">
        <ele>111.933144</ele>
        <time>2022-12-12T15:44:39.846Z</time>
      </trkpt>
      <trkpt lat="48.12171" lon="-3.00811">
        <ele>111.606937</ele>
        <time>2022-12-12T15:44:42.844Z</time>
      </trkpt>
      <trkpt lat="48.12168" lon="-3.00793">
        <ele>111.243327</ele>
        <time>2022-12-12T15:44:45.826Z</time>
      </trkpt>
      <trkpt lat="48.12165" lon="-3.00774">
        <ele>110.852889</ele>
        <time>2022-12-12T15:44:48.844Z</time>
      </trkpt>
      <trkpt lat="48.12163" lon="-3.00758">
        <ele>110.537844</ele>
        <time>2022-12-12T15:44:51.841Z</time>
      </trkpt>
      <trkpt lat="48.1216" lon="-3.00743">
        <ele>110.219486</ele>
        <time>2022-12-12T15:44:54.843Z</time>
      </trkpt>
      <trkpt lat="48.12157" lon="-3.00726">
        <ele>109.888151</ele>
        <time>2022-12-12T15:44:57.844Z</time>
      </trkpt>
      <trkpt lat="48.12154" lon="-3.0071">
        <ele>109.548405</ele>
        <time>2022-12-12T15:45:00.825Z</time>
      </trkpt>
      <trkpt lat="48.12149" lon="-3.00693">
        <ele>109.181771</ele>
        <time>2022-12-12T15:45:03.844Z</time>
      </trkpt>
      <trkpt lat="48.12143" lon="-3.00676">
        <ele>108.806264</ele>
        <time>2022-12-12T15:45:06.843Z</time>
      </trkpt>
      <trkpt lat="48.12138" lon="-3.00659">
        <ele>108.437811</ele>
        <time>2022-12-12T15:45:09.853Z</time>
      </trkpt>
      <trkpt lat="48.12132" lon="-3.00642">
        <ele>108.048427</ele>
        <time>2022-12-12T15:45:12.826Z</time>
      </trkpt>
      <trkpt lat="48.12127" lon="-3.00624">
        <ele>107.978831</ele>
        <time>2022-12-12T15:45:15.842Z</time>
      </trkpt>
      <trkpt lat="48.12124" lon="-3.00605">
        <ele>107.937256</ele>
        <time>2022-12-12T15:45:18.841Z</time>
      </trkpt>
      <trkpt lat="48.12123" lon="-3.00591">
        <ele>107.908687</ele>
        <time>2022-12-12T15:45:20.825Z</time>
      </trkpt>
      <trkpt lat="48.12125" lon="-3.00574">
        <ele>107.872234</ele>
        <time>2022-12-12T15:45:23.826Z</time>
      </trkpt>
      <trkpt lat="48.12127" lon="-3.00555">
        <ele>107.833066</ele>
        <time>2022-12-12T15:45:26.843Z</time>
      </trkpt>
      <trkpt lat="48.12129" lon="-3.00537">
        <ele>107.796176</ele>
        <time>2022-12-12T15:45:29.831Z</time>
      </trkpt>
      <trkpt lat="48.12131" lon="-3.0052">
        <ele>107.759671</ele>
        <time>2022-12-12T15:45:32.840Z</time>
      </trkpt>
      <trkpt lat="48.12132" lon="-3.00503">
        <ele>107.724667</ele>
        <time>2022-12-12T15:45:35.845Z</time>
      </trkpt>
      <trkpt lat="48.12135" lon="-3.00486">
        <ele>107.688741</ele>
        <time>2022-12-12T15:45:38.844Z</time>
      </trkpt>
      <trkpt lat="48.12137" lon="-3.00468">
        <ele>107.651335</ele>
        <time>2022-12-12T15:45:41.844Z</time>
      </trkpt>
      <trkpt lat="48.12139" lon="-3.00452">
        <ele>107.616513</ele>
        <time>2022-12-12T15:45:44.841Z</time>
      </trkpt>
      <trkpt lat="48.12142" lon="-3.00438">
        <ele>107.585986</ele>
        <time>2022-12-12T15:45:47.852Z</time>
      </trkpt>
      <trkpt lat="48.12145" lon="-3.00423">
        <ele>107.555195</ele>
        <time>2022-12-12T15:45:50.835Z</time>
      </trkpt>
      <trkpt lat="48.12149" lon="-3.00409">
        <ele>107.523486</ele>
        <time>2022-12-12T15:45:53.843Z</time>
      </trkpt>
      <trkpt lat="48.12152" lon="-3.00393">
        <ele>107.489437</ele>
        <time>2022-12-12T15:45:56.839Z</time>
      </trkpt>
      <trkpt lat="48.12155" lon="-3.00376">
        <ele>107.494648</ele>
        <time>2022-12-12T15:45:59.844Z</time>
      </trkpt>
      <trkpt lat="48.12159" lon="-3.0036">
        <ele>107.730062</ele>
        <time>2022-12-12T15:46:02.843Z</time>
      </trkpt>
      <trkpt lat="48.12163" lon="-3.00346">
        <ele>107.943628</ele>
        <time>2022-12-12T15:46:05.842Z</time>
      </trkpt>
      <trkpt lat="48.12169" lon="-3.00331">
        <ele>108.174416</ele>
        <time>2022-12-12T15:46:08.846Z</time>
      </trkpt>
      <trkpt lat="48.12176" lon="-3.00322">
        <ele>108.363153</ele>
        <time>2022-12-12T15:46:10.825Z</time>
      </trkpt>
      <trkpt lat="48.12184" lon="-3.00307">
        <ele>108.629204</ele>
        <time>2022-12-12T15:46:13.835Z</time>
      </trkpt>
      <trkpt lat="48.12191" lon="-3.00294">
        <ele>108.868116</ele>
        <time>2022-12-12T15:46:16.851Z</time>
      </trkpt>
      <trkpt lat="48.12199" lon="-3.00282">
        <ele>109.092294</ele>
        <time>2022-12-12T15:46:19.840Z</time>
      </trkpt>
      <trkpt lat="48.12208" lon="-3.00268">
        <ele>109.35703</ele>
        <time>2022-12-12T15:46:22.844Z</time>
      </trkpt>
      <trkpt lat="48.12216" lon="-3.00255">
        <ele>109.606871</ele>
        <time>2022-12-12T15:46:25.845Z</time>
      </trkpt>
      <trkpt lat="48.12225" lon="-3.00241">
        <ele>109.870181</ele>
        <time>2022-12-12T15:46:28.847Z</time>
      </trkpt>
      <trkpt lat="48.12235" lon="-3.00225">
        <ele>110.177615</ele>
        <time>2022-12-12T15:46:31.844Z</time>
      </trkpt>
      <trkpt lat="48.12242" lon="-3.00212">
        <ele>110.401902</ele>
        <time>2022-12-12T15:46:34.842Z</time>
      </trkpt>
      <trkpt lat="48.12249" lon="-3.00198">
        <ele>110.645359</ele>
        <time>2022-12-12T15:46:37.824Z</time>
      </trkpt>
      <trkpt lat="48.12256" lon="-3.00185">
        <ele>110.877978</ele>
        <time>2022-12-12T15:46:40.849Z</time>
      </trkpt>
      <trkpt lat="48.12265" lon="-3.00172">
        <ele>111.13543</ele>
        <time>2022-12-12T15:46:43.843Z</time>
      </trkpt>
      <trkpt lat="48.12274" lon="-3.00158">
        <ele>110.713922</ele>
        <time>2022-12-12T15:46:46.842Z</time>
      </trkpt>
      <trkpt lat="48.12283" lon="-3.00144">
        <ele>110.190912</ele>
        <time>2022-12-12T15:46:49.844Z</time>
      </trkpt>
      <trkpt lat="48.12291" lon="-3.00134">
        <ele>109.806603</ele>
        <time>2022-12-12T15:46:51.844Z</time>
      </trkpt>
      <trkpt lat="48.12299" lon="-3.00121">
        <ele>109.351473</ele>
        <time>2022-12-12T15:46:54.833Z</time>
      </trkpt>
      <trkpt lat="48.12308" lon="-3.00108">
        <ele>108.889165</ele>
        <time>2022-12-12T15:46:57.827Z</time>
      </trkpt>
      <trkpt lat="48.12315" lon="-3.00097">
        <ele>108.468655</ele>
        <time>2022-12-12T15:47:00.841Z</time>
      </trkpt>
      <trkpt lat="48.12323" lon="-3.00084">
        <ele>108.034553</ele>
        <time>2022-12-12T15:47:03.833Z</time>
      </trkpt>
      <trkpt lat="48.1233" lon="-3.00071">
        <ele>107.592879</ele>
        <time>2022-12-12T15:47:06.838Z</time>
      </trkpt>
      <trkpt lat="48.12336" lon="-3.00056">
        <ele>107.15032</ele>
        <time>2022-12-12T15:47:09.838Z</time>
      </trkpt>
      <trkpt lat="48.12343" lon="-3.0004">
        <ele>106.656356</ele>
        <time>2022-12-12T15:47:12.826Z</time>
      </trkpt>
      <trkpt lat="48.12348" lon="-3.00025">
        <ele>106.206521</ele>
        <time>2022-12-12T15:47:15.836Z</time>
      </trkpt>
      <trkpt lat="48.12353" lon="-3.00009">
        <ele>105.777633</ele>
        <time>2022-12-12T15:47:18.844Z</time>
      </trkpt>
      <trkpt lat="48.12358" lon="-2.99995">
        <ele>105.353083</ele>
        <time>2022-12-12T15:47:21.844Z</time>
      </trkpt>
      <trkpt lat="48.12364" lon="-2.99979">
        <ele>104.890401</ele>
        <time>2022-12-12T15:47:24.843Z</time>
      </trkpt>
      <trkpt lat="48.12368" lon="-2.99964">
        <ele>104.487691</ele>
        <time>2022-12-12T15:47:27.826Z</time>
      </trkpt>
      <trkpt lat="48.12371" lon="-2.99949">
        <ele>104.236068</ele>
        <time>2022-12-12T15:47:30.845Z</time>
      </trkpt>
      <trkpt lat="48.12374" lon="-2.99934">
        <ele>104.250631</ele>
        <time>2022-12-12T15:47:33.844Z</time>
      </trkpt>
      <trkpt lat="48.12376" lon="-2.99917">
        <ele>104.266729</ele>
        <time>2022-12-12T15:47:36.844Z</time>
      </trkpt>
      <trkpt lat="48.12378" lon="-2.99899">
        <ele>104.283554</ele>
        <time>2022-12-12T15:47:39.844Z</time>
      </trkpt>
      <trkpt lat="48.12379" lon="-2.99886">
        <ele>104.296072</ele>
        <time>2022-12-12T15:47:41.853Z</time>
      </trkpt>
      <trkpt lat="48.12382" lon="-2.99871">
        <ele>104.310812</ele>
        <time>2022-12-12T15:47:43.845Z</time>
      </trkpt>
      <trkpt lat="48.12384" lon="-2.99857">
        <ele>104.323693</ele>
        <time>2022-12-12T15:47:45.840Z</time>
      </trkpt>
      <trkpt lat="48.12384" lon="-2.99836">
        <ele>104.343108</ele>
        <time>2022-12-12T15:47:48.844Z</time>
      </trkpt>
      <trkpt lat="48.12384" lon="-2.99822">
        <ele>104.356327</ele>
        <time>2022-12-12T15:47:50.831Z</time>
      </trkpt>
      <trkpt lat="48.12382" lon="-2.99803">
        <ele>104.373765</ele>
        <time>2022-12-12T15:47:53.843Z</time>
      </trkpt>
      <trkpt lat="48.1238" lon="-2.99785">
        <ele>104.390862</ele>
        <time>2022-12-12T15:47:56.835Z</time>
      </trkpt>
      <trkpt lat="48.12377" lon="-2.99765">
        <ele>104.40933</ele>
        <time>2022-12-12T15:47:59.841Z</time>
      </trkpt>
      <trkpt lat="48.12374" lon="-2.99748">
        <ele>104.426032</ele>
        <time>2022-12-12T15:48:02.844Z</time>
      </trkpt>
      <trkpt lat="48.12371" lon="-2.9973">
        <ele>104.443216</ele>
        <time>2022-12-12T15:48:05.844Z</time>
      </trkpt>
      <trkpt lat="48.12369" lon="-2.99712">
        <ele>104.459858</ele>
        <time>2022-12-12T15:48:08.845Z</time>
      </trkpt>
      <trkpt lat="48.12366" lon="-2.99693">
        <ele>104.478177</ele>
        <time>2022-12-12T15:48:11.845Z</time>
      </trkpt>
      <trkpt lat="48.12363" lon="-2.99674">
        <ele>104.827368</ele>
        <time>2022-12-12T15:48:14.842Z</time>
      </trkpt>
      <trkpt lat="48.1236" lon="-2.99656">
        <ele>105.204266</ele>
        <time>2022-12-12T15:48:17.854Z</time>
      </trkpt>
      <trkpt lat="48.12356" lon="-2.99638">
        <ele>105.58967</ele>
        <time>2022-12-12T15:48:20.844Z</time>
      </trkpt>
      <trkpt lat="48.12351" lon="-2.99621">
        <ele>105.957091</ele>
        <time>2022-12-12T15:48:23.830Z</time>
      </trkpt>
      <trkpt lat="48.12346" lon="-2.99605">
        <ele>106.33176</ele>
        <time>2022-12-12T15:48:26.846Z</time>
      </trkpt>
      <trkpt lat="48.1234" lon="-2.9959">
        <ele>106.688961</ele>
        <time>2022-12-12T15:48:29.825Z</time>
      </trkpt>
      <trkpt lat="48.12334" lon="-2.99576">
        <ele>107.025212</ele>
        <time>2022-12-12T15:48:32.845Z</time>
      </trkpt>
      <trkpt lat="48.12327" lon="-2.99563">
        <ele>107.3554</ele>
        <time>2022-12-12T15:48:35.842Z</time>
      </trkpt>
      <trkpt lat="48.12321" lon="-2.99551">
        <ele>107.659678</ele>
        <time>2022-12-12T15:48:38.845Z</time>
      </trkpt>
      <trkpt lat="48.12315" lon="-2.99539">
        <ele>107.966642</ele>
        <time>2022-12-12T15:48:41.847Z</time>
      </trkpt>
      <trkpt lat="48.12307" lon="-2.99527">
        <ele>108.31487</ele>
        <time>2022-12-12T15:48:44.848Z</time>
      </trkpt>
      <trkpt lat="48.12299" lon="-2.99516">
        <ele>108.647817</ele>
        <time>2022-12-12T15:48:47.846Z</time>
      </trkpt>
      <trkpt lat="48.12289" lon="-2.99508">
        <ele>108.98845</ele>
        <time>2022-12-12T15:48:50.825Z</time>
      </trkpt>
      <trkpt lat="48.12279" lon="-2.995">
        <ele>109.337364</ele>
        <time>2022-12-12T15:48:53.845Z</time>
      </trkpt>
      <trkpt lat="48.12268" lon="-2.99493">
        <ele>109.687251</ele>
        <time>2022-12-12T15:48:56.839Z</time>
      </trkpt>
      <trkpt lat="48.12258" lon="-2.9949">
        <ele>109.894635</ele>
        <time>2022-12-12T15:48:59.824Z</time>
      </trkpt>
      <trkpt lat="48.12248" lon="-2.99489">
        <ele>109.617618</ele>
        <time>2022-12-12T15:49:02.844Z</time>
      </trkpt>
      <trkpt lat="48.12239" lon="-2.99487">
        <ele>109.351511</ele>
        <time>2022-12-12T15:49:05.848Z</time>
      </trkpt>
      <trkpt lat="48.12228" lon="-2.99484">
        <ele>109.031841</ele>
        <time>2022-12-12T15:49:09.848Z</time>
      </trkpt>
      <trkpt lat="48.12216" lon="-2.99483">
        <ele>108.704003</ele>
        <time>2022-12-12T15:49:13.857Z</time>
      </trkpt>
      <trkpt lat="48.12206" lon="-2.9948">
        <ele>108.395848</ele>
        <time>2022-12-12T15:49:17.824Z</time>
      </trkpt>
      <trkpt lat="48.12196" lon="-2.99478">
        <ele>108.129518</ele>
        <time>2022-12-12T15:49:21.845Z</time>
      </trkpt>
      <trkpt lat="48.12194" lon="-2.99477">
        <ele>108.055961</ele>
        <time>2022-12-12T15:50:02.774Z</time>
      </trkpt>
      <trkpt lat="48.12167" lon="-2.9947">
        <ele>107.290117</ele>
        <time>2022-12-12T16:02:42.833Z</time>
      </trkpt>
      <trkpt lat="48.12158" lon="-2.9947">
        <ele>107.02815</ele>
        <time>2022-12-12T16:02:55.838Z</time>
      </trkpt>
      <trkpt lat="48.12147" lon="-2.99469">
        <ele>106.723959</ele>
        <time>2022-12-12T16:02:59.844Z</time>
      </trkpt>
      <trkpt lat="48.12138" lon="-2.99467">
        <ele>106.457089</ele>
        <time>2022-12-12T16:03:02.838Z</time>
      </trkpt>
      <trkpt lat="48.12129" lon="-2.99465">
        <ele>106.196844</ele>
        <time>2022-12-12T16:03:05.837Z</time>
      </trkpt>
      <trkpt lat="48.1212" lon="-2.99463">
        <ele>105.92695</ele>
        <time>2022-12-12T16:03:08.848Z</time>
      </trkpt>
      <trkpt lat="48.1211" lon="-2.9946">
        <ele>105.66008</ele>
        <time>2022-12-12T16:03:11.852Z</time>
      </trkpt>
      <trkpt lat="48.12101" lon="-2.99459">
        <ele>105.397564</ele>
        <time>2022-12-12T16:03:14.863Z</time>
      </trkpt>
      <trkpt lat="48.12092" lon="-2.99457">
        <ele>105.133816</ele>
        <time>2022-12-12T16:03:17.839Z</time>
      </trkpt>
      <trkpt lat="48.12082" lon="-2.99454">
        <ele>104.839469</ele>
        <time>2022-12-12T16:03:20.861Z</time>
      </trkpt>
      <trkpt lat="48.12071" lon="-2.99451">
        <ele>104.757619</ele>
        <time>2022-12-12T16:03:23.850Z</time>
      </trkpt>
      <trkpt lat="48.12062" lon="-2.99446">
        <ele>104.675622</ele>
        <time>2022-12-12T16:03:26.857Z</time>
      </trkpt>
      <trkpt lat="48.12051" lon="-2.99442">
        <ele>104.588685</ele>
        <time>2022-12-12T16:03:29.840Z</time>
      </trkpt>
      <trkpt lat="48.12041" lon="-2.99436">
        <ele>104.508776</ele>
        <time>2022-12-12T16:03:32.850Z</time>
      </trkpt>
      <trkpt lat="48.12031" lon="-2.99428">
        <ele>104.417489</ele>
        <time>2022-12-12T16:03:35.834Z</time>
      </trkpt>
      <trkpt lat="48.12021" lon="-2.99419">
        <ele>104.322235</ele>
        <time>2022-12-12T16:03:38.846Z</time>
      </trkpt>
      <trkpt lat="48.12011" lon="-2.99409">
        <ele>104.225707</ele>
        <time>2022-12-12T16:03:41.855Z</time>
      </trkpt>
      <trkpt lat="48.12001" lon="-2.99401">
        <ele>104.139861</ele>
        <time>2022-12-12T16:03:44.838Z</time>
      </trkpt>
      <trkpt lat="48.11993" lon="-2.99394">
        <ele>104.067531</ele>
        <time>2022-12-12T16:03:47.849Z</time>
      </trkpt>
      <trkpt lat="48.11984" lon="-2.99385">
        <ele>103.982063</ele>
        <time>2022-12-12T16:03:50.852Z</time>
      </trkpt>
      <trkpt lat="48.11974" lon="-2.99377">
        <ele>103.8936</ele>
        <time>2022-12-12T16:03:53.846Z</time>
      </trkpt>
      <trkpt lat="48.11963" lon="-2.99369">
        <ele>103.79908</ele>
        <time>2022-12-12T16:03:56.849Z</time>
      </trkpt>
      <trkpt lat="48.11955" lon="-2.99364">
        <ele>103.728376</ele>
        <time>2022-12-12T16:03:59.837Z</time>
      </trkpt>
      <trkpt lat="48.11944" lon="-2.99359">
        <ele>103.637177</ele>
        <time>2022-12-12T16:04:02.845Z</time>
      </trkpt>
      <trkpt lat="48.11934" lon="-2.99351">
        <ele>103.548523</ele>
        <time>2022-12-12T16:04:05.850Z</time>
      </trkpt>
      <trkpt lat="48.11923" lon="-2.99342">
        <ele>103.4497</ele>
        <time>2022-12-12T16:04:08.848Z</time>
      </trkpt>
      <trkpt lat="48.11914" lon="-2.99335">
        <ele>103.361936</ele>
        <time>2022-12-12T16:04:10.850Z</time>
      </trkpt>
      <trkpt lat="48.11902" lon="-2.99329">
        <ele>103.251329</ele>
        <time>2022-12-12T16:04:13.847Z</time>
      </trkpt>
      <trkpt lat="48.1189" lon="-2.99322">
        <ele>103.140301</ele>
        <time>2022-12-12T16:04:16.856Z</time>
      </trkpt>
      <trkpt lat="48.11881" lon="-2.9932">
        <ele>103.058301</ele>
        <time>2022-12-12T16:04:18.848Z</time>
      </trkpt>
      <trkpt lat="48.11869" lon="-2.99316">
        <ele>102.944433</ele>
        <time>2022-12-12T16:04:21.846Z</time>
      </trkpt>
      <trkpt lat="48.11857" lon="-2.99313">
        <ele>102.833385</ele>
        <time>2022-12-12T16:04:24.860Z</time>
      </trkpt>
      <trkpt lat="48.11845" lon="-2.9931">
        <ele>102.72577</ele>
        <time>2022-12-12T16:04:27.850Z</time>
      </trkpt>
      <trkpt lat="48.11833" lon="-2.99306">
        <ele>102.621017</ele>
        <time>2022-12-12T16:04:30.848Z</time>
      </trkpt>
      <trkpt lat="48.11822" lon="-2.99302">
        <ele>102.512038</ele>
        <time>2022-12-12T16:04:33.846Z</time>
      </trkpt>
      <trkpt lat="48.1181" lon="-2.99298">
        <ele>102.405703</ele>
        <time>2022-12-12T16:04:36.840Z</time>
      </trkpt>
      <trkpt lat="48.11798" lon="-2.99294">
        <ele>102.293467</ele>
        <time>2022-12-12T16:04:39.847Z</time>
      </trkpt>
      <trkpt lat="48.11785" lon="-2.9929">
        <ele>102.180865</ele>
        <time>2022-12-12T16:04:42.849Z</time>
      </trkpt>
      <trkpt lat="48.11776" lon="-2.99288">
        <ele>102.098201</ele>
        <time>2022-12-12T16:04:44.847Z</time>
      </trkpt>
      <trkpt lat="48.11764" lon="-2.99283">
        <ele>101.983916</ele>
        <time>2022-12-12T16:04:47.850Z</time>
      </trkpt>
      <trkpt lat="48.11751" lon="-2.9928">
        <ele>101.867388</ele>
        <time>2022-12-12T16:04:50.851Z</time>
      </trkpt>
      <trkpt lat="48.11742" lon="-2.99278">
        <ele>101.8322</ele>
        <time>2022-12-12T16:04:52.859Z</time>
      </trkpt>
      <trkpt lat="48.1173" lon="-2.99276">
        <ele>101.88823</ele>
        <time>2022-12-12T16:04:55.849Z</time>
      </trkpt>
      <trkpt lat="48.11718" lon="-2.99274">
        <ele>101.939869</ele>
        <time>2022-12-12T16:04:58.833Z</time>
      </trkpt>
      <trkpt lat="48.11706" lon="-2.99275">
        <ele>101.991239</ele>
        <time>2022-12-12T16:05:01.834Z</time>
      </trkpt>
      <trkpt lat="48.11696" lon="-2.99279">
        <ele>102.038654</ele>
        <time>2022-12-12T16:05:04.833Z</time>
      </trkpt>
      <trkpt lat="48.11687" lon="-2.99285">
        <ele>102.083524</ele>
        <time>2022-12-12T16:05:07.823Z</time>
      </trkpt>
      <trkpt lat="48.11677" lon="-2.99292">
        <ele>102.132688</ele>
        <time>2022-12-12T16:05:10.833Z</time>
      </trkpt>
      <trkpt lat="48.11667" lon="-2.993">
        <ele>102.182125</ele>
        <time>2022-12-12T16:05:13.833Z</time>
      </trkpt>
      <trkpt lat="48.11657" lon="-2.99307">
        <ele>102.231816</ele>
        <time>2022-12-12T16:05:16.844Z</time>
      </trkpt>
      <trkpt lat="48.11646" lon="-2.99315">
        <ele>102.284802</ele>
        <time>2022-12-12T16:05:19.838Z</time>
      </trkpt>
      <trkpt lat="48.11635" lon="-2.99324">
        <ele>102.338609</ele>
        <time>2022-12-12T16:05:22.828Z</time>
      </trkpt>
      <trkpt lat="48.11625" lon="-2.99334">
        <ele>102.3936</ele>
        <time>2022-12-12T16:05:25.840Z</time>
      </trkpt>
      <trkpt lat="48.11614" lon="-2.99344">
        <ele>102.449812</ele>
        <time>2022-12-12T16:05:28.848Z</time>
      </trkpt>
      <trkpt lat="48.11604" lon="-2.99354">
        <ele>102.501491</ele>
        <time>2022-12-12T16:05:31.832Z</time>
      </trkpt>
      <trkpt lat="48.11594" lon="-2.99365">
        <ele>102.557452</ele>
        <time>2022-12-12T16:05:34.831Z</time>
      </trkpt>
      <trkpt lat="48.11583" lon="-2.99376">
        <ele>102.614257</ele>
        <time>2022-12-12T16:05:37.850Z</time>
      </trkpt>
      <trkpt lat="48.11574" lon="-2.99385">
        <ele>102.730714</ele>
        <time>2022-12-12T16:05:40.838Z</time>
      </trkpt>
      <trkpt lat="48.11564" lon="-2.99395">
        <ele>102.849532</ele>
        <time>2022-12-12T16:05:43.835Z</time>
      </trkpt>
      <trkpt lat="48.11554" lon="-2.99405">
        <ele>102.975993</ele>
        <time>2022-12-12T16:05:46.850Z</time>
      </trkpt>
      <trkpt lat="48.11544" lon="-2.99415">
        <ele>103.102936</ele>
        <time>2022-12-12T16:05:49.834Z</time>
      </trkpt>
      <trkpt lat="48.11533" lon="-2.99425">
        <ele>103.231388</ele>
        <time>2022-12-12T16:05:52.829Z</time>
      </trkpt>
      <trkpt lat="48.11523" lon="-2.99434">
        <ele>103.356407</ele>
        <time>2022-12-12T16:05:55.849Z</time>
      </trkpt>
      <trkpt lat="48.11512" lon="-2.99445">
        <ele>103.485331</ele>
        <time>2022-12-12T16:05:58.844Z</time>
      </trkpt>
      <trkpt lat="48.11502" lon="-2.99454">
        <ele>103.609384</ele>
        <time>2022-12-12T16:06:01.850Z</time>
      </trkpt>
      <trkpt lat="48.1149" lon="-2.99465">
        <ele>103.747678</ele>
        <time>2022-12-12T16:06:04.826Z</time>
      </trkpt>
      <trkpt lat="48.11482" lon="-2.99472">
        <ele>103.843977</ele>
        <time>2022-12-12T16:06:06.845Z</time>
      </trkpt>
      <trkpt lat="48.11471" lon="-2.99482">
        <ele>103.979978</ele>
        <time>2022-12-12T16:06:09.868Z</time>
      </trkpt>
      <trkpt lat="48.1146" lon="-2.99492">
        <ele>104.110712</ele>
        <time>2022-12-12T16:06:12.838Z</time>
      </trkpt>
      <trkpt lat="48.11449" lon="-2.99502">
        <ele>104.242498</ele>
        <time>2022-12-12T16:06:15.834Z</time>
      </trkpt>
      <trkpt lat="48.11438" lon="-2.99512">
        <ele>104.369815</ele>
        <time>2022-12-12T16:06:18.849Z</time>
      </trkpt>
      <trkpt lat="48.11429" lon="-2.99522">
        <ele>104.393476</ele>
        <time>2022-12-12T16:06:21.834Z</time>
      </trkpt>
      <trkpt lat="48.11421" lon="-2.99531">
        <ele>104.202485</ele>
        <time>2022-12-12T16:06:24.841Z</time>
      </trkpt>
      <trkpt lat="48.11414" lon="-2.9954">
        <ele>104.033253</ele>
        <time>2022-12-12T16:06:27.850Z</time>
      </trkpt>
      <trkpt lat="48.11407" lon="-2.99552">
        <ele>103.83585</ele>
        <time>2022-12-12T16:06:31.858Z</time>
      </trkpt>
      <trkpt lat="48.114" lon="-2.99562">
        <ele>103.667851</ele>
        <time>2022-12-12T16:06:34.849Z</time>
      </trkpt>
      <trkpt lat="48.11395" lon="-2.99576">
        <ele>103.470602</ele>
        <time>2022-12-12T16:06:37.849Z</time>
      </trkpt>
      <trkpt lat="48.11389" lon="-2.99592">
        <ele>103.241146</ele>
        <time>2022-12-12T16:06:40.847Z</time>
      </trkpt>
      <trkpt lat="48.11385" lon="-2.99609">
        <ele>103.015772</ele>
        <time>2022-12-12T16:06:43.849Z</time>
      </trkpt>
      <trkpt lat="48.1138" lon="-2.99626">
        <ele>102.794245</ele>
        <time>2022-12-12T16:06:46.859Z</time>
      </trkpt>
      <trkpt lat="48.11377" lon="-2.99643">
        <ele>102.572325</ele>
        <time>2022-12-12T16:06:49.845Z</time>
      </trkpt>
      <trkpt lat="48.11374" lon="-2.99661">
        <ele>102.338436</ele>
        <time>2022-12-12T16:06:52.831Z</time>
      </trkpt>
      <trkpt lat="48.1137" lon="-2.9968">
        <ele>102.095702</ele>
        <time>2022-12-12T16:06:55.848Z</time>
      </trkpt>
      <trkpt lat="48.11368" lon="-2.997">
        <ele>101.853012</ele>
        <time>2022-12-12T16:06:58.849Z</time>
      </trkpt>
      <trkpt lat="48.11365" lon="-2.99719">
        <ele>101.606595</ele>
        <time>2022-12-12T16:07:01.843Z</time>
      </trkpt>
      <trkpt lat="48.11363" lon="-2.99733">
        <ele>101.431745</ele>
        <time>2022-12-12T16:07:03.846Z</time>
      </trkpt>
      <trkpt lat="48.1136" lon="-2.99752">
        <ele>101.191844</ele>
        <time>2022-12-12T16:07:06.847Z</time>
      </trkpt>
      <trkpt lat="48.11358" lon="-2.9977">
        <ele>101.146465</ele>
        <time>2022-12-12T16:07:09.848Z</time>
      </trkpt>
      <trkpt lat="48.11355" lon="-2.9979">
        <ele>101.174264</ele>
        <time>2022-12-12T16:07:12.861Z</time>
      </trkpt>
      <trkpt lat="48.11353" lon="-2.99803">
        <ele>101.193861</ele>
        <time>2022-12-12T16:07:14.858Z</time>
      </trkpt>
      <trkpt lat="48.11351" lon="-2.99816">
        <ele>101.21291</ele>
        <time>2022-12-12T16:07:16.850Z</time>
      </trkpt>
      <trkpt lat="48.11349" lon="-2.99835">
        <ele>101.240055</ele>
        <time>2022-12-12T16:07:19.857Z</time>
      </trkpt>
      <trkpt lat="48.11346" lon="-2.99853">
        <ele>101.265743</ele>
        <time>2022-12-12T16:07:22.841Z</time>
      </trkpt>
      <trkpt lat="48.11343" lon="-2.9987">
        <ele>101.290679</ele>
        <time>2022-12-12T16:07:25.854Z</time>
      </trkpt>
      <trkpt lat="48.11341" lon="-2.99887">
        <ele>101.315089</ele>
        <time>2022-12-12T16:07:28.853Z</time>
      </trkpt>
      <trkpt lat="48.11339" lon="-2.99906">
        <ele>101.341848</ele>
        <time>2022-12-12T16:07:31.840Z</time>
      </trkpt>
      <trkpt lat="48.11336" lon="-2.99925">
        <ele>101.368369</ele>
        <time>2022-12-12T16:07:34.849Z</time>
      </trkpt>
      <trkpt lat="48.11334" lon="-2.99943">
        <ele>101.394675</ele>
        <time>2022-12-12T16:07:37.843Z</time>
      </trkpt>
      <trkpt lat="48.11332" lon="-2.99961">
        <ele>101.420824</ele>
        <time>2022-12-12T16:07:40.848Z</time>
      </trkpt>
      <trkpt lat="48.11329" lon="-2.9998">
        <ele>101.447999</ele>
        <time>2022-12-12T16:07:43.846Z</time>
      </trkpt>
      <trkpt lat="48.11327" lon="-2.99999">
        <ele>101.474962</ele>
        <time>2022-12-12T16:07:46.851Z</time>
      </trkpt>
      <trkpt lat="48.11326" lon="-3.00013">
        <ele>101.494711</ele>
        <time>2022-12-12T16:07:48.837Z</time>
      </trkpt>
      <trkpt lat="48.11324" lon="-3.00026">
        <ele>101.462813</ele>
        <time>2022-12-12T16:07:50.845Z</time>
      </trkpt>
      <trkpt lat="48.11321" lon="-3.00045">
        <ele>101.30225</ele>
        <time>2022-12-12T16:07:53.839Z</time>
      </trkpt>
      <trkpt lat="48.11319" lon="-3.00062">
        <ele>101.149932</ele>
        <time>2022-12-12T16:07:56.860Z</time>
      </trkpt>
      <trkpt lat="48.11316" lon="-3.00079">
        <ele>100.999289</ele>
        <time>2022-12-12T16:07:59.843Z</time>
      </trkpt>
      <trkpt lat="48.11313" lon="-3.00098">
        <ele>100.828159</ele>
        <time>2022-12-12T16:08:02.852Z</time>
      </trkpt>
      <trkpt lat="48.11311" lon="-3.00112">
        <ele>100.702339</ele>
        <time>2022-12-12T16:08:04.853Z</time>
      </trkpt>
      <trkpt lat="48.11308" lon="-3.00126">
        <ele>100.583274</ele>
        <time>2022-12-12T16:08:06.842Z</time>
      </trkpt>
      <trkpt lat="48.11306" lon="-3.00144">
        <ele>100.422296</ele>
        <time>2022-12-12T16:08:09.847Z</time>
      </trkpt>
      <trkpt lat="48.11304" lon="-3.00163">
        <ele>100.263787</ele>
        <time>2022-12-12T16:08:12.857Z</time>
      </trkpt>
      <trkpt lat="48.11299" lon="-3.00181">
        <ele>100.090277</ele>
        <time>2022-12-12T16:08:15.848Z</time>
      </trkpt>
      <trkpt lat="48.11294" lon="-3.00194">
        <ele>99.96224</ele>
        <time>2022-12-12T16:08:17.855Z</time>
      </trkpt>
      <trkpt lat="48.11287" lon="-3.00205">
        <ele>99.83347</ele>
        <time>2022-12-12T16:08:19.846Z</time>
      </trkpt>
      <trkpt lat="48.11281" lon="-3.00218">
        <ele>99.696449</ele>
        <time>2022-12-12T16:08:21.826Z</time>
      </trkpt>
      <trkpt lat="48.11274" lon="-3.00229">
        <ele>99.567773</ele>
        <time>2022-12-12T16:08:23.841Z</time>
      </trkpt>
      <trkpt lat="48.11264" lon="-3.00242">
        <ele>99.400474</ele>
        <time>2022-12-12T16:08:26.839Z</time>
      </trkpt>
      <trkpt lat="48.11256" lon="-3.00255">
        <ele>99.243277</ele>
        <time>2022-12-12T16:08:29.829Z</time>
      </trkpt>
      <trkpt lat="48.11248" lon="-3.00264">
        <ele>99.135716</ele>
        <time>2022-12-12T16:08:31.829Z</time>
      </trkpt>
      <trkpt lat="48.1124" lon="-3.00274">
        <ele>99.043741</ele>
        <time>2022-12-12T16:08:33.836Z</time>
      </trkpt>
      <trkpt lat="48.11233" lon="-3.00282">
        <ele>98.958778</ele>
        <time>2022-12-12T16:08:35.842Z</time>
      </trkpt>
      <trkpt lat="48.11223" lon="-3.00294">
        <ele>98.842123</ele>
        <time>2022-12-12T16:08:38.860Z</time>
      </trkpt>
      <trkpt lat="48.11214" lon="-3.00305">
        <ele>98.734353</ele>
        <time>2022-12-12T16:08:41.839Z</time>
      </trkpt>
      <trkpt lat="48.11207" lon="-3.00315">
        <ele>98.645619</ele>
        <time>2022-12-12T16:08:43.831Z</time>
      </trkpt>
      <trkpt lat="48.11199" lon="-3.00323">
        <ele>98.556123</ele>
        <time>2022-12-12T16:08:45.853Z</time>
      </trkpt>
      <trkpt lat="48.11192" lon="-3.00331">
        <ele>98.466307</ele>
        <time>2022-12-12T16:08:47.851Z</time>
      </trkpt>
      <trkpt lat="48.11181" lon="-3.0034">
        <ele>98.354353</ele>
        <time>2022-12-12T16:08:50.851Z</time>
      </trkpt>
      <trkpt lat="48.11172" lon="-3.00347">
        <ele>98.264033</ele>
        <time>2022-12-12T16:08:53.849Z</time>
      </trkpt>
      <trkpt lat="48.11162" lon="-3.00352">
        <ele>98.164407</ele>
        <time>2022-12-12T16:08:56.853Z</time>
      </trkpt>
      <trkpt lat="48.11153" lon="-3.00357">
        <ele>98.0686</ele>
        <time>2022-12-12T16:08:59.850Z</time>
      </trkpt>
      <trkpt lat="48.11143" lon="-3.00362">
        <ele>97.974841</ele>
        <time>2022-12-12T16:09:02.853Z</time>
      </trkpt>
      <trkpt lat="48.11132" lon="-3.00368">
        <ele>97.863001</ele>
        <time>2022-12-12T16:09:05.853Z</time>
      </trkpt>
      <trkpt lat="48.1112" lon="-3.00374">
        <ele>97.745401</ele>
        <time>2022-12-12T16:09:08.850Z</time>
      </trkpt>
      <trkpt lat="48.11108" lon="-3.00378">
        <ele>97.628981</ele>
        <time>2022-12-12T16:09:11.846Z</time>
      </trkpt>
      <trkpt lat="48.11095" lon="-3.00385">
        <ele>97.538757</ele>
        <time>2022-12-12T16:09:14.849Z</time>
      </trkpt>
      <trkpt lat="48.11086" lon="-3.00388">
        <ele>97.648755</ele>
        <time>2022-12-12T16:09:16.849Z</time>
      </trkpt>
      <trkpt lat="48.11073" lon="-3.00393">
        <ele>97.798497</ele>
        <time>2022-12-12T16:09:19.837Z</time>
      </trkpt>
      <trkpt lat="48.11062" lon="-3.00397">
        <ele>97.935719</ele>
        <time>2022-12-12T16:09:22.859Z</time>
      </trkpt>
      <trkpt lat="48.1105" lon="-3.00401">
        <ele>98.077582</ele>
        <time>2022-12-12T16:09:25.854Z</time>
      </trkpt>
      <trkpt lat="48.1104" lon="-3.00406">
        <ele>98.209218</ele>
        <time>2022-12-12T16:09:28.855Z</time>
      </trkpt>
      <trkpt lat="48.11028" lon="-3.00411">
        <ele>98.356787</ele>
        <time>2022-12-12T16:09:31.854Z</time>
      </trkpt>
      <trkpt lat="48.11019" lon="-3.00415">
        <ele>98.467175</ele>
        <time>2022-12-12T16:09:33.846Z</time>
      </trkpt>
      <trkpt lat="48.11009" lon="-3.0042">
        <ele>98.59214</ele>
        <time>2022-12-12T16:09:35.856Z</time>
      </trkpt>
      <trkpt lat="48.10999" lon="-3.00423">
        <ele>98.704393</ele>
        <time>2022-12-12T16:09:37.860Z</time>
      </trkpt>
      <trkpt lat="48.1099" lon="-3.00427">
        <ele>98.819333</ele>
        <time>2022-12-12T16:09:39.833Z</time>
      </trkpt>
      <trkpt lat="48.10979" lon="-3.00429">
        <ele>98.955832</ele>
        <time>2022-12-12T16:09:42.834Z</time>
      </trkpt>
      <trkpt lat="48.10967" lon="-3.0043">
        <ele>99.094063</ele>
        <time>2022-12-12T16:09:45.841Z</time>
      </trkpt>
      <trkpt lat="48.10954" lon="-3.00428">
        <ele>99.245763</ele>
        <time>2022-12-12T16:09:48.847Z</time>
      </trkpt>
      <trkpt lat="48.10942" lon="-3.00424">
        <ele>99.395672</ele>
        <time>2022-12-12T16:09:51.840Z</time>
      </trkpt>
      <trkpt lat="48.10929" lon="-3.00421">
        <ele>99.54733</ele>
        <time>2022-12-12T16:09:54.846Z</time>
      </trkpt>
      <trkpt lat="48.10916" lon="-3.00417">
        <ele>99.576427</ele>
        <time>2022-12-12T16:09:57.841Z</time>
      </trkpt>
      <trkpt lat="48.10907" lon="-3.00414">
        <ele>99.461008</ele>
        <time>2022-12-12T16:09:59.857Z</time>
      </trkpt>
      <trkpt lat="48.10897" lon="-3.00411">
        <ele>99.342092</ele>
        <time>2022-12-12T16:10:01.851Z</time>
      </trkpt>
      <trkpt lat="48.10888" lon="-3.00407">
        <ele>99.219868</ele>
        <time>2022-12-12T16:10:03.830Z</time>
      </trkpt>
      <trkpt lat="48.10878" lon="-3.00404">
        <ele>99.094452</ele>
        <time>2022-12-12T16:10:05.838Z</time>
      </trkpt>
      <trkpt lat="48.10866" lon="-3.00399">
        <ele>98.947689</ele>
        <time>2022-12-12T16:10:08.855Z</time>
      </trkpt>
      <trkpt lat="48.10854" lon="-3.00396">
        <ele>98.803656</ele>
        <time>2022-12-12T16:10:11.829Z</time>
      </trkpt>
      <trkpt lat="48.10846" lon="-3.00393">
        <ele>98.691899</ele>
        <time>2022-12-12T16:10:13.840Z</time>
      </trkpt>
      <trkpt lat="48.10834" lon="-3.00386">
        <ele>98.544992</ele>
        <time>2022-12-12T16:10:16.836Z</time>
      </trkpt>
      <trkpt lat="48.10823" lon="-3.00379">
        <ele>98.392081</ele>
        <time>2022-12-12T16:10:19.840Z</time>
      </trkpt>
      <trkpt lat="48.10812" lon="-3.0037">
        <ele>98.240997</ele>
        <time>2022-12-12T16:10:22.850Z</time>
      </trkpt>
      <trkpt lat="48.10801" lon="-3.00361">
        <ele>98.091969</ele>
        <time>2022-12-12T16:10:25.841Z</time>
      </trkpt>
      <trkpt lat="48.10793" lon="-3.00351">
        <ele>97.957823</ele>
        <time>2022-12-12T16:10:28.840Z</time>
      </trkpt>
      <trkpt lat="48.10783" lon="-3.00342">
        <ele>97.816186</ele>
        <time>2022-12-12T16:10:31.852Z</time>
      </trkpt>
      <trkpt lat="48.10775" lon="-3.00335">
        <ele>97.703503</ele>
        <time>2022-12-12T16:10:33.841Z</time>
      </trkpt>
      <trkpt lat="48.10766" lon="-3.00325">
        <ele>97.561952</ele>
        <time>2022-12-12T16:10:36.848Z</time>
      </trkpt>
      <trkpt lat="48.10755" lon="-3.00313">
        <ele>97.446685</ele>
        <time>2022-12-12T16:10:39.843Z</time>
      </trkpt>
      <trkpt lat="48.10744" lon="-3.00303">
        <ele>97.470573</ele>
        <time>2022-12-12T16:10:42.840Z</time>
      </trkpt>
      <trkpt lat="48.10733" lon="-3.00293">
        <ele>97.493117</ele>
        <time>2022-12-12T16:10:45.843Z</time>
      </trkpt>
      <trkpt lat="48.10723" lon="-3.00283">
        <ele>97.514817</ele>
        <time>2022-12-12T16:10:48.844Z</time>
      </trkpt>
      <trkpt lat="48.10716" lon="-3.00275">
        <ele>97.531092</ele>
        <time>2022-12-12T16:10:50.850Z</time>
      </trkpt>
      <trkpt lat="48.10707" lon="-3.00266">
        <ele>97.551009</ele>
        <time>2022-12-12T16:10:52.839Z</time>
      </trkpt>
      <trkpt lat="48.10697" lon="-3.00254">
        <ele>97.574438</ele>
        <time>2022-12-12T16:10:55.844Z</time>
      </trkpt>
      <trkpt lat="48.10685" lon="-3.00241">
        <ele>97.600732</ele>
        <time>2022-12-12T16:10:58.848Z</time>
      </trkpt>
      <trkpt lat="48.10674" lon="-3.00229">
        <ele>97.624567</ele>
        <time>2022-12-12T16:11:01.836Z</time>
      </trkpt>
      <trkpt lat="48.10663" lon="-3.0022">
        <ele>97.64751</ele>
        <time>2022-12-12T16:11:04.846Z</time>
      </trkpt>
      <trkpt lat="48.10654" lon="-3.0021">
        <ele>97.668477</ele>
        <time>2022-12-12T16:11:07.833Z</time>
      </trkpt>
      <trkpt lat="48.10645" lon="-3.002">
        <ele>97.688485</ele>
        <time>2022-12-12T16:11:09.839Z</time>
      </trkpt>
      <trkpt lat="48.10635" lon="-3.00187">
        <ele>97.711794</ele>
        <time>2022-12-12T16:11:12.845Z</time>
      </trkpt>
      <trkpt lat="48.10628" lon="-3.00179">
        <ele>97.728768</ele>
        <time>2022-12-12T16:11:14.837Z</time>
      </trkpt>
      <trkpt lat="48.10618" lon="-3.00168">
        <ele>97.749859</ele>
        <time>2022-12-12T16:11:17.832Z</time>
      </trkpt>
      <trkpt lat="48.10611" lon="-3.0016">
        <ele>97.773652</ele>
        <time>2022-12-12T16:11:19.838Z</time>
      </trkpt>
      <trkpt lat="48.10603" lon="-3.00153">
        <ele>97.991944</ele>
        <time>2022-12-12T16:11:21.831Z</time>
      </trkpt>
      <trkpt lat="48.10593" lon="-3.00144">
        <ele>98.268189</ele>
        <time>2022-12-12T16:11:24.856Z</time>
      </trkpt>
      <trkpt lat="48.10585" lon="-3.00136">
        <ele>98.490712</ele>
        <time>2022-12-12T16:11:26.833Z</time>
      </trkpt>
      <trkpt lat="48.10577" lon="-3.00129">
        <ele>98.710979</ele>
        <time>2022-12-12T16:11:28.848Z</time>
      </trkpt>
      <trkpt lat="48.10568" lon="-3.00121">
        <ele>98.938872</ele>
        <time>2022-12-12T16:11:30.848Z</time>
      </trkpt>
      <trkpt lat="48.1056" lon="-3.00113">
        <ele>99.176194</ele>
        <time>2022-12-12T16:11:32.851Z</time>
      </trkpt>
      <trkpt lat="48.10552" lon="-3.00104">
        <ele>99.396537</ele>
        <time>2022-12-12T16:11:34.852Z</time>
      </trkpt>
      <trkpt lat="48.10542" lon="-3.00092">
        <ele>99.708745</ele>
        <time>2022-12-12T16:11:37.846Z</time>
      </trkpt>
      <trkpt lat="48.10531" lon="-3.00079">
        <ele>100.0353</ele>
        <time>2022-12-12T16:11:40.838Z</time>
      </trkpt>
      <trkpt lat="48.10524" lon="-3.0007">
        <ele>100.254863</ele>
        <time>2022-12-12T16:11:42.848Z</time>
      </trkpt>
      <trkpt lat="48.10517" lon="-3.00059">
        <ele>100.491967</ele>
        <time>2022-12-12T16:11:44.846Z</time>
      </trkpt>
      <trkpt lat="48.1051" lon="-3.00049">
        <ele>100.713017</ele>
        <time>2022-12-12T16:11:46.846Z</time>
      </trkpt>
      <trkpt lat="48.10501" lon="-3.00034">
        <ele>101.037809</ele>
        <time>2022-12-12T16:11:49.843Z</time>
      </trkpt>
      <trkpt lat="48.10495" lon="-3.00022">
        <ele>101.270228</ele>
        <time>2022-12-12T16:11:51.840Z</time>
      </trkpt>
      <trkpt lat="48.10489" lon="-3.0001">
        <ele>101.506137</ele>
        <time>2022-12-12T16:11:53.856Z</time>
      </trkpt>
      <trkpt lat="48.10482" lon="-2.99998">
        <ele>101.752961</ele>
        <time>2022-12-12T16:11:56.837Z</time>
      </trkpt>
      <trkpt lat="48.10475" lon="-2.99988">
        <ele>101.975132</ele>
        <time>2022-12-12T16:11:58.835Z</time>
      </trkpt>
      <trkpt lat="48.10468" lon="-2.99976">
        <ele>102.035014</ele>
        <time>2022-12-12T16:12:01.832Z</time>
      </trkpt>
      <trkpt lat="48.10458" lon="-2.99964">
        <ele>102.100797</ele>
        <time>2022-12-12T16:12:04.846Z</time>
      </trkpt>
      <trkpt lat="48.10447" lon="-2.99951">
        <ele>102.16839</ele>
        <time>2022-12-12T16:12:07.849Z</time>
      </trkpt>
      <trkpt lat="48.10438" lon="-2.99939">
        <ele>102.232945</ele>
        <time>2022-12-12T16:12:10.841Z</time>
      </trkpt>
      <trkpt lat="48.10428" lon="-2.99926">
        <ele>102.298595</ele>
        <time>2022-12-12T16:12:13.835Z</time>
      </trkpt>
      <trkpt lat="48.10419" lon="-2.99916">
        <ele>102.357124</ele>
        <time>2022-12-12T16:12:16.851Z</time>
      </trkpt>
      <trkpt lat="48.10409" lon="-2.99905">
        <ele>102.421608</ele>
        <time>2022-12-12T16:12:19.852Z</time>
      </trkpt>
      <trkpt lat="48.10399" lon="-2.99895">
        <ele>102.482187</ele>
        <time>2022-12-12T16:12:22.849Z</time>
      </trkpt>
      <trkpt lat="48.10388" lon="-2.99885">
        <ele>102.548585</ele>
        <time>2022-12-12T16:12:25.831Z</time>
      </trkpt>
      <trkpt lat="48.10378" lon="-2.99873">
        <ele>102.612453</ele>
        <time>2022-12-12T16:12:28.836Z</time>
      </trkpt>
      <trkpt lat="48.10367" lon="-2.99862">
        <ele>102.681902</ele>
        <time>2022-12-12T16:12:31.841Z</time>
      </trkpt>
      <trkpt lat="48.10357" lon="-2.9985">
        <ele>102.746594</ele>
        <time>2022-12-12T16:12:34.854Z</time>
      </trkpt>
      <trkpt lat="48.10348" lon="-2.99839">
        <ele>102.805983</ele>
        <time>2022-12-12T16:12:37.832Z</time>
      </trkpt>
      <trkpt lat="48.10338" lon="-2.99827">
        <ele>102.874983</ele>
        <time>2022-12-12T16:12:40.848Z</time>
      </trkpt>
      <trkpt lat="48.1033" lon="-2.99819">
        <ele>102.829385</ele>
        <time>2022-12-12T16:12:42.843Z</time>
      </trkpt>
      <trkpt lat="48.10322" lon="-2.99811">
        <ele>102.67135</ele>
        <time>2022-12-12T16:12:44.840Z</time>
      </trkpt>
      <trkpt lat="48.10314" lon="-2.99802">
        <ele>102.511966</ele>
        <time>2022-12-12T16:12:46.854Z</time>
      </trkpt>
      <trkpt lat="48.10306" lon="-2.99795">
        <ele>102.35781</ele>
        <time>2022-12-12T16:12:48.857Z</time>
      </trkpt>
      <trkpt lat="48.10299" lon="-2.99786">
        <ele>102.203129</ele>
        <time>2022-12-12T16:12:50.834Z</time>
      </trkpt>
      <trkpt lat="48.10288" lon="-2.99776">
        <ele>101.990463</ele>
        <time>2022-12-12T16:12:53.834Z</time>
      </trkpt>
      <trkpt lat="48.10281" lon="-2.99767">
        <ele>101.839721</ele>
        <time>2022-12-12T16:12:55.858Z</time>
      </trkpt>
      <trkpt lat="48.1027" lon="-2.99757">
        <ele>101.622291</ele>
        <time>2022-12-12T16:12:58.851Z</time>
      </trkpt>
      <trkpt lat="48.10262" lon="-2.99749">
        <ele>101.470211</ele>
        <time>2022-12-12T16:13:00.855Z</time>
      </trkpt>
      <trkpt lat="48.1025" lon="-2.99738">
        <ele>101.240882</ele>
        <time>2022-12-12T16:13:03.833Z</time>
      </trkpt>
      <trkpt lat="48.10239" lon="-2.99729">
        <ele>101.03798</ele>
        <time>2022-12-12T16:13:06.845Z</time>
      </trkpt>
      <trkpt lat="48.10227" lon="-2.9972">
        <ele>100.81433</ele>
        <time>2022-12-12T16:13:09.856Z</time>
      </trkpt>
      <trkpt lat="48.10215" lon="-2.99712">
        <ele>100.594135</ele>
        <time>2022-12-12T16:13:12.836Z</time>
      </trkpt>
      <trkpt lat="48.10207" lon="-2.99706">
        <ele>100.439403</ele>
        <time>2022-12-12T16:13:14.849Z</time>
      </trkpt>
      <trkpt lat="48.10198" lon="-2.99699">
        <ele>100.285125</ele>
        <time>2022-12-12T16:13:16.856Z</time>
      </trkpt>
      <trkpt lat="48.1019" lon="-2.99694">
        <ele>100.135665</ele>
        <time>2022-12-12T16:13:18.862Z</time>
      </trkpt>
      <trkpt lat="48.10181" lon="-2.99688">
        <ele>99.979266</ele>
        <time>2022-12-12T16:13:20.859Z</time>
      </trkpt>
      <trkpt lat="48.10173" lon="-2.99682">
        <ele>99.934143</ele>
        <time>2022-12-12T16:13:22.856Z</time>
      </trkpt>
      <trkpt lat="48.10161" lon="-2.99674">
        <ele>99.939727</ele>
        <time>2022-12-12T16:13:25.857Z</time>
      </trkpt>
      <trkpt lat="48.10149" lon="-2.99665">
        <ele>99.94536</ele>
        <time>2022-12-12T16:13:28.855Z</time>
      </trkpt>
      <trkpt lat="48.1014" lon="-2.99659">
        <ele>99.949402</ele>
        <time>2022-12-12T16:13:30.834Z</time>
      </trkpt>
      <trkpt lat="48.10132" lon="-2.99653">
        <ele>99.953404</ele>
        <time>2022-12-12T16:13:32.850Z</time>
      </trkpt>
      <trkpt lat="48.10121" lon="-2.99645">
        <ele>99.958511</ele>
        <time>2022-12-12T16:13:35.853Z</time>
      </trkpt>
      <trkpt lat="48.1011" lon="-2.99638">
        <ele>99.963392</ele>
        <time>2022-12-12T16:13:38.859Z</time>
      </trkpt>
      <trkpt lat="48.10102" lon="-2.99632">
        <ele>99.967196</ele>
        <time>2022-12-12T16:13:40.850Z</time>
      </trkpt>
      <trkpt lat="48.10091" lon="-2.99625">
        <ele>99.97213</ele>
        <time>2022-12-12T16:13:43.859Z</time>
      </trkpt>
      <trkpt lat="48.1008" lon="-2.99617">
        <ele>99.977451</ele>
        <time>2022-12-12T16:13:46.850Z</time>
      </trkpt>
      <trkpt lat="48.10068" lon="-2.99609">
        <ele>99.982997</ele>
        <time>2022-12-12T16:13:49.855Z</time>
      </trkpt>
      <trkpt lat="48.10059" lon="-2.99603">
        <ele>99.986815</ele>
        <time>2022-12-12T16:13:51.848Z</time>
      </trkpt>
      <trkpt lat="48.10048" lon="-2.99593">
        <ele>99.992253</ele>
        <time>2022-12-12T16:13:54.859Z</time>
      </trkpt>
      <trkpt lat="48.1004" lon="-2.99588">
        <ele>99.996111</ele>
        <time>2022-12-12T16:13:56.864Z</time>
      </trkpt>
      <trkpt lat="48.10031" lon="-2.99582">
        <ele>99.999991</ele>
        <time>2022-12-12T16:13:58.859Z</time>
      </trkpt>
      <trkpt lat="48.10023" lon="-2.99576">
        <ele>100.003797</ele>
        <time>2022-12-12T16:14:00.858Z</time>
      </trkpt>
      <trkpt lat="48.10011" lon="-2.99567">
        <ele>100.127119</ele>
        <time>2022-12-12T16:14:03.848Z</time>
      </trkpt>
      <trkpt lat="48.09999" lon="-2.99559">
        <ele>100.405074</ele>
        <time>2022-12-12T16:14:06.836Z</time>
      </trkpt>
      <trkpt lat="48.0999" lon="-2.99553">
        <ele>100.592715</ele>
        <time>2022-12-12T16:14:08.852Z</time>
      </trkpt>
      <trkpt lat="48.09981" lon="-2.99548">
        <ele>100.78935</ele>
        <time>2022-12-12T16:14:10.857Z</time>
      </trkpt>
      <trkpt lat="48.0997" lon="-2.99539">
        <ele>101.045223</ele>
        <time>2022-12-12T16:14:13.858Z</time>
      </trkpt>
      <trkpt lat="48.09959" lon="-2.9953">
        <ele>101.303212</ele>
        <time>2022-12-12T16:14:16.853Z</time>
      </trkpt>
      <trkpt lat="48.09949" lon="-2.99521">
        <ele>101.540502</ele>
        <time>2022-12-12T16:14:19.857Z</time>
      </trkpt>
      <trkpt lat="48.09939" lon="-2.99512">
        <ele>101.779842</ele>
        <time>2022-12-12T16:14:22.854Z</time>
      </trkpt>
      <trkpt lat="48.09929" lon="-2.99503">
        <ele>102.023395</ele>
        <time>2022-12-12T16:14:25.859Z</time>
      </trkpt>
      <trkpt lat="48.0992" lon="-2.99494">
        <ele>102.233551</ele>
        <time>2022-12-12T16:14:28.857Z</time>
      </trkpt>
      <trkpt lat="48.09912" lon="-2.99486">
        <ele>102.437388</ele>
        <time>2022-12-12T16:14:30.859Z</time>
      </trkpt>
      <trkpt lat="48.09903" lon="-2.99473">
        <ele>102.694448</ele>
        <time>2022-12-12T16:14:33.852Z</time>
      </trkpt>
      <trkpt lat="48.09895" lon="-2.99461">
        <ele>102.932564</ele>
        <time>2022-12-12T16:14:36.853Z</time>
      </trkpt>
      <trkpt lat="48.09887" lon="-2.99448">
        <ele>103.17646</ele>
        <time>2022-12-12T16:14:39.851Z</time>
      </trkpt>
      <trkpt lat="48.09879" lon="-2.99437">
        <ele>103.380773</ele>
        <time>2022-12-12T16:14:41.856Z</time>
      </trkpt>
      <trkpt lat="48.09872" lon="-2.99428">
        <ele>103.580522</ele>
        <time>2022-12-12T16:14:43.856Z</time>
      </trkpt>
      <trkpt lat="48.09865" lon="-2.99418">
        <ele>103.630045</ele>
        <time>2022-12-12T16:14:45.828Z</time>
      </trkpt>
      <trkpt lat="48.09857" lon="-2.99404">
        <ele>103.477959</ele>
        <time>2022-12-12T16:14:48.859Z</time>
      </trkpt>
      <trkpt lat="48.09849" lon="-2.99394">
        <ele>103.356999</ele>
        <time>2022-12-12T16:14:50.858Z</time>
      </trkpt>
      <trkpt lat="48.09843" lon="-2.99384">
        <ele>103.250102</ele>
        <time>2022-12-12T16:14:52.854Z</time>
      </trkpt>
      <trkpt lat="48.09834" lon="-2.9937">
        <ele>103.100777</ele>
        <time>2022-12-12T16:14:55.851Z</time>
      </trkpt>
      <trkpt lat="48.09825" lon="-2.99357">
        <ele>102.951564</ele>
        <time>2022-12-12T16:14:58.852Z</time>
      </trkpt>
      <trkpt lat="48.09819" lon="-2.99347">
        <ele>102.843226</ele>
        <time>2022-12-12T16:15:00.854Z</time>
      </trkpt>
      <trkpt lat="48.0981" lon="-2.99335">
        <ele>102.702244</ele>
        <time>2022-12-12T16:15:03.857Z</time>
      </trkpt>
      <trkpt lat="48.09801" lon="-2.99321">
        <ele>102.551305</ele>
        <time>2022-12-12T16:15:06.845Z</time>
      </trkpt>
      <trkpt lat="48.09792" lon="-2.99307">
        <ele>102.396973</ele>
        <time>2022-12-12T16:15:09.857Z</time>
      </trkpt>
      <trkpt lat="48.09782" lon="-2.99293">
        <ele>102.237142</ele>
        <time>2022-12-12T16:15:12.858Z</time>
      </trkpt>
      <trkpt lat="48.09773" lon="-2.99279">
        <ele>102.085279</ele>
        <time>2022-12-12T16:15:15.849Z</time>
      </trkpt>
      <trkpt lat="48.09766" lon="-2.9927">
        <ele>101.975851</ele>
        <time>2022-12-12T16:15:17.851Z</time>
      </trkpt>
      <trkpt lat="48.09757" lon="-2.99255">
        <ele>101.819114</ele>
        <time>2022-12-12T16:15:20.859Z</time>
      </trkpt>
      <trkpt lat="48.09751" lon="-2.99246">
        <ele>101.709706</ele>
        <time>2022-12-12T16:15:22.859Z</time>
      </trkpt>
      <trkpt lat="48.09742" lon="-2.99232">
        <ele>101.564632</ele>
        <time>2022-12-12T16:15:25.850Z</time>
      </trkpt>
      <trkpt lat="48.09733" lon="-2.9922">
        <ele>101.391898</ele>
        <time>2022-12-12T16:15:28.851Z</time>
      </trkpt>
      <trkpt lat="48.09725" lon="-2.99207">
        <ele>101.214509</ele>
        <time>2022-12-12T16:15:31.859Z</time>
      </trkpt>
      <trkpt lat="48.09716" lon="-2.99195">
        <ele>101.041241</ele>
        <time>2022-12-12T16:15:34.855Z</time>
      </trkpt>
      <trkpt lat="48.09707" lon="-2.99183">
        <ele>100.862463</ele>
        <time>2022-12-12T16:15:37.860Z</time>
      </trkpt>
      <trkpt lat="48.09697" lon="-2.9917">
        <ele>100.669065</ele>
        <time>2022-12-12T16:15:40.858Z</time>
      </trkpt>
      <trkpt lat="48.09686" lon="-2.99159">
        <ele>100.475239</ele>
        <time>2022-12-12T16:15:43.837Z</time>
      </trkpt>
      <trkpt lat="48.09676" lon="-2.99148">
        <ele>100.29903</ele>
        <time>2022-12-12T16:15:46.832Z</time>
      </trkpt>
      <trkpt lat="48.09667" lon="-2.99139">
        <ele>100.138439</ele>
        <time>2022-12-12T16:15:49.835Z</time>
      </trkpt>
      <trkpt lat="48.09657" lon="-2.9913">
        <ele>99.962525</ele>
        <time>2022-12-12T16:15:52.847Z</time>
      </trkpt>
      <trkpt lat="48.09646" lon="-2.99121">
        <ele>99.783621</ele>
        <time>2022-12-12T16:15:55.843Z</time>
      </trkpt>
      <trkpt lat="48.09638" lon="-2.99115">
        <ele>99.645337</ele>
        <time>2022-12-12T16:15:57.852Z</time>
      </trkpt>
      <trkpt lat="48.09626" lon="-2.99107">
        <ele>99.453614</ele>
        <time>2022-12-12T16:16:00.849Z</time>
      </trkpt>
      <trkpt lat="48.09614" lon="-2.99098">
        <ele>99.265958</ele>
        <time>2022-12-12T16:16:03.857Z</time>
      </trkpt>
      <trkpt lat="48.09602" lon="-2.9909">
        <ele>99.077123</ele>
        <time>2022-12-12T16:16:06.858Z</time>
      </trkpt>
      <trkpt lat="48.09594" lon="-2.99086">
        <ele>98.94218</ele>
        <time>2022-12-12T16:16:08.857Z</time>
      </trkpt>
      <trkpt lat="48.09585" lon="-2.99081">
        <ele>98.973967</ele>
        <time>2022-12-12T16:16:10.862Z</time>
      </trkpt>
      <trkpt lat="48.09576" lon="-2.99076">
        <ele>99.025122</ele>
        <time>2022-12-12T16:16:12.849Z</time>
      </trkpt>
      <trkpt lat="48.09564" lon="-2.99069">
        <ele>99.091459</ele>
        <time>2022-12-12T16:16:15.843Z</time>
      </trkpt>
      <trkpt lat="48.09552" lon="-2.99064">
        <ele>99.158864</ele>
        <time>2022-12-12T16:16:18.860Z</time>
      </trkpt>
      <trkpt lat="48.09539" lon="-2.99058">
        <ele>99.229363</ele>
        <time>2022-12-12T16:16:21.858Z</time>
      </trkpt>
      <trkpt lat="48.09527" lon="-2.99054">
        <ele>99.299764</ele>
        <time>2022-12-12T16:16:24.853Z</time>
      </trkpt>
      <trkpt lat="48.09514" lon="-2.99049">
        <ele>99.371208</ele>
        <time>2022-12-12T16:16:27.851Z</time>
      </trkpt>
      <trkpt lat="48.09505" lon="-2.99046">
        <ele>99.420479</ele>
        <time>2022-12-12T16:16:29.855Z</time>
      </trkpt>
      <trkpt lat="48.09496" lon="-2.99044">
        <ele>99.469428</ele>
        <time>2022-12-12T16:16:31.854Z</time>
      </trkpt>
      <trkpt lat="48.09487" lon="-2.9904">
        <ele>99.518699</ele>
        <time>2022-12-12T16:16:33.859Z</time>
      </trkpt>
      <trkpt lat="48.09478" lon="-2.99036">
        <ele>99.569615</ele>
        <time>2022-12-12T16:16:35.852Z</time>
      </trkpt>
      <trkpt lat="48.09469" lon="-2.99034">
        <ele>99.618694</ele>
        <time>2022-12-12T16:16:37.857Z</time>
      </trkpt>
      <trkpt lat="48.09459" lon="-2.99031">
        <ele>99.668511</ele>
        <time>2022-12-12T16:16:39.858Z</time>
      </trkpt>
      <trkpt lat="48.0945" lon="-2.99027">
        <ele>99.719857</ele>
        <time>2022-12-12T16:16:41.859Z</time>
      </trkpt>
      <trkpt lat="48.09441" lon="-2.99025">
        <ele>99.768104</ele>
        <time>2022-12-12T16:16:43.838Z</time>
      </trkpt>
      <trkpt lat="48.09432" lon="-2.99021">
        <ele>99.818595</ele>
        <time>2022-12-12T16:16:45.839Z</time>
      </trkpt>
      <trkpt lat="48.09419" lon="-2.99016">
        <ele>99.890518</ele>
        <time>2022-12-12T16:16:48.854Z</time>
      </trkpt>
      <trkpt lat="48.09408" lon="-2.99013">
        <ele>99.936207</ele>
        <time>2022-12-12T16:16:51.855Z</time>
      </trkpt>
      <trkpt lat="48.09397" lon="-2.9901">
        <ele>99.976086</ele>
        <time>2022-12-12T16:16:54.854Z</time>
      </trkpt>
      <trkpt lat="48.09386" lon="-2.99007">
        <ele>100.019144</ele>
        <time>2022-12-12T16:16:57.859Z</time>
      </trkpt>
      <trkpt lat="48.09375" lon="-2.99005">
        <ele>100.064343</ele>
        <time>2022-12-12T16:17:00.860Z</time>
      </trkpt>
      <trkpt lat="48.09366" lon="-2.99005">
        <ele>100.099112</ele>
        <time>2022-12-12T16:17:02.857Z</time>
      </trkpt>
      <trkpt lat="48.09353" lon="-2.99005">
        <ele>100.150498</ele>
        <time>2022-12-12T16:17:05.854Z</time>
      </trkpt>
      <trkpt lat="48.09339" lon="-2.99005">
        <ele>100.204577</ele>
        <time>2022-12-12T16:17:08.860Z</time>
      </trkpt>
      <trkpt lat="48.09326" lon="-2.99007">
        <ele>100.254215</ele>
        <time>2022-12-12T16:17:11.845Z</time>
      </trkpt>
      <trkpt lat="48.09313" lon="-2.99009">
        <ele>100.30503</ele>
        <time>2022-12-12T16:17:14.857Z</time>
      </trkpt>
      <trkpt lat="48.09304" lon="-2.99011">
        <ele>100.340256</ele>
        <time>2022-12-12T16:17:16.859Z</time>
      </trkpt>
      <trkpt lat="48.09291" lon="-2.99013">
        <ele>100.390438</ele>
        <time>2022-12-12T16:17:19.860Z</time>
      </trkpt>
      <trkpt lat="48.09277" lon="-2.99016">
        <ele>100.442895</ele>
        <time>2022-12-12T16:17:22.847Z</time>
      </trkpt>
      <trkpt lat="48.09264" lon="-2.99018">
        <ele>100.494479</ele>
        <time>2022-12-12T16:17:25.853Z</time>
      </trkpt>
      <trkpt lat="48.09251" lon="-2.99015">
        <ele>100.544104</ele>
        <time>2022-12-12T16:17:28.860Z</time>
      </trkpt>
      <trkpt lat="48.09241" lon="-2.9901">
        <ele>100.585919</ele>
        <time>2022-12-12T16:17:31.838Z</time>
      </trkpt>
      <trkpt lat="48.0923" lon="-2.99003">
        <ele>100.598164</ele>
        <time>2022-12-12T16:17:34.852Z</time>
      </trkpt>
      <trkpt lat="48.09219" lon="-2.98996">
        <ele>100.611009</ele>
        <time>2022-12-12T16:17:37.857Z</time>
      </trkpt>
      <trkpt lat="48.09208" lon="-2.98989">
        <ele>100.623238</ele>
        <time>2022-12-12T16:17:40.860Z</time>
      </trkpt>
      <trkpt lat="48.09197" lon="-2.98982">
        <ele>100.635293</ele>
        <time>2022-12-12T16:17:43.861Z</time>
      </trkpt>
      <trkpt lat="48.09186" lon="-2.98973">
        <ele>100.648025</ele>
        <time>2022-12-12T16:17:46.843Z</time>
      </trkpt>
      <trkpt lat="48.09178" lon="-2.98968">
        <ele>100.657521</ele>
        <time>2022-12-12T16:17:48.857Z</time>
      </trkpt>
      <trkpt lat="48.09166" lon="-2.98959">
        <ele>100.671508</ele>
        <time>2022-12-12T16:17:51.859Z</time>
      </trkpt>
      <trkpt lat="48.09158" lon="-2.98953">
        <ele>100.680879</ele>
        <time>2022-12-12T16:17:53.858Z</time>
      </trkpt>
      <trkpt lat="48.0915" lon="-2.98947">
        <ele>100.690656</ele>
        <time>2022-12-12T16:17:55.852Z</time>
      </trkpt>
      <trkpt lat="48.09138" lon="-2.98938">
        <ele>100.704453</ele>
        <time>2022-12-12T16:17:58.857Z</time>
      </trkpt>
      <trkpt lat="48.09129" lon="-2.98931">
        <ele>100.714591</ele>
        <time>2022-12-12T16:18:00.858Z</time>
      </trkpt>
      <trkpt lat="48.0912" lon="-2.98924">
        <ele>100.725242</ele>
        <time>2022-12-12T16:18:02.858Z</time>
      </trkpt>
      <trkpt lat="48.09112" lon="-2.98915">
        <ele>100.736075</ele>
        <time>2022-12-12T16:18:04.858Z</time>
      </trkpt>
      <trkpt lat="48.09103" lon="-2.98906">
        <ele>100.747189</ele>
        <time>2022-12-12T16:18:06.855Z</time>
      </trkpt>
      <trkpt lat="48.09095" lon="-2.98896">
        <ele>100.758386</ele>
        <time>2022-12-12T16:18:08.855Z</time>
      </trkpt>
      <trkpt lat="48.09086" lon="-2.98885">
        <ele>100.769707</ele>
        <time>2022-12-12T16:18:10.841Z</time>
      </trkpt>
      <trkpt lat="48.09078" lon="-2.98875">
        <ele>100.768485</ele>
        <time>2022-12-12T16:18:12.858Z</time>
      </trkpt>
      <trkpt lat="48.09072" lon="-2.98864">
        <ele>100.762599</ele>
        <time>2022-12-12T16:18:14.851Z</time>
      </trkpt>
      <trkpt lat="48.09064" lon="-2.98853">
        <ele>100.756409</ele>
        <time>2022-12-12T16:18:16.855Z</time>
      </trkpt>
      <trkpt lat="48.09057" lon="-2.98842">
        <ele>100.750412</ele>
        <time>2022-12-12T16:18:18.857Z</time>
      </trkpt>
      <trkpt lat="48.09049" lon="-2.98832">
        <ele>100.744459</ele>
        <time>2022-12-12T16:18:20.857Z</time>
      </trkpt>
      <trkpt lat="48.09042" lon="-2.98823">
        <ele>100.738692</ele>
        <time>2022-12-12T16:18:22.853Z</time>
      </trkpt>
      <trkpt lat="48.09034" lon="-2.98812">
        <ele>100.732634</ele>
        <time>2022-12-12T16:18:24.857Z</time>
      </trkpt>
      <trkpt lat="48.09026" lon="-2.98803">
        <ele>100.726626</ele>
        <time>2022-12-12T16:18:26.844Z</time>
      </trkpt>
      <trkpt lat="48.09018" lon="-2.98794">
        <ele>100.720736</ele>
        <time>2022-12-12T16:18:28.860Z</time>
      </trkpt>
      <trkpt lat="48.0901" lon="-2.98785">
        <ele>100.714719</ele>
        <time>2022-12-12T16:18:30.856Z</time>
      </trkpt>
      <trkpt lat="48.09002" lon="-2.98777">
        <ele>100.709078</ele>
        <time>2022-12-12T16:18:32.856Z</time>
      </trkpt>
      <trkpt lat="48.08991" lon="-2.98766">
        <ele>100.70134</ele>
        <time>2022-12-12T16:18:35.834Z</time>
      </trkpt>
      <trkpt lat="48.08981" lon="-2.98757">
        <ele>100.694242</ele>
        <time>2022-12-12T16:18:38.852Z</time>
      </trkpt>
      <trkpt lat="48.08973" lon="-2.98749">
        <ele>100.688659</ele>
        <time>2022-12-12T16:18:40.893Z</time>
      </trkpt>
      <trkpt lat="48.08963" lon="-2.98738">
        <ele>100.68109</ele>
        <time>2022-12-12T16:18:43.858Z</time>
      </trkpt>
      <trkpt lat="48.08955" lon="-2.9873">
        <ele>100.675382</ele>
        <time>2022-12-12T16:18:45.859Z</time>
      </trkpt>
      <trkpt lat="48.08944" lon="-2.98721">
        <ele>100.66792</ele>
        <time>2022-12-12T16:18:48.859Z</time>
      </trkpt>
      <trkpt lat="48.08935" lon="-2.98714">
        <ele>100.652644</ele>
        <time>2022-12-12T16:18:50.859Z</time>
      </trkpt>
      <trkpt lat="48.08927" lon="-2.98707">
        <ele>100.635877</ele>
        <time>2022-12-12T16:18:52.861Z</time>
      </trkpt>
      <trkpt lat="48.08916" lon="-2.98698">
        <ele>100.613905</ele>
        <time>2022-12-12T16:18:55.856Z</time>
      </trkpt>
      <trkpt lat="48.08907" lon="-2.98691">
        <ele>100.594932</ele>
        <time>2022-12-12T16:18:58.858Z</time>
      </trkpt>
      <trkpt lat="48.08897" lon="-2.9868">
        <ele>100.573074</ele>
        <time>2022-12-12T16:19:02.856Z</time>
      </trkpt>
      <trkpt lat="48.08887" lon="-2.98671">
        <ele>100.553073</ele>
        <time>2022-12-12T16:19:05.854Z</time>
      </trkpt>
      <trkpt lat="48.08878" lon="-2.98663">
        <ele>100.532636</ele>
        <time>2022-12-12T16:19:08.863Z</time>
      </trkpt>
      <trkpt lat="48.08869" lon="-2.98655">
        <ele>100.515036</ele>
        <time>2022-12-12T16:19:10.859Z</time>
      </trkpt>
      <trkpt lat="48.08861" lon="-2.98647">
        <ele>100.496852</ele>
        <time>2022-12-12T16:19:12.858Z</time>
      </trkpt>
      <trkpt lat="48.08853" lon="-2.98641">
        <ele>100.480458</ele>
        <time>2022-12-12T16:19:14.854Z</time>
      </trkpt>
      <trkpt lat="48.08844" lon="-2.98635">
        <ele>100.464174</ele>
        <time>2022-12-12T16:19:16.852Z</time>
      </trkpt>
      <trkpt lat="48.08836" lon="-2.98627">
        <ele>100.44651</ele>
        <time>2022-12-12T16:19:18.857Z</time>
      </trkpt>
      <trkpt lat="48.08828" lon="-2.9862">
        <ele>100.430105</ele>
        <time>2022-12-12T16:19:20.857Z</time>
      </trkpt>
      <trkpt lat="48.08819" lon="-2.98613">
        <ele>100.411428</ele>
        <time>2022-12-12T16:19:22.857Z</time>
      </trkpt>
      <trkpt lat="48.0881" lon="-2.98607">
        <ele>100.394062</ele>
        <time>2022-12-12T16:19:24.840Z</time>
      </trkpt>
      <trkpt lat="48.08801" lon="-2.986">
        <ele>100.375847</ele>
        <time>2022-12-12T16:19:26.858Z</time>
      </trkpt>
      <trkpt lat="48.08793" lon="-2.98594">
        <ele>100.35907</ele>
        <time>2022-12-12T16:19:28.863Z</time>
      </trkpt>
      <trkpt lat="48.08781" lon="-2.98588">
        <ele>100.321387</ele>
        <time>2022-12-12T16:19:31.838Z</time>
      </trkpt>
      <trkpt lat="48.08769" lon="-2.9858">
        <ele>100.239746</ele>
        <time>2022-12-12T16:19:34.853Z</time>
      </trkpt>
      <trkpt lat="48.08756" lon="-2.98574">
        <ele>100.1594</ele>
        <time>2022-12-12T16:19:37.854Z</time>
      </trkpt>
      <trkpt lat="48.08747" lon="-2.98569">
        <ele>100.10222</ele>
        <time>2022-12-12T16:19:39.861Z</time>
      </trkpt>
      <trkpt lat="48.08737" lon="-2.98564">
        <ele>100.041182</ele>
        <time>2022-12-12T16:19:41.855Z</time>
      </trkpt>
      <trkpt lat="48.08728" lon="-2.98559">
        <ele>99.980364</ele>
        <time>2022-12-12T16:19:43.837Z</time>
      </trkpt>
      <trkpt lat="48.08719" lon="-2.98553">
        <ele>99.92245</ele>
        <time>2022-12-12T16:19:45.860Z</time>
      </trkpt>
      <trkpt lat="48.08707" lon="-2.98546">
        <ele>99.847425</ele>
        <time>2022-12-12T16:19:48.856Z</time>
      </trkpt>
      <trkpt lat="48.08698" lon="-2.98538">
        <ele>99.782092</ele>
        <time>2022-12-12T16:19:51.857Z</time>
      </trkpt>
      <trkpt lat="48.08688" lon="-2.98529">
        <ele>99.716006</ele>
        <time>2022-12-12T16:19:54.853Z</time>
      </trkpt>
      <trkpt lat="48.08679" lon="-2.9852">
        <ele>99.646185</ele>
        <time>2022-12-12T16:19:57.852Z</time>
      </trkpt>
      <trkpt lat="48.08669" lon="-2.98512">
        <ele>99.576875</ele>
        <time>2022-12-12T16:20:00.859Z</time>
      </trkpt>
      <trkpt lat="48.08658" lon="-2.98503">
        <ele>99.504688</ele>
        <time>2022-12-12T16:20:03.832Z</time>
      </trkpt>
      <trkpt lat="48.08646" lon="-2.98495">
        <ele>99.426981</ele>
        <time>2022-12-12T16:20:06.856Z</time>
      </trkpt>
      <trkpt lat="48.08634" lon="-2.98486">
        <ele>99.346425</ele>
        <time>2022-12-12T16:20:09.854Z</time>
      </trkpt>
      <trkpt lat="48.08626" lon="-2.9848">
        <ele>99.2922</ele>
        <time>2022-12-12T16:20:11.859Z</time>
      </trkpt>
      <trkpt lat="48.08617" lon="-2.98475">
        <ele>99.246416</ele>
        <time>2022-12-12T16:20:13.863Z</time>
      </trkpt>
      <trkpt lat="48.08608" lon="-2.9847">
        <ele>99.213905</ele>
        <time>2022-12-12T16:20:15.859Z</time>
      </trkpt>
      <trkpt lat="48.08599" lon="-2.98465">
        <ele>99.179114</ele>
        <time>2022-12-12T16:20:17.858Z</time>
      </trkpt>
      <trkpt lat="48.08587" lon="-2.98458">
        <ele>99.133975</ele>
        <time>2022-12-12T16:20:20.859Z</time>
      </trkpt>
      <trkpt lat="48.08578" lon="-2.98453">
        <ele>99.100729</ele>
        <time>2022-12-12T16:20:22.859Z</time>
      </trkpt>
      <trkpt lat="48.08569" lon="-2.98448">
        <ele>99.06901</ele>
        <time>2022-12-12T16:20:24.860Z</time>
      </trkpt>
      <trkpt lat="48.0856" lon="-2.98444">
        <ele>99.036538</ele>
        <time>2022-12-12T16:20:26.859Z</time>
      </trkpt>
      <trkpt lat="48.08552" lon="-2.98439">
        <ele>99.004354</ele>
        <time>2022-12-12T16:20:28.860Z</time>
      </trkpt>
      <trkpt lat="48.0854" lon="-2.98432">
        <ele>98.959864</ele>
        <time>2022-12-12T16:20:31.836Z</time>
      </trkpt>
      <trkpt lat="48.08528" lon="-2.98426">
        <ele>98.917331</ele>
        <time>2022-12-12T16:20:34.859Z</time>
      </trkpt>
      <trkpt lat="48.08517" lon="-2.98419">
        <ele>98.876241</ele>
        <time>2022-12-12T16:20:37.857Z</time>
      </trkpt>
      <trkpt lat="48.08506" lon="-2.98413">
        <ele>98.833535</ele>
        <time>2022-12-12T16:20:40.860Z</time>
      </trkpt>
      <trkpt lat="48.08494" lon="-2.98407">
        <ele>98.790596</ele>
        <time>2022-12-12T16:20:43.863Z</time>
      </trkpt>
      <trkpt lat="48.08482" lon="-2.984">
        <ele>98.74643</ele>
        <time>2022-12-12T16:20:46.839Z</time>
      </trkpt>
      <trkpt lat="48.08469" lon="-2.98394">
        <ele>98.699882</ele>
        <time>2022-12-12T16:20:49.838Z</time>
      </trkpt>
      <trkpt lat="48.08457" lon="-2.98389">
        <ele>98.654677</ele>
        <time>2022-12-12T16:20:52.854Z</time>
      </trkpt>
      <trkpt lat="48.08445" lon="-2.98383">
        <ele>98.237877</ele>
        <time>2022-12-12T16:20:55.843Z</time>
      </trkpt>
      <trkpt lat="48.08433" lon="-2.98379">
        <ele>97.657927</ele>
        <time>2022-12-12T16:20:58.859Z</time>
      </trkpt>
      <trkpt lat="48.0842" lon="-2.98375">
        <ele>97.029617</ele>
        <time>2022-12-12T16:21:01.847Z</time>
      </trkpt>
      <trkpt lat="48.08407" lon="-2.98374">
        <ele>96.440523</ele>
        <time>2022-12-12T16:21:04.839Z</time>
      </trkpt>
      <trkpt lat="48.08395" lon="-2.9837">
        <ele>95.834046</ele>
        <time>2022-12-12T16:21:07.836Z</time>
      </trkpt>
      <trkpt lat="48.08384" lon="-2.98369">
        <ele>95.308827</ele>
        <time>2022-12-12T16:21:10.840Z</time>
      </trkpt>
      <trkpt lat="48.08374" lon="-2.98368">
        <ele>94.829835</ele>
        <time>2022-12-12T16:21:13.856Z</time>
      </trkpt>
      <trkpt lat="48.08363" lon="-2.98367">
        <ele>94.319055</ele>
        <time>2022-12-12T16:21:16.858Z</time>
      </trkpt>
      <trkpt lat="48.08353" lon="-2.98367">
        <ele>93.813279</ele>
        <time>2022-12-12T16:21:19.836Z</time>
      </trkpt>
      <trkpt lat="48.08341" lon="-2.98365">
        <ele>93.275353</ele>
        <time>2022-12-12T16:21:22.837Z</time>
      </trkpt>
      <trkpt lat="48.0833" lon="-2.98363">
        <ele>92.73961</ele>
        <time>2022-12-12T16:21:25.836Z</time>
      </trkpt>
      <trkpt lat="48.0832" lon="-2.98364">
        <ele>92.266599</ele>
        <time>2022-12-12T16:21:28.861Z</time>
      </trkpt>
      <trkpt lat="48.08307" lon="-2.98365">
        <ele>91.641328</ele>
        <time>2022-12-12T16:21:31.835Z</time>
      </trkpt>
      <trkpt lat="48.08296" lon="-2.98365">
        <ele>91.088029</ele>
        <time>2022-12-12T16:21:34.859Z</time>
      </trkpt>
      <trkpt lat="48.08284" lon="-2.98365">
        <ele>90.53925</ele>
        <time>2022-12-12T16:21:37.857Z</time>
      </trkpt>
      <trkpt lat="48.08271" lon="-2.98366">
        <ele>90.138206</ele>
        <time>2022-12-12T16:21:40.857Z</time>
      </trkpt>
      <trkpt lat="48.08261" lon="-2.98367">
        <ele>90.341501</ele>
        <time>2022-12-12T16:21:42.859Z</time>
      </trkpt>
      <trkpt lat="48.08249" lon="-2.98368">
        <ele>90.607666</ele>
        <time>2022-12-12T16:21:45.858Z</time>
      </trkpt>
      <trkpt lat="48.08237" lon="-2.98369">
        <ele>90.854775</ele>
        <time>2022-12-12T16:21:48.859Z</time>
      </trkpt>
      <trkpt lat="48.08225" lon="-2.9837">
        <ele>91.132166</ele>
        <time>2022-12-12T16:21:51.858Z</time>
      </trkpt>
      <trkpt lat="48.08213" lon="-2.98371">
        <ele>91.391565</ele>
        <time>2022-12-12T16:21:54.855Z</time>
      </trkpt>
      <trkpt lat="48.08204" lon="-2.98371">
        <ele>91.588248</ele>
        <time>2022-12-12T16:21:56.860Z</time>
      </trkpt>
      <trkpt lat="48.08192" lon="-2.98371">
        <ele>91.845778</ele>
        <time>2022-12-12T16:21:59.859Z</time>
      </trkpt>
      <trkpt lat="48.08179" lon="-2.98374">
        <ele>92.12194</ele>
        <time>2022-12-12T16:22:02.853Z</time>
      </trkpt>
      <trkpt lat="48.08167" lon="-2.98375">
        <ele>92.384614</ele>
        <time>2022-12-12T16:22:05.856Z</time>
      </trkpt>
      <trkpt lat="48.08154" lon="-2.98379">
        <ele>92.673865</ele>
        <time>2022-12-12T16:22:08.862Z</time>
      </trkpt>
      <trkpt lat="48.08144" lon="-2.98381">
        <ele>92.874796</ele>
        <time>2022-12-12T16:22:10.842Z</time>
      </trkpt>
      <trkpt lat="48.08132" lon="-2.98384">
        <ele>93.149921</ele>
        <time>2022-12-12T16:22:13.840Z</time>
      </trkpt>
      <trkpt lat="48.08122" lon="-2.98387">
        <ele>93.379698</ele>
        <time>2022-12-12T16:22:15.856Z</time>
      </trkpt>
      <trkpt lat="48.08109" lon="-2.9839">
        <ele>93.651901</ele>
        <time>2022-12-12T16:22:18.861Z</time>
      </trkpt>
      <trkpt lat="48.08098" lon="-2.98393">
        <ele>93.901308</ele>
        <time>2022-12-12T16:22:21.858Z</time>
      </trkpt>
      <trkpt lat="48.08086" lon="-2.98394">
        <ele>94.064997</ele>
        <time>2022-12-12T16:22:24.860Z</time>
      </trkpt>
      <trkpt lat="48.08076" lon="-2.98395">
        <ele>94.185057</ele>
        <time>2022-12-12T16:22:26.857Z</time>
      </trkpt>
      <trkpt lat="48.08064" lon="-2.98396">
        <ele>94.340347</ele>
        <time>2022-12-12T16:22:29.859Z</time>
      </trkpt>
      <trkpt lat="48.08051" lon="-2.98398">
        <ele>94.489067</ele>
        <time>2022-12-12T16:22:32.856Z</time>
      </trkpt>
      <trkpt lat="48.08042" lon="-2.98399">
        <ele>94.600539</ele>
        <time>2022-12-12T16:22:34.859Z</time>
      </trkpt>
      <trkpt lat="48.0803" lon="-2.98401">
        <ele>94.749448</ele>
        <time>2022-12-12T16:22:37.861Z</time>
      </trkpt>
      <trkpt lat="48.08019" lon="-2.98403">
        <ele>94.892776</ele>
        <time>2022-12-12T16:22:40.860Z</time>
      </trkpt>
      <trkpt lat="48.08009" lon="-2.98403">
        <ele>95.007686</ele>
        <time>2022-12-12T16:22:42.859Z</time>
      </trkpt>
      <trkpt lat="48.07995" lon="-2.98405">
        <ele>95.179577</ele>
        <time>2022-12-12T16:22:45.860Z</time>
      </trkpt>
      <trkpt lat="48.07981" lon="-2.98409">
        <ele>95.350436</ele>
        <time>2022-12-12T16:22:48.859Z</time>
      </trkpt>
      <trkpt lat="48.07969" lon="-2.98412">
        <ele>95.504593</ele>
        <time>2022-12-12T16:22:51.856Z</time>
      </trkpt>
      <trkpt lat="48.07958" lon="-2.98416">
        <ele>95.639732</ele>
        <time>2022-12-12T16:22:54.861Z</time>
      </trkpt>
      <trkpt lat="48.07947" lon="-2.98421">
        <ele>95.78711</ele>
        <time>2022-12-12T16:22:57.858Z</time>
      </trkpt>
      <trkpt lat="48.07937" lon="-2.98424">
        <ele>95.904361</ele>
        <time>2022-12-12T16:22:59.859Z</time>
      </trkpt>
      <trkpt lat="48.07928" lon="-2.98427">
        <ele>96.01603</ele>
        <time>2022-12-12T16:23:01.839Z</time>
      </trkpt>
      <trkpt lat="48.07919" lon="-2.98431">
        <ele>96.131231</ele>
        <time>2022-12-12T16:23:03.855Z</time>
      </trkpt>
      <trkpt lat="48.0791" lon="-2.98436">
        <ele>96.04192</ele>
        <time>2022-12-12T16:23:05.830Z</time>
      </trkpt>
      <trkpt lat="48.07899" lon="-2.98442">
        <ele>95.888963</ele>
        <time>2022-12-12T16:23:08.864Z</time>
      </trkpt>
      <trkpt lat="48.07886" lon="-2.98447">
        <ele>95.725419</ele>
        <time>2022-12-12T16:23:11.863Z</time>
      </trkpt>
      <trkpt lat="48.07874" lon="-2.98452">
        <ele>95.567427</ele>
        <time>2022-12-12T16:23:14.856Z</time>
      </trkpt>
      <trkpt lat="48.07862" lon="-2.98457">
        <ele>95.415059</ele>
        <time>2022-12-12T16:23:17.858Z</time>
      </trkpt>
      <trkpt lat="48.07853" lon="-2.98462">
        <ele>95.292007</ele>
        <time>2022-12-12T16:23:19.858Z</time>
      </trkpt>
      <trkpt lat="48.07841" lon="-2.98468">
        <ele>95.129449</ele>
        <time>2022-12-12T16:23:22.839Z</time>
      </trkpt>
      <trkpt lat="48.07829" lon="-2.98474">
        <ele>94.971507</ele>
        <time>2022-12-12T16:23:25.841Z</time>
      </trkpt>
      <trkpt lat="48.0782" lon="-2.9848">
        <ele>94.853191</ele>
        <time>2022-12-12T16:23:27.858Z</time>
      </trkpt>
      <trkpt lat="48.07808" lon="-2.98488">
        <ele>94.685528</ele>
        <time>2022-12-12T16:23:30.854Z</time>
      </trkpt>
      <trkpt lat="48.07796" lon="-2.98494">
        <ele>94.524842</ele>
        <time>2022-12-12T16:23:33.855Z</time>
      </trkpt>
      <trkpt lat="48.07785" lon="-2.985">
        <ele>94.376884</ele>
        <time>2022-12-12T16:23:36.861Z</time>
      </trkpt>
      <trkpt lat="48.07775" lon="-2.98502">
        <ele>94.254125</ele>
        <time>2022-12-12T16:23:39.855Z</time>
      </trkpt>
      <trkpt lat="48.07764" lon="-2.98505">
        <ele>94.11738</ele>
        <time>2022-12-12T16:23:43.848Z</time>
      </trkpt>
      <trkpt lat="48.07754" lon="-2.98506">
        <ele>93.988961</ele>
        <time>2022-12-12T16:23:46.856Z</time>
      </trkpt>
      <trkpt lat="48.07743" lon="-2.98507">
        <ele>93.897558</ele>
        <time>2022-12-12T16:23:50.859Z</time>
      </trkpt>
      <trkpt lat="48.07732" lon="-2.98507">
        <ele>93.905795</ele>
        <time>2022-12-12T16:23:53.855Z</time>
      </trkpt>
      <trkpt lat="48.0772" lon="-2.98506">
        <ele>93.914478</ele>
        <time>2022-12-12T16:23:56.862Z</time>
      </trkpt>
      <trkpt lat="48.07708" lon="-2.98501">
        <ele>93.923878</ele>
        <time>2022-12-12T16:23:59.856Z</time>
      </trkpt>
      <trkpt lat="48.07696" lon="-2.98493">
        <ele>93.932715</ele>
        <time>2022-12-12T16:24:02.861Z</time>
      </trkpt>
      <trkpt lat="48.07686" lon="-2.98486">
        <ele>93.941394</ele>
        <time>2022-12-12T16:24:05.861Z</time>
      </trkpt>
      <trkpt lat="48.07677" lon="-2.98477">
        <ele>93.949151</ele>
        <time>2022-12-12T16:24:08.861Z</time>
      </trkpt>
      <trkpt lat="48.07668" lon="-2.98466">
        <ele>93.957508</ele>
        <time>2022-12-12T16:24:11.846Z</time>
      </trkpt>
      <trkpt lat="48.07659" lon="-2.98454">
        <ele>93.965992</ele>
        <time>2022-12-12T16:24:14.858Z</time>
      </trkpt>
      <trkpt lat="48.0765" lon="-2.98443">
        <ele>93.974792</ele>
        <time>2022-12-12T16:24:17.858Z</time>
      </trkpt>
      <trkpt lat="48.07642" lon="-2.98433">
        <ele>93.98279</ele>
        <time>2022-12-12T16:24:20.863Z</time>
      </trkpt>
      <trkpt lat="48.07634" lon="-2.98421">
        <ele>93.990789</ele>
        <time>2022-12-12T16:24:23.864Z</time>
      </trkpt>
      <trkpt lat="48.07627" lon="-2.98409">
        <ele>93.998511</ele>
        <time>2022-12-12T16:24:26.859Z</time>
      </trkpt>
      <trkpt lat="48.07619" lon="-2.98398">
        <ele>94.006222</ele>
        <time>2022-12-12T16:24:29.855Z</time>
      </trkpt>
      <trkpt lat="48.07613" lon="-2.98387">
        <ele>94.013239</ele>
        <time>2022-12-12T16:24:32.860Z</time>
      </trkpt>
      <trkpt lat="48.07605" lon="-2.98373">
        <ele>94.022313</ele>
        <time>2022-12-12T16:24:35.861Z</time>
      </trkpt>
      <trkpt lat="48.07599" lon="-2.98361">
        <ele>94.15395</ele>
        <time>2022-12-12T16:24:37.840Z</time>
      </trkpt>
      <trkpt lat="48.07592" lon="-2.98345">
        <ele>94.525287</ele>
        <time>2022-12-12T16:24:40.859Z</time>
      </trkpt>
      <trkpt lat="48.07587" lon="-2.98334">
        <ele>94.790212</ele>
        <time>2022-12-12T16:24:42.861Z</time>
      </trkpt>
      <trkpt lat="48.07582" lon="-2.9832">
        <ele>95.085107</ele>
        <time>2022-12-12T16:24:44.859Z</time>
      </trkpt>
      <trkpt lat="48.07577" lon="-2.98307">
        <ele>95.375525</ele>
        <time>2022-12-12T16:24:46.860Z</time>
      </trkpt>
      <trkpt lat="48.07573" lon="-2.98295">
        <ele>95.643344</ele>
        <time>2022-12-12T16:24:48.855Z</time>
      </trkpt>
      <trkpt lat="48.07568" lon="-2.98282">
        <ele>95.938914</ele>
        <time>2022-12-12T16:24:50.857Z</time>
      </trkpt>
      <trkpt lat="48.07563" lon="-2.98264">
        <ele>96.321706</ele>
        <time>2022-12-12T16:24:53.861Z</time>
      </trkpt>
      <trkpt lat="48.07558" lon="-2.98248">
        <ele>96.650437</ele>
        <time>2022-12-12T16:24:56.861Z</time>
      </trkpt>
      <trkpt lat="48.07554" lon="-2.98234">
        <ele>96.957347</ele>
        <time>2022-12-12T16:24:59.856Z</time>
      </trkpt>
      <trkpt lat="48.07549" lon="-2.98219">
        <ele>97.280789</ele>
        <time>2022-12-12T16:25:02.865Z</time>
      </trkpt>
      <trkpt lat="48.07546" lon="-2.98206">
        <ele>97.549694</ele>
        <time>2022-12-12T16:25:05.859Z</time>
      </trkpt>
      <trkpt lat="48.07542" lon="-2.98187">
        <ele>97.936431</ele>
        <time>2022-12-12T16:25:08.863Z</time>
      </trkpt>
      <trkpt lat="48.0754" lon="-2.98172">
        <ele>98.238592</ele>
        <time>2022-12-12T16:25:11.859Z</time>
      </trkpt>
      <trkpt lat="48.07541" lon="-2.98156">
        <ele>98.541911</ele>
        <time>2022-12-12T16:25:14.854Z</time>
      </trkpt>
      <trkpt lat="48.07541" lon="-2.98137">
        <ele>98.910871</ele>
        <time>2022-12-12T16:25:17.860Z</time>
      </trkpt>
      <trkpt lat="48.07543" lon="-2.98119">
        <ele>99.250992</ele>
        <time>2022-12-12T16:25:20.861Z</time>
      </trkpt>
      <trkpt lat="48.07541" lon="-2.98104">
        <ele>99.199737</ele>
        <time>2022-12-12T16:25:22.860Z</time>
      </trkpt>
      <trkpt lat="48.07542" lon="-2.98087">
        <ele>99.137311</ele>
        <time>2022-12-12T16:25:25.854Z</time>
      </trkpt>
      <trkpt lat="48.07542" lon="-2.98068">
        <ele>99.071438</ele>
        <time>2022-12-12T16:25:28.869Z</time>
      </trkpt>
      <trkpt lat="48.07543" lon="-2.9805">
        <ele>99.009101</ele>
        <time>2022-12-12T16:25:31.858Z</time>
      </trkpt>
      <trkpt lat="48.07546" lon="-2.9803">
        <ele>98.940622</ele>
        <time>2022-12-12T16:25:34.853Z</time>
      </trkpt>
      <trkpt lat="48.07546" lon="-2.98016">
        <ele>98.890621</ele>
        <time>2022-12-12T16:25:36.856Z</time>
      </trkpt>
      <trkpt lat="48.07547" lon="-2.98">
        <ele>98.832545</ele>
        <time>2022-12-12T16:25:39.857Z</time>
      </trkpt>
      <trkpt lat="48.07549" lon="-2.97985">
        <ele>98.78022</ele>
        <time>2022-12-12T16:25:42.856Z</time>
      </trkpt>
      <trkpt lat="48.0755" lon="-2.97968">
        <ele>98.72192</ele>
        <time>2022-12-12T16:25:45.848Z</time>
      </trkpt>
      <trkpt lat="48.07553" lon="-2.97952">
        <ele>98.662511</ele>
        <time>2022-12-12T16:25:48.861Z</time>
      </trkpt>
      <trkpt lat="48.07555" lon="-2.97934">
        <ele>98.599779</ele>
        <time>2022-12-12T16:25:51.858Z</time>
      </trkpt>
      <trkpt lat="48.07557" lon="-2.97915">
        <ele>98.531805</ele>
        <time>2022-12-12T16:25:54.859Z</time>
      </trkpt>
      <trkpt lat="48.07558" lon="-2.97895">
        <ele>98.463761</ele>
        <time>2022-12-12T16:25:57.859Z</time>
      </trkpt>
      <trkpt lat="48.07562" lon="-2.97879">
        <ele>98.403608</ele>
        <time>2022-12-12T16:26:00.859Z</time>
      </trkpt>
      <trkpt lat="48.07565" lon="-2.97862">
        <ele>98.343444</ele>
        <time>2022-12-12T16:26:03.861Z</time>
      </trkpt>
      <trkpt lat="48.07568" lon="-2.97845">
        <ele>98.376067</ele>
        <time>2022-12-12T16:26:06.858Z</time>
      </trkpt>
      <trkpt lat="48.07569" lon="-2.97831">
        <ele>98.46142</ele>
        <time>2022-12-12T16:26:08.845Z</time>
      </trkpt>
      <trkpt lat="48.07571" lon="-2.97816">
        <ele>98.555053</ele>
        <time>2022-12-12T16:26:10.965Z</time>
      </trkpt>
      <trkpt lat="48.07572" lon="-2.97801">
        <ele>98.643983</ele>
        <time>2022-12-12T16:26:12.844Z</time>
      </trkpt>
      <trkpt lat="48.07573" lon="-2.97787">
        <ele>98.729886</ele>
        <time>2022-12-12T16:26:14.839Z</time>
      </trkpt>
      <trkpt lat="48.07575" lon="-2.97768">
        <ele>98.846042</ele>
        <time>2022-12-12T16:26:17.841Z</time>
      </trkpt>
      <trkpt lat="48.07577" lon="-2.97754">
        <ele>98.937052</ele>
        <time>2022-12-12T16:26:20.858Z</time>
      </trkpt>
      <trkpt lat="48.07578" lon="-2.97736">
        <ele>99.045468</ele>
        <time>2022-12-12T16:26:23.859Z</time>
      </trkpt>
      <trkpt lat="48.07581" lon="-2.97716">
        <ele>99.167803</ele>
        <time>2022-12-12T16:26:26.854Z</time>
      </trkpt>
      <trkpt lat="48.07584" lon="-2.97697">
        <ele>99.287758</ele>
        <time>2022-12-12T16:26:29.839Z</time>
      </trkpt>
      <trkpt lat="48.07585" lon="-2.97683">
        <ele>99.3774</ele>
        <time>2022-12-12T16:26:31.858Z</time>
      </trkpt>
      <trkpt lat="48.07588" lon="-2.97669">
        <ele>99.460423</ele>
        <time>2022-12-12T16:26:33.858Z</time>
      </trkpt>
      <trkpt lat="48.07592" lon="-2.9765">
        <ele>99.582401</ele>
        <time>2022-12-12T16:26:36.859Z</time>
      </trkpt>
      <trkpt lat="48.07595" lon="-2.97636">
        <ele>99.6717</ele>
        <time>2022-12-12T16:26:38.859Z</time>
      </trkpt>
      <trkpt lat="48.07598" lon="-2.97623">
        <ele>99.755516</ele>
        <time>2022-12-12T16:26:40.859Z</time>
      </trkpt>
      <trkpt lat="48.07601" lon="-2.9761">
        <ele>99.841074</ele>
        <time>2022-12-12T16:26:42.859Z</time>
      </trkpt>
      <trkpt lat="48.07604" lon="-2.97597">
        <ele>99.924449</ele>
        <time>2022-12-12T16:26:44.859Z</time>
      </trkpt>
      <trkpt lat="48.0761" lon="-2.97579">
        <ele>99.864053</ele>
        <time>2022-12-12T16:26:47.855Z</time>
      </trkpt>
      <trkpt lat="48.07616" lon="-2.97563">
        <ele>99.747485</ele>
        <time>2022-12-12T16:26:50.859Z</time>
      </trkpt>
      <trkpt lat="48.07622" lon="-2.97548">
        <ele>99.641817</ele>
        <time>2022-12-12T16:26:53.855Z</time>
      </trkpt>
      <trkpt lat="48.07627" lon="-2.97534">
        <ele>99.545366</ele>
        <time>2022-12-12T16:26:56.863Z</time>
      </trkpt>
      <trkpt lat="48.07633" lon="-2.9752">
        <ele>99.442051</ele>
        <time>2022-12-12T16:26:59.859Z</time>
      </trkpt>
      <trkpt lat="48.0764" lon="-2.97505">
        <ele>99.334852</ele>
        <time>2022-12-12T16:27:02.860Z</time>
      </trkpt>
      <trkpt lat="48.07645" lon="-2.97488">
        <ele>99.221645</ele>
        <time>2022-12-12T16:27:05.859Z</time>
      </trkpt>
      <trkpt lat="48.0765" lon="-2.97472">
        <ele>99.111837</ele>
        <time>2022-12-12T16:27:08.862Z</time>
      </trkpt>
      <trkpt lat="48.07654" lon="-2.97455">
        <ele>99.005173</ele>
        <time>2022-12-12T16:27:11.845Z</time>
      </trkpt>
      <trkpt lat="48.07657" lon="-2.97439">
        <ele>98.902463</ele>
        <time>2022-12-12T16:27:14.857Z</time>
      </trkpt>
      <trkpt lat="48.07658" lon="-2.97421">
        <ele>98.78958</ele>
        <time>2022-12-12T16:27:17.856Z</time>
      </trkpt>
      <trkpt lat="48.07659" lon="-2.97402">
        <ele>98.672216</ele>
        <time>2022-12-12T16:27:20.859Z</time>
      </trkpt>
      <trkpt lat="48.0766" lon="-2.97385">
        <ele>98.570991</ele>
        <time>2022-12-12T16:27:23.858Z</time>
      </trkpt>
      <trkpt lat="48.0766" lon="-2.97368">
        <ele>98.468348</ele>
        <time>2022-12-12T16:27:26.858Z</time>
      </trkpt>
      <trkpt lat="48.07659" lon="-2.97353">
        <ele>98.375408</ele>
        <time>2022-12-12T16:27:29.862Z</time>
      </trkpt>
      <trkpt lat="48.07659" lon="-2.97337">
        <ele>98.308711</ele>
        <time>2022-12-12T16:27:33.864Z</time>
      </trkpt>
      <trkpt lat="48.07658" lon="-2.97323">
        <ele>98.30342</ele>
        <time>2022-12-12T16:27:36.839Z</time>
      </trkpt>
      <trkpt lat="48.07658" lon="-2.97308">
        <ele>98.297639</ele>
        <time>2022-12-12T16:27:39.859Z</time>
      </trkpt>
      <trkpt lat="48.07657" lon="-2.97291">
        <ele>98.291318</ele>
        <time>2022-12-12T16:27:42.858Z</time>
      </trkpt>
      <trkpt lat="48.07655" lon="-2.97274">
        <ele>98.28476</ele>
        <time>2022-12-12T16:27:45.861Z</time>
      </trkpt>
      <trkpt lat="48.07651" lon="-2.97256">
        <ele>98.277562</ele>
        <time>2022-12-12T16:27:48.864Z</time>
      </trkpt>
      <trkpt lat="48.07649" lon="-2.9724">
        <ele>98.27133</ele>
        <time>2022-12-12T16:27:51.846Z</time>
      </trkpt>
      <trkpt lat="48.07645" lon="-2.97222">
        <ele>98.26436</ele>
        <time>2022-12-12T16:27:54.839Z</time>
      </trkpt>
      <trkpt lat="48.07641" lon="-2.97204">
        <ele>98.25705</ele>
        <time>2022-12-12T16:27:57.858Z</time>
      </trkpt>
      <trkpt lat="48.07637" lon="-2.97185">
        <ele>98.249704</ele>
        <time>2022-12-12T16:28:00.860Z</time>
      </trkpt>
      <trkpt lat="48.07632" lon="-2.97167">
        <ele>98.242065</ele>
        <time>2022-12-12T16:28:03.857Z</time>
      </trkpt>
      <trkpt lat="48.07628" lon="-2.97154">
        <ele>98.23691</ele>
        <time>2022-12-12T16:28:05.834Z</time>
      </trkpt>
      <trkpt lat="48.07624" lon="-2.97141">
        <ele>98.231629</ele>
        <time>2022-12-12T16:28:07.861Z</time>
      </trkpt>
      <trkpt lat="48.07619" lon="-2.97126">
        <ele>98.225136</ele>
        <time>2022-12-12T16:28:10.855Z</time>
      </trkpt>
      <trkpt lat="48.07615" lon="-2.97109">
        <ele>98.218471</ele>
        <time>2022-12-12T16:28:14.849Z</time>
      </trkpt>
      <trkpt lat="48.0761" lon="-2.97096">
        <ele>98.212607</ele>
        <time>2022-12-12T16:28:17.846Z</time>
      </trkpt>
      <trkpt lat="48.07605" lon="-2.97082">
        <ele>98.255332</ele>
        <time>2022-12-12T16:28:20.862Z</time>
      </trkpt>
      <trkpt lat="48.07599" lon="-2.97065">
        <ele>98.38224</ele>
        <time>2022-12-12T16:28:23.852Z</time>
      </trkpt>
      <trkpt lat="48.07593" lon="-2.97051">
        <ele>98.4958</ele>
        <time>2022-12-12T16:28:26.860Z</time>
      </trkpt>
      <trkpt lat="48.07587" lon="-2.97035">
        <ele>98.618615</ele>
        <time>2022-12-12T16:28:29.841Z</time>
      </trkpt>
      <trkpt lat="48.0758" lon="-2.97019">
        <ele>98.738395</ele>
        <time>2022-12-12T16:28:32.859Z</time>
      </trkpt>
      <trkpt lat="48.07575" lon="-2.97006">
        <ele>98.841982</ele>
        <time>2022-12-12T16:28:35.860Z</time>
      </trkpt>
      <trkpt lat="48.0757" lon="-2.96993">
        <ele>98.940707</ele>
        <time>2022-12-12T16:28:38.859Z</time>
      </trkpt>
      <trkpt lat="48.07564" lon="-2.96983">
        <ele>99.031256</ele>
        <time>2022-12-12T16:28:41.842Z</time>
      </trkpt>
      <trkpt lat="48.07557" lon="-2.96973">
        <ele>99.127525</ele>
        <time>2022-12-12T16:28:44.857Z</time>
      </trkpt>
      <trkpt lat="48.07549" lon="-2.96964">
        <ele>99.228218</ele>
        <time>2022-12-12T16:28:47.859Z</time>
      </trkpt>
      <trkpt lat="48.0754" lon="-2.96953">
        <ele>99.348366</ele>
        <time>2022-12-12T16:28:50.863Z</time>
      </trkpt>
      <trkpt lat="48.0753" lon="-2.96943">
        <ele>99.464989</ele>
        <time>2022-12-12T16:28:53.862Z</time>
      </trkpt>
      <trkpt lat="48.07519" lon="-2.96934">
        <ele>99.588699</ele>
        <time>2022-12-12T16:28:56.862Z</time>
      </trkpt>
      <trkpt lat="48.07508" lon="-2.96924">
        <ele>99.713946</ele>
        <time>2022-12-12T16:28:59.858Z</time>
      </trkpt>
      <trkpt lat="48.07498" lon="-2.96915">
        <ele>99.833545</ele>
        <time>2022-12-12T16:29:02.859Z</time>
      </trkpt>
      <trkpt lat="48.07488" lon="-2.96906">
        <ele>99.948756</ele>
        <time>2022-12-12T16:29:05.862Z</time>
      </trkpt>
      <trkpt lat="48.07479" lon="-2.96898">
        <ele>99.939846</ele>
        <time>2022-12-12T16:29:08.867Z</time>
      </trkpt>
      <trkpt lat="48.07469" lon="-2.9689">
        <ele>99.809176</ele>
        <time>2022-12-12T16:29:11.860Z</time>
      </trkpt>
      <trkpt lat="48.07459" lon="-2.96884">
        <ele>99.686002</ele>
        <time>2022-12-12T16:29:14.860Z</time>
      </trkpt>
      <trkpt lat="48.07451" lon="-2.96876">
        <ele>99.574213</ele>
        <time>2022-12-12T16:29:16.862Z</time>
      </trkpt>
      <trkpt lat="48.0744" lon="-2.96868">
        <ele>99.430171</ele>
        <time>2022-12-12T16:29:19.859Z</time>
      </trkpt>
      <trkpt lat="48.07428" lon="-2.96861">
        <ele>99.286299</ele>
        <time>2022-12-12T16:29:22.861Z</time>
      </trkpt>
      <trkpt lat="48.07417" lon="-2.96853">
        <ele>99.141738</ele>
        <time>2022-12-12T16:29:25.860Z</time>
      </trkpt>
      <trkpt lat="48.07406" lon="-2.96847">
        <ele>99.011664</ele>
        <time>2022-12-12T16:29:28.878Z</time>
      </trkpt>
      <trkpt lat="48.07396" lon="-2.96842">
        <ele>98.886972</ele>
        <time>2022-12-12T16:29:31.861Z</time>
      </trkpt>
      <trkpt lat="48.07386" lon="-2.96837">
        <ele>98.763371</ele>
        <time>2022-12-12T16:29:34.855Z</time>
      </trkpt>
      <trkpt lat="48.07376" lon="-2.96833">
        <ele>98.643646</ele>
        <time>2022-12-12T16:29:37.861Z</time>
      </trkpt>
      <trkpt lat="48.07365" lon="-2.96829">
        <ele>98.514781</ele>
        <time>2022-12-12T16:29:40.860Z</time>
      </trkpt>
      <trkpt lat="48.07354" lon="-2.96823">
        <ele>98.38522</ele>
        <time>2022-12-12T16:29:43.841Z</time>
      </trkpt>
      <trkpt lat="48.07343" lon="-2.96817">
        <ele>98.24943</ele>
        <time>2022-12-12T16:29:46.858Z</time>
      </trkpt>
      <trkpt lat="48.07333" lon="-2.9681">
        <ele>98.123214</ele>
        <time>2022-12-12T16:29:49.862Z</time>
      </trkpt>
      <trkpt lat="48.07325" lon="-2.96802">
        <ele>98.006115</ele>
        <time>2022-12-12T16:29:52.859Z</time>
      </trkpt>
      <trkpt lat="48.07315" lon="-2.96793">
        <ele>97.947449</ele>
        <time>2022-12-12T16:29:56.860Z</time>
      </trkpt>
      <trkpt lat="48.07308" lon="-2.96785">
        <ele>97.991385</ele>
        <time>2022-12-12T16:29:59.862Z</time>
      </trkpt>
      <trkpt lat="48.073" lon="-2.96777">
        <ele>98.036645</ele>
        <time>2022-12-12T16:30:02.858Z</time>
      </trkpt>
      <trkpt lat="48.07291" lon="-2.96764">
        <ele>98.095305</ele>
        <time>2022-12-12T16:30:06.861Z</time>
      </trkpt>
      <trkpt lat="48.07284" lon="-2.96755">
        <ele>98.140337</ele>
        <time>2022-12-12T16:30:09.857Z</time>
      </trkpt>
      <trkpt lat="48.07276" lon="-2.96742">
        <ele>98.197809</ele>
        <time>2022-12-12T16:30:13.862Z</time>
      </trkpt>
      <trkpt lat="48.0727" lon="-2.96729">
        <ele>98.248033</ele>
        <time>2022-12-12T16:30:17.860Z</time>
      </trkpt>
      <trkpt lat="48.07263" lon="-2.96717">
        <ele>98.301939</ele>
        <time>2022-12-12T16:30:21.840Z</time>
      </trkpt>
      <trkpt lat="48.07256" lon="-2.96704">
        <ele>98.354678</ele>
        <time>2022-12-12T16:30:25.862Z</time>
      </trkpt>
      <trkpt lat="48.07251" lon="-2.96692">
        <ele>98.399236</ele>
        <time>2022-12-12T16:30:28.865Z</time>
      </trkpt>
      <trkpt lat="48.07245" lon="-2.96682">
        <ele>98.442618</ele>
        <time>2022-12-12T16:30:32.857Z</time>
      </trkpt>
      <trkpt lat="48.07236" lon="-2.96684">
        <ele>98.488765</ele>
        <time>2022-12-12T16:30:49.843Z</time>
      </trkpt>
      <trkpt lat="48.07225" lon="-2.96687">
        <ele>98.539466</ele>
        <time>2022-12-12T16:31:03.860Z</time>
      </trkpt>
      <trkpt lat="48.07219" lon="-2.96677">
        <ele>98.583997</ele>
        <time>2022-12-12T16:31:07.860Z</time>
      </trkpt>
      <trkpt lat="48.07215" lon="-2.96664">
        <ele>98.628443</ele>
        <time>2022-12-12T16:31:10.838Z</time>
      </trkpt>
      <trkpt lat="48.0721" lon="-2.9665">
        <ele>98.680902</ele>
        <time>2022-12-12T16:31:13.866Z</time>
      </trkpt>
      <trkpt lat="48.07205" lon="-2.96637">
        <ele>98.730025</ele>
        <time>2022-12-12T16:31:16.861Z</time>
      </trkpt>
      <trkpt lat="48.07198" lon="-2.96625">
        <ele>98.779585</ele>
        <time>2022-12-12T16:31:19.860Z</time>
      </trkpt>
      <trkpt lat="48.07191" lon="-2.96613">
        <ele>98.751953</ele>
        <time>2022-12-12T16:31:22.874Z</time>
      </trkpt>
      <trkpt lat="48.07182" lon="-2.96604">
        <ele>98.696893</ele>
        <time>2022-12-12T16:31:25.859Z</time>
      </trkpt>
      <trkpt lat="48.07172" lon="-2.96596">
        <ele>98.637701</ele>
        <time>2022-12-12T16:31:29.857Z</time>
      </trkpt>
      <trkpt lat="48.07163" lon="-2.9659">
        <ele>98.586385</ele>
        <time>2022-12-12T16:31:32.858Z</time>
      </trkpt>
      <trkpt lat="48.07152" lon="-2.96589">
        <ele>98.530821</ele>
        <time>2022-12-12T16:31:36.860Z</time>
      </trkpt>
      <trkpt lat="48.07143" lon="-2.96587">
        <ele>98.480989</ele>
        <time>2022-12-12T16:31:40.862Z</time>
      </trkpt>
      <trkpt lat="48.07131" lon="-2.9659">
        <ele>98.420065</ele>
        <time>2022-12-12T16:31:44.864Z</time>
      </trkpt>
      <trkpt lat="48.07122" lon="-2.96592">
        <ele>98.370456</ele>
        <time>2022-12-12T16:31:47.874Z</time>
      </trkpt>
      <trkpt lat="48.07113" lon="-2.96596">
        <ele>98.321688</ele>
        <time>2022-12-12T16:31:50.861Z</time>
      </trkpt>
      <trkpt lat="48.07102" lon="-2.96602">
        <ele>98.262371</ele>
        <time>2022-12-12T16:31:54.861Z</time>
      </trkpt>
      <trkpt lat="48.07094" lon="-2.96608">
        <ele>98.212765</ele>
        <time>2022-12-12T16:31:57.863Z</time>
      </trkpt>
      <trkpt lat="48.07085" lon="-2.96613">
        <ele>98.163739</ele>
        <time>2022-12-12T16:32:00.860Z</time>
      </trkpt>
      <trkpt lat="48.07076" lon="-2.96619">
        <ele>98.113699</ele>
        <time>2022-12-12T16:32:03.860Z</time>
      </trkpt>
      <trkpt lat="48.07066" lon="-2.96626">
        <ele>98.05649</ele>
        <time>2022-12-12T16:32:07.862Z</time>
      </trkpt>
      <trkpt lat="48.07057" lon="-2.96636">
        <ele>97.998901</ele>
        <time>2022-12-12T16:32:12.860Z</time>
      </trkpt>
      <trkpt lat="48.07047" lon="-2.96642">
        <ele>97.941945</ele>
        <time>2022-12-12T16:32:18.863Z</time>
      </trkpt>
      <trkpt lat="48.07037" lon="-2.9664">
        <ele>97.889195</ele>
        <time>2022-12-12T16:32:23.859Z</time>
      </trkpt>
      <trkpt lat="48.07031" lon="-2.96626">
        <ele>97.81374</ele>
        <time>2022-12-12T16:32:29.862Z</time>
      </trkpt>
      <trkpt lat="48.07022" lon="-2.9662">
        <ele>97.721109</ele>
        <time>2022-12-12T16:32:49.859Z</time>
      </trkpt>
      <trkpt lat="48.07013" lon="-2.96627">
        <ele>97.631387</ele>
        <time>2022-12-12T16:32:55.839Z</time>
      </trkpt>
      <trkpt lat="48.07002" lon="-2.96635">
        <ele>97.527418</ele>
        <time>2022-12-12T16:33:00.847Z</time>
      </trkpt>
      <trkpt lat="48.06992" lon="-2.96642">
        <ele>97.425332</ele>
        <time>2022-12-12T16:33:04.859Z</time>
      </trkpt>
      <trkpt lat="48.06983" lon="-2.96647">
        <ele>97.340276</ele>
        <time>2022-12-12T16:33:07.862Z</time>
      </trkpt>
      <trkpt lat="48.06975" lon="-2.96654">
        <ele>97.25297</ele>
        <time>2022-12-12T16:33:10.863Z</time>
      </trkpt>
      <trkpt lat="48.06966" lon="-2.9666">
        <ele>97.162971</ele>
        <time>2022-12-12T16:33:13.860Z</time>
      </trkpt>
      <trkpt lat="48.06956" lon="-2.96667">
        <ele>97.068132</ele>
        <time>2022-12-12T16:33:16.863Z</time>
      </trkpt>
      <trkpt lat="48.06947" lon="-2.96674">
        <ele>96.976259</ele>
        <time>2022-12-12T16:33:19.860Z</time>
      </trkpt>
      <trkpt lat="48.06939" lon="-2.96681">
        <ele>96.894807</ele>
        <time>2022-12-12T16:33:22.859Z</time>
      </trkpt>
      <trkpt lat="48.0693" lon="-2.9669">
        <ele>96.796033</ele>
        <time>2022-12-12T16:33:27.860Z</time>
      </trkpt>
      <trkpt lat="48.06923" lon="-2.967">
        <ele>96.708662</ele>
        <time>2022-12-12T16:33:31.859Z</time>
      </trkpt>
      <trkpt lat="48.06917" lon="-2.96712">
        <ele>96.616844</ele>
        <time>2022-12-12T16:33:35.859Z</time>
      </trkpt>
      <trkpt lat="48.0691" lon="-2.96724">
        <ele>96.520837</ele>
        <time>2022-12-12T16:33:39.848Z</time>
      </trkpt>
      <trkpt lat="48.06903" lon="-2.96735">
        <ele>96.427931</ele>
        <time>2022-12-12T16:33:43.873Z</time>
      </trkpt>
      <trkpt lat="48.06896" lon="-2.96746">
        <ele>96.34151</ele>
        <time>2022-12-12T16:33:47.861Z</time>
      </trkpt>
      <trkpt lat="48.06889" lon="-2.96756">
        <ele>96.251588</ele>
        <time>2022-12-12T16:33:56.870Z</time>
      </trkpt>
      <trkpt lat="48.06887" lon="-2.96771">
        <ele>96.213588</ele>
        <time>2022-12-12T16:34:11.862Z</time>
      </trkpt>
      <trkpt lat="48.0688" lon="-2.96779">
        <ele>96.186576</ele>
        <time>2022-12-12T16:34:16.861Z</time>
      </trkpt>
      <trkpt lat="48.06872" lon="-2.96785">
        <ele>96.159649</ele>
        <time>2022-12-12T16:34:20.862Z</time>
      </trkpt>
      <trkpt lat="48.06864" lon="-2.96795">
        <ele>96.129508</ele>
        <time>2022-12-12T16:34:23.860Z</time>
      </trkpt>
      <trkpt lat="48.06857" lon="-2.96803">
        <ele>96.102368</ele>
        <time>2022-12-12T16:34:26.844Z</time>
      </trkpt>
      <trkpt lat="48.06848" lon="-2.96812">
        <ele>96.071089</ele>
        <time>2022-12-12T16:34:29.863Z</time>
      </trkpt>
      <trkpt lat="48.06837" lon="-2.9682">
        <ele>96.035247</ele>
        <time>2022-12-12T16:34:32.857Z</time>
      </trkpt>
      <trkpt lat="48.06825" lon="-2.96828">
        <ele>95.99616</ele>
        <time>2022-12-12T16:34:35.865Z</time>
      </trkpt>
      <trkpt lat="48.06817" lon="-2.96833">
        <ele>95.969297</ele>
        <time>2022-12-12T16:34:37.842Z</time>
      </trkpt>
      <trkpt lat="48.06804" lon="-2.9684">
        <ele>95.930145</ele>
        <time>2022-12-12T16:34:40.861Z</time>
      </trkpt>
      <trkpt lat="48.06795" lon="-2.96843">
        <ele>95.90294</ele>
        <time>2022-12-12T16:34:42.861Z</time>
      </trkpt>
      <trkpt lat="48.06783" lon="-2.96848">
        <ele>95.865232</ele>
        <time>2022-12-12T16:34:45.863Z</time>
      </trkpt>
      <trkpt lat="48.06773" lon="-2.96853">
        <ele>95.834716</ele>
        <time>2022-12-12T16:34:48.864Z</time>
      </trkpt>
      <trkpt lat="48.06763" lon="-2.96857">
        <ele>95.803413</ele>
        <time>2022-12-12T16:34:53.860Z</time>
      </trkpt>
      <trkpt lat="48.06752" lon="-2.96856">
        <ele>95.769655</ele>
        <time>2022-12-12T16:34:58.861Z</time>
      </trkpt>
      <trkpt lat="48.06741" lon="-2.96856">
        <ele>95.737987</ele>
        <time>2022-12-12T16:35:02.862Z</time>
      </trkpt>
      <trkpt lat="48.06732" lon="-2.96852">
        <ele>95.710881</ele>
        <time>2022-12-12T16:35:08.863Z</time>
      </trkpt>
      <trkpt lat="48.06724" lon="-2.96846">
        <ele>95.776403</ele>
        <time>2022-12-12T16:35:24.866Z</time>
      </trkpt>
      <trkpt lat="48.06713" lon="-2.96843">
        <ele>95.871254</ele>
        <time>2022-12-12T16:35:28.864Z</time>
      </trkpt>
      <trkpt lat="48.06704" lon="-2.96841">
        <ele>95.956311</ele>
        <time>2022-12-12T16:35:31.857Z</time>
      </trkpt>
      <trkpt lat="48.06694" lon="-2.9684">
        <ele>96.0484</ele>
        <time>2022-12-12T16:35:34.864Z</time>
      </trkpt>
      <trkpt lat="48.06684" lon="-2.96838">
        <ele>96.138256</ele>
        <time>2022-12-12T16:35:37.861Z</time>
      </trkpt>
      <trkpt lat="48.06675" lon="-2.96836">
        <ele>96.223211</ele>
        <time>2022-12-12T16:35:40.861Z</time>
      </trkpt>
      <trkpt lat="48.06665" lon="-2.96833">
        <ele>96.31648</ele>
        <time>2022-12-12T16:35:43.844Z</time>
      </trkpt>
      <trkpt lat="48.06655" lon="-2.9683">
        <ele>96.413515</ele>
        <time>2022-12-12T16:35:46.862Z</time>
      </trkpt>
      <trkpt lat="48.06644" lon="-2.96829">
        <ele>96.513157</ele>
        <time>2022-12-12T16:35:49.861Z</time>
      </trkpt>
      <trkpt lat="48.06633" lon="-2.96832">
        <ele>96.615107</ele>
        <time>2022-12-12T16:35:52.862Z</time>
      </trkpt>
      <trkpt lat="48.06622" lon="-2.96835">
        <ele>96.717056</ele>
        <time>2022-12-12T16:35:55.862Z</time>
      </trkpt>
      <trkpt lat="48.06611" lon="-2.96839">
        <ele>96.815011</ele>
        <time>2022-12-12T16:35:58.867Z</time>
      </trkpt>
      <trkpt lat="48.06602" lon="-2.96843">
        <ele>96.902816</ele>
        <time>2022-12-12T16:36:01.865Z</time>
      </trkpt>
      <trkpt lat="48.06591" lon="-2.96847">
        <ele>97.002093</ele>
        <time>2022-12-12T16:36:05.863Z</time>
      </trkpt>
      <trkpt lat="48.06581" lon="-2.96851">
        <ele>97.104169</ele>
        <time>2022-12-12T16:36:09.860Z</time>
      </trkpt>
      <trkpt lat="48.06571" lon="-2.96854">
        <ele>97.195659</ele>
        <time>2022-12-12T16:36:14.860Z</time>
      </trkpt>
      <trkpt lat="48.06561" lon="-2.96859">
        <ele>97.291498</ele>
        <time>2022-12-12T16:36:18.860Z</time>
      </trkpt>
      <trkpt lat="48.06549" lon="-2.96863">
        <ele>97.343553</ele>
        <time>2022-12-12T16:36:22.845Z</time>
      </trkpt>
      <trkpt lat="48.06539" lon="-2.96865">
        <ele>97.343553</ele>
        <time>2022-12-12T16:36:25.869Z</time>
      </trkpt>
      <trkpt lat="48.06526" lon="-2.9687">
        <ele>97.343553</ele>
        <time>2022-12-12T16:36:28.860Z</time>
      </trkpt>
      <trkpt lat="48.06514" lon="-2.96875">
        <ele>97.343553</ele>
        <time>2022-12-12T16:36:31.862Z</time>
      </trkpt>
      <trkpt lat="48.06505" lon="-2.96878">
        <ele>97.343553</ele>
        <time>2022-12-12T16:36:33.863Z</time>
      </trkpt>
      <trkpt lat="48.06495" lon="-2.96881">
        <ele>97.343553</ele>
        <time>2022-12-12T16:36:35.861Z</time>
      </trkpt>
      <trkpt lat="48.06483" lon="-2.96886">
        <ele>97.343553</ele>
        <time>2022-12-12T16:36:38.864Z</time>
      </trkpt>
      <trkpt lat="48.06474" lon="-2.96893">
        <ele>97.343553</ele>
        <time>2022-12-12T16:36:41.915Z</time>
      </trkpt>
      <trkpt lat="48.06464" lon="-2.96896">
        <ele>97.343553</ele>
        <time>2022-12-12T16:36:50.861Z</time>
      </trkpt>
      <trkpt lat="48.06457" lon="-2.96896">
        <ele>97.343553</ele>
        <time>2022-12-12T16:38:45.873Z</time>
        <extensions>
          <visugpx:TrkExtension xmlns:visugpx="https://www.visugpx.com/editgpx/">
            <visugpx:node>1</visugpx:node>
            </visugpx:TrkExtension>
        </extensions>
      </trkpt>
    </trkseg>
  </trk>
</gpx>